<?xml version="1.0" encoding="UTF-8" standalone="no" ?>
<gpx xmlns="http://www.topografix.com/GPX/1/1" xmlns:xsi="http://www.w3.org/2001/XMLSchema-instance" xsi:schemaLocation="http://www.topografix.com/GPX/1/1 http://www.topografix.com/GPX/1/1/gpx.xsd" version="1.1" creator="VisuGPX - https://www.visugpx.com">
  <metadata>
    <name>Châtillon/Sceaux</name>
    <desc><![CDATA[coulée verte parc de Sceaux à partir de Fontenay aux Roses]]></desc>
  </metadata>
  <trk>
    <name><![CDATA[Parc De Sceaux 10/11/2013]]></name>
    <desc><![CDATA[]]></desc>
    <trkseg>
      <trkpt lat="48.7978" lon="2.28302">
        <ele>163.8</ele>
        <time>2013-11-10T11:29:05.334Z</time>
      </trkpt>
      <trkpt lat="48.7978" lon="2.28302">
        <ele>237.9</ele>
        <time>2013-11-10T11:29:17.177Z</time>
      </trkpt>
      <trkpt lat="48.79797" lon="2.283">
        <ele>235.2</ele>
        <time>2013-11-10T11:29:18.093Z</time>
      </trkpt>
      <trkpt lat="48.79806" lon="2.28299">
        <ele>229</ele>
        <time>2013-11-10T11:29:20.093Z</time>
      </trkpt>
      <trkpt lat="48.79817" lon="2.283">
        <ele>226.5</ele>
        <time>2013-11-10T11:29:21.075Z</time>
      </trkpt>
      <trkpt lat="48.79822" lon="2.283">
        <ele>224.5</ele>
        <time>2013-11-10T11:29:22.236Z</time>
      </trkpt>
      <trkpt lat="48.79826" lon="2.283">
        <ele>220.3</ele>
        <time>2013-11-10T11:29:23.087Z</time>
      </trkpt>
      <trkpt lat="48.79824" lon="2.28301">
        <ele>194.9</ele>
        <time>2013-11-10T11:29:28.053Z</time>
      </trkpt>
      <trkpt lat="48.79823" lon="2.28301">
        <ele>190.9</ele>
        <time>2013-11-10T11:29:29.090Z</time>
      </trkpt>
      <trkpt lat="48.79823" lon="2.283">
        <ele>191.3</ele>
        <time>2013-11-10T11:29:30.087Z</time>
      </trkpt>
      <trkpt lat="48.79814" lon="2.28301">
        <ele>188.9</ele>
        <time>2013-11-10T11:29:39.093Z</time>
      </trkpt>
      <trkpt lat="48.79813" lon="2.28303">
        <ele>188.6</ele>
        <time>2013-11-10T11:29:40.093Z</time>
      </trkpt>
      <trkpt lat="48.79806" lon="2.28311">
        <ele>187</ele>
        <time>2013-11-10T11:29:44.082Z</time>
      </trkpt>
      <trkpt lat="48.79804" lon="2.28312">
        <ele>186.7</ele>
        <time>2013-11-10T11:29:45.067Z</time>
      </trkpt>
      <trkpt lat="48.79799" lon="2.28321">
        <ele>184.4</ele>
        <time>2013-11-10T11:29:50.096Z</time>
      </trkpt>
      <trkpt lat="48.79798" lon="2.28324">
        <ele>184.1</ele>
        <time>2013-11-10T11:29:51.098Z</time>
      </trkpt>
      <trkpt lat="48.79797" lon="2.28333">
        <ele>183.5</ele>
        <time>2013-11-10T11:29:53.099Z</time>
      </trkpt>
      <trkpt lat="48.79797" lon="2.28338">
        <ele>183.1</ele>
        <time>2013-11-10T11:29:54.095Z</time>
      </trkpt>
      <trkpt lat="48.79795" lon="2.2835">
        <ele>181.9</ele>
        <time>2013-11-10T11:29:59.068Z</time>
      </trkpt>
      <trkpt lat="48.79794" lon="2.28351">
        <ele>181.7</ele>
        <time>2013-11-10T11:30:00.073Z</time>
      </trkpt>
      <trkpt lat="48.79789" lon="2.2836">
        <ele>180.7</ele>
        <time>2013-11-10T11:30:07.066Z</time>
      </trkpt>
      <trkpt lat="48.79788" lon="2.28362">
        <ele>180.8</ele>
        <time>2013-11-10T11:30:08.052Z</time>
      </trkpt>
      <trkpt lat="48.79782" lon="2.28371">
        <ele>181</ele>
        <time>2013-11-10T11:30:13.051Z</time>
      </trkpt>
      <trkpt lat="48.79781" lon="2.28372">
        <ele>181.1</ele>
        <time>2013-11-10T11:30:14.053Z</time>
      </trkpt>
      <trkpt lat="48.79774" lon="2.28378">
        <ele>181.2</ele>
        <time>2013-11-10T11:30:20.035Z</time>
      </trkpt>
      <trkpt lat="48.79772" lon="2.28379">
        <ele>181.2</ele>
        <time>2013-11-10T11:30:21.053Z</time>
      </trkpt>
      <trkpt lat="48.79765" lon="2.28383">
        <ele>181</ele>
        <time>2013-11-10T11:30:26.950Z</time>
      </trkpt>
      <trkpt lat="48.79763" lon="2.28384">
        <ele>180.9</ele>
        <time>2013-11-10T11:30:27.035Z</time>
      </trkpt>
      <trkpt lat="48.79756" lon="2.28392">
        <ele>180.7</ele>
        <time>2013-11-10T11:30:34.043Z</time>
      </trkpt>
      <trkpt lat="48.79755" lon="2.28394">
        <ele>180.6</ele>
        <time>2013-11-10T11:30:35.028Z</time>
      </trkpt>
      <trkpt lat="48.79748" lon="2.28401">
        <ele>179.6</ele>
        <time>2013-11-10T11:30:41.996Z</time>
      </trkpt>
      <trkpt lat="48.79747" lon="2.28403">
        <ele>179.3</ele>
        <time>2013-11-10T11:30:42.046Z</time>
      </trkpt>
      <trkpt lat="48.79744" lon="2.28414">
        <ele>177.5</ele>
        <time>2013-11-10T11:30:52.059Z</time>
      </trkpt>
      <trkpt lat="48.79743" lon="2.28416">
        <ele>177.5</ele>
        <time>2013-11-10T11:30:53.034Z</time>
      </trkpt>
      <trkpt lat="48.7974" lon="2.28428">
        <ele>176.9</ele>
        <time>2013-11-10T11:30:58.045Z</time>
      </trkpt>
      <trkpt lat="48.79739" lon="2.2843">
        <ele>176.8</ele>
        <time>2013-11-10T11:30:59.057Z</time>
      </trkpt>
      <trkpt lat="48.79735" lon="2.28442">
        <ele>177.1</ele>
        <time>2013-11-10T11:31:04.035Z</time>
      </trkpt>
      <trkpt lat="48.79734" lon="2.28444">
        <ele>177.2</ele>
        <time>2013-11-10T11:31:05.035Z</time>
      </trkpt>
      <trkpt lat="48.79729" lon="2.28453">
        <ele>178.2</ele>
        <time>2013-11-10T11:31:12.053Z</time>
      </trkpt>
      <trkpt lat="48.79728" lon="2.28455">
        <ele>178.4</ele>
        <time>2013-11-10T11:31:13.040Z</time>
      </trkpt>
      <trkpt lat="48.79722" lon="2.28463">
        <ele>179.1</ele>
        <time>2013-11-10T11:31:19.056Z</time>
      </trkpt>
      <trkpt lat="48.7972" lon="2.28464">
        <ele>179.2</ele>
        <time>2013-11-10T11:31:20.054Z</time>
      </trkpt>
      <trkpt lat="48.79715" lon="2.28472">
        <ele>180.2</ele>
        <time>2013-11-10T11:31:26.820Z</time>
      </trkpt>
      <trkpt lat="48.79714" lon="2.28474">
        <ele>180.3</ele>
        <time>2013-11-10T11:31:27.054Z</time>
      </trkpt>
      <trkpt lat="48.79706" lon="2.28477">
        <ele>179.4</ele>
        <time>2013-11-10T11:31:36.916Z</time>
      </trkpt>
      <trkpt lat="48.79705" lon="2.28478">
        <ele>179.3</ele>
        <time>2013-11-10T11:31:37.034Z</time>
      </trkpt>
      <trkpt lat="48.79698" lon="2.28487">
        <ele>178.9</ele>
        <time>2013-11-10T11:31:43.053Z</time>
      </trkpt>
      <trkpt lat="48.79697" lon="2.28488">
        <ele>178.8</ele>
        <time>2013-11-10T11:31:44.086Z</time>
      </trkpt>
      <trkpt lat="48.79691" lon="2.28496">
        <ele>178.9</ele>
        <time>2013-11-10T11:31:49.057Z</time>
      </trkpt>
      <trkpt lat="48.7969" lon="2.28497">
        <ele>179</ele>
        <time>2013-11-10T11:31:50.041Z</time>
      </trkpt>
      <trkpt lat="48.79683" lon="2.28506">
        <ele>179</ele>
        <time>2013-11-10T11:31:57.059Z</time>
      </trkpt>
      <trkpt lat="48.79682" lon="2.28507">
        <ele>179</ele>
        <time>2013-11-10T11:31:58.053Z</time>
      </trkpt>
      <trkpt lat="48.79675" lon="2.28515">
        <ele>178.5</ele>
        <time>2013-11-10T11:32:04.093Z</time>
      </trkpt>
      <trkpt lat="48.79674" lon="2.28517">
        <ele>178.4</ele>
        <time>2013-11-10T11:32:05.063Z</time>
      </trkpt>
      <trkpt lat="48.79669" lon="2.28526">
        <ele>178.3</ele>
        <time>2013-11-10T11:32:10.080Z</time>
      </trkpt>
      <trkpt lat="48.79668" lon="2.28527">
        <ele>178.3</ele>
        <time>2013-11-10T11:32:11.073Z</time>
      </trkpt>
      <trkpt lat="48.79661" lon="2.28535">
        <ele>177.8</ele>
        <time>2013-11-10T11:32:16.840Z</time>
      </trkpt>
      <trkpt lat="48.7966" lon="2.28536">
        <ele>177.7</ele>
        <time>2013-11-10T11:32:17.034Z</time>
      </trkpt>
      <trkpt lat="48.79652" lon="2.28536">
        <ele>177</ele>
        <time>2013-11-10T11:32:21.878Z</time>
      </trkpt>
      <trkpt lat="48.79649" lon="2.28535">
        <ele>176.7</ele>
        <time>2013-11-10T11:32:22.043Z</time>
      </trkpt>
      <trkpt lat="48.79641" lon="2.28533">
        <ele>175.5</ele>
        <time>2013-11-10T11:32:26.896Z</time>
      </trkpt>
      <trkpt lat="48.7964" lon="2.28533">
        <ele>175.2</ele>
        <time>2013-11-10T11:32:27.049Z</time>
      </trkpt>
      <trkpt lat="48.79631" lon="2.28535">
        <ele>174.1</ele>
        <time>2013-11-10T11:32:31.901Z</time>
      </trkpt>
      <trkpt lat="48.7963" lon="2.28535">
        <ele>173.9</ele>
        <time>2013-11-10T11:32:32.051Z</time>
      </trkpt>
      <trkpt lat="48.79622" lon="2.28531">
        <ele>173.2</ele>
        <time>2013-11-10T11:32:37.082Z</time>
      </trkpt>
      <trkpt lat="48.79621" lon="2.28528">
        <ele>173.2</ele>
        <time>2013-11-10T11:32:38.105Z</time>
      </trkpt>
      <trkpt lat="48.79617" lon="2.28517">
        <ele>172.5</ele>
        <time>2013-11-10T11:32:44.109Z</time>
      </trkpt>
      <trkpt lat="48.79616" lon="2.28515">
        <ele>172.4</ele>
        <time>2013-11-10T11:32:45.425Z</time>
      </trkpt>
      <trkpt lat="48.79609" lon="2.28506">
        <ele>171.8</ele>
        <time>2013-11-10T11:32:51.116Z</time>
      </trkpt>
      <trkpt lat="48.79608" lon="2.28506">
        <ele>171.8</ele>
        <time>2013-11-10T11:32:52.311Z</time>
      </trkpt>
      <trkpt lat="48.79599" lon="2.28505">
        <ele>171.8</ele>
        <time>2013-11-10T11:32:59.115Z</time>
      </trkpt>
      <trkpt lat="48.79598" lon="2.28505">
        <ele>171.7</ele>
        <time>2013-11-10T11:33:00.242Z</time>
      </trkpt>
      <trkpt lat="48.7959" lon="2.285">
        <ele>171.3</ele>
        <time>2013-11-10T11:33:08.219Z</time>
      </trkpt>
      <trkpt lat="48.79589" lon="2.28499">
        <ele>171.2</ele>
        <time>2013-11-10T11:33:09.112Z</time>
      </trkpt>
      <trkpt lat="48.79581" lon="2.28496">
        <ele>170.7</ele>
        <time>2013-11-10T11:33:15.115Z</time>
      </trkpt>
      <trkpt lat="48.7958" lon="2.28496">
        <ele>170.6</ele>
        <time>2013-11-10T11:33:16.056Z</time>
      </trkpt>
      <trkpt lat="48.79571" lon="2.28494">
        <ele>170.3</ele>
        <time>2013-11-10T11:33:23.127Z</time>
      </trkpt>
      <trkpt lat="48.79569" lon="2.28494">
        <ele>170.2</ele>
        <time>2013-11-10T11:33:24.057Z</time>
      </trkpt>
      <trkpt lat="48.79561" lon="2.28488">
        <ele>169.6</ele>
        <time>2013-11-10T11:33:30.128Z</time>
      </trkpt>
      <trkpt lat="48.7956" lon="2.28488">
        <ele>169.5</ele>
        <time>2013-11-10T11:33:31.124Z</time>
      </trkpt>
      <trkpt lat="48.79552" lon="2.28485">
        <ele>168.2</ele>
        <time>2013-11-10T11:33:38.949Z</time>
      </trkpt>
      <trkpt lat="48.7955" lon="2.28485">
        <ele>168</ele>
        <time>2013-11-10T11:33:39.070Z</time>
      </trkpt>
      <trkpt lat="48.79543" lon="2.28483">
        <ele>167.1</ele>
        <time>2013-11-10T11:33:45.109Z</time>
      </trkpt>
      <trkpt lat="48.79541" lon="2.28482">
        <ele>166.9</ele>
        <time>2013-11-10T11:33:46.116Z</time>
      </trkpt>
      <trkpt lat="48.79533" lon="2.28478">
        <ele>166</ele>
        <time>2013-11-10T11:33:52.940Z</time>
      </trkpt>
      <trkpt lat="48.79532" lon="2.28477">
        <ele>165.9</ele>
        <time>2013-11-10T11:33:53.061Z</time>
      </trkpt>
      <trkpt lat="48.79525" lon="2.28473">
        <ele>165.7</ele>
        <time>2013-11-10T11:33:57.071Z</time>
      </trkpt>
      <trkpt lat="48.79523" lon="2.28472">
        <ele>165.6</ele>
        <time>2013-11-10T11:33:58.067Z</time>
      </trkpt>
      <trkpt lat="48.79515" lon="2.28473">
        <ele>165.6</ele>
        <time>2013-11-10T11:34:03.193Z</time>
      </trkpt>
      <trkpt lat="48.79513" lon="2.28473">
        <ele>165.5</ele>
        <time>2013-11-10T11:34:04.486Z</time>
      </trkpt>
      <trkpt lat="48.79504" lon="2.28469">
        <ele>165.1</ele>
        <time>2013-11-10T11:34:11.975Z</time>
      </trkpt>
      <trkpt lat="48.79503" lon="2.28468">
        <ele>165.1</ele>
        <time>2013-11-10T11:34:12.287Z</time>
      </trkpt>
      <trkpt lat="48.79498" lon="2.28459">
        <ele>164.8</ele>
        <time>2013-11-10T11:34:18.124Z</time>
      </trkpt>
      <trkpt lat="48.79496" lon="2.28458">
        <ele>164.7</ele>
        <time>2013-11-10T11:34:19.127Z</time>
      </trkpt>
      <trkpt lat="48.79489" lon="2.28458">
        <ele>163.9</ele>
        <time>2013-11-10T11:34:24.127Z</time>
      </trkpt>
      <trkpt lat="48.79487" lon="2.28458">
        <ele>163.7</ele>
        <time>2013-11-10T11:34:25.136Z</time>
      </trkpt>
      <trkpt lat="48.79479" lon="2.28458">
        <ele>163.2</ele>
        <time>2013-11-10T11:34:30.122Z</time>
      </trkpt>
      <trkpt lat="48.79478" lon="2.28457">
        <ele>163.1</ele>
        <time>2013-11-10T11:34:31.123Z</time>
      </trkpt>
      <trkpt lat="48.7947" lon="2.28454">
        <ele>162.4</ele>
        <time>2013-11-10T11:34:37.206Z</time>
      </trkpt>
      <trkpt lat="48.79469" lon="2.28454">
        <ele>162.3</ele>
        <time>2013-11-10T11:34:38.123Z</time>
      </trkpt>
      <trkpt lat="48.79461" lon="2.28452">
        <ele>161.4</ele>
        <time>2013-11-10T11:34:44.121Z</time>
      </trkpt>
      <trkpt lat="48.79459" lon="2.28452">
        <ele>161.2</ele>
        <time>2013-11-10T11:34:45.119Z</time>
      </trkpt>
      <trkpt lat="48.79452" lon="2.28445">
        <ele>160.4</ele>
        <time>2013-11-10T11:34:52.293Z</time>
      </trkpt>
      <trkpt lat="48.7945" lon="2.28445">
        <ele>160.4</ele>
        <time>2013-11-10T11:34:53.128Z</time>
      </trkpt>
      <trkpt lat="48.79442" lon="2.28444">
        <ele>160.7</ele>
        <time>2013-11-10T11:34:57.075Z</time>
      </trkpt>
      <trkpt lat="48.7944" lon="2.28444">
        <ele>160.7</ele>
        <time>2013-11-10T11:34:58.125Z</time>
      </trkpt>
      <trkpt lat="48.79432" lon="2.28446">
        <ele>160.9</ele>
        <time>2013-11-10T11:35:05.124Z</time>
      </trkpt>
      <trkpt lat="48.7943" lon="2.28447">
        <ele>160.9</ele>
        <time>2013-11-10T11:35:06.128Z</time>
      </trkpt>
      <trkpt lat="48.79422" lon="2.2845">
        <ele>161.3</ele>
        <time>2013-11-10T11:35:11.876Z</time>
      </trkpt>
      <trkpt lat="48.79419" lon="2.2845">
        <ele>161.4</ele>
        <time>2013-11-10T11:35:12.050Z</time>
      </trkpt>
      <trkpt lat="48.7941" lon="2.2845">
        <ele>161.7</ele>
        <time>2013-11-10T11:35:16.907Z</time>
      </trkpt>
      <trkpt lat="48.79409" lon="2.28451">
        <ele>161.7</ele>
        <time>2013-11-10T11:35:17.086Z</time>
      </trkpt>
      <trkpt lat="48.79402" lon="2.28456">
        <ele>162.1</ele>
        <time>2013-11-10T11:35:21.993Z</time>
      </trkpt>
      <trkpt lat="48.794" lon="2.28457">
        <ele>162.2</ele>
        <time>2013-11-10T11:35:22.066Z</time>
      </trkpt>
      <trkpt lat="48.79392" lon="2.28459">
        <ele>162.7</ele>
        <time>2013-11-10T11:35:28.098Z</time>
      </trkpt>
      <trkpt lat="48.7939" lon="2.28459">
        <ele>162.8</ele>
        <time>2013-11-10T11:35:29.097Z</time>
      </trkpt>
      <trkpt lat="48.79383" lon="2.28455">
        <ele>162.7</ele>
        <time>2013-11-10T11:35:35.100Z</time>
      </trkpt>
      <trkpt lat="48.79381" lon="2.28455">
        <ele>162.7</ele>
        <time>2013-11-10T11:35:36.178Z</time>
      </trkpt>
      <trkpt lat="48.79373" lon="2.28452">
        <ele>162.2</ele>
        <time>2013-11-10T11:35:42.241Z</time>
      </trkpt>
      <trkpt lat="48.79372" lon="2.28451">
        <ele>162</ele>
        <time>2013-11-10T11:35:43.099Z</time>
      </trkpt>
      <trkpt lat="48.79364" lon="2.28448">
        <ele>161.5</ele>
        <time>2013-11-10T11:35:48.077Z</time>
      </trkpt>
      <trkpt lat="48.79363" lon="2.28447">
        <ele>161.4</ele>
        <time>2013-11-10T11:35:49.104Z</time>
      </trkpt>
      <trkpt lat="48.79354" lon="2.28446">
        <ele>160.5</ele>
        <time>2013-11-10T11:35:55.092Z</time>
      </trkpt>
      <trkpt lat="48.79353" lon="2.28446">
        <ele>160.4</ele>
        <time>2013-11-10T11:35:56.094Z</time>
      </trkpt>
      <trkpt lat="48.79344" lon="2.2845">
        <ele>159.5</ele>
        <time>2013-11-10T11:36:03.055Z</time>
      </trkpt>
      <trkpt lat="48.79343" lon="2.2845">
        <ele>159.3</ele>
        <time>2013-11-10T11:36:04.094Z</time>
      </trkpt>
      <trkpt lat="48.79335" lon="2.28453">
        <ele>158.6</ele>
        <time>2013-11-10T11:36:09.055Z</time>
      </trkpt>
      <trkpt lat="48.79334" lon="2.28454">
        <ele>158.4</ele>
        <time>2013-11-10T11:36:10.099Z</time>
      </trkpt>
      <trkpt lat="48.79326" lon="2.28455">
        <ele>157.4</ele>
        <time>2013-11-10T11:36:16.996Z</time>
      </trkpt>
      <trkpt lat="48.79325" lon="2.28455">
        <ele>157.4</ele>
        <time>2013-11-10T11:36:17.137Z</time>
      </trkpt>
      <trkpt lat="48.79316" lon="2.28456">
        <ele>157.1</ele>
        <time>2013-11-10T11:36:23.077Z</time>
      </trkpt>
      <trkpt lat="48.79316" lon="2.2846">
        <ele>157</ele>
        <time>2013-11-10T11:36:24.118Z</time>
      </trkpt>
      <trkpt lat="48.79314" lon="2.28473">
        <ele>157.2</ele>
        <time>2013-11-10T11:36:36.107Z</time>
      </trkpt>
      <trkpt lat="48.79314" lon="2.28474">
        <ele>157.2</ele>
        <time>2013-11-10T11:36:37.112Z</time>
      </trkpt>
      <trkpt lat="48.79313" lon="2.28487">
        <ele>156.9</ele>
        <time>2013-11-10T11:36:49.100Z</time>
      </trkpt>
      <trkpt lat="48.79312" lon="2.28489">
        <ele>156.9</ele>
        <time>2013-11-10T11:36:50.100Z</time>
      </trkpt>
      <trkpt lat="48.79305" lon="2.28498">
        <ele>157.4</ele>
        <time>2013-11-10T11:37:01.853Z</time>
      </trkpt>
      <trkpt lat="48.79305" lon="2.28499">
        <ele>157.4</ele>
        <time>2013-11-10T11:37:02.088Z</time>
      </trkpt>
      <trkpt lat="48.79302" lon="2.2851">
        <ele>157.2</ele>
        <time>2013-11-10T11:37:06.088Z</time>
      </trkpt>
      <trkpt lat="48.793" lon="2.28514">
        <ele>157.1</ele>
        <time>2013-11-10T11:37:07.064Z</time>
      </trkpt>
      <trkpt lat="48.79292" lon="2.28519">
        <ele>156.3</ele>
        <time>2013-11-10T11:37:10.103Z</time>
      </trkpt>
      <trkpt lat="48.79289" lon="2.2852">
        <ele>156.2</ele>
        <time>2013-11-10T11:37:11.106Z</time>
      </trkpt>
      <trkpt lat="48.79282" lon="2.28521">
        <ele>155.4</ele>
        <time>2013-11-10T11:37:14.122Z</time>
      </trkpt>
      <trkpt lat="48.7928" lon="2.28522">
        <ele>155.2</ele>
        <time>2013-11-10T11:37:15.135Z</time>
      </trkpt>
      <trkpt lat="48.79272" lon="2.28523">
        <ele>154.5</ele>
        <time>2013-11-10T11:37:19.148Z</time>
      </trkpt>
      <trkpt lat="48.7927" lon="2.28523">
        <ele>154.4</ele>
        <time>2013-11-10T11:37:20.133Z</time>
      </trkpt>
      <trkpt lat="48.79263" lon="2.28526">
        <ele>154.2</ele>
        <time>2013-11-10T11:37:24.128Z</time>
      </trkpt>
      <trkpt lat="48.79261" lon="2.28527">
        <ele>154.1</ele>
        <time>2013-11-10T11:37:25.134Z</time>
      </trkpt>
      <trkpt lat="48.79254" lon="2.28534">
        <ele>153.3</ele>
        <time>2013-11-10T11:37:30.131Z</time>
      </trkpt>
      <trkpt lat="48.79253" lon="2.28536">
        <ele>153.1</ele>
        <time>2013-11-10T11:37:31.128Z</time>
      </trkpt>
      <trkpt lat="48.79248" lon="2.28545">
        <ele>152.4</ele>
        <time>2013-11-10T11:37:37.151Z</time>
      </trkpt>
      <trkpt lat="48.79247" lon="2.28547">
        <ele>152.3</ele>
        <time>2013-11-10T11:37:37.226Z</time>
      </trkpt>
      <trkpt lat="48.7924" lon="2.28554">
        <ele>152.4</ele>
        <time>2013-11-10T11:37:43.113Z</time>
      </trkpt>
      <trkpt lat="48.79239" lon="2.28555">
        <ele>152.5</ele>
        <time>2013-11-10T11:37:44.125Z</time>
      </trkpt>
      <trkpt lat="48.79233" lon="2.28563">
        <ele>153.1</ele>
        <time>2013-11-10T11:37:50.119Z</time>
      </trkpt>
      <trkpt lat="48.7923" lon="2.28567">
        <ele>153.2</ele>
        <time>2013-11-10T11:37:51.121Z</time>
      </trkpt>
      <trkpt lat="48.79224" lon="2.28573">
        <ele>153.4</ele>
        <time>2013-11-10T11:37:53.112Z</time>
      </trkpt>
      <trkpt lat="48.79222" lon="2.28575">
        <ele>153.5</ele>
        <time>2013-11-10T11:37:54.116Z</time>
      </trkpt>
      <trkpt lat="48.79213" lon="2.28578">
        <ele>153.8</ele>
        <time>2013-11-10T11:38:00.254Z</time>
      </trkpt>
      <trkpt lat="48.79212" lon="2.28578">
        <ele>154</ele>
        <time>2013-11-10T11:38:01.113Z</time>
      </trkpt>
      <trkpt lat="48.79206" lon="2.28584">
        <ele>154.3</ele>
        <time>2013-11-10T11:38:05.112Z</time>
      </trkpt>
      <trkpt lat="48.79204" lon="2.28587">
        <ele>154.4</ele>
        <time>2013-11-10T11:38:06.115Z</time>
      </trkpt>
      <trkpt lat="48.79197" lon="2.28594">
        <ele>154.9</ele>
        <time>2013-11-10T11:38:09.115Z</time>
      </trkpt>
      <trkpt lat="48.79195" lon="2.28595">
        <ele>155.1</ele>
        <time>2013-11-10T11:38:10.129Z</time>
      </trkpt>
      <trkpt lat="48.79189" lon="2.28603">
        <ele>156.4</ele>
        <time>2013-11-10T11:38:15.211Z</time>
      </trkpt>
      <trkpt lat="48.79188" lon="2.28605">
        <ele>156.7</ele>
        <time>2013-11-10T11:38:16.115Z</time>
      </trkpt>
      <trkpt lat="48.79181" lon="2.28611">
        <ele>157.6</ele>
        <time>2013-11-10T11:38:22.142Z</time>
      </trkpt>
      <trkpt lat="48.7918" lon="2.28612">
        <ele>157.8</ele>
        <time>2013-11-10T11:38:22.280Z</time>
      </trkpt>
      <trkpt lat="48.79174" lon="2.2862">
        <ele>159.5</ele>
        <time>2013-11-10T11:38:31.104Z</time>
      </trkpt>
      <trkpt lat="48.79173" lon="2.28621">
        <ele>159.8</ele>
        <time>2013-11-10T11:38:32.131Z</time>
      </trkpt>
      <trkpt lat="48.79167" lon="2.2863">
        <ele>161.1</ele>
        <time>2013-11-10T11:38:37.483Z</time>
      </trkpt>
      <trkpt lat="48.79165" lon="2.28632">
        <ele>161.4</ele>
        <time>2013-11-10T11:38:38.119Z</time>
      </trkpt>
      <trkpt lat="48.79159" lon="2.2864">
        <ele>162.4</ele>
        <time>2013-11-10T11:38:42.489Z</time>
      </trkpt>
      <trkpt lat="48.79159" lon="2.28643">
        <ele>162.7</ele>
        <time>2013-11-10T11:38:43.114Z</time>
      </trkpt>
      <trkpt lat="48.79159" lon="2.28655">
        <ele>163.8</ele>
        <time>2013-11-10T11:38:49.115Z</time>
      </trkpt>
      <trkpt lat="48.79158" lon="2.28656">
        <ele>164</ele>
        <time>2013-11-10T11:38:50.117Z</time>
      </trkpt>
      <trkpt lat="48.79153" lon="2.28667">
        <ele>165.1</ele>
        <time>2013-11-10T11:38:59.115Z</time>
      </trkpt>
      <trkpt lat="48.79152" lon="2.28669">
        <ele>165.1</ele>
        <time>2013-11-10T11:39:00.216Z</time>
      </trkpt>
      <trkpt lat="48.7915" lon="2.28679">
        <ele>165.1</ele>
        <time>2013-11-10T11:39:10.115Z</time>
      </trkpt>
      <trkpt lat="48.79148" lon="2.28682">
        <ele>165</ele>
        <time>2013-11-10T11:39:11.129Z</time>
      </trkpt>
      <trkpt lat="48.79142" lon="2.28691">
        <ele>164.9</ele>
        <time>2013-11-10T11:39:13.130Z</time>
      </trkpt>
      <trkpt lat="48.79139" lon="2.28693">
        <ele>164.8</ele>
        <time>2013-11-10T11:39:14.117Z</time>
      </trkpt>
      <trkpt lat="48.79131" lon="2.28696">
        <ele>164.8</ele>
        <time>2013-11-10T11:39:18.114Z</time>
      </trkpt>
      <trkpt lat="48.79129" lon="2.28697">
        <ele>164.8</ele>
        <time>2013-11-10T11:39:19.118Z</time>
      </trkpt>
      <trkpt lat="48.79123" lon="2.28704">
        <ele>164.7</ele>
        <time>2013-11-10T11:39:25.120Z</time>
      </trkpt>
      <trkpt lat="48.79122" lon="2.28705">
        <ele>164.7</ele>
        <time>2013-11-10T11:39:26.118Z</time>
      </trkpt>
      <trkpt lat="48.79116" lon="2.28715">
        <ele>164.6</ele>
        <time>2013-11-10T11:39:31.941Z</time>
      </trkpt>
      <trkpt lat="48.79114" lon="2.28717">
        <ele>164.5</ele>
        <time>2013-11-10T11:39:32.091Z</time>
      </trkpt>
      <trkpt lat="48.79109" lon="2.28726">
        <ele>163.8</ele>
        <time>2013-11-10T11:39:37.026Z</time>
      </trkpt>
      <trkpt lat="48.79108" lon="2.28728">
        <ele>163.5</ele>
        <time>2013-11-10T11:39:37.227Z</time>
      </trkpt>
      <trkpt lat="48.79104" lon="2.28738">
        <ele>162.5</ele>
        <time>2013-11-10T11:39:43.128Z</time>
      </trkpt>
      <trkpt lat="48.79103" lon="2.28741">
        <ele>162.4</ele>
        <time>2013-11-10T11:39:44.126Z</time>
      </trkpt>
      <trkpt lat="48.79099" lon="2.28752">
        <ele>161.3</ele>
        <time>2013-11-10T11:39:51.122Z</time>
      </trkpt>
      <trkpt lat="48.79098" lon="2.28754">
        <ele>161.2</ele>
        <time>2013-11-10T11:39:52.240Z</time>
      </trkpt>
      <trkpt lat="48.79093" lon="2.28765">
        <ele>160.3</ele>
        <time>2013-11-10T11:40:00.208Z</time>
      </trkpt>
      <trkpt lat="48.79093" lon="2.28766">
        <ele>160.2</ele>
        <time>2013-11-10T11:40:01.123Z</time>
      </trkpt>
      <trkpt lat="48.79087" lon="2.28776">
        <ele>159.5</ele>
        <time>2013-11-10T11:40:07.078Z</time>
      </trkpt>
      <trkpt lat="48.79086" lon="2.28777">
        <ele>159.4</ele>
        <time>2013-11-10T11:40:08.206Z</time>
      </trkpt>
      <trkpt lat="48.79078" lon="2.28783">
        <ele>159.3</ele>
        <time>2013-11-10T11:40:13.130Z</time>
      </trkpt>
      <trkpt lat="48.79077" lon="2.28784">
        <ele>159.3</ele>
        <time>2013-11-10T11:40:14.129Z</time>
      </trkpt>
      <trkpt lat="48.79068" lon="2.28787">
        <ele>158.7</ele>
        <time>2013-11-10T11:40:20.126Z</time>
      </trkpt>
      <trkpt lat="48.79067" lon="2.28788">
        <ele>158.4</ele>
        <time>2013-11-10T11:40:21.127Z</time>
      </trkpt>
      <trkpt lat="48.79058" lon="2.28792">
        <ele>157.3</ele>
        <time>2013-11-10T11:40:27.130Z</time>
      </trkpt>
      <trkpt lat="48.79057" lon="2.28792">
        <ele>157.1</ele>
        <time>2013-11-10T11:40:27.238Z</time>
      </trkpt>
      <trkpt lat="48.79053" lon="2.28801">
        <ele>155.8</ele>
        <time>2013-11-10T11:40:33.109Z</time>
      </trkpt>
      <trkpt lat="48.79053" lon="2.28804">
        <ele>155.5</ele>
        <time>2013-11-10T11:40:34.107Z</time>
      </trkpt>
      <trkpt lat="48.79053" lon="2.28816">
        <ele>154.6</ele>
        <time>2013-11-10T11:40:39.099Z</time>
      </trkpt>
      <trkpt lat="48.79053" lon="2.28818">
        <ele>154.4</ele>
        <time>2013-11-10T11:40:40.092Z</time>
      </trkpt>
      <trkpt lat="48.79051" lon="2.28829">
        <ele>153.8</ele>
        <time>2013-11-10T11:40:45.063Z</time>
      </trkpt>
      <trkpt lat="48.79051" lon="2.28832">
        <ele>153.7</ele>
        <time>2013-11-10T11:40:46.079Z</time>
      </trkpt>
      <trkpt lat="48.79048" lon="2.28844">
        <ele>153.4</ele>
        <time>2013-11-10T11:40:51.128Z</time>
      </trkpt>
      <trkpt lat="48.79048" lon="2.28847">
        <ele>153.4</ele>
        <time>2013-11-10T11:40:52.044Z</time>
      </trkpt>
      <trkpt lat="48.79048" lon="2.2886">
        <ele>153.5</ele>
        <time>2013-11-10T11:41:00.231Z</time>
      </trkpt>
      <trkpt lat="48.79048" lon="2.28861">
        <ele>153.4</ele>
        <time>2013-11-10T11:41:01.101Z</time>
      </trkpt>
      <trkpt lat="48.79041" lon="2.2887">
        <ele>152.1</ele>
        <time>2013-11-10T11:41:08.101Z</time>
      </trkpt>
      <trkpt lat="48.79041" lon="2.28872">
        <ele>152</ele>
        <time>2013-11-10T11:41:09.100Z</time>
      </trkpt>
      <trkpt lat="48.79049" lon="2.28872">
        <ele>152.9</ele>
        <time>2013-11-10T11:41:20.100Z</time>
      </trkpt>
      <trkpt lat="48.79051" lon="2.28872">
        <ele>152.9</ele>
        <time>2013-11-10T11:41:21.124Z</time>
      </trkpt>
      <trkpt lat="48.79058" lon="2.28876">
        <ele>153.4</ele>
        <time>2013-11-10T11:41:26.917Z</time>
      </trkpt>
      <trkpt lat="48.79059" lon="2.28878">
        <ele>153.4</ele>
        <time>2013-11-10T11:41:27.056Z</time>
      </trkpt>
      <trkpt lat="48.79061" lon="2.2889">
        <ele>153.7</ele>
        <time>2013-11-10T11:41:33.093Z</time>
      </trkpt>
      <trkpt lat="48.79061" lon="2.28891">
        <ele>153.8</ele>
        <time>2013-11-10T11:41:34.092Z</time>
      </trkpt>
      <trkpt lat="48.79059" lon="2.28905">
        <ele>153.8</ele>
        <time>2013-11-10T11:41:43.345Z</time>
      </trkpt>
      <trkpt lat="48.79059" lon="2.28905">
        <ele>153.8</ele>
        <time>2013-11-10T11:41:44.071Z</time>
      </trkpt>
      <trkpt lat="48.79059" lon="2.28907">
        <ele>153.9</ele>
        <time>2013-11-10T11:42:52.536Z</time>
      </trkpt>
      <trkpt lat="48.79033" lon="2.29065">
        <ele>156.6</ele>
        <time>2013-11-10T11:42:54.098Z</time>
      </trkpt>
      <trkpt lat="48.79029" lon="2.29074">
        <ele>154.2</ele>
        <time>2013-11-10T11:42:58.100Z</time>
      </trkpt>
      <trkpt lat="48.79027" lon="2.29077">
        <ele>153.5</ele>
        <time>2013-11-10T11:42:59.097Z</time>
      </trkpt>
      <trkpt lat="48.79023" lon="2.29086">
        <ele>152</ele>
        <time>2013-11-10T11:43:02.058Z</time>
      </trkpt>
      <trkpt lat="48.79022" lon="2.29089">
        <ele>151.6</ele>
        <time>2013-11-10T11:43:03.097Z</time>
      </trkpt>
      <trkpt lat="48.79018" lon="2.29098">
        <ele>150.5</ele>
        <time>2013-11-10T11:43:06.847Z</time>
      </trkpt>
      <trkpt lat="48.79016" lon="2.291">
        <ele>150</ele>
        <time>2013-11-10T11:43:07.059Z</time>
      </trkpt>
      <trkpt lat="48.7901" lon="2.29106">
        <ele>148.8</ele>
        <time>2013-11-10T11:43:10.099Z</time>
      </trkpt>
      <trkpt lat="48.79008" lon="2.29108">
        <ele>148.7</ele>
        <time>2013-11-10T11:43:11.098Z</time>
      </trkpt>
      <trkpt lat="48.79002" lon="2.29118">
        <ele>148.2</ele>
        <time>2013-11-10T11:43:16.940Z</time>
      </trkpt>
      <trkpt lat="48.79001" lon="2.29121">
        <ele>148</ele>
        <time>2013-11-10T11:43:17.218Z</time>
      </trkpt>
      <trkpt lat="48.78995" lon="2.29129">
        <ele>147.3</ele>
        <time>2013-11-10T11:43:23.147Z</time>
      </trkpt>
      <trkpt lat="48.78994" lon="2.29129">
        <ele>147.1</ele>
        <time>2013-11-10T11:43:24.148Z</time>
      </trkpt>
      <trkpt lat="48.78986" lon="2.29135">
        <ele>146.7</ele>
        <time>2013-11-10T11:43:28.120Z</time>
      </trkpt>
      <trkpt lat="48.78984" lon="2.29135">
        <ele>146.5</ele>
        <time>2013-11-10T11:43:29.144Z</time>
      </trkpt>
      <trkpt lat="48.78976" lon="2.29133">
        <ele>145.6</ele>
        <time>2013-11-10T11:43:37.058Z</time>
      </trkpt>
      <trkpt lat="48.78975" lon="2.29133">
        <ele>145.5</ele>
        <time>2013-11-10T11:43:37.171Z</time>
      </trkpt>
      <trkpt lat="48.78967" lon="2.29131">
        <ele>145.6</ele>
        <time>2013-11-10T11:43:43.142Z</time>
      </trkpt>
      <trkpt lat="48.78965" lon="2.2913">
        <ele>145.6</ele>
        <time>2013-11-10T11:43:44.117Z</time>
      </trkpt>
      <trkpt lat="48.78958" lon="2.29128">
        <ele>145.8</ele>
        <time>2013-11-10T11:43:48.112Z</time>
      </trkpt>
      <trkpt lat="48.78956" lon="2.29127">
        <ele>145.9</ele>
        <time>2013-11-10T11:43:49.112Z</time>
      </trkpt>
      <trkpt lat="48.78947" lon="2.29126">
        <ele>146.4</ele>
        <time>2013-11-10T11:43:57.087Z</time>
      </trkpt>
      <trkpt lat="48.78946" lon="2.29125">
        <ele>146.3</ele>
        <time>2013-11-10T11:43:58.115Z</time>
      </trkpt>
      <trkpt lat="48.78939" lon="2.29128">
        <ele>146.6</ele>
        <time>2013-11-10T11:44:04.180Z</time>
      </trkpt>
      <trkpt lat="48.78938" lon="2.2913">
        <ele>146.7</ele>
        <time>2013-11-10T11:44:05.109Z</time>
      </trkpt>
      <trkpt lat="48.7893" lon="2.29136">
        <ele>146.5</ele>
        <time>2013-11-10T11:44:13.111Z</time>
      </trkpt>
      <trkpt lat="48.78928" lon="2.29137">
        <ele>146.4</ele>
        <time>2013-11-10T11:44:14.215Z</time>
      </trkpt>
      <trkpt lat="48.7892" lon="2.29134">
        <ele>145.2</ele>
        <time>2013-11-10T11:44:22.121Z</time>
      </trkpt>
      <trkpt lat="48.78919" lon="2.29134">
        <ele>145</ele>
        <time>2013-11-10T11:44:23.113Z</time>
      </trkpt>
      <trkpt lat="48.78911" lon="2.29139">
        <ele>143.6</ele>
        <time>2013-11-10T11:44:29.141Z</time>
      </trkpt>
      <trkpt lat="48.7891" lon="2.29139">
        <ele>143.4</ele>
        <time>2013-11-10T11:44:30.215Z</time>
      </trkpt>
      <trkpt lat="48.78902" lon="2.29144">
        <ele>141.3</ele>
        <time>2013-11-10T11:44:39.131Z</time>
      </trkpt>
      <trkpt lat="48.78901" lon="2.29144">
        <ele>141.1</ele>
        <time>2013-11-10T11:44:40.152Z</time>
      </trkpt>
      <trkpt lat="48.78895" lon="2.29154">
        <ele>140</ele>
        <time>2013-11-10T11:44:50.106Z</time>
      </trkpt>
      <trkpt lat="48.78893" lon="2.29156">
        <ele>139.8</ele>
        <time>2013-11-10T11:44:51.105Z</time>
      </trkpt>
      <trkpt lat="48.78885" lon="2.29152">
        <ele>138.3</ele>
        <time>2013-11-10T11:44:57.074Z</time>
      </trkpt>
      <trkpt lat="48.78884" lon="2.29151">
        <ele>138.1</ele>
        <time>2013-11-10T11:44:58.117Z</time>
      </trkpt>
      <trkpt lat="48.7888" lon="2.29139">
        <ele>136.1</ele>
        <time>2013-11-10T11:45:06.887Z</time>
      </trkpt>
      <trkpt lat="48.7888" lon="2.29137">
        <ele>135.9</ele>
        <time>2013-11-10T11:45:07.088Z</time>
      </trkpt>
      <trkpt lat="48.78882" lon="2.29124">
        <ele>134.9</ele>
        <time>2013-11-10T11:45:13.102Z</time>
      </trkpt>
      <trkpt lat="48.78882" lon="2.29122">
        <ele>134.7</ele>
        <time>2013-11-10T11:45:14.102Z</time>
      </trkpt>
      <trkpt lat="48.78882" lon="2.29109">
        <ele>132.7</ele>
        <time>2013-11-10T11:45:23.102Z</time>
      </trkpt>
      <trkpt lat="48.78881" lon="2.29108">
        <ele>132.4</ele>
        <time>2013-11-10T11:45:24.103Z</time>
      </trkpt>
      <trkpt lat="48.78878" lon="2.29095">
        <ele>130.4</ele>
        <time>2013-11-10T11:45:33.179Z</time>
      </trkpt>
      <trkpt lat="48.78877" lon="2.29094">
        <ele>130.1</ele>
        <time>2013-11-10T11:45:34.109Z</time>
      </trkpt>
      <trkpt lat="48.78869" lon="2.2909">
        <ele>129.1</ele>
        <time>2013-11-10T11:45:38.158Z</time>
      </trkpt>
      <trkpt lat="48.78867" lon="2.29089">
        <ele>128.9</ele>
        <time>2013-11-10T11:45:39.105Z</time>
      </trkpt>
      <trkpt lat="48.78858" lon="2.29084">
        <ele>128.4</ele>
        <time>2013-11-10T11:45:43.088Z</time>
      </trkpt>
      <trkpt lat="48.78857" lon="2.29083">
        <ele>128.2</ele>
        <time>2013-11-10T11:45:44.108Z</time>
      </trkpt>
      <trkpt lat="48.7885" lon="2.29075">
        <ele>127.6</ele>
        <time>2013-11-10T11:45:50.094Z</time>
      </trkpt>
      <trkpt lat="48.78849" lon="2.29073">
        <ele>127.5</ele>
        <time>2013-11-10T11:45:51.134Z</time>
      </trkpt>
      <trkpt lat="48.78841" lon="2.29072">
        <ele>126.8</ele>
        <time>2013-11-10T11:45:58.098Z</time>
      </trkpt>
      <trkpt lat="48.78839" lon="2.29072">
        <ele>126.7</ele>
        <time>2013-11-10T11:45:59.086Z</time>
      </trkpt>
      <trkpt lat="48.7883" lon="2.29072">
        <ele>126.3</ele>
        <time>2013-11-10T11:46:06.797Z</time>
      </trkpt>
      <trkpt lat="48.78829" lon="2.29072">
        <ele>126.3</ele>
        <time>2013-11-10T11:46:07.082Z</time>
      </trkpt>
      <trkpt lat="48.78822" lon="2.29064">
        <ele>126.1</ele>
        <time>2013-11-10T11:46:18.082Z</time>
      </trkpt>
      <trkpt lat="48.78821" lon="2.29064">
        <ele>125.9</ele>
        <time>2013-11-10T11:46:19.113Z</time>
      </trkpt>
      <trkpt lat="48.78813" lon="2.29059">
        <ele>125.5</ele>
        <time>2013-11-10T11:46:27.099Z</time>
      </trkpt>
      <trkpt lat="48.78812" lon="2.29059">
        <ele>125.5</ele>
        <time>2013-11-10T11:46:28.106Z</time>
      </trkpt>
      <trkpt lat="48.78804" lon="2.29058">
        <ele>124.7</ele>
        <time>2013-11-10T11:46:37.079Z</time>
      </trkpt>
      <trkpt lat="48.78802" lon="2.29058">
        <ele>124.6</ele>
        <time>2013-11-10T11:46:38.086Z</time>
      </trkpt>
      <trkpt lat="48.78794" lon="2.29056">
        <ele>124</ele>
        <time>2013-11-10T11:46:46.087Z</time>
      </trkpt>
      <trkpt lat="48.78793" lon="2.29056">
        <ele>123.9</ele>
        <time>2013-11-10T11:46:47.100Z</time>
      </trkpt>
      <trkpt lat="48.78786" lon="2.29061">
        <ele>123.4</ele>
        <time>2013-11-10T11:46:55.086Z</time>
      </trkpt>
      <trkpt lat="48.78785" lon="2.29062">
        <ele>123.4</ele>
        <time>2013-11-10T11:46:56.080Z</time>
      </trkpt>
      <trkpt lat="48.78781" lon="2.29074">
        <ele>123.3</ele>
        <time>2013-11-10T11:47:05.077Z</time>
      </trkpt>
      <trkpt lat="48.78781" lon="2.29075">
        <ele>123.3</ele>
        <time>2013-11-10T11:47:06.097Z</time>
      </trkpt>
      <trkpt lat="48.78772" lon="2.29078">
        <ele>123</ele>
        <time>2013-11-10T11:47:13.074Z</time>
      </trkpt>
      <trkpt lat="48.78771" lon="2.29078">
        <ele>122.8</ele>
        <time>2013-11-10T11:47:14.075Z</time>
      </trkpt>
      <trkpt lat="48.78762" lon="2.29077">
        <ele>122.4</ele>
        <time>2013-11-10T11:47:29.092Z</time>
      </trkpt>
      <trkpt lat="48.78761" lon="2.29076">
        <ele>122.3</ele>
        <time>2013-11-10T11:47:30.071Z</time>
      </trkpt>
      <trkpt lat="48.78754" lon="2.29071">
        <ele>123.1</ele>
        <time>2013-11-10T11:47:40.111Z</time>
      </trkpt>
      <trkpt lat="48.78753" lon="2.2907">
        <ele>123.2</ele>
        <time>2013-11-10T11:47:41.086Z</time>
      </trkpt>
      <trkpt lat="48.78745" lon="2.29063">
        <ele>123.8</ele>
        <time>2013-11-10T11:47:50.107Z</time>
      </trkpt>
      <trkpt lat="48.78744" lon="2.29062">
        <ele>123.9</ele>
        <time>2013-11-10T11:47:51.099Z</time>
      </trkpt>
      <trkpt lat="48.78738" lon="2.29053">
        <ele>124.4</ele>
        <time>2013-11-10T11:47:59.084Z</time>
      </trkpt>
      <trkpt lat="48.78737" lon="2.29052">
        <ele>124.4</ele>
        <time>2013-11-10T11:48:00.089Z</time>
      </trkpt>
      <trkpt lat="48.78734" lon="2.29042">
        <ele>124.9</ele>
        <time>2013-11-10T11:48:07.079Z</time>
      </trkpt>
      <trkpt lat="48.78732" lon="2.2904">
        <ele>125</ele>
        <time>2013-11-10T11:48:08.238Z</time>
      </trkpt>
      <trkpt lat="48.78725" lon="2.29032">
        <ele>125.4</ele>
        <time>2013-11-10T11:48:14.225Z</time>
      </trkpt>
      <trkpt lat="48.78725" lon="2.29032">
        <ele>125.5</ele>
        <time>2013-11-10T11:48:15.084Z</time>
      </trkpt>
      <trkpt lat="48.78717" lon="2.29028">
        <ele>125.5</ele>
        <time>2013-11-10T11:48:22.090Z</time>
      </trkpt>
      <trkpt lat="48.78715" lon="2.29027">
        <ele>125.5</ele>
        <time>2013-11-10T11:48:23.102Z</time>
      </trkpt>
      <trkpt lat="48.78708" lon="2.29023">
        <ele>125.6</ele>
        <time>2013-11-10T11:48:29.143Z</time>
      </trkpt>
      <trkpt lat="48.78706" lon="2.29023">
        <ele>125.6</ele>
        <time>2013-11-10T11:48:30.137Z</time>
      </trkpt>
      <trkpt lat="48.78698" lon="2.29018">
        <ele>125.7</ele>
        <time>2013-11-10T11:48:38.151Z</time>
      </trkpt>
      <trkpt lat="48.78697" lon="2.29017">
        <ele>125.7</ele>
        <time>2013-11-10T11:48:39.153Z</time>
      </trkpt>
      <trkpt lat="48.7869" lon="2.29011">
        <ele>125.2</ele>
        <time>2013-11-10T11:48:50.121Z</time>
      </trkpt>
      <trkpt lat="48.78688" lon="2.2901">
        <ele>125.1</ele>
        <time>2013-11-10T11:48:51.160Z</time>
      </trkpt>
      <trkpt lat="48.78681" lon="2.29005">
        <ele>124.7</ele>
        <time>2013-11-10T11:48:55.163Z</time>
      </trkpt>
      <trkpt lat="48.7868" lon="2.29004">
        <ele>124.5</ele>
        <time>2013-11-10T11:48:56.154Z</time>
      </trkpt>
      <trkpt lat="48.78672" lon="2.28999">
        <ele>123.2</ele>
        <time>2013-11-10T11:49:02.153Z</time>
      </trkpt>
      <trkpt lat="48.78671" lon="2.28998">
        <ele>122.9</ele>
        <time>2013-11-10T11:49:03.157Z</time>
      </trkpt>
      <trkpt lat="48.78662" lon="2.28995">
        <ele>121.8</ele>
        <time>2013-11-10T11:49:09.157Z</time>
      </trkpt>
      <trkpt lat="48.78661" lon="2.28994">
        <ele>121.7</ele>
        <time>2013-11-10T11:49:10.155Z</time>
      </trkpt>
      <trkpt lat="48.78654" lon="2.28987">
        <ele>121.4</ele>
        <time>2013-11-10T11:49:15.158Z</time>
      </trkpt>
      <trkpt lat="48.78653" lon="2.28985">
        <ele>121.4</ele>
        <time>2013-11-10T11:49:16.154Z</time>
      </trkpt>
      <trkpt lat="48.78646" lon="2.28976">
        <ele>120.9</ele>
        <time>2013-11-10T11:49:20.166Z</time>
      </trkpt>
      <trkpt lat="48.78645" lon="2.28975">
        <ele>120.8</ele>
        <time>2013-11-10T11:49:21.157Z</time>
      </trkpt>
      <trkpt lat="48.78637" lon="2.28971">
        <ele>120.2</ele>
        <time>2013-11-10T11:49:27.252Z</time>
      </trkpt>
      <trkpt lat="48.78636" lon="2.28971">
        <ele>120.1</ele>
        <time>2013-11-10T11:49:28.177Z</time>
      </trkpt>
      <trkpt lat="48.78628" lon="2.28967">
        <ele>119.2</ele>
        <time>2013-11-10T11:49:37.262Z</time>
      </trkpt>
      <trkpt lat="48.78627" lon="2.28966">
        <ele>119.2</ele>
        <time>2013-11-10T11:49:38.153Z</time>
      </trkpt>
      <trkpt lat="48.7862" lon="2.2896">
        <ele>118.6</ele>
        <time>2013-11-10T11:49:45.151Z</time>
      </trkpt>
      <trkpt lat="48.78619" lon="2.2896">
        <ele>118.5</ele>
        <time>2013-11-10T11:49:46.150Z</time>
      </trkpt>
      <trkpt lat="48.78612" lon="2.28953">
        <ele>117.6</ele>
        <time>2013-11-10T11:49:52.485Z</time>
      </trkpt>
      <trkpt lat="48.7861" lon="2.28952">
        <ele>117.5</ele>
        <time>2013-11-10T11:49:53.150Z</time>
      </trkpt>
      <trkpt lat="48.78603" lon="2.28946">
        <ele>116.4</ele>
        <time>2013-11-10T11:50:01.822Z</time>
      </trkpt>
      <trkpt lat="48.78602" lon="2.28945">
        <ele>116.2</ele>
        <time>2013-11-10T11:50:02.094Z</time>
      </trkpt>
      <trkpt lat="48.78593" lon="2.28943">
        <ele>114.5</ele>
        <time>2013-11-10T11:50:12.011Z</time>
      </trkpt>
      <trkpt lat="48.78592" lon="2.28943">
        <ele>114.3</ele>
        <time>2013-11-10T11:50:12.112Z</time>
      </trkpt>
      <trkpt lat="48.78584" lon="2.2894">
        <ele>112.8</ele>
        <time>2013-11-10T11:50:18.158Z</time>
      </trkpt>
      <trkpt lat="48.78583" lon="2.28939">
        <ele>112.5</ele>
        <time>2013-11-10T11:50:19.158Z</time>
      </trkpt>
      <trkpt lat="48.78574" lon="2.28936">
        <ele>110.9</ele>
        <time>2013-11-10T11:50:24.157Z</time>
      </trkpt>
      <trkpt lat="48.78572" lon="2.28936">
        <ele>110.7</ele>
        <time>2013-11-10T11:50:25.160Z</time>
      </trkpt>
      <trkpt lat="48.78563" lon="2.28937">
        <ele>110.1</ele>
        <time>2013-11-10T11:50:29.166Z</time>
      </trkpt>
      <trkpt lat="48.78561" lon="2.28936">
        <ele>110</ele>
        <time>2013-11-10T11:50:30.178Z</time>
      </trkpt>
      <trkpt lat="48.78556" lon="2.28926">
        <ele>109.3</ele>
        <time>2013-11-10T11:50:36.158Z</time>
      </trkpt>
      <trkpt lat="48.78555" lon="2.28924">
        <ele>109.2</ele>
        <time>2013-11-10T11:50:37.161Z</time>
      </trkpt>
      <trkpt lat="48.78549" lon="2.28915">
        <ele>108.7</ele>
        <time>2013-11-10T11:50:44.154Z</time>
      </trkpt>
      <trkpt lat="48.78548" lon="2.28914">
        <ele>108.7</ele>
        <time>2013-11-10T11:50:45.156Z</time>
      </trkpt>
      <trkpt lat="48.78542" lon="2.28906">
        <ele>108.4</ele>
        <time>2013-11-10T11:50:52.921Z</time>
      </trkpt>
      <trkpt lat="48.78541" lon="2.28904">
        <ele>108.3</ele>
        <time>2013-11-10T11:50:53.123Z</time>
      </trkpt>
      <trkpt lat="48.78535" lon="2.28896">
        <ele>107.9</ele>
        <time>2013-11-10T11:50:58.108Z</time>
      </trkpt>
      <trkpt lat="48.78534" lon="2.28894">
        <ele>107.7</ele>
        <time>2013-11-10T11:50:59.163Z</time>
      </trkpt>
      <trkpt lat="48.78527" lon="2.28885">
        <ele>106.9</ele>
        <time>2013-11-10T11:51:05.157Z</time>
      </trkpt>
      <trkpt lat="48.78527" lon="2.28884">
        <ele>106.7</ele>
        <time>2013-11-10T11:51:06.154Z</time>
      </trkpt>
      <trkpt lat="48.7852" lon="2.28876">
        <ele>105.5</ele>
        <time>2013-11-10T11:51:13.142Z</time>
      </trkpt>
      <trkpt lat="48.78519" lon="2.28874">
        <ele>105.4</ele>
        <time>2013-11-10T11:51:14.152Z</time>
      </trkpt>
      <trkpt lat="48.78512" lon="2.28867">
        <ele>104.7</ele>
        <time>2013-11-10T11:51:19.147Z</time>
      </trkpt>
      <trkpt lat="48.78511" lon="2.28866">
        <ele>104.5</ele>
        <time>2013-11-10T11:51:20.148Z</time>
      </trkpt>
      <trkpt lat="48.78503" lon="2.28861">
        <ele>103.9</ele>
        <time>2013-11-10T11:51:27.137Z</time>
      </trkpt>
      <trkpt lat="48.78501" lon="2.28859">
        <ele>103.8</ele>
        <time>2013-11-10T11:51:27.244Z</time>
      </trkpt>
      <trkpt lat="48.78494" lon="2.28853">
        <ele>102.9</ele>
        <time>2013-11-10T11:51:33.155Z</time>
      </trkpt>
      <trkpt lat="48.78493" lon="2.28852">
        <ele>102.8</ele>
        <time>2013-11-10T11:51:34.152Z</time>
      </trkpt>
      <trkpt lat="48.78485" lon="2.28849">
        <ele>102.1</ele>
        <time>2013-11-10T11:51:39.159Z</time>
      </trkpt>
      <trkpt lat="48.78483" lon="2.28849">
        <ele>102</ele>
        <time>2013-11-10T11:51:40.159Z</time>
      </trkpt>
      <trkpt lat="48.78474" lon="2.28848">
        <ele>100.7</ele>
        <time>2013-11-10T11:51:48.159Z</time>
      </trkpt>
      <trkpt lat="48.78473" lon="2.28847">
        <ele>100.4</ele>
        <time>2013-11-10T11:51:49.098Z</time>
      </trkpt>
      <trkpt lat="48.78465" lon="2.28844">
        <ele>96.8</ele>
        <time>2013-11-10T11:51:58.138Z</time>
      </trkpt>
      <trkpt lat="48.78464" lon="2.28844">
        <ele>96.5</ele>
        <time>2013-11-10T11:51:59.137Z</time>
      </trkpt>
      <trkpt lat="48.78456" lon="2.28843">
        <ele>95.1</ele>
        <time>2013-11-10T11:52:05.135Z</time>
      </trkpt>
      <trkpt lat="48.78454" lon="2.28841">
        <ele>95</ele>
        <time>2013-11-10T11:52:06.103Z</time>
      </trkpt>
      <trkpt lat="48.78449" lon="2.28837">
        <ele>94.9</ele>
        <time>2013-11-10T11:52:08.105Z</time>
      </trkpt>
      <trkpt lat="48.78445" lon="2.28835">
        <ele>94.9</ele>
        <time>2013-11-10T11:52:09.072Z</time>
      </trkpt>
      <trkpt lat="48.78441" lon="2.28833">
        <ele>95</ele>
        <time>2013-11-10T11:52:10.093Z</time>
      </trkpt>
      <trkpt lat="48.78435" lon="2.2883">
        <ele>95.3</ele>
        <time>2013-11-10T11:52:11.114Z</time>
      </trkpt>
      <trkpt lat="48.78428" lon="2.28826">
        <ele>95.6</ele>
        <time>2013-11-10T11:52:12.078Z</time>
      </trkpt>
      <trkpt lat="48.78423" lon="2.28824">
        <ele>96</ele>
        <time>2013-11-10T11:52:13.069Z</time>
      </trkpt>
      <trkpt lat="48.78416" lon="2.28817">
        <ele>97.1</ele>
        <time>2013-11-10T11:52:16.070Z</time>
      </trkpt>
      <trkpt lat="48.78415" lon="2.28815">
        <ele>97.6</ele>
        <time>2013-11-10T11:52:17.073Z</time>
      </trkpt>
      <trkpt lat="48.78409" lon="2.28809">
        <ele>99.9</ele>
        <time>2013-11-10T11:52:23.101Z</time>
      </trkpt>
      <trkpt lat="48.78407" lon="2.28808">
        <ele>100.3</ele>
        <time>2013-11-10T11:52:24.112Z</time>
      </trkpt>
      <trkpt lat="48.78399" lon="2.28803">
        <ele>102.2</ele>
        <time>2013-11-10T11:52:30.107Z</time>
      </trkpt>
      <trkpt lat="48.78398" lon="2.28802">
        <ele>102.5</ele>
        <time>2013-11-10T11:52:31.103Z</time>
      </trkpt>
      <trkpt lat="48.7839" lon="2.28798">
        <ele>103.7</ele>
        <time>2013-11-10T11:52:36.087Z</time>
      </trkpt>
      <trkpt lat="48.78389" lon="2.28797">
        <ele>103.9</ele>
        <time>2013-11-10T11:52:37.093Z</time>
      </trkpt>
      <trkpt lat="48.78381" lon="2.28792">
        <ele>105.1</ele>
        <time>2013-11-10T11:52:43.085Z</time>
      </trkpt>
      <trkpt lat="48.7838" lon="2.28792">
        <ele>105.2</ele>
        <time>2013-11-10T11:52:44.080Z</time>
      </trkpt>
      <trkpt lat="48.78371" lon="2.28791">
        <ele>106.5</ele>
        <time>2013-11-10T11:52:53.098Z</time>
      </trkpt>
      <trkpt lat="48.78369" lon="2.28789">
        <ele>106.7</ele>
        <time>2013-11-10T11:52:54.119Z</time>
      </trkpt>
      <trkpt lat="48.78363" lon="2.2878">
        <ele>107.5</ele>
        <time>2013-11-10T11:52:59.111Z</time>
      </trkpt>
      <trkpt lat="48.78363" lon="2.28778">
        <ele>107.6</ele>
        <time>2013-11-10T11:53:00.232Z</time>
      </trkpt>
      <trkpt lat="48.78358" lon="2.28766">
        <ele>108.6</ele>
        <time>2013-11-10T11:53:07.103Z</time>
      </trkpt>
      <trkpt lat="48.78357" lon="2.28765">
        <ele>108.7</ele>
        <time>2013-11-10T11:53:08.152Z</time>
      </trkpt>
      <trkpt lat="48.78351" lon="2.28759">
        <ele>109.2</ele>
        <time>2013-11-10T11:53:15.160Z</time>
      </trkpt>
      <trkpt lat="48.7835" lon="2.28758">
        <ele>109.2</ele>
        <time>2013-11-10T11:53:16.207Z</time>
      </trkpt>
      <trkpt lat="48.78343" lon="2.28751">
        <ele>109.2</ele>
        <time>2013-11-10T11:53:22.135Z</time>
      </trkpt>
      <trkpt lat="48.78342" lon="2.2875">
        <ele>109.2</ele>
        <time>2013-11-10T11:53:23.145Z</time>
      </trkpt>
      <trkpt lat="48.78333" lon="2.28746">
        <ele>109.2</ele>
        <time>2013-11-10T11:53:28.157Z</time>
      </trkpt>
      <trkpt lat="48.78332" lon="2.28744">
        <ele>109.2</ele>
        <time>2013-11-10T11:53:29.156Z</time>
      </trkpt>
      <trkpt lat="48.78329" lon="2.28733">
        <ele>110.4</ele>
        <time>2013-11-10T11:53:37.170Z</time>
      </trkpt>
      <trkpt lat="48.78328" lon="2.28731">
        <ele>110.6</ele>
        <time>2013-11-10T11:53:37.292Z</time>
      </trkpt>
      <trkpt lat="48.78324" lon="2.2872">
        <ele>111</ele>
        <time>2013-11-10T11:53:44.209Z</time>
      </trkpt>
      <trkpt lat="48.78323" lon="2.28719">
        <ele>111.1</ele>
        <time>2013-11-10T11:53:45.159Z</time>
      </trkpt>
      <trkpt lat="48.78314" lon="2.28717">
        <ele>111.3</ele>
        <time>2013-11-10T11:53:51.159Z</time>
      </trkpt>
      <trkpt lat="48.78313" lon="2.28718">
        <ele>111.3</ele>
        <time>2013-11-10T11:53:52.160Z</time>
      </trkpt>
      <trkpt lat="48.78305" lon="2.28721">
        <ele>110.9</ele>
        <time>2013-11-10T11:53:58.219Z</time>
      </trkpt>
      <trkpt lat="48.78304" lon="2.28721">
        <ele>110.9</ele>
        <time>2013-11-10T11:53:59.159Z</time>
      </trkpt>
      <trkpt lat="48.78295" lon="2.28723">
        <ele>110.7</ele>
        <time>2013-11-10T11:54:06.849Z</time>
      </trkpt>
      <trkpt lat="48.78293" lon="2.28723">
        <ele>110.8</ele>
        <time>2013-11-10T11:54:07.116Z</time>
      </trkpt>
      <trkpt lat="48.78285" lon="2.28722">
        <ele>111.1</ele>
        <time>2013-11-10T11:54:13.158Z</time>
      </trkpt>
      <trkpt lat="48.78283" lon="2.28722">
        <ele>111.1</ele>
        <time>2013-11-10T11:54:14.158Z</time>
      </trkpt>
      <trkpt lat="48.78275" lon="2.28721">
        <ele>111.2</ele>
        <time>2013-11-10T11:54:20.442Z</time>
      </trkpt>
      <trkpt lat="48.78274" lon="2.28722">
        <ele>111.2</ele>
        <time>2013-11-10T11:54:21.161Z</time>
      </trkpt>
      <trkpt lat="48.78265" lon="2.28723">
        <ele>111.7</ele>
        <time>2013-11-10T11:54:27.256Z</time>
      </trkpt>
      <trkpt lat="48.78264" lon="2.28723">
        <ele>111.9</ele>
        <time>2013-11-10T11:54:28.157Z</time>
      </trkpt>
      <trkpt lat="48.78256" lon="2.28727">
        <ele>112.6</ele>
        <time>2013-11-10T11:54:37.274Z</time>
      </trkpt>
      <trkpt lat="48.78255" lon="2.28727">
        <ele>112.7</ele>
        <time>2013-11-10T11:54:38.166Z</time>
      </trkpt>
      <trkpt lat="48.78247" lon="2.28728">
        <ele>113.8</ele>
        <time>2013-11-10T11:54:46.154Z</time>
      </trkpt>
      <trkpt lat="48.78245" lon="2.28728">
        <ele>113.9</ele>
        <time>2013-11-10T11:54:47.153Z</time>
      </trkpt>
      <trkpt lat="48.78237" lon="2.28729">
        <ele>114.4</ele>
        <time>2013-11-10T11:54:52.419Z</time>
      </trkpt>
      <trkpt lat="48.78235" lon="2.28729">
        <ele>114.5</ele>
        <time>2013-11-10T11:54:53.161Z</time>
      </trkpt>
      <trkpt lat="48.78227" lon="2.28726">
        <ele>115.1</ele>
        <time>2013-11-10T11:55:03.113Z</time>
      </trkpt>
      <trkpt lat="48.78226" lon="2.28726">
        <ele>115</ele>
        <time>2013-11-10T11:55:04.157Z</time>
      </trkpt>
      <trkpt lat="48.78222" lon="2.28737">
        <ele>114.7</ele>
        <time>2013-11-10T11:55:10.156Z</time>
      </trkpt>
      <trkpt lat="48.78221" lon="2.28739">
        <ele>114.7</ele>
        <time>2013-11-10T11:55:11.156Z</time>
      </trkpt>
      <trkpt lat="48.78213" lon="2.28746">
        <ele>114.9</ele>
        <time>2013-11-10T11:55:19.162Z</time>
      </trkpt>
      <trkpt lat="48.78212" lon="2.28747">
        <ele>114.8</ele>
        <time>2013-11-10T11:55:20.163Z</time>
      </trkpt>
      <trkpt lat="48.78203" lon="2.28745">
        <ele>115.5</ele>
        <time>2013-11-10T11:55:28.161Z</time>
      </trkpt>
      <trkpt lat="48.78202" lon="2.28745">
        <ele>115.7</ele>
        <time>2013-11-10T11:55:29.162Z</time>
      </trkpt>
      <trkpt lat="48.78195" lon="2.28745">
        <ele>116.1</ele>
        <time>2013-11-10T11:55:33.153Z</time>
      </trkpt>
      <trkpt lat="48.78193" lon="2.28744">
        <ele>116.1</ele>
        <time>2013-11-10T11:55:34.167Z</time>
      </trkpt>
      <trkpt lat="48.78184" lon="2.28744">
        <ele>116.5</ele>
        <time>2013-11-10T11:55:39.122Z</time>
      </trkpt>
      <trkpt lat="48.78183" lon="2.28744">
        <ele>116.6</ele>
        <time>2013-11-10T11:55:40.138Z</time>
      </trkpt>
      <trkpt lat="48.78174" lon="2.28743">
        <ele>117.7</ele>
        <time>2013-11-10T11:55:47.266Z</time>
      </trkpt>
      <trkpt lat="48.78174" lon="2.28742">
        <ele>117.8</ele>
        <time>2013-11-10T11:55:48.104Z</time>
      </trkpt>
      <trkpt lat="48.78168" lon="2.28734">
        <ele>118.4</ele>
        <time>2013-11-10T11:55:56.764Z</time>
      </trkpt>
      <trkpt lat="48.78167" lon="2.28733">
        <ele>118.5</ele>
        <time>2013-11-10T11:55:57.096Z</time>
      </trkpt>
      <trkpt lat="48.78161" lon="2.28724">
        <ele>119.1</ele>
        <time>2013-11-10T11:56:03.120Z</time>
      </trkpt>
      <trkpt lat="48.7816" lon="2.28723">
        <ele>119.1</ele>
        <time>2013-11-10T11:56:04.095Z</time>
      </trkpt>
      <trkpt lat="48.78154" lon="2.28713">
        <ele>119.9</ele>
        <time>2013-11-10T11:56:11.842Z</time>
      </trkpt>
      <trkpt lat="48.78153" lon="2.28712">
        <ele>120.1</ele>
        <time>2013-11-10T11:56:12.084Z</time>
      </trkpt>
      <trkpt lat="48.78145" lon="2.28711">
        <ele>120.6</ele>
        <time>2013-11-10T11:56:19.105Z</time>
      </trkpt>
      <trkpt lat="48.78144" lon="2.2871">
        <ele>120.6</ele>
        <time>2013-11-10T11:56:20.092Z</time>
      </trkpt>
      <trkpt lat="48.78136" lon="2.28709">
        <ele>121</ele>
        <time>2013-11-10T11:56:29.104Z</time>
      </trkpt>
      <trkpt lat="48.78134" lon="2.28708">
        <ele>121.1</ele>
        <time>2013-11-10T11:56:30.088Z</time>
      </trkpt>
      <trkpt lat="48.78127" lon="2.28702">
        <ele>121.9</ele>
        <time>2013-11-10T11:56:38.088Z</time>
      </trkpt>
      <trkpt lat="48.78126" lon="2.28701">
        <ele>122</ele>
        <time>2013-11-10T11:56:39.090Z</time>
      </trkpt>
      <trkpt lat="48.78118" lon="2.28703">
        <ele>124</ele>
        <time>2013-11-10T11:56:52.085Z</time>
      </trkpt>
      <trkpt lat="48.78117" lon="2.28704">
        <ele>124.1</ele>
        <time>2013-11-10T11:56:53.100Z</time>
      </trkpt>
      <trkpt lat="48.78112" lon="2.28713">
        <ele>124.7</ele>
        <time>2013-11-10T11:57:01.835Z</time>
      </trkpt>
      <trkpt lat="48.78111" lon="2.28714">
        <ele>124.7</ele>
        <time>2013-11-10T11:57:02.107Z</time>
      </trkpt>
      <trkpt lat="48.78104" lon="2.28719">
        <ele>125.2</ele>
        <time>2013-11-10T11:57:09.100Z</time>
      </trkpt>
      <trkpt lat="48.78102" lon="2.2872">
        <ele>125.3</ele>
        <time>2013-11-10T11:57:10.078Z</time>
      </trkpt>
      <trkpt lat="48.78094" lon="2.28724">
        <ele>125.6</ele>
        <time>2013-11-10T11:57:19.076Z</time>
      </trkpt>
      <trkpt lat="48.78093" lon="2.28725">
        <ele>125.7</ele>
        <time>2013-11-10T11:57:20.107Z</time>
      </trkpt>
      <trkpt lat="48.78085" lon="2.28726">
        <ele>126.7</ele>
        <time>2013-11-10T11:57:30.083Z</time>
      </trkpt>
      <trkpt lat="48.78084" lon="2.28726">
        <ele>126.8</ele>
        <time>2013-11-10T11:57:31.098Z</time>
      </trkpt>
      <trkpt lat="48.78076" lon="2.28724">
        <ele>127.6</ele>
        <time>2013-11-10T11:57:42.032Z</time>
      </trkpt>
      <trkpt lat="48.78075" lon="2.28724">
        <ele>127.7</ele>
        <time>2013-11-10T11:57:42.088Z</time>
      </trkpt>
      <trkpt lat="48.78067" lon="2.2872">
        <ele>129</ele>
        <time>2013-11-10T11:57:53.101Z</time>
      </trkpt>
      <trkpt lat="48.78066" lon="2.2872">
        <ele>129.1</ele>
        <time>2013-11-10T11:57:54.106Z</time>
      </trkpt>
      <trkpt lat="48.7806" lon="2.28712">
        <ele>129.6</ele>
        <time>2013-11-10T11:58:00.089Z</time>
      </trkpt>
      <trkpt lat="48.78059" lon="2.2871">
        <ele>129.7</ele>
        <time>2013-11-10T11:58:01.086Z</time>
      </trkpt>
      <trkpt lat="48.78053" lon="2.28701">
        <ele>129.8</ele>
        <time>2013-11-10T11:58:07.086Z</time>
      </trkpt>
      <trkpt lat="48.78053" lon="2.287">
        <ele>129.8</ele>
        <time>2013-11-10T11:58:08.109Z</time>
      </trkpt>
      <trkpt lat="48.78044" lon="2.28695">
        <ele>129.9</ele>
        <time>2013-11-10T11:58:18.083Z</time>
      </trkpt>
      <trkpt lat="48.78043" lon="2.28695">
        <ele>129.9</ele>
        <time>2013-11-10T11:58:19.085Z</time>
      </trkpt>
      <trkpt lat="48.78035" lon="2.28693">
        <ele>130.7</ele>
        <time>2013-11-10T11:58:27.082Z</time>
      </trkpt>
      <trkpt lat="48.78034" lon="2.28692">
        <ele>130.8</ele>
        <time>2013-11-10T11:58:28.301Z</time>
      </trkpt>
      <trkpt lat="48.78025" lon="2.2869">
        <ele>131.1</ele>
        <time>2013-11-10T11:58:33.124Z</time>
      </trkpt>
      <trkpt lat="48.78023" lon="2.28689">
        <ele>131.2</ele>
        <time>2013-11-10T11:58:34.167Z</time>
      </trkpt>
      <trkpt lat="48.78015" lon="2.2869">
        <ele>131.4</ele>
        <time>2013-11-10T11:58:43.160Z</time>
      </trkpt>
      <trkpt lat="48.78014" lon="2.2869">
        <ele>131.3</ele>
        <time>2013-11-10T11:58:44.160Z</time>
      </trkpt>
      <trkpt lat="48.78007" lon="2.28687">
        <ele>130.6</ele>
        <time>2013-11-10T11:58:49.159Z</time>
      </trkpt>
      <trkpt lat="48.78005" lon="2.28686">
        <ele>130.5</ele>
        <time>2013-11-10T11:58:50.171Z</time>
      </trkpt>
      <trkpt lat="48.77997" lon="2.28681">
        <ele>128.5</ele>
        <time>2013-11-10T11:58:58.189Z</time>
      </trkpt>
      <trkpt lat="48.77995" lon="2.28681">
        <ele>128.3</ele>
        <time>2013-11-10T11:58:59.149Z</time>
      </trkpt>
      <trkpt lat="48.77987" lon="2.28679">
        <ele>127.8</ele>
        <time>2013-11-10T11:59:03.147Z</time>
      </trkpt>
      <trkpt lat="48.77985" lon="2.2868">
        <ele>127.8</ele>
        <time>2013-11-10T11:59:04.148Z</time>
      </trkpt>
      <trkpt lat="48.77979" lon="2.28687">
        <ele>127.9</ele>
        <time>2013-11-10T11:59:10.153Z</time>
      </trkpt>
      <trkpt lat="48.77978" lon="2.28688">
        <ele>127.9</ele>
        <time>2013-11-10T11:59:11.155Z</time>
      </trkpt>
      <trkpt lat="48.77971" lon="2.28682">
        <ele>129.3</ele>
        <time>2013-11-10T11:59:19.115Z</time>
      </trkpt>
      <trkpt lat="48.77969" lon="2.28679">
        <ele>129.6</ele>
        <time>2013-11-10T11:59:20.106Z</time>
      </trkpt>
      <trkpt lat="48.77964" lon="2.2867">
        <ele>130.5</ele>
        <time>2013-11-10T11:59:25.158Z</time>
      </trkpt>
      <trkpt lat="48.77963" lon="2.28669">
        <ele>130.6</ele>
        <time>2013-11-10T11:59:26.147Z</time>
      </trkpt>
      <trkpt lat="48.77955" lon="2.2867">
        <ele>131.3</ele>
        <time>2013-11-10T11:59:34.165Z</time>
      </trkpt>
      <trkpt lat="48.77954" lon="2.2867">
        <ele>131.4</ele>
        <time>2013-11-10T11:59:35.163Z</time>
      </trkpt>
      <trkpt lat="48.77946" lon="2.2867">
        <ele>131.9</ele>
        <time>2013-11-10T11:59:39.157Z</time>
      </trkpt>
      <trkpt lat="48.77944" lon="2.2867">
        <ele>132</ele>
        <time>2013-11-10T11:59:40.159Z</time>
      </trkpt>
      <trkpt lat="48.77935" lon="2.28666">
        <ele>132.3</ele>
        <time>2013-11-10T11:59:45.168Z</time>
      </trkpt>
      <trkpt lat="48.77934" lon="2.28665">
        <ele>132.4</ele>
        <time>2013-11-10T11:59:46.163Z</time>
      </trkpt>
      <trkpt lat="48.77926" lon="2.28661">
        <ele>133</ele>
        <time>2013-11-10T11:59:51.166Z</time>
      </trkpt>
      <trkpt lat="48.77924" lon="2.2866">
        <ele>133.1</ele>
        <time>2013-11-10T11:59:52.162Z</time>
      </trkpt>
      <trkpt lat="48.77916" lon="2.28657">
        <ele>134.1</ele>
        <time>2013-11-10T11:59:59.150Z</time>
      </trkpt>
      <trkpt lat="48.77914" lon="2.28657">
        <ele>134.1</ele>
        <time>2013-11-10T12:00:00.160Z</time>
      </trkpt>
      <trkpt lat="48.77905" lon="2.28656">
        <ele>134.7</ele>
        <time>2013-11-10T12:00:09.151Z</time>
      </trkpt>
      <trkpt lat="48.77905" lon="2.28656">
        <ele>134.8</ele>
        <time>2013-11-10T12:00:10.186Z</time>
      </trkpt>
      <trkpt lat="48.77897" lon="2.28654">
        <ele>136.2</ele>
        <time>2013-11-10T12:00:19.157Z</time>
      </trkpt>
      <trkpt lat="48.77896" lon="2.28653">
        <ele>136.3</ele>
        <time>2013-11-10T12:00:20.150Z</time>
      </trkpt>
      <trkpt lat="48.77889" lon="2.28647">
        <ele>136.9</ele>
        <time>2013-11-10T12:00:27.183Z</time>
      </trkpt>
      <trkpt lat="48.77888" lon="2.28645">
        <ele>137</ele>
        <time>2013-11-10T12:00:28.106Z</time>
      </trkpt>
      <trkpt lat="48.7788" lon="2.2864">
        <ele>137.4</ele>
        <time>2013-11-10T12:00:37.271Z</time>
      </trkpt>
      <trkpt lat="48.77879" lon="2.2864">
        <ele>137.5</ele>
        <time>2013-11-10T12:00:37.328Z</time>
      </trkpt>
      <trkpt lat="48.77871" lon="2.28639">
        <ele>137.7</ele>
        <time>2013-11-10T12:00:43.163Z</time>
      </trkpt>
      <trkpt lat="48.77869" lon="2.28639">
        <ele>137.7</ele>
        <time>2013-11-10T12:00:44.160Z</time>
      </trkpt>
      <trkpt lat="48.77861" lon="2.28638">
        <ele>137.8</ele>
        <time>2013-11-10T12:00:50.253Z</time>
      </trkpt>
      <trkpt lat="48.7786" lon="2.28638">
        <ele>137.8</ele>
        <time>2013-11-10T12:00:51.078Z</time>
      </trkpt>
      <trkpt lat="48.77852" lon="2.28639">
        <ele>137.4</ele>
        <time>2013-11-10T12:00:58.077Z</time>
      </trkpt>
      <trkpt lat="48.7785" lon="2.28639">
        <ele>137.3</ele>
        <time>2013-11-10T12:00:59.080Z</time>
      </trkpt>
      <trkpt lat="48.77842" lon="2.28638">
        <ele>137.3</ele>
        <time>2013-11-10T12:01:06.760Z</time>
      </trkpt>
      <trkpt lat="48.77841" lon="2.28637">
        <ele>137.3</ele>
        <time>2013-11-10T12:01:07.097Z</time>
      </trkpt>
      <trkpt lat="48.77833" lon="2.28636">
        <ele>137.5</ele>
        <time>2013-11-10T12:01:15.098Z</time>
      </trkpt>
      <trkpt lat="48.77832" lon="2.28635">
        <ele>137.5</ele>
        <time>2013-11-10T12:01:16.076Z</time>
      </trkpt>
      <trkpt lat="48.77824" lon="2.28633">
        <ele>137.8</ele>
        <time>2013-11-10T12:01:24.081Z</time>
      </trkpt>
      <trkpt lat="48.77822" lon="2.28633">
        <ele>137.8</ele>
        <time>2013-11-10T12:01:25.086Z</time>
      </trkpt>
      <trkpt lat="48.77814" lon="2.28634">
        <ele>138.1</ele>
        <time>2013-11-10T12:01:34.086Z</time>
      </trkpt>
      <trkpt lat="48.77813" lon="2.28634">
        <ele>138.1</ele>
        <time>2013-11-10T12:01:35.082Z</time>
      </trkpt>
      <trkpt lat="48.77805" lon="2.2863">
        <ele>138.5</ele>
        <time>2013-11-10T12:01:44.087Z</time>
      </trkpt>
      <trkpt lat="48.77804" lon="2.28629">
        <ele>138.5</ele>
        <time>2013-11-10T12:01:45.087Z</time>
      </trkpt>
      <trkpt lat="48.77795" lon="2.28628">
        <ele>138.2</ele>
        <time>2013-11-10T12:01:52.110Z</time>
      </trkpt>
      <trkpt lat="48.77793" lon="2.28628">
        <ele>138.1</ele>
        <time>2013-11-10T12:01:53.092Z</time>
      </trkpt>
      <trkpt lat="48.77784" lon="2.28629">
        <ele>137.8</ele>
        <time>2013-11-10T12:01:59.087Z</time>
      </trkpt>
      <trkpt lat="48.77783" lon="2.28628">
        <ele>137.7</ele>
        <time>2013-11-10T12:02:00.086Z</time>
      </trkpt>
      <trkpt lat="48.77775" lon="2.28623">
        <ele>137.3</ele>
        <time>2013-11-10T12:02:05.146Z</time>
      </trkpt>
      <trkpt lat="48.77773" lon="2.28622">
        <ele>137.4</ele>
        <time>2013-11-10T12:02:06.158Z</time>
      </trkpt>
      <trkpt lat="48.77765" lon="2.2862">
        <ele>137.5</ele>
        <time>2013-11-10T12:02:11.868Z</time>
      </trkpt>
      <trkpt lat="48.77763" lon="2.2862">
        <ele>137.6</ele>
        <time>2013-11-10T12:02:12.087Z</time>
      </trkpt>
      <trkpt lat="48.77756" lon="2.28619">
        <ele>137.8</ele>
        <time>2013-11-10T12:02:16.969Z</time>
      </trkpt>
      <trkpt lat="48.77754" lon="2.28619">
        <ele>137.9</ele>
        <time>2013-11-10T12:02:17.087Z</time>
      </trkpt>
      <trkpt lat="48.77746" lon="2.28618">
        <ele>138.1</ele>
        <time>2013-11-10T12:02:22.093Z</time>
      </trkpt>
      <trkpt lat="48.77745" lon="2.28618">
        <ele>138.2</ele>
        <time>2013-11-10T12:02:23.104Z</time>
      </trkpt>
      <trkpt lat="48.77736" lon="2.28617">
        <ele>138.3</ele>
        <time>2013-11-10T12:02:29.169Z</time>
      </trkpt>
      <trkpt lat="48.77734" lon="2.28616">
        <ele>138.3</ele>
        <time>2013-11-10T12:02:30.189Z</time>
      </trkpt>
      <trkpt lat="48.77726" lon="2.28614">
        <ele>138.7</ele>
        <time>2013-11-10T12:02:37.163Z</time>
      </trkpt>
      <trkpt lat="48.77724" lon="2.28613">
        <ele>138.7</ele>
        <time>2013-11-10T12:02:37.250Z</time>
      </trkpt>
      <trkpt lat="48.77716" lon="2.2861">
        <ele>138.8</ele>
        <time>2013-11-10T12:02:43.154Z</time>
      </trkpt>
      <trkpt lat="48.77715" lon="2.28609">
        <ele>138.9</ele>
        <time>2013-11-10T12:02:44.254Z</time>
      </trkpt>
      <trkpt lat="48.77706" lon="2.2861">
        <ele>139.2</ele>
        <time>2013-11-10T12:02:51.152Z</time>
      </trkpt>
      <trkpt lat="48.77705" lon="2.2861">
        <ele>139.3</ele>
        <time>2013-11-10T12:02:52.153Z</time>
      </trkpt>
      <trkpt lat="48.77698" lon="2.28617">
        <ele>139.4</ele>
        <time>2013-11-10T12:02:58.148Z</time>
      </trkpt>
      <trkpt lat="48.77697" lon="2.28619">
        <ele>139.3</ele>
        <time>2013-11-10T12:02:59.145Z</time>
      </trkpt>
      <trkpt lat="48.77693" lon="2.2863">
        <ele>137.8</ele>
        <time>2013-11-10T12:03:08.103Z</time>
      </trkpt>
      <trkpt lat="48.77691" lon="2.28631">
        <ele>137.7</ele>
        <time>2013-11-10T12:03:09.886Z</time>
      </trkpt>
      <trkpt lat="48.77683" lon="2.28629">
        <ele>137.4</ele>
        <time>2013-11-10T12:03:14.117Z</time>
      </trkpt>
      <trkpt lat="48.77682" lon="2.28629">
        <ele>137.4</ele>
        <time>2013-11-10T12:03:15.102Z</time>
      </trkpt>
      <trkpt lat="48.77673" lon="2.28628">
        <ele>136.2</ele>
        <time>2013-11-10T12:03:21.111Z</time>
      </trkpt>
      <trkpt lat="48.77672" lon="2.28628">
        <ele>135.9</ele>
        <time>2013-11-10T12:03:22.093Z</time>
      </trkpt>
      <trkpt lat="48.77664" lon="2.28627">
        <ele>134</ele>
        <time>2013-11-10T12:03:32.299Z</time>
      </trkpt>
      <trkpt lat="48.77662" lon="2.28626">
        <ele>133.8</ele>
        <time>2013-11-10T12:03:33.082Z</time>
      </trkpt>
      <trkpt lat="48.77654" lon="2.28624">
        <ele>132.5</ele>
        <time>2013-11-10T12:03:41.103Z</time>
      </trkpt>
      <trkpt lat="48.77653" lon="2.28624">
        <ele>132.3</ele>
        <time>2013-11-10T12:03:42.142Z</time>
      </trkpt>
      <trkpt lat="48.77645" lon="2.28622">
        <ele>131.9</ele>
        <time>2013-11-10T12:03:46.141Z</time>
      </trkpt>
      <trkpt lat="48.77644" lon="2.28621">
        <ele>131.8</ele>
        <time>2013-11-10T12:03:47.139Z</time>
      </trkpt>
      <trkpt lat="48.77636" lon="2.28617">
        <ele>131.6</ele>
        <time>2013-11-10T12:03:52.618Z</time>
      </trkpt>
      <trkpt lat="48.77634" lon="2.28616">
        <ele>131.6</ele>
        <time>2013-11-10T12:03:53.142Z</time>
      </trkpt>
      <trkpt lat="48.77626" lon="2.28617">
        <ele>131.4</ele>
        <time>2013-11-10T12:03:59.242Z</time>
      </trkpt>
      <trkpt lat="48.77624" lon="2.28617">
        <ele>131.4</ele>
        <time>2013-11-10T12:04:00.123Z</time>
      </trkpt>
      <trkpt lat="48.77616" lon="2.28618">
        <ele>131.4</ele>
        <time>2013-11-10T12:04:06.155Z</time>
      </trkpt>
      <trkpt lat="48.77614" lon="2.28618">
        <ele>131.3</ele>
        <time>2013-11-10T12:04:07.103Z</time>
      </trkpt>
      <trkpt lat="48.77606" lon="2.28618">
        <ele>131.3</ele>
        <time>2013-11-10T12:04:12.102Z</time>
      </trkpt>
      <trkpt lat="48.77604" lon="2.28617">
        <ele>131.3</ele>
        <time>2013-11-10T12:04:13.144Z</time>
      </trkpt>
      <trkpt lat="48.77596" lon="2.28617">
        <ele>131.4</ele>
        <time>2013-11-10T12:04:19.149Z</time>
      </trkpt>
      <trkpt lat="48.77594" lon="2.28616">
        <ele>131.4</ele>
        <time>2013-11-10T12:04:20.151Z</time>
      </trkpt>
      <trkpt lat="48.77586" lon="2.28613">
        <ele>131.2</ele>
        <time>2013-11-10T12:04:27.157Z</time>
      </trkpt>
      <trkpt lat="48.77585" lon="2.28613">
        <ele>131.1</ele>
        <time>2013-11-10T12:04:28.148Z</time>
      </trkpt>
      <trkpt lat="48.77576" lon="2.28611">
        <ele>130</ele>
        <time>2013-11-10T12:04:43.116Z</time>
      </trkpt>
      <trkpt lat="48.77575" lon="2.2861">
        <ele>129.9</ele>
        <time>2013-11-10T12:04:44.123Z</time>
      </trkpt>
      <trkpt lat="48.77567" lon="2.28607">
        <ele>129.8</ele>
        <time>2013-11-10T12:04:48.117Z</time>
      </trkpt>
      <trkpt lat="48.77565" lon="2.28607">
        <ele>129.8</ele>
        <time>2013-11-10T12:04:49.118Z</time>
      </trkpt>
      <trkpt lat="48.77557" lon="2.28605">
        <ele>129.7</ele>
        <time>2013-11-10T12:04:54.120Z</time>
      </trkpt>
      <trkpt lat="48.77555" lon="2.28605">
        <ele>129.8</ele>
        <time>2013-11-10T12:04:55.108Z</time>
      </trkpt>
      <trkpt lat="48.77547" lon="2.28604">
        <ele>129.9</ele>
        <time>2013-11-10T12:05:02.100Z</time>
      </trkpt>
      <trkpt lat="48.77546" lon="2.28604">
        <ele>129.9</ele>
        <time>2013-11-10T12:05:03.241Z</time>
      </trkpt>
      <trkpt lat="48.77538" lon="2.28603">
        <ele>129.8</ele>
        <time>2013-11-10T12:05:09.198Z</time>
      </trkpt>
      <trkpt lat="48.77537" lon="2.28603">
        <ele>129.8</ele>
        <time>2013-11-10T12:05:10.121Z</time>
      </trkpt>
      <trkpt lat="48.77528" lon="2.286">
        <ele>129.7</ele>
        <time>2013-11-10T12:05:17.025Z</time>
      </trkpt>
      <trkpt lat="48.77527" lon="2.286">
        <ele>129.7</ele>
        <time>2013-11-10T12:05:17.169Z</time>
      </trkpt>
      <trkpt lat="48.77519" lon="2.28596">
        <ele>129.8</ele>
        <time>2013-11-10T12:05:23.150Z</time>
      </trkpt>
      <trkpt lat="48.77518" lon="2.28596">
        <ele>129.8</ele>
        <time>2013-11-10T12:05:24.149Z</time>
      </trkpt>
      <trkpt lat="48.7751" lon="2.28594">
        <ele>129.7</ele>
        <time>2013-11-10T12:05:30.158Z</time>
      </trkpt>
      <trkpt lat="48.77508" lon="2.28594">
        <ele>129.7</ele>
        <time>2013-11-10T12:05:31.155Z</time>
      </trkpt>
      <trkpt lat="48.775" lon="2.28592">
        <ele>129.1</ele>
        <time>2013-11-10T12:05:38.118Z</time>
      </trkpt>
      <trkpt lat="48.77498" lon="2.28592">
        <ele>128.9</ele>
        <time>2013-11-10T12:05:39.128Z</time>
      </trkpt>
      <trkpt lat="48.7749" lon="2.28588">
        <ele>128.5</ele>
        <time>2013-11-10T12:05:45.157Z</time>
      </trkpt>
      <trkpt lat="48.77488" lon="2.28587">
        <ele>128.5</ele>
        <time>2013-11-10T12:05:46.157Z</time>
      </trkpt>
      <trkpt lat="48.7748" lon="2.28585">
        <ele>128.3</ele>
        <time>2013-11-10T12:05:52.316Z</time>
      </trkpt>
      <trkpt lat="48.77478" lon="2.28585">
        <ele>128.2</ele>
        <time>2013-11-10T12:05:53.168Z</time>
      </trkpt>
      <trkpt lat="48.7747" lon="2.28583">
        <ele>128.2</ele>
        <time>2013-11-10T12:05:59.167Z</time>
      </trkpt>
      <trkpt lat="48.77468" lon="2.28582">
        <ele>128.2</ele>
        <time>2013-11-10T12:06:00.154Z</time>
      </trkpt>
      <trkpt lat="48.7746" lon="2.2858">
        <ele>128.5</ele>
        <time>2013-11-10T12:06:06.884Z</time>
      </trkpt>
      <trkpt lat="48.77458" lon="2.28579">
        <ele>128.6</ele>
        <time>2013-11-10T12:06:07.117Z</time>
      </trkpt>
      <trkpt lat="48.77451" lon="2.28575">
        <ele>128.8</ele>
        <time>2013-11-10T12:06:12.117Z</time>
      </trkpt>
      <trkpt lat="48.77449" lon="2.28575">
        <ele>128.8</ele>
        <time>2013-11-10T12:06:13.160Z</time>
      </trkpt>
      <trkpt lat="48.77441" lon="2.28575">
        <ele>128.7</ele>
        <time>2013-11-10T12:06:19.169Z</time>
      </trkpt>
      <trkpt lat="48.7744" lon="2.28575">
        <ele>128.7</ele>
        <time>2013-11-10T12:06:20.167Z</time>
      </trkpt>
      <trkpt lat="48.77431" lon="2.28573">
        <ele>128.8</ele>
        <time>2013-11-10T12:06:27.169Z</time>
      </trkpt>
      <trkpt lat="48.7743" lon="2.28573">
        <ele>128.8</ele>
        <time>2013-11-10T12:06:28.164Z</time>
      </trkpt>
      <trkpt lat="48.77421" lon="2.28572">
        <ele>129</ele>
        <time>2013-11-10T12:06:34.163Z</time>
      </trkpt>
      <trkpt lat="48.7742" lon="2.28571">
        <ele>129</ele>
        <time>2013-11-10T12:06:35.164Z</time>
      </trkpt>
      <trkpt lat="48.77412" lon="2.2857">
        <ele>129</ele>
        <time>2013-11-10T12:06:40.289Z</time>
      </trkpt>
      <trkpt lat="48.77411" lon="2.28569">
        <ele>129.1</ele>
        <time>2013-11-10T12:06:41.343Z</time>
      </trkpt>
      <trkpt lat="48.77403" lon="2.28567">
        <ele>129.1</ele>
        <time>2013-11-10T12:06:48.161Z</time>
      </trkpt>
      <trkpt lat="48.77402" lon="2.28567">
        <ele>129.1</ele>
        <time>2013-11-10T12:06:49.160Z</time>
      </trkpt>
      <trkpt lat="48.77393" lon="2.28566">
        <ele>128.7</ele>
        <time>2013-11-10T12:06:56.805Z</time>
      </trkpt>
      <trkpt lat="48.77392" lon="2.28566">
        <ele>128.6</ele>
        <time>2013-11-10T12:06:57.123Z</time>
      </trkpt>
      <trkpt lat="48.77384" lon="2.28564">
        <ele>128.6</ele>
        <time>2013-11-10T12:07:02.105Z</time>
      </trkpt>
      <trkpt lat="48.77383" lon="2.28564">
        <ele>128.7</ele>
        <time>2013-11-10T12:07:03.153Z</time>
      </trkpt>
      <trkpt lat="48.77375" lon="2.28562">
        <ele>128.3</ele>
        <time>2013-11-10T12:07:10.158Z</time>
      </trkpt>
      <trkpt lat="48.77374" lon="2.28561">
        <ele>128.1</ele>
        <time>2013-11-10T12:07:11.154Z</time>
      </trkpt>
      <trkpt lat="48.77365" lon="2.28559">
        <ele>127</ele>
        <time>2013-11-10T12:07:17.111Z</time>
      </trkpt>
      <trkpt lat="48.77364" lon="2.28559">
        <ele>126.8</ele>
        <time>2013-11-10T12:07:17.170Z</time>
      </trkpt>
      <trkpt lat="48.77356" lon="2.28558">
        <ele>125.9</ele>
        <time>2013-11-10T12:07:23.509Z</time>
      </trkpt>
      <trkpt lat="48.77355" lon="2.28558">
        <ele>125.9</ele>
        <time>2013-11-10T12:07:24.161Z</time>
      </trkpt>
      <trkpt lat="48.77348" lon="2.28563">
        <ele>125.5</ele>
        <time>2013-11-10T12:07:29.162Z</time>
      </trkpt>
      <trkpt lat="48.77346" lon="2.28564">
        <ele>125.4</ele>
        <time>2013-11-10T12:07:30.271Z</time>
      </trkpt>
      <trkpt lat="48.7734" lon="2.28573">
        <ele>125.2</ele>
        <time>2013-11-10T12:07:35.162Z</time>
      </trkpt>
      <trkpt lat="48.77339" lon="2.28576">
        <ele>125.1</ele>
        <time>2013-11-10T12:07:36.164Z</time>
      </trkpt>
      <trkpt lat="48.77336" lon="2.28586">
        <ele>124.5</ele>
        <time>2013-11-10T12:07:40.137Z</time>
      </trkpt>
      <trkpt lat="48.77336" lon="2.28589">
        <ele>124.3</ele>
        <time>2013-11-10T12:07:41.221Z</time>
      </trkpt>
      <trkpt lat="48.77328" lon="2.28595">
        <ele>123.2</ele>
        <time>2013-11-10T12:07:50.131Z</time>
      </trkpt>
      <trkpt lat="48.77327" lon="2.28595">
        <ele>123</ele>
        <time>2013-11-10T12:07:51.133Z</time>
      </trkpt>
      <trkpt lat="48.77319" lon="2.28595">
        <ele>122.5</ele>
        <time>2013-11-10T12:07:56.811Z</time>
      </trkpt>
      <trkpt lat="48.77317" lon="2.28594">
        <ele>122.3</ele>
        <time>2013-11-10T12:07:57.107Z</time>
      </trkpt>
      <trkpt lat="48.77309" lon="2.28593">
        <ele>121.4</ele>
        <time>2013-11-10T12:08:02.100Z</time>
      </trkpt>
      <trkpt lat="48.77307" lon="2.28593">
        <ele>121.2</ele>
        <time>2013-11-10T12:08:03.132Z</time>
      </trkpt>
      <trkpt lat="48.77299" lon="2.28592">
        <ele>120.5</ele>
        <time>2013-11-10T12:08:09.131Z</time>
      </trkpt>
      <trkpt lat="48.77298" lon="2.28592">
        <ele>120.4</ele>
        <time>2013-11-10T12:08:10.133Z</time>
      </trkpt>
      <trkpt lat="48.77289" lon="2.28592">
        <ele>119.2</ele>
        <time>2013-11-10T12:08:16.938Z</time>
      </trkpt>
      <trkpt lat="48.77288" lon="2.28592">
        <ele>119</ele>
        <time>2013-11-10T12:08:17.201Z</time>
      </trkpt>
      <trkpt lat="48.77281" lon="2.28597">
        <ele>118.3</ele>
        <time>2013-11-10T12:08:23.142Z</time>
      </trkpt>
      <trkpt lat="48.7728" lon="2.286">
        <ele>118.1</ele>
        <time>2013-11-10T12:08:24.137Z</time>
      </trkpt>
      <trkpt lat="48.77277" lon="2.28613">
        <ele>117.4</ele>
        <time>2013-11-10T12:08:29.138Z</time>
      </trkpt>
      <trkpt lat="48.77276" lon="2.28614">
        <ele>117.2</ele>
        <time>2013-11-10T12:08:30.137Z</time>
      </trkpt>
      <trkpt lat="48.77272" lon="2.28627">
        <ele>116.1</ele>
        <time>2013-11-10T12:08:37.167Z</time>
      </trkpt>
      <trkpt lat="48.77272" lon="2.28629">
        <ele>115.9</ele>
        <time>2013-11-10T12:08:38.136Z</time>
      </trkpt>
      <trkpt lat="48.77269" lon="2.28639">
        <ele>114.4</ele>
        <time>2013-11-10T12:08:47.165Z</time>
      </trkpt>
      <trkpt lat="48.77269" lon="2.28641">
        <ele>114.2</ele>
        <time>2013-11-10T12:08:48.133Z</time>
      </trkpt>
      <trkpt lat="48.77265" lon="2.28652">
        <ele>113.5</ele>
        <time>2013-11-10T12:08:53.133Z</time>
      </trkpt>
      <trkpt lat="48.77264" lon="2.28653">
        <ele>113.3</ele>
        <time>2013-11-10T12:08:54.133Z</time>
      </trkpt>
      <trkpt lat="48.77257" lon="2.28657">
        <ele>111.6</ele>
        <time>2013-11-10T12:09:02.092Z</time>
      </trkpt>
      <trkpt lat="48.77255" lon="2.28657">
        <ele>111.4</ele>
        <time>2013-11-10T12:09:03.132Z</time>
      </trkpt>
      <trkpt lat="48.77247" lon="2.28657">
        <ele>110.9</ele>
        <time>2013-11-10T12:09:08.130Z</time>
      </trkpt>
      <trkpt lat="48.77246" lon="2.28659">
        <ele>110.9</ele>
        <time>2013-11-10T12:09:09.132Z</time>
      </trkpt>
      <trkpt lat="48.77245" lon="2.28671">
        <ele>110.3</ele>
        <time>2013-11-10T12:09:17.028Z</time>
      </trkpt>
      <trkpt lat="48.77245" lon="2.28673">
        <ele>110.3</ele>
        <time>2013-11-10T12:09:17.180Z</time>
      </trkpt>
      <trkpt lat="48.77252" lon="2.28668">
        <ele>109.7</ele>
        <time>2013-11-10T12:09:27.227Z</time>
      </trkpt>
      <trkpt lat="48.77252" lon="2.28669">
        <ele>109.7</ele>
        <time>2013-11-10T12:09:28.139Z</time>
      </trkpt>
      <trkpt lat="48.77251" lon="2.2867">
        <ele>109.8</ele>
        <time>2013-11-10T12:09:29.137Z</time>
      </trkpt>
      <trkpt lat="48.77249" lon="2.28682">
        <ele>110.1</ele>
        <time>2013-11-10T12:09:34.141Z</time>
      </trkpt>
      <trkpt lat="48.77249" lon="2.28684">
        <ele>110.2</ele>
        <time>2013-11-10T12:09:35.153Z</time>
      </trkpt>
      <trkpt lat="48.77248" lon="2.28697">
        <ele>110.3</ele>
        <time>2013-11-10T12:09:42.182Z</time>
      </trkpt>
      <trkpt lat="48.77248" lon="2.28698">
        <ele>110.4</ele>
        <time>2013-11-10T12:09:43.117Z</time>
      </trkpt>
      <trkpt lat="48.7725" lon="2.2871">
        <ele>110.4</ele>
        <time>2013-11-10T12:09:49.103Z</time>
      </trkpt>
      <trkpt lat="48.77251" lon="2.28712">
        <ele>110.4</ele>
        <time>2013-11-10T12:09:50.107Z</time>
      </trkpt>
      <trkpt lat="48.77252" lon="2.28724">
        <ele>109.6</ele>
        <time>2013-11-10T12:09:57.103Z</time>
      </trkpt>
      <trkpt lat="48.77252" lon="2.28726">
        <ele>109.4</ele>
        <time>2013-11-10T12:09:58.104Z</time>
      </trkpt>
      <trkpt lat="48.77255" lon="2.28737">
        <ele>109.1</ele>
        <time>2013-11-10T12:10:03.124Z</time>
      </trkpt>
      <trkpt lat="48.77255" lon="2.2874">
        <ele>109</ele>
        <time>2013-11-10T12:10:04.099Z</time>
      </trkpt>
      <trkpt lat="48.77258" lon="2.2875">
        <ele>108.8</ele>
        <time>2013-11-10T12:10:09.094Z</time>
      </trkpt>
      <trkpt lat="48.77258" lon="2.28752">
        <ele>108.8</ele>
        <time>2013-11-10T12:10:10.101Z</time>
      </trkpt>
      <trkpt lat="48.77261" lon="2.28764">
        <ele>108.3</ele>
        <time>2013-11-10T12:10:16.837Z</time>
      </trkpt>
      <trkpt lat="48.77262" lon="2.28766">
        <ele>108.3</ele>
        <time>2013-11-10T12:10:17.076Z</time>
      </trkpt>
      <trkpt lat="48.77265" lon="2.28777">
        <ele>108.4</ele>
        <time>2013-11-10T12:10:24.102Z</time>
      </trkpt>
      <trkpt lat="48.77266" lon="2.28779">
        <ele>108.5</ele>
        <time>2013-11-10T12:10:25.074Z</time>
      </trkpt>
      <trkpt lat="48.77268" lon="2.28791">
        <ele>109</ele>
        <time>2013-11-10T12:10:31.863Z</time>
      </trkpt>
      <trkpt lat="48.77269" lon="2.28794">
        <ele>109.2</ele>
        <time>2013-11-10T12:10:32.137Z</time>
      </trkpt>
      <trkpt lat="48.7727" lon="2.28807">
        <ele>110.7</ele>
        <time>2013-11-10T12:10:39.074Z</time>
      </trkpt>
      <trkpt lat="48.77271" lon="2.28808">
        <ele>110.8</ele>
        <time>2013-11-10T12:10:40.111Z</time>
      </trkpt>
      <trkpt lat="48.77274" lon="2.28821">
        <ele>110.9</ele>
        <time>2013-11-10T12:10:49.079Z</time>
      </trkpt>
      <trkpt lat="48.77274" lon="2.28823">
        <ele>110.9</ele>
        <time>2013-11-10T12:10:50.087Z</time>
      </trkpt>
      <trkpt lat="48.77277" lon="2.28834">
        <ele>110.8</ele>
        <time>2013-11-10T12:11:00.095Z</time>
      </trkpt>
      <trkpt lat="48.77278" lon="2.28835">
        <ele>110.6</ele>
        <time>2013-11-10T12:11:01.082Z</time>
      </trkpt>
      <trkpt lat="48.77282" lon="2.28845">
        <ele>109.9</ele>
        <time>2013-11-10T12:11:07.102Z</time>
      </trkpt>
      <trkpt lat="48.77283" lon="2.28847">
        <ele>109.8</ele>
        <time>2013-11-10T12:11:08.075Z</time>
      </trkpt>
      <trkpt lat="48.77287" lon="2.28857">
        <ele>108.5</ele>
        <time>2013-11-10T12:11:15.071Z</time>
      </trkpt>
      <trkpt lat="48.77288" lon="2.28859">
        <ele>108.2</ele>
        <time>2013-11-10T12:11:16.075Z</time>
      </trkpt>
      <trkpt lat="48.77293" lon="2.28869">
        <ele>106.6</ele>
        <time>2013-11-10T12:11:23.076Z</time>
      </trkpt>
      <trkpt lat="48.77293" lon="2.28872">
        <ele>106.5</ele>
        <time>2013-11-10T12:11:24.076Z</time>
      </trkpt>
      <trkpt lat="48.77297" lon="2.28883">
        <ele>106</ele>
        <time>2013-11-10T12:11:29.103Z</time>
      </trkpt>
      <trkpt lat="48.77297" lon="2.28885">
        <ele>105.8</ele>
        <time>2013-11-10T12:11:30.222Z</time>
      </trkpt>
      <trkpt lat="48.773" lon="2.28897">
        <ele>105.3</ele>
        <time>2013-11-10T12:11:35.148Z</time>
      </trkpt>
      <trkpt lat="48.77301" lon="2.289">
        <ele>105.2</ele>
        <time>2013-11-10T12:11:36.150Z</time>
      </trkpt>
      <trkpt lat="48.77303" lon="2.28912">
        <ele>104.8</ele>
        <time>2013-11-10T12:11:42.145Z</time>
      </trkpt>
      <trkpt lat="48.77304" lon="2.28915">
        <ele>104.7</ele>
        <time>2013-11-10T12:11:43.157Z</time>
      </trkpt>
      <trkpt lat="48.77307" lon="2.28925">
        <ele>104.4</ele>
        <time>2013-11-10T12:11:48.149Z</time>
      </trkpt>
      <trkpt lat="48.77308" lon="2.28927">
        <ele>104.4</ele>
        <time>2013-11-10T12:11:49.143Z</time>
      </trkpt>
      <trkpt lat="48.7731" lon="2.2894">
        <ele>104.4</ele>
        <time>2013-11-10T12:11:54.294Z</time>
      </trkpt>
      <trkpt lat="48.77311" lon="2.28942">
        <ele>104.4</ele>
        <time>2013-11-10T12:11:55.151Z</time>
      </trkpt>
      <trkpt lat="48.77312" lon="2.28955">
        <ele>104.4</ele>
        <time>2013-11-10T12:12:01.853Z</time>
      </trkpt>
      <trkpt lat="48.77312" lon="2.28957">
        <ele>104.4</ele>
        <time>2013-11-10T12:12:02.072Z</time>
      </trkpt>
      <trkpt lat="48.77316" lon="2.28969">
        <ele>104.3</ele>
        <time>2013-11-10T12:12:08.111Z</time>
      </trkpt>
      <trkpt lat="48.77317" lon="2.28971">
        <ele>104.3</ele>
        <time>2013-11-10T12:12:09.106Z</time>
      </trkpt>
      <trkpt lat="48.7732" lon="2.28981">
        <ele>103.9</ele>
        <time>2013-11-10T12:12:14.106Z</time>
      </trkpt>
      <trkpt lat="48.7732" lon="2.28984">
        <ele>103.8</ele>
        <time>2013-11-10T12:12:15.108Z</time>
      </trkpt>
      <trkpt lat="48.77322" lon="2.28995">
        <ele>103.5</ele>
        <time>2013-11-10T12:12:20.106Z</time>
      </trkpt>
      <trkpt lat="48.77323" lon="2.28997">
        <ele>103.5</ele>
        <time>2013-11-10T12:12:21.106Z</time>
      </trkpt>
      <trkpt lat="48.77326" lon="2.29008">
        <ele>103.4</ele>
        <time>2013-11-10T12:12:27.440Z</time>
      </trkpt>
      <trkpt lat="48.77326" lon="2.2901">
        <ele>103.3</ele>
        <time>2013-11-10T12:12:28.109Z</time>
      </trkpt>
      <trkpt lat="48.77327" lon="2.29023">
        <ele>103.1</ele>
        <time>2013-11-10T12:12:33.114Z</time>
      </trkpt>
      <trkpt lat="48.77327" lon="2.29026">
        <ele>103</ele>
        <time>2013-11-10T12:12:34.113Z</time>
      </trkpt>
      <trkpt lat="48.77329" lon="2.29038">
        <ele>102.6</ele>
        <time>2013-11-10T12:12:41.116Z</time>
      </trkpt>
      <trkpt lat="48.7733" lon="2.29041">
        <ele>102.5</ele>
        <time>2013-11-10T12:12:42.117Z</time>
      </trkpt>
      <trkpt lat="48.77331" lon="2.29054">
        <ele>102.3</ele>
        <time>2013-11-10T12:12:47.376Z</time>
      </trkpt>
      <trkpt lat="48.77331" lon="2.29057">
        <ele>102.3</ele>
        <time>2013-11-10T12:12:48.114Z</time>
      </trkpt>
      <trkpt lat="48.77334" lon="2.29069">
        <ele>102.2</ele>
        <time>2013-11-10T12:12:54.110Z</time>
      </trkpt>
      <trkpt lat="48.77335" lon="2.2907">
        <ele>102.2</ele>
        <time>2013-11-10T12:12:55.110Z</time>
      </trkpt>
      <trkpt lat="48.77338" lon="2.29081">
        <ele>101.9</ele>
        <time>2013-11-10T12:13:00.162Z</time>
      </trkpt>
      <trkpt lat="48.77338" lon="2.29083">
        <ele>101.8</ele>
        <time>2013-11-10T12:13:01.106Z</time>
      </trkpt>
      <trkpt lat="48.77341" lon="2.29094">
        <ele>102</ele>
        <time>2013-11-10T12:13:08.106Z</time>
      </trkpt>
      <trkpt lat="48.77341" lon="2.29097">
        <ele>102.1</ele>
        <time>2013-11-10T12:13:09.106Z</time>
      </trkpt>
      <trkpt lat="48.77342" lon="2.29109">
        <ele>102.5</ele>
        <time>2013-11-10T12:13:14.107Z</time>
      </trkpt>
      <trkpt lat="48.77342" lon="2.29111">
        <ele>102.5</ele>
        <time>2013-11-10T12:13:15.110Z</time>
      </trkpt>
      <trkpt lat="48.77344" lon="2.29123">
        <ele>102.4</ele>
        <time>2013-11-10T12:13:21.964Z</time>
      </trkpt>
      <trkpt lat="48.77344" lon="2.29125">
        <ele>102.3</ele>
        <time>2013-11-10T12:13:22.122Z</time>
      </trkpt>
      <trkpt lat="48.77347" lon="2.29136">
        <ele>102.3</ele>
        <time>2013-11-10T12:13:27.143Z</time>
      </trkpt>
      <trkpt lat="48.77348" lon="2.29138">
        <ele>102.3</ele>
        <time>2013-11-10T12:13:28.112Z</time>
      </trkpt>
      <trkpt lat="48.77351" lon="2.2915">
        <ele>101.9</ele>
        <time>2013-11-10T12:13:37.092Z</time>
      </trkpt>
      <trkpt lat="48.77351" lon="2.29152">
        <ele>101.8</ele>
        <time>2013-11-10T12:13:37.262Z</time>
      </trkpt>
      <trkpt lat="48.77353" lon="2.29165">
        <ele>101.2</ele>
        <time>2013-11-10T12:13:43.115Z</time>
      </trkpt>
      <trkpt lat="48.77353" lon="2.29167">
        <ele>101.2</ele>
        <time>2013-11-10T12:13:44.120Z</time>
      </trkpt>
      <trkpt lat="48.77355" lon="2.2918">
        <ele>100.7</ele>
        <time>2013-11-10T12:13:49.174Z</time>
      </trkpt>
      <trkpt lat="48.77356" lon="2.29182">
        <ele>100.6</ele>
        <time>2013-11-10T12:13:50.166Z</time>
      </trkpt>
      <trkpt lat="48.77357" lon="2.29194">
        <ele>100.9</ele>
        <time>2013-11-10T12:13:57.090Z</time>
      </trkpt>
      <trkpt lat="48.77357" lon="2.29195">
        <ele>101</ele>
        <time>2013-11-10T12:13:58.115Z</time>
      </trkpt>
      <trkpt lat="48.77359" lon="2.29207">
        <ele>101.6</ele>
        <time>2013-11-10T12:14:05.113Z</time>
      </trkpt>
      <trkpt lat="48.77359" lon="2.29209">
        <ele>101.7</ele>
        <time>2013-11-10T12:14:06.114Z</time>
      </trkpt>
      <trkpt lat="48.77361" lon="2.29221">
        <ele>103.2</ele>
        <time>2013-11-10T12:14:15.114Z</time>
      </trkpt>
      <trkpt lat="48.77361" lon="2.29223">
        <ele>103.2</ele>
        <time>2013-11-10T12:14:16.182Z</time>
      </trkpt>
      <trkpt lat="48.77362" lon="2.29234">
        <ele>103.2</ele>
        <time>2013-11-10T12:14:21.933Z</time>
      </trkpt>
      <trkpt lat="48.77362" lon="2.29236">
        <ele>103.1</ele>
        <time>2013-11-10T12:14:22.126Z</time>
      </trkpt>
      <trkpt lat="48.77365" lon="2.29249">
        <ele>102.6</ele>
        <time>2013-11-10T12:14:28.117Z</time>
      </trkpt>
      <trkpt lat="48.77365" lon="2.29251">
        <ele>102.5</ele>
        <time>2013-11-10T12:14:29.118Z</time>
      </trkpt>
      <trkpt lat="48.77368" lon="2.29264">
        <ele>101.4</ele>
        <time>2013-11-10T12:14:35.118Z</time>
      </trkpt>
      <trkpt lat="48.77368" lon="2.29266">
        <ele>101.3</ele>
        <time>2013-11-10T12:14:36.114Z</time>
      </trkpt>
      <trkpt lat="48.77372" lon="2.29277">
        <ele>100.8</ele>
        <time>2013-11-10T12:14:44.115Z</time>
      </trkpt>
      <trkpt lat="48.77372" lon="2.29279">
        <ele>100.7</ele>
        <time>2013-11-10T12:14:45.115Z</time>
      </trkpt>
      <trkpt lat="48.77373" lon="2.29292">
        <ele>100.3</ele>
        <time>2013-11-10T12:14:51.203Z</time>
      </trkpt>
      <trkpt lat="48.77373" lon="2.29294">
        <ele>100.2</ele>
        <time>2013-11-10T12:14:52.195Z</time>
      </trkpt>
      <trkpt lat="48.77374" lon="2.29307">
        <ele>100.6</ele>
        <time>2013-11-10T12:15:00.191Z</time>
      </trkpt>
      <trkpt lat="48.77374" lon="2.2931">
        <ele>100.8</ele>
        <time>2013-11-10T12:15:01.114Z</time>
      </trkpt>
      <trkpt lat="48.77376" lon="2.29323">
        <ele>101.6</ele>
        <time>2013-11-10T12:15:07.147Z</time>
      </trkpt>
      <trkpt lat="48.77376" lon="2.29324">
        <ele>101.7</ele>
        <time>2013-11-10T12:15:07.176Z</time>
      </trkpt>
      <trkpt lat="48.77379" lon="2.29336">
        <ele>102.9</ele>
        <time>2013-11-10T12:15:14.117Z</time>
      </trkpt>
      <trkpt lat="48.77379" lon="2.29338">
        <ele>103</ele>
        <time>2013-11-10T12:15:15.073Z</time>
      </trkpt>
      <trkpt lat="48.7738" lon="2.2935">
        <ele>103.2</ele>
        <time>2013-11-10T12:15:22.190Z</time>
      </trkpt>
      <trkpt lat="48.77381" lon="2.29352">
        <ele>103.1</ele>
        <time>2013-11-10T12:15:23.116Z</time>
      </trkpt>
      <trkpt lat="48.77383" lon="2.29362">
        <ele>102.9</ele>
        <time>2013-11-10T12:15:28.127Z</time>
      </trkpt>
      <trkpt lat="48.77384" lon="2.29365">
        <ele>103</ele>
        <time>2013-11-10T12:15:29.122Z</time>
      </trkpt>
      <trkpt lat="48.77386" lon="2.29376">
        <ele>103.7</ele>
        <time>2013-11-10T12:15:36.167Z</time>
      </trkpt>
      <trkpt lat="48.77387" lon="2.29378">
        <ele>103.9</ele>
        <time>2013-11-10T12:15:37.123Z</time>
      </trkpt>
      <trkpt lat="48.77392" lon="2.29388">
        <ele>105.2</ele>
        <time>2013-11-10T12:15:44.120Z</time>
      </trkpt>
      <trkpt lat="48.77392" lon="2.2939">
        <ele>105.4</ele>
        <time>2013-11-10T12:15:45.119Z</time>
      </trkpt>
      <trkpt lat="48.77393" lon="2.29403">
        <ele>105.6</ele>
        <time>2013-11-10T12:15:52.380Z</time>
      </trkpt>
      <trkpt lat="48.77393" lon="2.29405">
        <ele>105.6</ele>
        <time>2013-11-10T12:15:53.116Z</time>
      </trkpt>
      <trkpt lat="48.77396" lon="2.29418">
        <ele>106.2</ele>
        <time>2013-11-10T12:16:02.081Z</time>
      </trkpt>
      <trkpt lat="48.77397" lon="2.29421">
        <ele>106.2</ele>
        <time>2013-11-10T12:16:03.399Z</time>
      </trkpt>
      <trkpt lat="48.77401" lon="2.29427">
        <ele>106.4</ele>
        <time>2013-11-10T12:16:15.123Z</time>
      </trkpt>
      <trkpt lat="48.77401" lon="2.29427">
        <ele>106.4</ele>
        <time>2013-11-10T12:16:16.121Z</time>
      </trkpt>
      <trkpt lat="48.774" lon="2.29426">
        <ele>106.7</ele>
        <time>2013-11-10T12:16:32.114Z</time>
      </trkpt>
      <trkpt lat="48.774" lon="2.29425">
        <ele>106.7</ele>
        <time>2013-11-10T12:16:32.202Z</time>
      </trkpt>
      <trkpt lat="48.774" lon="2.29425">
        <ele>106.7</ele>
        <time>2013-11-10T12:16:33.123Z</time>
      </trkpt>
      <trkpt lat="48.774" lon="2.29425">
        <ele>106.8</ele>
        <time>2013-11-10T12:16:34.122Z</time>
      </trkpt>
      <trkpt lat="48.77401" lon="2.29425">
        <ele>109</ele>
        <time>2013-11-10T12:16:43.121Z</time>
      </trkpt>
      <trkpt lat="48.774" lon="2.29426">
        <ele>109.4</ele>
        <time>2013-11-10T12:16:44.123Z</time>
      </trkpt>
      <trkpt lat="48.77399" lon="2.2943">
        <ele>110.4</ele>
        <time>2013-11-10T12:16:53.122Z</time>
      </trkpt>
      <trkpt lat="48.77399" lon="2.2943">
        <ele>110.5</ele>
        <time>2013-11-10T12:16:54.119Z</time>
      </trkpt>
      <trkpt lat="48.77399" lon="2.29431">
        <ele>110.7</ele>
        <time>2013-11-10T12:17:00.378Z</time>
      </trkpt>
      <trkpt lat="48.77399" lon="2.29432">
        <ele>110.7</ele>
        <time>2013-11-10T12:17:01.120Z</time>
      </trkpt>
      <trkpt lat="48.774" lon="2.29427">
        <ele>116.3</ele>
        <time>2013-11-10T12:17:32.130Z</time>
      </trkpt>
      <trkpt lat="48.774" lon="2.29427">
        <ele>116.3</ele>
        <time>2013-11-10T12:17:32.193Z</time>
      </trkpt>
      <trkpt lat="48.77399" lon="2.29429">
        <ele>116.5</ele>
        <time>2013-11-10T12:17:52.271Z</time>
      </trkpt>
      <trkpt lat="48.77399" lon="2.2943">
        <ele>116.5</ele>
        <time>2013-11-10T12:17:53.123Z</time>
      </trkpt>
      <trkpt lat="48.77401" lon="2.29432">
        <ele>116.8</ele>
        <time>2013-11-10T12:17:59.125Z</time>
      </trkpt>
      <trkpt lat="48.77401" lon="2.29432">
        <ele>116.8</ele>
        <time>2013-11-10T12:18:00.186Z</time>
      </trkpt>
      <trkpt lat="48.774" lon="2.29432">
        <ele>116.8</ele>
        <time>2013-11-10T12:18:01.120Z</time>
      </trkpt>
      <trkpt lat="48.77399" lon="2.29424">
        <ele>115.6</ele>
        <time>2013-11-10T12:18:28.145Z</time>
      </trkpt>
      <trkpt lat="48.77399" lon="2.29424">
        <ele>115.6</ele>
        <time>2013-11-10T12:18:29.150Z</time>
      </trkpt>
      <trkpt lat="48.77399" lon="2.29425">
        <ele>115.6</ele>
        <time>2013-11-10T12:18:30.138Z</time>
      </trkpt>
      <trkpt lat="48.77399" lon="2.29426">
        <ele>115.6</ele>
        <time>2013-11-10T12:18:31.139Z</time>
      </trkpt>
      <trkpt lat="48.77396" lon="2.29433">
        <ele>115.8</ele>
        <time>2013-11-10T12:18:41.153Z</time>
      </trkpt>
      <trkpt lat="48.77396" lon="2.29433">
        <ele>115.8</ele>
        <time>2013-11-10T12:18:42.158Z</time>
      </trkpt>
      <trkpt lat="48.77397" lon="2.29432">
        <ele>115.9</ele>
        <time>2013-11-10T12:18:46.147Z</time>
      </trkpt>
      <trkpt lat="48.77397" lon="2.29431">
        <ele>115.9</ele>
        <time>2013-11-10T12:18:47.142Z</time>
      </trkpt>
      <trkpt lat="48.774" lon="2.29425">
        <ele>115.8</ele>
        <time>2013-11-10T12:19:05.121Z</time>
      </trkpt>
      <trkpt lat="48.774" lon="2.29425">
        <ele>115.8</ele>
        <time>2013-11-10T12:19:06.132Z</time>
      </trkpt>
      <trkpt lat="48.77399" lon="2.29428">
        <ele>115.4</ele>
        <time>2013-11-10T12:19:37.270Z</time>
      </trkpt>
      <trkpt lat="48.77399" lon="2.29429">
        <ele>115.4</ele>
        <time>2013-11-10T12:19:38.169Z</time>
      </trkpt>
      <trkpt lat="48.77399" lon="2.29432">
        <ele>115.1</ele>
        <time>2013-11-10T12:19:46.148Z</time>
      </trkpt>
      <trkpt lat="48.77399" lon="2.29432">
        <ele>115</ele>
        <time>2013-11-10T12:19:47.143Z</time>
      </trkpt>
      <trkpt lat="48.77398" lon="2.29431">
        <ele>114</ele>
        <time>2013-11-10T12:19:54.145Z</time>
      </trkpt>
      <trkpt lat="48.77398" lon="2.29431">
        <ele>113.5</ele>
        <time>2013-11-10T12:19:55.147Z</time>
      </trkpt>
      <trkpt lat="48.77394" lon="2.29419">
        <ele>111.2</ele>
        <time>2013-11-10T12:20:10.161Z</time>
      </trkpt>
      <trkpt lat="48.77394" lon="2.29418">
        <ele>111.2</ele>
        <time>2013-11-10T12:20:11.155Z</time>
      </trkpt>
      <trkpt lat="48.77393" lon="2.29418">
        <ele>111.1</ele>
        <time>2013-11-10T12:20:15.148Z</time>
      </trkpt>
      <trkpt lat="48.77393" lon="2.29419">
        <ele>111.1</ele>
        <time>2013-11-10T12:20:16.083Z</time>
      </trkpt>
      <trkpt lat="48.77393" lon="2.2942">
        <ele>111.1</ele>
        <time>2013-11-10T12:20:23.147Z</time>
      </trkpt>
      <trkpt lat="48.77394" lon="2.2942">
        <ele>111.1</ele>
        <time>2013-11-10T12:20:24.137Z</time>
      </trkpt>
      <trkpt lat="48.77399" lon="2.29414">
        <ele>109.9</ele>
        <time>2013-11-10T12:21:09.545Z</time>
      </trkpt>
      <trkpt lat="48.77399" lon="2.29414">
        <ele>109.6</ele>
        <time>2013-11-10T12:21:10.110Z</time>
      </trkpt>
      <trkpt lat="48.77399" lon="2.29415">
        <ele>109.2</ele>
        <time>2013-11-10T12:21:16.797Z</time>
      </trkpt>
      <trkpt lat="48.77399" lon="2.29415">
        <ele>109.2</ele>
        <time>2013-11-10T12:21:17.116Z</time>
      </trkpt>
      <trkpt lat="48.77403" lon="2.29415">
        <ele>108.2</ele>
        <time>2013-11-10T12:21:31.875Z</time>
      </trkpt>
      <trkpt lat="48.77403" lon="2.29415">
        <ele>108.7</ele>
        <time>2013-11-10T12:21:32.078Z</time>
      </trkpt>
      <trkpt lat="48.77403" lon="2.29417">
        <ele>109.3</ele>
        <time>2013-11-10T12:21:33.090Z</time>
      </trkpt>
      <trkpt lat="48.77402" lon="2.29419">
        <ele>109.4</ele>
        <time>2013-11-10T12:21:34.070Z</time>
      </trkpt>
      <trkpt lat="48.77398" lon="2.29425">
        <ele>109.9</ele>
        <time>2013-11-10T12:21:52.188Z</time>
      </trkpt>
      <trkpt lat="48.77398" lon="2.29425">
        <ele>110</ele>
        <time>2013-11-10T12:21:53.133Z</time>
      </trkpt>
      <trkpt lat="48.77398" lon="2.29425">
        <ele>110</ele>
        <time>2013-11-10T12:21:57.093Z</time>
      </trkpt>
      <trkpt lat="48.77398" lon="2.29424">
        <ele>110</ele>
        <time>2013-11-10T12:21:58.134Z</time>
      </trkpt>
      <trkpt lat="48.77397" lon="2.29423">
        <ele>110</ele>
        <time>2013-11-10T12:22:03.142Z</time>
      </trkpt>
      <trkpt lat="48.77398" lon="2.29423">
        <ele>110</ele>
        <time>2013-11-10T12:22:04.140Z</time>
      </trkpt>
      <trkpt lat="48.77398" lon="2.29423">
        <ele>109.9</ele>
        <time>2013-11-10T12:22:08.134Z</time>
      </trkpt>
      <trkpt lat="48.77399" lon="2.29423">
        <ele>109.8</ele>
        <time>2013-11-10T12:22:09.136Z</time>
      </trkpt>
      <trkpt lat="48.774" lon="2.29419">
        <ele>109.6</ele>
        <time>2013-11-10T12:22:18.153Z</time>
      </trkpt>
      <trkpt lat="48.774" lon="2.29419">
        <ele>109.6</ele>
        <time>2013-11-10T12:22:19.153Z</time>
      </trkpt>
      <trkpt lat="48.774" lon="2.29421">
        <ele>109.7</ele>
        <time>2013-11-10T12:22:24.229Z</time>
      </trkpt>
      <trkpt lat="48.774" lon="2.29421">
        <ele>109.7</ele>
        <time>2013-11-10T12:22:25.149Z</time>
      </trkpt>
      <trkpt lat="48.77399" lon="2.29423">
        <ele>109.7</ele>
        <time>2013-11-10T12:22:32.176Z</time>
      </trkpt>
      <trkpt lat="48.77399" lon="2.29423">
        <ele>109.6</ele>
        <time>2013-11-10T12:22:32.260Z</time>
      </trkpt>
      <trkpt lat="48.77399" lon="2.29424">
        <ele>109.6</ele>
        <time>2013-11-10T12:22:42.210Z</time>
      </trkpt>
      <trkpt lat="48.774" lon="2.29424">
        <ele>109.5</ele>
        <time>2013-11-10T12:22:43.152Z</time>
      </trkpt>
      <trkpt lat="48.77402" lon="2.29423">
        <ele>109.7</ele>
        <time>2013-11-10T12:22:49.156Z</time>
      </trkpt>
      <trkpt lat="48.77401" lon="2.29423">
        <ele>109.7</ele>
        <time>2013-11-10T12:22:50.148Z</time>
      </trkpt>
      <trkpt lat="48.77401" lon="2.29423">
        <ele>109.7</ele>
        <time>2013-11-10T12:22:51.159Z</time>
      </trkpt>
      <trkpt lat="48.77401" lon="2.29423">
        <ele>109.7</ele>
        <time>2013-11-10T12:22:52.158Z</time>
      </trkpt>
      <trkpt lat="48.77399" lon="2.29426">
        <ele>110.8</ele>
        <time>2013-11-10T12:23:00.186Z</time>
      </trkpt>
      <trkpt lat="48.77399" lon="2.29426">
        <ele>110.9</ele>
        <time>2013-11-10T12:23:01.133Z</time>
      </trkpt>
      <trkpt lat="48.774" lon="2.29426">
        <ele>110.9</ele>
        <time>2013-11-10T12:23:02.092Z</time>
      </trkpt>
      <trkpt lat="48.774" lon="2.29425">
        <ele>111</ele>
        <time>2013-11-10T12:23:03.143Z</time>
      </trkpt>
      <trkpt lat="48.77404" lon="2.29419">
        <ele>111.8</ele>
        <time>2013-11-10T12:23:20.124Z</time>
      </trkpt>
      <trkpt lat="48.77404" lon="2.2942">
        <ele>111.9</ele>
        <time>2013-11-10T12:23:21.130Z</time>
      </trkpt>
      <trkpt lat="48.77403" lon="2.29419">
        <ele>111.1</ele>
        <time>2013-11-10T12:24:02.226Z</time>
      </trkpt>
      <trkpt lat="48.77403" lon="2.29419">
        <ele>111.2</ele>
        <time>2013-11-10T12:24:03.150Z</time>
      </trkpt>
      <trkpt lat="48.77402" lon="2.29419">
        <ele>111.1</ele>
        <time>2013-11-10T12:24:06.155Z</time>
      </trkpt>
      <trkpt lat="48.77402" lon="2.29419">
        <ele>111</ele>
        <time>2013-11-10T12:24:07.154Z</time>
      </trkpt>
      <trkpt lat="48.77401" lon="2.29421">
        <ele>110.5</ele>
        <time>2013-11-10T12:25:54.144Z</time>
      </trkpt>
      <trkpt lat="48.77401" lon="2.29421">
        <ele>110.5</ele>
        <time>2013-11-10T12:25:55.152Z</time>
      </trkpt>
      <trkpt lat="48.77401" lon="2.29424">
        <ele>110.4</ele>
        <time>2013-11-10T12:25:59.158Z</time>
      </trkpt>
      <trkpt lat="48.77401" lon="2.29424">
        <ele>110.3</ele>
        <time>2013-11-10T12:26:00.194Z</time>
      </trkpt>
      <trkpt lat="48.77401" lon="2.29422">
        <ele>110</ele>
        <time>2013-11-10T12:26:05.162Z</time>
      </trkpt>
      <trkpt lat="48.774" lon="2.29422">
        <ele>109.8</ele>
        <time>2013-11-10T12:26:06.159Z</time>
      </trkpt>
      <trkpt lat="48.77399" lon="2.29421">
        <ele>109.4</ele>
        <time>2013-11-10T12:26:09.163Z</time>
      </trkpt>
      <trkpt lat="48.77399" lon="2.29421">
        <ele>109.4</ele>
        <time>2013-11-10T12:26:10.161Z</time>
      </trkpt>
      <trkpt lat="48.77399" lon="2.29421">
        <ele>109.3</ele>
        <time>2013-11-10T12:26:11.964Z</time>
      </trkpt>
      <trkpt lat="48.774" lon="2.29422">
        <ele>109.3</ele>
        <time>2013-11-10T12:26:12.114Z</time>
      </trkpt>
      <trkpt lat="48.77402" lon="2.29423">
        <ele>109.4</ele>
        <time>2013-11-10T12:26:18.127Z</time>
      </trkpt>
      <trkpt lat="48.77402" lon="2.29423">
        <ele>109.4</ele>
        <time>2013-11-10T12:26:19.226Z</time>
      </trkpt>
      <trkpt lat="48.77401" lon="2.29422">
        <ele>109.5</ele>
        <time>2013-11-10T12:26:27.030Z</time>
      </trkpt>
      <trkpt lat="48.77401" lon="2.29422">
        <ele>109.4</ele>
        <time>2013-11-10T12:26:27.199Z</time>
      </trkpt>
      <trkpt lat="48.774" lon="2.29422">
        <ele>109.5</ele>
        <time>2013-11-10T12:26:32.094Z</time>
      </trkpt>
      <trkpt lat="48.774" lon="2.29422">
        <ele>109.5</ele>
        <time>2013-11-10T12:26:32.208Z</time>
      </trkpt>
      <trkpt lat="48.774" lon="2.29422">
        <ele>109.2</ele>
        <time>2013-11-10T12:26:33.220Z</time>
      </trkpt>
      <trkpt lat="48.77399" lon="2.29434">
        <ele>108.4</ele>
        <time>2013-11-10T12:26:48.227Z</time>
      </trkpt>
      <trkpt lat="48.77399" lon="2.29436">
        <ele>108.4</ele>
        <time>2013-11-10T12:26:49.226Z</time>
      </trkpt>
      <trkpt lat="48.77401" lon="2.29448">
        <ele>108.4</ele>
        <time>2013-11-10T12:26:57.206Z</time>
      </trkpt>
      <trkpt lat="48.77401" lon="2.2945">
        <ele>108.3</ele>
        <time>2013-11-10T12:26:58.207Z</time>
      </trkpt>
      <trkpt lat="48.77402" lon="2.29462">
        <ele>108.2</ele>
        <time>2013-11-10T12:27:04.275Z</time>
      </trkpt>
      <trkpt lat="48.77403" lon="2.29464">
        <ele>108.2</ele>
        <time>2013-11-10T12:27:05.164Z</time>
      </trkpt>
      <trkpt lat="48.77405" lon="2.29476">
        <ele>108.3</ele>
        <time>2013-11-10T12:27:10.155Z</time>
      </trkpt>
      <trkpt lat="48.77405" lon="2.29478">
        <ele>108.3</ele>
        <time>2013-11-10T12:27:11.156Z</time>
      </trkpt>
      <trkpt lat="48.77406" lon="2.2949">
        <ele>108.7</ele>
        <time>2013-11-10T12:27:17.263Z</time>
      </trkpt>
      <trkpt lat="48.77406" lon="2.29492">
        <ele>108.8</ele>
        <time>2013-11-10T12:27:18.161Z</time>
      </trkpt>
      <trkpt lat="48.77408" lon="2.29503">
        <ele>109.7</ele>
        <time>2013-11-10T12:27:23.164Z</time>
      </trkpt>
      <trkpt lat="48.77408" lon="2.29506">
        <ele>109.9</ele>
        <time>2013-11-10T12:27:24.242Z</time>
      </trkpt>
      <trkpt lat="48.77417" lon="2.29502">
        <ele>111.6</ele>
        <time>2013-11-10T12:27:39.151Z</time>
      </trkpt>
      <trkpt lat="48.77418" lon="2.29501">
        <ele>111.6</ele>
        <time>2013-11-10T12:27:40.154Z</time>
      </trkpt>
      <trkpt lat="48.77426" lon="2.29496">
        <ele>111.3</ele>
        <time>2013-11-10T12:27:50.165Z</time>
      </trkpt>
      <trkpt lat="48.77426" lon="2.29495">
        <ele>111.2</ele>
        <time>2013-11-10T12:27:51.167Z</time>
      </trkpt>
      <trkpt lat="48.77435" lon="2.29491">
        <ele>110.8</ele>
        <time>2013-11-10T12:27:59.168Z</time>
      </trkpt>
      <trkpt lat="48.77436" lon="2.2949">
        <ele>110.8</ele>
        <time>2013-11-10T12:28:00.207Z</time>
      </trkpt>
      <trkpt lat="48.77441" lon="2.29479">
        <ele>110.5</ele>
        <time>2013-11-10T12:28:05.168Z</time>
      </trkpt>
      <trkpt lat="48.77442" lon="2.29478">
        <ele>110.5</ele>
        <time>2013-11-10T12:28:06.167Z</time>
      </trkpt>
      <trkpt lat="48.77449" lon="2.29477">
        <ele>110.2</ele>
        <time>2013-11-10T12:28:16.999Z</time>
      </trkpt>
      <trkpt lat="48.77451" lon="2.29477">
        <ele>110.1</ele>
        <time>2013-11-10T12:28:17.132Z</time>
      </trkpt>
      <trkpt lat="48.77458" lon="2.29476">
        <ele>109.3</ele>
        <time>2013-11-10T12:28:33.149Z</time>
      </trkpt>
      <trkpt lat="48.77458" lon="2.29476">
        <ele>109.3</ele>
        <time>2013-11-10T12:28:34.177Z</time>
      </trkpt>
      <trkpt lat="48.77458" lon="2.29477">
        <ele>109.3</ele>
        <time>2013-11-10T12:28:37.202Z</time>
      </trkpt>
      <trkpt lat="48.77458" lon="2.29477">
        <ele>109.3</ele>
        <time>2013-11-10T12:28:37.246Z</time>
      </trkpt>
      <trkpt lat="48.77459" lon="2.29478">
        <ele>109.3</ele>
        <time>2013-11-10T12:28:40.129Z</time>
      </trkpt>
      <trkpt lat="48.77458" lon="2.29477">
        <ele>109.1</ele>
        <time>2013-11-10T12:28:41.263Z</time>
      </trkpt>
      <trkpt lat="48.77458" lon="2.29475">
        <ele>109</ele>
        <time>2013-11-10T12:28:42.203Z</time>
      </trkpt>
      <trkpt lat="48.77457" lon="2.29462">
        <ele>108.8</ele>
        <time>2013-11-10T12:28:50.153Z</time>
      </trkpt>
      <trkpt lat="48.77457" lon="2.29462">
        <ele>108.8</ele>
        <time>2013-11-10T12:28:51.156Z</time>
      </trkpt>
      <trkpt lat="48.77458" lon="2.29461">
        <ele>108.8</ele>
        <time>2013-11-10T12:28:55.115Z</time>
      </trkpt>
      <trkpt lat="48.77458" lon="2.29461">
        <ele>108.8</ele>
        <time>2013-11-10T12:28:56.168Z</time>
      </trkpt>
      <trkpt lat="48.77459" lon="2.29463">
        <ele>108.8</ele>
        <time>2013-11-10T12:29:02.117Z</time>
      </trkpt>
      <trkpt lat="48.77459" lon="2.29463">
        <ele>108.8</ele>
        <time>2013-11-10T12:29:03.169Z</time>
      </trkpt>
      <trkpt lat="48.77457" lon="2.29476">
        <ele>108.6</ele>
        <time>2013-11-10T12:29:16.933Z</time>
      </trkpt>
      <trkpt lat="48.77457" lon="2.29478">
        <ele>108.6</ele>
        <time>2013-11-10T12:29:17.116Z</time>
      </trkpt>
      <trkpt lat="48.77458" lon="2.2949">
        <ele>108.6</ele>
        <time>2013-11-10T12:29:25.170Z</time>
      </trkpt>
      <trkpt lat="48.77458" lon="2.29491">
        <ele>108.5</ele>
        <time>2013-11-10T12:29:26.171Z</time>
      </trkpt>
      <trkpt lat="48.77458" lon="2.29504">
        <ele>106.9</ele>
        <time>2013-11-10T12:29:37.365Z</time>
      </trkpt>
      <trkpt lat="48.77457" lon="2.29505">
        <ele>106.8</ele>
        <time>2013-11-10T12:29:38.170Z</time>
      </trkpt>
      <trkpt lat="48.77455" lon="2.29518">
        <ele>106.3</ele>
        <time>2013-11-10T12:29:43.167Z</time>
      </trkpt>
      <trkpt lat="48.77455" lon="2.2952">
        <ele>106.2</ele>
        <time>2013-11-10T12:29:44.167Z</time>
      </trkpt>
      <trkpt lat="48.77455" lon="2.29533">
        <ele>106.4</ele>
        <time>2013-11-10T12:29:52.332Z</time>
      </trkpt>
      <trkpt lat="48.77455" lon="2.29534">
        <ele>106.3</ele>
        <time>2013-11-10T12:29:53.172Z</time>
      </trkpt>
      <trkpt lat="48.77456" lon="2.29547">
        <ele>106.1</ele>
        <time>2013-11-10T12:30:00.199Z</time>
      </trkpt>
      <trkpt lat="48.77456" lon="2.29549">
        <ele>106.1</ele>
        <time>2013-11-10T12:30:01.161Z</time>
      </trkpt>
      <trkpt lat="48.77454" lon="2.29561">
        <ele>106.5</ele>
        <time>2013-11-10T12:30:06.159Z</time>
      </trkpt>
      <trkpt lat="48.77454" lon="2.29563">
        <ele>106.6</ele>
        <time>2013-11-10T12:30:07.164Z</time>
      </trkpt>
      <trkpt lat="48.77454" lon="2.29577">
        <ele>107.4</ele>
        <time>2013-11-10T12:30:13.164Z</time>
      </trkpt>
      <trkpt lat="48.77455" lon="2.2958">
        <ele>107.5</ele>
        <time>2013-11-10T12:30:14.164Z</time>
      </trkpt>
      <trkpt lat="48.77455" lon="2.29593">
        <ele>108</ele>
        <time>2013-11-10T12:30:19.157Z</time>
      </trkpt>
      <trkpt lat="48.77455" lon="2.29595">
        <ele>108.1</ele>
        <time>2013-11-10T12:30:20.154Z</time>
      </trkpt>
      <trkpt lat="48.77456" lon="2.29608">
        <ele>108.9</ele>
        <time>2013-11-10T12:30:26.147Z</time>
      </trkpt>
      <trkpt lat="48.77456" lon="2.29611">
        <ele>109.1</ele>
        <time>2013-11-10T12:30:27.137Z</time>
      </trkpt>
      <trkpt lat="48.77459" lon="2.29623">
        <ele>110.1</ele>
        <time>2013-11-10T12:30:32.487Z</time>
      </trkpt>
      <trkpt lat="48.77459" lon="2.29625">
        <ele>110.3</ele>
        <time>2013-11-10T12:30:33.152Z</time>
      </trkpt>
      <trkpt lat="48.7746" lon="2.29638">
        <ele>111.3</ele>
        <time>2013-11-10T12:30:39.151Z</time>
      </trkpt>
      <trkpt lat="48.7746" lon="2.2964">
        <ele>111.5</ele>
        <time>2013-11-10T12:30:40.153Z</time>
      </trkpt>
      <trkpt lat="48.77461" lon="2.29653">
        <ele>112.4</ele>
        <time>2013-11-10T12:30:47.547Z</time>
      </trkpt>
      <trkpt lat="48.77462" lon="2.29656">
        <ele>112.5</ele>
        <time>2013-11-10T12:30:48.191Z</time>
      </trkpt>
      <trkpt lat="48.77465" lon="2.29669">
        <ele>113.8</ele>
        <time>2013-11-10T12:30:55.156Z</time>
      </trkpt>
      <trkpt lat="48.77465" lon="2.29671">
        <ele>114</ele>
        <time>2013-11-10T12:30:56.164Z</time>
      </trkpt>
      <trkpt lat="48.77467" lon="2.29682">
        <ele>114.9</ele>
        <time>2013-11-10T12:31:04.169Z</time>
      </trkpt>
      <trkpt lat="48.77467" lon="2.29684">
        <ele>114.9</ele>
        <time>2013-11-10T12:31:05.169Z</time>
      </trkpt>
      <trkpt lat="48.77471" lon="2.29696">
        <ele>115.2</ele>
        <time>2013-11-10T12:31:13.167Z</time>
      </trkpt>
      <trkpt lat="48.77471" lon="2.29698">
        <ele>115.2</ele>
        <time>2013-11-10T12:31:14.168Z</time>
      </trkpt>
      <trkpt lat="48.77474" lon="2.29709">
        <ele>115.7</ele>
        <time>2013-11-10T12:31:20.164Z</time>
      </trkpt>
      <trkpt lat="48.77474" lon="2.29711">
        <ele>115.7</ele>
        <time>2013-11-10T12:31:21.168Z</time>
      </trkpt>
      <trkpt lat="48.77475" lon="2.29722">
        <ele>116.4</ele>
        <time>2013-11-10T12:31:27.307Z</time>
      </trkpt>
      <trkpt lat="48.77475" lon="2.29724">
        <ele>116.6</ele>
        <time>2013-11-10T12:31:28.167Z</time>
      </trkpt>
      <trkpt lat="48.77476" lon="2.29737">
        <ele>117.5</ele>
        <time>2013-11-10T12:31:33.169Z</time>
      </trkpt>
      <trkpt lat="48.77476" lon="2.29739">
        <ele>117.7</ele>
        <time>2013-11-10T12:31:34.170Z</time>
      </trkpt>
      <trkpt lat="48.77477" lon="2.29752">
        <ele>118.6</ele>
        <time>2013-11-10T12:31:40.152Z</time>
      </trkpt>
      <trkpt lat="48.77477" lon="2.29754">
        <ele>118.7</ele>
        <time>2013-11-10T12:31:41.154Z</time>
      </trkpt>
      <trkpt lat="48.77479" lon="2.29765">
        <ele>119</ele>
        <time>2013-11-10T12:31:47.251Z</time>
      </trkpt>
      <trkpt lat="48.77479" lon="2.29767">
        <ele>119</ele>
        <time>2013-11-10T12:31:48.153Z</time>
      </trkpt>
      <trkpt lat="48.77482" lon="2.29777">
        <ele>119.6</ele>
        <time>2013-11-10T12:31:54.150Z</time>
      </trkpt>
      <trkpt lat="48.77483" lon="2.29779">
        <ele>119.7</ele>
        <time>2013-11-10T12:31:55.151Z</time>
      </trkpt>
      <trkpt lat="48.77486" lon="2.29791">
        <ele>120.7</ele>
        <time>2013-11-10T12:32:03.167Z</time>
      </trkpt>
      <trkpt lat="48.77486" lon="2.29793">
        <ele>120.8</ele>
        <time>2013-11-10T12:32:04.167Z</time>
      </trkpt>
      <trkpt lat="48.77484" lon="2.29804">
        <ele>122.2</ele>
        <time>2013-11-10T12:32:15.171Z</time>
      </trkpt>
      <trkpt lat="48.77484" lon="2.29806">
        <ele>122.3</ele>
        <time>2013-11-10T12:32:16.167Z</time>
      </trkpt>
      <trkpt lat="48.77485" lon="2.29817">
        <ele>122.7</ele>
        <time>2013-11-10T12:32:22.120Z</time>
      </trkpt>
      <trkpt lat="48.77485" lon="2.2982">
        <ele>122.7</ele>
        <time>2013-11-10T12:32:22.228Z</time>
      </trkpt>
      <trkpt lat="48.77486" lon="2.29832">
        <ele>122.6</ele>
        <time>2013-11-10T12:32:30.171Z</time>
      </trkpt>
      <trkpt lat="48.77486" lon="2.29834">
        <ele>122.7</ele>
        <time>2013-11-10T12:32:31.171Z</time>
      </trkpt>
      <trkpt lat="48.77488" lon="2.29846">
        <ele>123.1</ele>
        <time>2013-11-10T12:32:38.173Z</time>
      </trkpt>
      <trkpt lat="48.77489" lon="2.29848">
        <ele>123.2</ele>
        <time>2013-11-10T12:32:39.228Z</time>
      </trkpt>
      <trkpt lat="48.77492" lon="2.2986">
        <ele>123.8</ele>
        <time>2013-11-10T12:32:46.235Z</time>
      </trkpt>
      <trkpt lat="48.77492" lon="2.29863">
        <ele>123.9</ele>
        <time>2013-11-10T12:32:47.170Z</time>
      </trkpt>
      <trkpt lat="48.77494" lon="2.29876">
        <ele>124.2</ele>
        <time>2013-11-10T12:32:54.170Z</time>
      </trkpt>
      <trkpt lat="48.77494" lon="2.29878">
        <ele>124.2</ele>
        <time>2013-11-10T12:32:55.170Z</time>
      </trkpt>
      <trkpt lat="48.77496" lon="2.2989">
        <ele>124.1</ele>
        <time>2013-11-10T12:33:00.550Z</time>
      </trkpt>
      <trkpt lat="48.77496" lon="2.29892">
        <ele>124.1</ele>
        <time>2013-11-10T12:33:01.138Z</time>
      </trkpt>
      <trkpt lat="48.775" lon="2.29902">
        <ele>124.2</ele>
        <time>2013-11-10T12:33:07.113Z</time>
      </trkpt>
      <trkpt lat="48.775" lon="2.29904">
        <ele>124.3</ele>
        <time>2013-11-10T12:33:08.131Z</time>
      </trkpt>
      <trkpt lat="48.77505" lon="2.29915">
        <ele>124.3</ele>
        <time>2013-11-10T12:33:13.142Z</time>
      </trkpt>
      <trkpt lat="48.77505" lon="2.29918">
        <ele>124.4</ele>
        <time>2013-11-10T12:33:14.145Z</time>
      </trkpt>
      <trkpt lat="48.77506" lon="2.29929">
        <ele>124.7</ele>
        <time>2013-11-10T12:33:20.142Z</time>
      </trkpt>
      <trkpt lat="48.77506" lon="2.29931">
        <ele>124.7</ele>
        <time>2013-11-10T12:33:21.201Z</time>
      </trkpt>
      <trkpt lat="48.77507" lon="2.29944">
        <ele>125.3</ele>
        <time>2013-11-10T12:33:27.163Z</time>
      </trkpt>
      <trkpt lat="48.77507" lon="2.29946">
        <ele>125.3</ele>
        <time>2013-11-10T12:33:28.142Z</time>
      </trkpt>
      <trkpt lat="48.77505" lon="2.29958">
        <ele>125.5</ele>
        <time>2013-11-10T12:33:34.142Z</time>
      </trkpt>
      <trkpt lat="48.77505" lon="2.29961">
        <ele>125.6</ele>
        <time>2013-11-10T12:33:35.150Z</time>
      </trkpt>
      <trkpt lat="48.77503" lon="2.29971">
        <ele>126.2</ele>
        <time>2013-11-10T12:33:39.151Z</time>
      </trkpt>
      <trkpt lat="48.77502" lon="2.29974">
        <ele>126.3</ele>
        <time>2013-11-10T12:33:40.146Z</time>
      </trkpt>
      <trkpt lat="48.77496" lon="2.29985">
        <ele>126.6</ele>
        <time>2013-11-10T12:33:44.148Z</time>
      </trkpt>
      <trkpt lat="48.77495" lon="2.29986">
        <ele>126.7</ele>
        <time>2013-11-10T12:33:45.149Z</time>
      </trkpt>
      <trkpt lat="48.7749" lon="2.29994">
        <ele>127</ele>
        <time>2013-11-10T12:33:50.197Z</time>
      </trkpt>
      <trkpt lat="48.77489" lon="2.29996">
        <ele>127</ele>
        <time>2013-11-10T12:33:51.148Z</time>
      </trkpt>
      <trkpt lat="48.77483" lon="2.30004">
        <ele>127.2</ele>
        <time>2013-11-10T12:33:55.151Z</time>
      </trkpt>
      <trkpt lat="48.77482" lon="2.30006">
        <ele>127.3</ele>
        <time>2013-11-10T12:33:56.143Z</time>
      </trkpt>
      <trkpt lat="48.77475" lon="2.30014">
        <ele>128</ele>
        <time>2013-11-10T12:34:02.111Z</time>
      </trkpt>
      <trkpt lat="48.77473" lon="2.30015">
        <ele>128.1</ele>
        <time>2013-11-10T12:34:03.140Z</time>
      </trkpt>
      <trkpt lat="48.77466" lon="2.30022">
        <ele>128.4</ele>
        <time>2013-11-10T12:34:09.141Z</time>
      </trkpt>
      <trkpt lat="48.77465" lon="2.30023">
        <ele>128.4</ele>
        <time>2013-11-10T12:34:10.142Z</time>
      </trkpt>
      <trkpt lat="48.77459" lon="2.3003">
        <ele>128.6</ele>
        <time>2013-11-10T12:34:14.141Z</time>
      </trkpt>
      <trkpt lat="48.77458" lon="2.30032">
        <ele>128.6</ele>
        <time>2013-11-10T12:34:15.143Z</time>
      </trkpt>
      <trkpt lat="48.77451" lon="2.3004">
        <ele>127.9</ele>
        <time>2013-11-10T12:34:21.988Z</time>
      </trkpt>
      <trkpt lat="48.77451" lon="2.3004">
        <ele>127.7</ele>
        <time>2013-11-10T12:34:22.156Z</time>
      </trkpt>
      <trkpt lat="48.77443" lon="2.30047">
        <ele>127.4</ele>
        <time>2013-11-10T12:34:27.168Z</time>
      </trkpt>
      <trkpt lat="48.77443" lon="2.30047">
        <ele>127.4</ele>
        <time>2013-11-10T12:34:28.203Z</time>
      </trkpt>
      <trkpt lat="48.77443" lon="2.30047">
        <ele>127.4</ele>
        <time>2013-11-10T12:34:30.141Z</time>
      </trkpt>
      <trkpt lat="48.77443" lon="2.30047">
        <ele>127.4</ele>
        <time>2013-11-10T12:34:31.142Z</time>
      </trkpt>
      <trkpt lat="48.77443" lon="2.30047">
        <ele>127.4</ele>
        <time>2013-11-10T12:34:32.063Z</time>
      </trkpt>
      <trkpt lat="48.77443" lon="2.30046">
        <ele>127.5</ele>
        <time>2013-11-10T12:34:32.200Z</time>
      </trkpt>
      <trkpt lat="48.77441" lon="2.30043">
        <ele>127.7</ele>
        <time>2013-11-10T12:34:42.257Z</time>
      </trkpt>
      <trkpt lat="48.77441" lon="2.30044">
        <ele>127.8</ele>
        <time>2013-11-10T12:34:43.151Z</time>
      </trkpt>
      <trkpt lat="48.77441" lon="2.30044">
        <ele>127.9</ele>
        <time>2013-11-10T12:34:44.151Z</time>
      </trkpt>
      <trkpt lat="48.77441" lon="2.30045">
        <ele>127.9</ele>
        <time>2013-11-10T12:34:45.150Z</time>
      </trkpt>
      <trkpt lat="48.77441" lon="2.30045">
        <ele>128</ele>
        <time>2013-11-10T12:34:46.145Z</time>
      </trkpt>
      <trkpt lat="48.77441" lon="2.30045">
        <ele>128.1</ele>
        <time>2013-11-10T12:34:47.151Z</time>
      </trkpt>
      <trkpt lat="48.77441" lon="2.30045">
        <ele>128.1</ele>
        <time>2013-11-10T12:34:48.148Z</time>
      </trkpt>
      <trkpt lat="48.77442" lon="2.30044">
        <ele>128.1</ele>
        <time>2013-11-10T12:34:49.151Z</time>
      </trkpt>
      <trkpt lat="48.77444" lon="2.30039">
        <ele>128.2</ele>
        <time>2013-11-10T12:34:58.147Z</time>
      </trkpt>
      <trkpt lat="48.77444" lon="2.30039">
        <ele>128.2</ele>
        <time>2013-11-10T12:34:59.279Z</time>
      </trkpt>
      <trkpt lat="48.77444" lon="2.30038">
        <ele>128.3</ele>
        <time>2013-11-10T12:35:07.326Z</time>
      </trkpt>
      <trkpt lat="48.77444" lon="2.30037">
        <ele>128.3</ele>
        <time>2013-11-10T12:35:08.147Z</time>
      </trkpt>
      <trkpt lat="48.77444" lon="2.30037">
        <ele>128.3</ele>
        <time>2013-11-10T12:35:09.150Z</time>
      </trkpt>
      <trkpt lat="48.77443" lon="2.30037">
        <ele>128.3</ele>
        <time>2013-11-10T12:35:10.149Z</time>
      </trkpt>
      <trkpt lat="48.77443" lon="2.30038">
        <ele>128.4</ele>
        <time>2013-11-10T12:35:16.140Z</time>
      </trkpt>
      <trkpt lat="48.77442" lon="2.30038">
        <ele>128.5</ele>
        <time>2013-11-10T12:35:17.182Z</time>
      </trkpt>
      <trkpt lat="48.77442" lon="2.30039">
        <ele>128.5</ele>
        <time>2013-11-10T12:35:21.138Z</time>
      </trkpt>
      <trkpt lat="48.77442" lon="2.3004">
        <ele>128.6</ele>
        <time>2013-11-10T12:35:22.138Z</time>
      </trkpt>
      <trkpt lat="48.77442" lon="2.3004">
        <ele>128.7</ele>
        <time>2013-11-10T12:35:31.142Z</time>
      </trkpt>
      <trkpt lat="48.77443" lon="2.3004">
        <ele>128.8</ele>
        <time>2013-11-10T12:35:32.141Z</time>
      </trkpt>
      <trkpt lat="48.77443" lon="2.3004">
        <ele>128.8</ele>
        <time>2013-11-10T12:35:35.150Z</time>
      </trkpt>
      <trkpt lat="48.77443" lon="2.3004">
        <ele>128.8</ele>
        <time>2013-11-10T12:35:36.143Z</time>
      </trkpt>
      <trkpt lat="48.77444" lon="2.3004">
        <ele>129.2</ele>
        <time>2013-11-10T12:35:38.126Z</time>
      </trkpt>
      <trkpt lat="48.77444" lon="2.3004">
        <ele>129.4</ele>
        <time>2013-11-10T12:35:39.191Z</time>
      </trkpt>
      <trkpt lat="48.77445" lon="2.3004">
        <ele>129.4</ele>
        <time>2013-11-10T12:35:41.174Z</time>
      </trkpt>
      <trkpt lat="48.77445" lon="2.3004">
        <ele>129.4</ele>
        <time>2013-11-10T12:35:42.152Z</time>
      </trkpt>
      <trkpt lat="48.77443" lon="2.30039">
        <ele>129.1</ele>
        <time>2013-11-10T12:36:17.156Z</time>
      </trkpt>
      <trkpt lat="48.77443" lon="2.30039">
        <ele>129.1</ele>
        <time>2013-11-10T12:36:18.142Z</time>
      </trkpt>
      <trkpt lat="48.77441" lon="2.30036">
        <ele>129.1</ele>
        <time>2013-11-10T12:36:27.114Z</time>
      </trkpt>
      <trkpt lat="48.77441" lon="2.30036">
        <ele>129.1</ele>
        <time>2013-11-10T12:36:27.204Z</time>
      </trkpt>
      <trkpt lat="48.7744" lon="2.30035">
        <ele>129.1</ele>
        <time>2013-11-10T12:36:40.134Z</time>
      </trkpt>
      <trkpt lat="48.7744" lon="2.30035">
        <ele>129.1</ele>
        <time>2013-11-10T12:36:41.178Z</time>
      </trkpt>
      <trkpt lat="48.7744" lon="2.30035">
        <ele>129.1</ele>
        <time>2013-11-10T12:36:42.237Z</time>
      </trkpt>
      <trkpt lat="48.7744" lon="2.30035">
        <ele>129.1</ele>
        <time>2013-11-10T12:36:42.262Z</time>
      </trkpt>
      <trkpt lat="48.77439" lon="2.30035">
        <ele>129.1</ele>
        <time>2013-11-10T12:36:45.159Z</time>
      </trkpt>
      <trkpt lat="48.77439" lon="2.30036">
        <ele>129.2</ele>
        <time>2013-11-10T12:36:46.161Z</time>
      </trkpt>
      <trkpt lat="48.77439" lon="2.30035">
        <ele>130.5</ele>
        <time>2013-11-10T12:37:06.893Z</time>
      </trkpt>
      <trkpt lat="48.77439" lon="2.30035">
        <ele>130.5</ele>
        <time>2013-11-10T12:37:07.106Z</time>
      </trkpt>
      <trkpt lat="48.77438" lon="2.30035">
        <ele>130.7</ele>
        <time>2013-11-10T12:37:08.139Z</time>
      </trkpt>
      <trkpt lat="48.77438" lon="2.30034">
        <ele>131</ele>
        <time>2013-11-10T12:37:09.290Z</time>
      </trkpt>
      <trkpt lat="48.77439" lon="2.30032">
        <ele>131.2</ele>
        <time>2013-11-10T12:37:12.149Z</time>
      </trkpt>
      <trkpt lat="48.77439" lon="2.30033">
        <ele>131.2</ele>
        <time>2013-11-10T12:37:13.173Z</time>
      </trkpt>
      <trkpt lat="48.77438" lon="2.30034">
        <ele>131.2</ele>
        <time>2013-11-10T12:37:18.175Z</time>
      </trkpt>
      <trkpt lat="48.77438" lon="2.30035">
        <ele>131.2</ele>
        <time>2013-11-10T12:37:19.191Z</time>
      </trkpt>
      <trkpt lat="48.77443" lon="2.30039">
        <ele>130.7</ele>
        <time>2013-11-10T12:37:42.464Z</time>
      </trkpt>
      <trkpt lat="48.77443" lon="2.3004">
        <ele>130.7</ele>
        <time>2013-11-10T12:37:43.157Z</time>
      </trkpt>
      <trkpt lat="48.77443" lon="2.3004">
        <ele>130.6</ele>
        <time>2013-11-10T12:37:44.147Z</time>
      </trkpt>
      <trkpt lat="48.77442" lon="2.3004">
        <ele>130.6</ele>
        <time>2013-11-10T12:37:45.152Z</time>
      </trkpt>
      <trkpt lat="48.77442" lon="2.30042">
        <ele>130.6</ele>
        <time>2013-11-10T12:37:49.184Z</time>
      </trkpt>
      <trkpt lat="48.77442" lon="2.30042">
        <ele>130.6</ele>
        <time>2013-11-10T12:37:50.134Z</time>
      </trkpt>
      <trkpt lat="48.77443" lon="2.30041">
        <ele>130.8</ele>
        <time>2013-11-10T12:37:56.840Z</time>
      </trkpt>
      <trkpt lat="48.77443" lon="2.30041">
        <ele>130.8</ele>
        <time>2013-11-10T12:37:57.114Z</time>
      </trkpt>
      <trkpt lat="48.77444" lon="2.3004">
        <ele>130.8</ele>
        <time>2013-11-10T12:38:01.875Z</time>
      </trkpt>
      <trkpt lat="48.77443" lon="2.30039">
        <ele>130.8</ele>
        <time>2013-11-10T12:38:02.089Z</time>
      </trkpt>
      <trkpt lat="48.77443" lon="2.30039">
        <ele>130.8</ele>
        <time>2013-11-10T12:38:03.155Z</time>
      </trkpt>
      <trkpt lat="48.77442" lon="2.30039">
        <ele>130.8</ele>
        <time>2013-11-10T12:38:04.143Z</time>
      </trkpt>
      <trkpt lat="48.77442" lon="2.30039">
        <ele>130.6</ele>
        <time>2013-11-10T12:38:08.144Z</time>
      </trkpt>
      <trkpt lat="48.77442" lon="2.30039">
        <ele>130.6</ele>
        <time>2013-11-10T12:38:09.158Z</time>
      </trkpt>
      <trkpt lat="48.77442" lon="2.30038">
        <ele>130.4</ele>
        <time>2013-11-10T12:38:13.164Z</time>
      </trkpt>
      <trkpt lat="48.77442" lon="2.30038">
        <ele>130.4</ele>
        <time>2013-11-10T12:38:14.135Z</time>
      </trkpt>
      <trkpt lat="48.77445" lon="2.30042">
        <ele>130.4</ele>
        <time>2013-11-10T12:38:30.149Z</time>
      </trkpt>
      <trkpt lat="48.77444" lon="2.30042">
        <ele>130.4</ele>
        <time>2013-11-10T12:38:31.145Z</time>
      </trkpt>
      <trkpt lat="48.77444" lon="2.30041">
        <ele>130.2</ele>
        <time>2013-11-10T12:38:45.189Z</time>
      </trkpt>
      <trkpt lat="48.77444" lon="2.30042">
        <ele>130.2</ele>
        <time>2013-11-10T12:38:46.184Z</time>
      </trkpt>
      <trkpt lat="48.77443" lon="2.30043">
        <ele>130.1</ele>
        <time>2013-11-10T12:38:50.180Z</time>
      </trkpt>
      <trkpt lat="48.77443" lon="2.30043">
        <ele>130.1</ele>
        <time>2013-11-10T12:38:51.183Z</time>
      </trkpt>
      <trkpt lat="48.77444" lon="2.30043">
        <ele>130</ele>
        <time>2013-11-10T12:39:01.882Z</time>
      </trkpt>
      <trkpt lat="48.77444" lon="2.30043">
        <ele>130</ele>
        <time>2013-11-10T12:39:02.133Z</time>
      </trkpt>
      <trkpt lat="48.77444" lon="2.30043">
        <ele>130</ele>
        <time>2013-11-10T12:39:04.156Z</time>
      </trkpt>
      <trkpt lat="48.77444" lon="2.30043">
        <ele>130</ele>
        <time>2013-11-10T12:39:05.160Z</time>
      </trkpt>
      <trkpt lat="48.77445" lon="2.30044">
        <ele>130.1</ele>
        <time>2013-11-10T12:39:09.156Z</time>
      </trkpt>
      <trkpt lat="48.77445" lon="2.30045">
        <ele>130.1</ele>
        <time>2013-11-10T12:39:10.163Z</time>
      </trkpt>
      <trkpt lat="48.77444" lon="2.30046">
        <ele>130.1</ele>
        <time>2013-11-10T12:39:14.175Z</time>
      </trkpt>
      <trkpt lat="48.77444" lon="2.30046">
        <ele>130.1</ele>
        <time>2013-11-10T12:39:15.175Z</time>
      </trkpt>
      <trkpt lat="48.77444" lon="2.30045">
        <ele>130.2</ele>
        <time>2013-11-10T12:39:22.292Z</time>
      </trkpt>
      <trkpt lat="48.77444" lon="2.30045">
        <ele>130.2</ele>
        <time>2013-11-10T12:39:23.161Z</time>
      </trkpt>
      <trkpt lat="48.77444" lon="2.30044">
        <ele>130.2</ele>
        <time>2013-11-10T12:39:26.173Z</time>
      </trkpt>
      <trkpt lat="48.77444" lon="2.30044">
        <ele>130.3</ele>
        <time>2013-11-10T12:39:27.127Z</time>
      </trkpt>
      <trkpt lat="48.77444" lon="2.30043">
        <ele>130.3</ele>
        <time>2013-11-10T12:39:34.159Z</time>
      </trkpt>
      <trkpt lat="48.77443" lon="2.30043">
        <ele>130.3</ele>
        <time>2013-11-10T12:39:35.177Z</time>
      </trkpt>
      <trkpt lat="48.77442" lon="2.30048">
        <ele>130.8</ele>
        <time>2013-11-10T12:39:48.134Z</time>
      </trkpt>
      <trkpt lat="48.77442" lon="2.30048">
        <ele>130.8</ele>
        <time>2013-11-10T12:39:49.257Z</time>
      </trkpt>
      <trkpt lat="48.77442" lon="2.30048">
        <ele>131</ele>
        <time>2013-11-10T12:40:00.173Z</time>
      </trkpt>
      <trkpt lat="48.77442" lon="2.30048">
        <ele>131</ele>
        <time>2013-11-10T12:40:01.193Z</time>
      </trkpt>
      <trkpt lat="48.77442" lon="2.30042">
        <ele>130.9</ele>
        <time>2013-11-10T12:40:12.130Z</time>
      </trkpt>
      <trkpt lat="48.77441" lon="2.30042">
        <ele>130.9</ele>
        <time>2013-11-10T12:40:13.162Z</time>
      </trkpt>
      <trkpt lat="48.77442" lon="2.30042">
        <ele>130.9</ele>
        <time>2013-11-10T12:40:17.125Z</time>
      </trkpt>
      <trkpt lat="48.77442" lon="2.30042">
        <ele>130.9</ele>
        <time>2013-11-10T12:40:18.164Z</time>
      </trkpt>
      <trkpt lat="48.77446" lon="2.30042">
        <ele>131</ele>
        <time>2013-11-10T12:40:27.032Z</time>
      </trkpt>
      <trkpt lat="48.77445" lon="2.30042">
        <ele>130.9</ele>
        <time>2013-11-10T12:40:27.161Z</time>
      </trkpt>
      <trkpt lat="48.77445" lon="2.30043">
        <ele>130.9</ele>
        <time>2013-11-10T12:40:28.126Z</time>
      </trkpt>
      <trkpt lat="48.77441" lon="2.30043">
        <ele>130.9</ele>
        <time>2013-11-10T12:40:36.161Z</time>
      </trkpt>
      <trkpt lat="48.77441" lon="2.30043">
        <ele>130.9</ele>
        <time>2013-11-10T12:40:37.289Z</time>
      </trkpt>
      <trkpt lat="48.77441" lon="2.30042">
        <ele>131</ele>
        <time>2013-11-10T12:40:43.149Z</time>
      </trkpt>
      <trkpt lat="48.77441" lon="2.30041">
        <ele>131</ele>
        <time>2013-11-10T12:40:44.216Z</time>
      </trkpt>
      <trkpt lat="48.77443" lon="2.30037">
        <ele>131.2</ele>
        <time>2013-11-10T12:40:51.297Z</time>
      </trkpt>
      <trkpt lat="48.77443" lon="2.30037">
        <ele>131.2</ele>
        <time>2013-11-10T12:40:52.160Z</time>
      </trkpt>
      <trkpt lat="48.77443" lon="2.30039">
        <ele>131.3</ele>
        <time>2013-11-10T12:41:01.837Z</time>
      </trkpt>
      <trkpt lat="48.77443" lon="2.3004">
        <ele>131.3</ele>
        <time>2013-11-10T12:41:02.083Z</time>
      </trkpt>
      <trkpt lat="48.77442" lon="2.30043">
        <ele>131.4</ele>
        <time>2013-11-10T12:41:10.094Z</time>
      </trkpt>
      <trkpt lat="48.77442" lon="2.30043">
        <ele>131.4</ele>
        <time>2013-11-10T12:41:11.096Z</time>
      </trkpt>
      <trkpt lat="48.77442" lon="2.30043">
        <ele>131.5</ele>
        <time>2013-11-10T12:41:14.142Z</time>
      </trkpt>
      <trkpt lat="48.77441" lon="2.30043">
        <ele>131.5</ele>
        <time>2013-11-10T12:41:15.128Z</time>
      </trkpt>
      <trkpt lat="48.7744" lon="2.30043">
        <ele>131.7</ele>
        <time>2013-11-10T12:41:20.129Z</time>
      </trkpt>
      <trkpt lat="48.7744" lon="2.30043">
        <ele>131.7</ele>
        <time>2013-11-10T12:41:21.131Z</time>
      </trkpt>
      <trkpt lat="48.7744" lon="2.30043">
        <ele>131.7</ele>
        <time>2013-11-10T12:41:22.152Z</time>
      </trkpt>
      <trkpt lat="48.77441" lon="2.30043">
        <ele>131.7</ele>
        <time>2013-11-10T12:41:23.127Z</time>
      </trkpt>
      <trkpt lat="48.77445" lon="2.30043">
        <ele>131.9</ele>
        <time>2013-11-10T12:41:32.276Z</time>
      </trkpt>
      <trkpt lat="48.77444" lon="2.30043">
        <ele>131.9</ele>
        <time>2013-11-10T12:41:33.155Z</time>
      </trkpt>
      <trkpt lat="48.77444" lon="2.30044">
        <ele>131.8</ele>
        <time>2013-11-10T12:41:35.147Z</time>
      </trkpt>
      <trkpt lat="48.77444" lon="2.30044">
        <ele>131.9</ele>
        <time>2013-11-10T12:41:36.161Z</time>
      </trkpt>
      <trkpt lat="48.77443" lon="2.30045">
        <ele>132</ele>
        <time>2013-11-10T12:41:38.189Z</time>
      </trkpt>
      <trkpt lat="48.77443" lon="2.30045">
        <ele>132</ele>
        <time>2013-11-10T12:41:39.219Z</time>
      </trkpt>
      <trkpt lat="48.77442" lon="2.30042">
        <ele>132</ele>
        <time>2013-11-10T12:41:58.149Z</time>
      </trkpt>
      <trkpt lat="48.77442" lon="2.30041">
        <ele>132</ele>
        <time>2013-11-10T12:41:59.154Z</time>
      </trkpt>
      <trkpt lat="48.77441" lon="2.30041">
        <ele>132</ele>
        <time>2013-11-10T12:42:01.157Z</time>
      </trkpt>
      <trkpt lat="48.77441" lon="2.30041">
        <ele>132</ele>
        <time>2013-11-10T12:42:02.172Z</time>
      </trkpt>
      <trkpt lat="48.77442" lon="2.30043">
        <ele>132.1</ele>
        <time>2013-11-10T12:42:12.294Z</time>
      </trkpt>
      <trkpt lat="48.77442" lon="2.30043">
        <ele>132.1</ele>
        <time>2013-11-10T12:42:13.152Z</time>
      </trkpt>
      <trkpt lat="48.7744" lon="2.30046">
        <ele>132.5</ele>
        <time>2013-11-10T12:42:25.154Z</time>
      </trkpt>
      <trkpt lat="48.7744" lon="2.30046">
        <ele>132.7</ele>
        <time>2013-11-10T12:42:26.154Z</time>
      </trkpt>
      <trkpt lat="48.7744" lon="2.30045">
        <ele>132.7</ele>
        <time>2013-11-10T12:42:32.405Z</time>
      </trkpt>
      <trkpt lat="48.7744" lon="2.30044">
        <ele>132.7</ele>
        <time>2013-11-10T12:42:33.172Z</time>
      </trkpt>
      <trkpt lat="48.7744" lon="2.30044">
        <ele>132.7</ele>
        <time>2013-11-10T12:42:35.185Z</time>
      </trkpt>
      <trkpt lat="48.7744" lon="2.30043">
        <ele>132.7</ele>
        <time>2013-11-10T12:42:36.158Z</time>
      </trkpt>
      <trkpt lat="48.7744" lon="2.30044">
        <ele>132.8</ele>
        <time>2013-11-10T12:42:39.169Z</time>
      </trkpt>
      <trkpt lat="48.77439" lon="2.30044">
        <ele>132.8</ele>
        <time>2013-11-10T12:42:40.149Z</time>
      </trkpt>
      <trkpt lat="48.77439" lon="2.30043">
        <ele>132.9</ele>
        <time>2013-11-10T12:42:42.432Z</time>
      </trkpt>
      <trkpt lat="48.77439" lon="2.30043">
        <ele>133</ele>
        <time>2013-11-10T12:42:43.161Z</time>
      </trkpt>
      <trkpt lat="48.77439" lon="2.30044">
        <ele>132.9</ele>
        <time>2013-11-10T12:42:49.222Z</time>
      </trkpt>
      <trkpt lat="48.77438" lon="2.30045">
        <ele>132.9</ele>
        <time>2013-11-10T12:42:50.225Z</time>
      </trkpt>
      <trkpt lat="48.77438" lon="2.30045">
        <ele>132.9</ele>
        <time>2013-11-10T12:42:52.748Z</time>
      </trkpt>
      <trkpt lat="48.77438" lon="2.30045">
        <ele>132.9</ele>
        <time>2013-11-10T12:42:53.171Z</time>
      </trkpt>
      <trkpt lat="48.77438" lon="2.30044">
        <ele>133.2</ele>
        <time>2013-11-10T12:42:57.133Z</time>
      </trkpt>
      <trkpt lat="48.77438" lon="2.30043">
        <ele>133.2</ele>
        <time>2013-11-10T12:42:58.173Z</time>
      </trkpt>
      <trkpt lat="48.7743" lon="2.30037">
        <ele>132.5</ele>
        <time>2013-11-10T12:43:08.167Z</time>
      </trkpt>
      <trkpt lat="48.77429" lon="2.30037">
        <ele>132.5</ele>
        <time>2013-11-10T12:43:09.177Z</time>
      </trkpt>
      <trkpt lat="48.77423" lon="2.30026">
        <ele>132.3</ele>
        <time>2013-11-10T12:43:17.160Z</time>
      </trkpt>
      <trkpt lat="48.77423" lon="2.30026">
        <ele>132.3</ele>
        <time>2013-11-10T12:43:18.175Z</time>
      </trkpt>
      <trkpt lat="48.77425" lon="2.30024">
        <ele>132.5</ele>
        <time>2013-11-10T12:43:27.164Z</time>
      </trkpt>
      <trkpt lat="48.77425" lon="2.30024">
        <ele>132.5</ele>
        <time>2013-11-10T12:43:28.177Z</time>
      </trkpt>
      <trkpt lat="48.77425" lon="2.30025">
        <ele>132.5</ele>
        <time>2013-11-10T12:43:29.175Z</time>
      </trkpt>
      <trkpt lat="48.77425" lon="2.30025">
        <ele>132.5</ele>
        <time>2013-11-10T12:43:30.174Z</time>
      </trkpt>
      <trkpt lat="48.77425" lon="2.3003">
        <ele>132.4</ele>
        <time>2013-11-10T12:43:43.167Z</time>
      </trkpt>
      <trkpt lat="48.77425" lon="2.3003">
        <ele>132.4</ele>
        <time>2013-11-10T12:43:44.164Z</time>
      </trkpt>
      <trkpt lat="48.77425" lon="2.30029">
        <ele>132.4</ele>
        <time>2013-11-10T12:43:45.175Z</time>
      </trkpt>
      <trkpt lat="48.77425" lon="2.30028">
        <ele>132.4</ele>
        <time>2013-11-10T12:43:46.155Z</time>
      </trkpt>
      <trkpt lat="48.77426" lon="2.30019">
        <ele>132.6</ele>
        <time>2013-11-10T12:44:04.169Z</time>
      </trkpt>
      <trkpt lat="48.77425" lon="2.30019">
        <ele>132.6</ele>
        <time>2013-11-10T12:44:05.163Z</time>
      </trkpt>
      <trkpt lat="48.77426" lon="2.30021">
        <ele>132.5</ele>
        <time>2013-11-10T12:44:15.168Z</time>
      </trkpt>
      <trkpt lat="48.77426" lon="2.30022">
        <ele>132.5</ele>
        <time>2013-11-10T12:44:16.174Z</time>
      </trkpt>
      <trkpt lat="48.77425" lon="2.30024">
        <ele>132.5</ele>
        <time>2013-11-10T12:44:22.222Z</time>
      </trkpt>
      <trkpt lat="48.77425" lon="2.30024">
        <ele>132.5</ele>
        <time>2013-11-10T12:44:22.310Z</time>
      </trkpt>
      <trkpt lat="48.77425" lon="2.30025">
        <ele>132.4</ele>
        <time>2013-11-10T12:44:35.152Z</time>
      </trkpt>
      <trkpt lat="48.77425" lon="2.30026">
        <ele>132.4</ele>
        <time>2013-11-10T12:44:36.147Z</time>
      </trkpt>
      <trkpt lat="48.77422" lon="2.30027">
        <ele>132.1</ele>
        <time>2013-11-10T12:44:44.120Z</time>
      </trkpt>
      <trkpt lat="48.77422" lon="2.30027">
        <ele>132.1</ele>
        <time>2013-11-10T12:44:45.120Z</time>
      </trkpt>
      <trkpt lat="48.77422" lon="2.30028">
        <ele>132.3</ele>
        <time>2013-11-10T12:45:06.893Z</time>
      </trkpt>
      <trkpt lat="48.77422" lon="2.30029">
        <ele>132.4</ele>
        <time>2013-11-10T12:45:07.117Z</time>
      </trkpt>
      <trkpt lat="48.77414" lon="2.30021">
        <ele>131.8</ele>
        <time>2013-11-10T12:45:17.199Z</time>
      </trkpt>
      <trkpt lat="48.77414" lon="2.3002">
        <ele>131.8</ele>
        <time>2013-11-10T12:45:18.148Z</time>
      </trkpt>
      <trkpt lat="48.77411" lon="2.30007">
        <ele>131.6</ele>
        <time>2013-11-10T12:45:29.177Z</time>
      </trkpt>
      <trkpt lat="48.77411" lon="2.30006">
        <ele>131.7</ele>
        <time>2013-11-10T12:45:30.168Z</time>
      </trkpt>
      <trkpt lat="48.77413" lon="2.29994">
        <ele>131.3</ele>
        <time>2013-11-10T12:45:45.172Z</time>
      </trkpt>
      <trkpt lat="48.77414" lon="2.29993">
        <ele>131.3</ele>
        <time>2013-11-10T12:45:46.177Z</time>
      </trkpt>
      <trkpt lat="48.77422" lon="2.29988">
        <ele>131.3</ele>
        <time>2013-11-10T12:45:55.195Z</time>
      </trkpt>
      <trkpt lat="48.77423" lon="2.29988">
        <ele>131.3</ele>
        <time>2013-11-10T12:45:56.136Z</time>
      </trkpt>
      <trkpt lat="48.77431" lon="2.29989">
        <ele>130.8</ele>
        <time>2013-11-10T12:46:05.171Z</time>
      </trkpt>
      <trkpt lat="48.77432" lon="2.29989">
        <ele>130.7</ele>
        <time>2013-11-10T12:46:06.168Z</time>
      </trkpt>
      <trkpt lat="48.7743" lon="2.29979">
        <ele>130.7</ele>
        <time>2013-11-10T12:46:17.121Z</time>
      </trkpt>
      <trkpt lat="48.7743" lon="2.29975">
        <ele>130.7</ele>
        <time>2013-11-10T12:46:17.206Z</time>
      </trkpt>
      <trkpt lat="48.77427" lon="2.29964">
        <ele>130.7</ele>
        <time>2013-11-10T12:46:22.228Z</time>
      </trkpt>
      <trkpt lat="48.77427" lon="2.29962">
        <ele>130.7</ele>
        <time>2013-11-10T12:46:23.154Z</time>
      </trkpt>
      <trkpt lat="48.77425" lon="2.29949">
        <ele>130.5</ele>
        <time>2013-11-10T12:46:31.170Z</time>
      </trkpt>
      <trkpt lat="48.77425" lon="2.29947">
        <ele>130.5</ele>
        <time>2013-11-10T12:46:32.169Z</time>
      </trkpt>
      <trkpt lat="48.77419" lon="2.29938">
        <ele>130</ele>
        <time>2013-11-10T12:46:40.169Z</time>
      </trkpt>
      <trkpt lat="48.77418" lon="2.29937">
        <ele>129.9</ele>
        <time>2013-11-10T12:46:41.169Z</time>
      </trkpt>
      <trkpt lat="48.7741" lon="2.29933">
        <ele>129</ele>
        <time>2013-11-10T12:46:49.164Z</time>
      </trkpt>
      <trkpt lat="48.77409" lon="2.29933">
        <ele>128.9</ele>
        <time>2013-11-10T12:46:50.164Z</time>
      </trkpt>
      <trkpt lat="48.774" lon="2.29933">
        <ele>128.3</ele>
        <time>2013-11-10T12:46:58.174Z</time>
      </trkpt>
      <trkpt lat="48.774" lon="2.29933">
        <ele>128.3</ele>
        <time>2013-11-10T12:46:59.179Z</time>
      </trkpt>
      <trkpt lat="48.77391" lon="2.29936">
        <ele>128.2</ele>
        <time>2013-11-10T12:47:09.214Z</time>
      </trkpt>
      <trkpt lat="48.77391" lon="2.29936">
        <ele>128.1</ele>
        <time>2013-11-10T12:47:10.181Z</time>
      </trkpt>
      <trkpt lat="48.77383" lon="2.29941">
        <ele>128.1</ele>
        <time>2013-11-10T12:47:18.173Z</time>
      </trkpt>
      <trkpt lat="48.77382" lon="2.29941">
        <ele>128.1</ele>
        <time>2013-11-10T12:47:19.173Z</time>
      </trkpt>
      <trkpt lat="48.77376" lon="2.29931">
        <ele>128</ele>
        <time>2013-11-10T12:47:30.171Z</time>
      </trkpt>
      <trkpt lat="48.77376" lon="2.2993">
        <ele>128</ele>
        <time>2013-11-10T12:47:31.167Z</time>
      </trkpt>
      <trkpt lat="48.77375" lon="2.29917">
        <ele>127.6</ele>
        <time>2013-11-10T12:47:41.164Z</time>
      </trkpt>
      <trkpt lat="48.77374" lon="2.29915">
        <ele>127.6</ele>
        <time>2013-11-10T12:47:42.187Z</time>
      </trkpt>
      <trkpt lat="48.77372" lon="2.29902">
        <ele>127.4</ele>
        <time>2013-11-10T12:47:53.245Z</time>
      </trkpt>
      <trkpt lat="48.77371" lon="2.29901">
        <ele>127.4</ele>
        <time>2013-11-10T12:47:54.130Z</time>
      </trkpt>
      <trkpt lat="48.77371" lon="2.29896">
        <ele>127.2</ele>
        <time>2013-11-10T12:48:00.161Z</time>
      </trkpt>
      <trkpt lat="48.77371" lon="2.29896">
        <ele>127.2</ele>
        <time>2013-11-10T12:48:01.180Z</time>
      </trkpt>
      <trkpt lat="48.77371" lon="2.29897">
        <ele>127.2</ele>
        <time>2013-11-10T12:48:03.155Z</time>
      </trkpt>
      <trkpt lat="48.77371" lon="2.29897">
        <ele>127.2</ele>
        <time>2013-11-10T12:48:04.110Z</time>
      </trkpt>
      <trkpt lat="48.77372" lon="2.29899">
        <ele>127.2</ele>
        <time>2013-11-10T12:48:08.168Z</time>
      </trkpt>
      <trkpt lat="48.77372" lon="2.29899">
        <ele>127.2</ele>
        <time>2013-11-10T12:48:09.145Z</time>
      </trkpt>
      <trkpt lat="48.77372" lon="2.29899">
        <ele>127.1</ele>
        <time>2013-11-10T12:48:10.080Z</time>
      </trkpt>
      <trkpt lat="48.77372" lon="2.29899">
        <ele>127.1</ele>
        <time>2013-11-10T12:48:11.123Z</time>
      </trkpt>
      <trkpt lat="48.77374" lon="2.29898">
        <ele>126.9</ele>
        <time>2013-11-10T12:48:17.128Z</time>
      </trkpt>
      <trkpt lat="48.77374" lon="2.29898">
        <ele>126.8</ele>
        <time>2013-11-10T12:48:18.089Z</time>
      </trkpt>
      <trkpt lat="48.77374" lon="2.29898">
        <ele>126.8</ele>
        <time>2013-11-10T12:48:20.134Z</time>
      </trkpt>
      <trkpt lat="48.77373" lon="2.29898">
        <ele>126.8</ele>
        <time>2013-11-10T12:48:21.123Z</time>
      </trkpt>
      <trkpt lat="48.77366" lon="2.29893">
        <ele>126.4</ele>
        <time>2013-11-10T12:48:25.144Z</time>
      </trkpt>
      <trkpt lat="48.77365" lon="2.29891">
        <ele>126.4</ele>
        <time>2013-11-10T12:48:26.143Z</time>
      </trkpt>
      <trkpt lat="48.77366" lon="2.29881">
        <ele>126.3</ele>
        <time>2013-11-10T12:48:36.974Z</time>
      </trkpt>
      <trkpt lat="48.77366" lon="2.29881">
        <ele>126.3</ele>
        <time>2013-11-10T12:48:37.102Z</time>
      </trkpt>
      <trkpt lat="48.77366" lon="2.29881">
        <ele>126.4</ele>
        <time>2013-11-10T12:48:38.107Z</time>
      </trkpt>
      <trkpt lat="48.77365" lon="2.29881">
        <ele>126.4</ele>
        <time>2013-11-10T12:48:39.107Z</time>
      </trkpt>
      <trkpt lat="48.77362" lon="2.29869">
        <ele>126.6</ele>
        <time>2013-11-10T12:48:45.140Z</time>
      </trkpt>
      <trkpt lat="48.77362" lon="2.29866">
        <ele>126.6</ele>
        <time>2013-11-10T12:48:46.129Z</time>
      </trkpt>
      <trkpt lat="48.77359" lon="2.29853">
        <ele>126.4</ele>
        <time>2013-11-10T12:48:52.212Z</time>
      </trkpt>
      <trkpt lat="48.77358" lon="2.29852">
        <ele>126.3</ele>
        <time>2013-11-10T12:48:52.273Z</time>
      </trkpt>
      <trkpt lat="48.77353" lon="2.29842">
        <ele>125.7</ele>
        <time>2013-11-10T12:49:06.907Z</time>
      </trkpt>
      <trkpt lat="48.77351" lon="2.29842">
        <ele>125.7</ele>
        <time>2013-11-10T12:49:07.140Z</time>
      </trkpt>
      <trkpt lat="48.77342" lon="2.29843">
        <ele>125.7</ele>
        <time>2013-11-10T12:49:12.233Z</time>
      </trkpt>
      <trkpt lat="48.77341" lon="2.29843">
        <ele>125.8</ele>
        <time>2013-11-10T12:49:13.188Z</time>
      </trkpt>
      <trkpt lat="48.77333" lon="2.29849">
        <ele>125.5</ele>
        <time>2013-11-10T12:49:22.220Z</time>
      </trkpt>
      <trkpt lat="48.77332" lon="2.2985">
        <ele>125.4</ele>
        <time>2013-11-10T12:49:22.262Z</time>
      </trkpt>
      <trkpt lat="48.77323" lon="2.29854">
        <ele>124.7</ele>
        <time>2013-11-10T12:49:29.182Z</time>
      </trkpt>
      <trkpt lat="48.77322" lon="2.29855">
        <ele>124.6</ele>
        <time>2013-11-10T12:49:30.186Z</time>
      </trkpt>
      <trkpt lat="48.77319" lon="2.29867">
        <ele>123.9</ele>
        <time>2013-11-10T12:49:40.178Z</time>
      </trkpt>
      <trkpt lat="48.7732" lon="2.29868">
        <ele>124</ele>
        <time>2013-11-10T12:49:41.186Z</time>
      </trkpt>
      <trkpt lat="48.77323" lon="2.29881">
        <ele>123.9</ele>
        <time>2013-11-10T12:49:50.178Z</time>
      </trkpt>
      <trkpt lat="48.77324" lon="2.29882">
        <ele>123.8</ele>
        <time>2013-11-10T12:49:51.181Z</time>
      </trkpt>
      <trkpt lat="48.77328" lon="2.29892">
        <ele>123.3</ele>
        <time>2013-11-10T12:49:57.171Z</time>
      </trkpt>
      <trkpt lat="48.77328" lon="2.29893">
        <ele>123.3</ele>
        <time>2013-11-10T12:49:58.166Z</time>
      </trkpt>
      <trkpt lat="48.77331" lon="2.29906">
        <ele>122.9</ele>
        <time>2013-11-10T12:50:06.914Z</time>
      </trkpt>
      <trkpt lat="48.77331" lon="2.29908">
        <ele>122.9</ele>
        <time>2013-11-10T12:50:07.121Z</time>
      </trkpt>
      <trkpt lat="48.77328" lon="2.2992">
        <ele>123.2</ele>
        <time>2013-11-10T12:50:22.137Z</time>
      </trkpt>
      <trkpt lat="48.77326" lon="2.2992">
        <ele>123.3</ele>
        <time>2013-11-10T12:50:22.237Z</time>
      </trkpt>
      <trkpt lat="48.77318" lon="2.29924">
        <ele>124.1</ele>
        <time>2013-11-10T12:50:28.185Z</time>
      </trkpt>
      <trkpt lat="48.77317" lon="2.29924">
        <ele>124.3</ele>
        <time>2013-11-10T12:50:29.162Z</time>
      </trkpt>
      <trkpt lat="48.7731" lon="2.29931">
        <ele>124.5</ele>
        <time>2013-11-10T12:50:39.165Z</time>
      </trkpt>
      <trkpt lat="48.77309" lon="2.29932">
        <ele>124.5</ele>
        <time>2013-11-10T12:50:40.152Z</time>
      </trkpt>
      <trkpt lat="48.77303" lon="2.2994">
        <ele>124.5</ele>
        <time>2013-11-10T12:50:47.271Z</time>
      </trkpt>
      <trkpt lat="48.77302" lon="2.29941">
        <ele>124.5</ele>
        <time>2013-11-10T12:50:48.165Z</time>
      </trkpt>
      <trkpt lat="48.77297" lon="2.2995">
        <ele>123.4</ele>
        <time>2013-11-10T12:50:57.133Z</time>
      </trkpt>
      <trkpt lat="48.77296" lon="2.29951">
        <ele>123.3</ele>
        <time>2013-11-10T12:50:58.250Z</time>
      </trkpt>
      <trkpt lat="48.77291" lon="2.29963">
        <ele>121.2</ele>
        <time>2013-11-10T12:51:09.171Z</time>
      </trkpt>
      <trkpt lat="48.7729" lon="2.29963">
        <ele>121</ele>
        <time>2013-11-10T12:51:10.163Z</time>
      </trkpt>
      <trkpt lat="48.77285" lon="2.29974">
        <ele>119.9</ele>
        <time>2013-11-10T12:51:22.021Z</time>
      </trkpt>
      <trkpt lat="48.77284" lon="2.29975">
        <ele>119.6</ele>
        <time>2013-11-10T12:51:22.132Z</time>
      </trkpt>
      <trkpt lat="48.77275" lon="2.29978">
        <ele>118</ele>
        <time>2013-11-10T12:51:30.171Z</time>
      </trkpt>
      <trkpt lat="48.77275" lon="2.29978">
        <ele>117.9</ele>
        <time>2013-11-10T12:51:31.173Z</time>
      </trkpt>
      <trkpt lat="48.77266" lon="2.29978">
        <ele>116</ele>
        <time>2013-11-10T12:51:41.175Z</time>
      </trkpt>
      <trkpt lat="48.77265" lon="2.29978">
        <ele>116</ele>
        <time>2013-11-10T12:51:42.182Z</time>
      </trkpt>
      <trkpt lat="48.77257" lon="2.29975">
        <ele>113.5</ele>
        <time>2013-11-10T12:51:54.179Z</time>
      </trkpt>
      <trkpt lat="48.77255" lon="2.29975">
        <ele>113.2</ele>
        <time>2013-11-10T12:51:55.181Z</time>
      </trkpt>
      <trkpt lat="48.77247" lon="2.2998">
        <ele>111.7</ele>
        <time>2013-11-10T12:52:03.169Z</time>
      </trkpt>
      <trkpt lat="48.77246" lon="2.29979">
        <ele>111.7</ele>
        <time>2013-11-10T12:52:04.170Z</time>
      </trkpt>
      <trkpt lat="48.77239" lon="2.29972">
        <ele>111.8</ele>
        <time>2013-11-10T12:52:11.165Z</time>
      </trkpt>
      <trkpt lat="48.77237" lon="2.29971">
        <ele>111.9</ele>
        <time>2013-11-10T12:52:12.162Z</time>
      </trkpt>
      <trkpt lat="48.77229" lon="2.29968">
        <ele>112.3</ele>
        <time>2013-11-10T12:52:19.137Z</time>
      </trkpt>
      <trkpt lat="48.77228" lon="2.29968">
        <ele>112.3</ele>
        <time>2013-11-10T12:52:20.173Z</time>
      </trkpt>
      <trkpt lat="48.7722" lon="2.29965">
        <ele>112.1</ele>
        <time>2013-11-10T12:52:31.182Z</time>
      </trkpt>
      <trkpt lat="48.77219" lon="2.29965">
        <ele>112</ele>
        <time>2013-11-10T12:52:32.184Z</time>
      </trkpt>
      <trkpt lat="48.77211" lon="2.29962">
        <ele>111.9</ele>
        <time>2013-11-10T12:52:41.170Z</time>
      </trkpt>
      <trkpt lat="48.7721" lon="2.29961">
        <ele>112</ele>
        <time>2013-11-10T12:52:42.172Z</time>
      </trkpt>
      <trkpt lat="48.77201" lon="2.29959">
        <ele>112.1</ele>
        <time>2013-11-10T12:52:48.148Z</time>
      </trkpt>
      <trkpt lat="48.77199" lon="2.29958">
        <ele>112.1</ele>
        <time>2013-11-10T12:52:49.137Z</time>
      </trkpt>
      <trkpt lat="48.77192" lon="2.29959">
        <ele>111.9</ele>
        <time>2013-11-10T12:52:52.850Z</time>
      </trkpt>
      <trkpt lat="48.77189" lon="2.2996">
        <ele>111.8</ele>
        <time>2013-11-10T12:52:53.142Z</time>
      </trkpt>
      <trkpt lat="48.77181" lon="2.29963">
        <ele>112.3</ele>
        <time>2013-11-10T12:53:01.888Z</time>
      </trkpt>
      <trkpt lat="48.77181" lon="2.29963">
        <ele>112.4</ele>
        <time>2013-11-10T12:53:02.133Z</time>
      </trkpt>
      <trkpt lat="48.77173" lon="2.29962">
        <ele>112.6</ele>
        <time>2013-11-10T12:53:07.134Z</time>
      </trkpt>
      <trkpt lat="48.77171" lon="2.29962">
        <ele>112.6</ele>
        <time>2013-11-10T12:53:08.178Z</time>
      </trkpt>
      <trkpt lat="48.77163" lon="2.29961">
        <ele>112.6</ele>
        <time>2013-11-10T12:53:17.037Z</time>
      </trkpt>
      <trkpt lat="48.77162" lon="2.29961">
        <ele>112.5</ele>
        <time>2013-11-10T12:53:17.133Z</time>
      </trkpt>
      <trkpt lat="48.77154" lon="2.29957">
        <ele>112.7</ele>
        <time>2013-11-10T12:53:24.188Z</time>
      </trkpt>
      <trkpt lat="48.77153" lon="2.29957">
        <ele>112.7</ele>
        <time>2013-11-10T12:53:25.167Z</time>
      </trkpt>
      <trkpt lat="48.77145" lon="2.29955">
        <ele>112.7</ele>
        <time>2013-11-10T12:53:32.266Z</time>
      </trkpt>
      <trkpt lat="48.77144" lon="2.29954">
        <ele>112.7</ele>
        <time>2013-11-10T12:53:33.181Z</time>
      </trkpt>
      <trkpt lat="48.77136" lon="2.29954">
        <ele>112</ele>
        <time>2013-11-10T12:53:40.177Z</time>
      </trkpt>
      <trkpt lat="48.77134" lon="2.29954">
        <ele>111.8</ele>
        <time>2013-11-10T12:53:41.180Z</time>
      </trkpt>
      <trkpt lat="48.77126" lon="2.29952">
        <ele>110.3</ele>
        <time>2013-11-10T12:53:50.188Z</time>
      </trkpt>
      <trkpt lat="48.77125" lon="2.29951">
        <ele>110.2</ele>
        <time>2013-11-10T12:53:51.175Z</time>
      </trkpt>
      <trkpt lat="48.77118" lon="2.29945">
        <ele>108.1</ele>
        <time>2013-11-10T12:54:08.178Z</time>
      </trkpt>
      <trkpt lat="48.77117" lon="2.29943">
        <ele>107.9</ele>
        <time>2013-11-10T12:54:09.178Z</time>
      </trkpt>
      <trkpt lat="48.77115" lon="2.29931">
        <ele>106.5</ele>
        <time>2013-11-10T12:54:17.165Z</time>
      </trkpt>
      <trkpt lat="48.77115" lon="2.2993">
        <ele>106.3</ele>
        <time>2013-11-10T12:54:18.177Z</time>
      </trkpt>
      <trkpt lat="48.77113" lon="2.29917">
        <ele>104.5</ele>
        <time>2013-11-10T12:54:25.189Z</time>
      </trkpt>
      <trkpt lat="48.77113" lon="2.29914">
        <ele>104.3</ele>
        <time>2013-11-10T12:54:26.234Z</time>
      </trkpt>
      <trkpt lat="48.7711" lon="2.29903">
        <ele>102.8</ele>
        <time>2013-11-10T12:54:35.177Z</time>
      </trkpt>
      <trkpt lat="48.7711" lon="2.29901">
        <ele>102.6</ele>
        <time>2013-11-10T12:54:36.178Z</time>
      </trkpt>
      <trkpt lat="48.77107" lon="2.29888">
        <ele>101.3</ele>
        <time>2013-11-10T12:54:42.515Z</time>
      </trkpt>
      <trkpt lat="48.77107" lon="2.29887">
        <ele>101</ele>
        <time>2013-11-10T12:54:43.178Z</time>
      </trkpt>
      <trkpt lat="48.77102" lon="2.29876">
        <ele>100</ele>
        <time>2013-11-10T12:54:51.173Z</time>
      </trkpt>
      <trkpt lat="48.77101" lon="2.29875">
        <ele>100.1</ele>
        <time>2013-11-10T12:54:52.172Z</time>
      </trkpt>
      <trkpt lat="48.77093" lon="2.29872">
        <ele>100.7</ele>
        <time>2013-11-10T12:55:05.181Z</time>
      </trkpt>
      <trkpt lat="48.77092" lon="2.29872">
        <ele>100.7</ele>
        <time>2013-11-10T12:55:06.188Z</time>
      </trkpt>
      <trkpt lat="48.77084" lon="2.29872">
        <ele>100.9</ele>
        <time>2013-11-10T12:55:12.063Z</time>
      </trkpt>
      <trkpt lat="48.77082" lon="2.29872">
        <ele>100.9</ele>
        <time>2013-11-10T12:55:12.134Z</time>
      </trkpt>
      <trkpt lat="48.77073" lon="2.29871">
        <ele>99.7</ele>
        <time>2013-11-10T12:55:22.239Z</time>
      </trkpt>
      <trkpt lat="48.77072" lon="2.29872">
        <ele>99.6</ele>
        <time>2013-11-10T12:55:22.311Z</time>
      </trkpt>
      <trkpt lat="48.77064" lon="2.29875">
        <ele>99.4</ele>
        <time>2013-11-10T12:55:27.303Z</time>
      </trkpt>
      <trkpt lat="48.77063" lon="2.29875">
        <ele>99.4</ele>
        <time>2013-11-10T12:55:28.167Z</time>
      </trkpt>
      <trkpt lat="48.77054" lon="2.29877">
        <ele>99.3</ele>
        <time>2013-11-10T12:55:33.160Z</time>
      </trkpt>
      <trkpt lat="48.77053" lon="2.29878">
        <ele>99.3</ele>
        <time>2013-11-10T12:55:34.165Z</time>
      </trkpt>
      <trkpt lat="48.77044" lon="2.2988">
        <ele>99.2</ele>
        <time>2013-11-10T12:55:43.166Z</time>
      </trkpt>
      <trkpt lat="48.77043" lon="2.2988">
        <ele>99.2</ele>
        <time>2013-11-10T12:55:44.160Z</time>
      </trkpt>
      <trkpt lat="48.77036" lon="2.29886">
        <ele>99</ele>
        <time>2013-11-10T12:55:52.601Z</time>
      </trkpt>
      <trkpt lat="48.77035" lon="2.29887">
        <ele>99</ele>
        <time>2013-11-10T12:55:53.168Z</time>
      </trkpt>
      <trkpt lat="48.77026" lon="2.29888">
        <ele>98.9</ele>
        <time>2013-11-10T12:56:00.267Z</time>
      </trkpt>
      <trkpt lat="48.77025" lon="2.29889">
        <ele>98.9</ele>
        <time>2013-11-10T12:56:01.129Z</time>
      </trkpt>
      <trkpt lat="48.77017" lon="2.29892">
        <ele>98.8</ele>
        <time>2013-11-10T12:56:06.165Z</time>
      </trkpt>
      <trkpt lat="48.77016" lon="2.29892">
        <ele>98.8</ele>
        <time>2013-11-10T12:56:07.205Z</time>
      </trkpt>
      <trkpt lat="48.77008" lon="2.29895">
        <ele>99</ele>
        <time>2013-11-10T12:56:14.160Z</time>
      </trkpt>
      <trkpt lat="48.77006" lon="2.29895">
        <ele>99.1</ele>
        <time>2013-11-10T12:56:15.261Z</time>
      </trkpt>
      <trkpt lat="48.76999" lon="2.29888">
        <ele>99.2</ele>
        <time>2013-11-10T12:56:28.176Z</time>
      </trkpt>
      <trkpt lat="48.76999" lon="2.29887">
        <ele>99.1</ele>
        <time>2013-11-10T12:56:29.172Z</time>
      </trkpt>
      <trkpt lat="48.76996" lon="2.29876">
        <ele>98.8</ele>
        <time>2013-11-10T12:56:37.507Z</time>
      </trkpt>
      <trkpt lat="48.76995" lon="2.29874">
        <ele>98.8</ele>
        <time>2013-11-10T12:56:38.173Z</time>
      </trkpt>
      <trkpt lat="48.76993" lon="2.29863">
        <ele>99</ele>
        <time>2013-11-10T12:56:44.171Z</time>
      </trkpt>
      <trkpt lat="48.76993" lon="2.2986">
        <ele>99</ele>
        <time>2013-11-10T12:56:45.173Z</time>
      </trkpt>
      <trkpt lat="48.76986" lon="2.29852">
        <ele>99.4</ele>
        <time>2013-11-10T12:56:59.175Z</time>
      </trkpt>
      <trkpt lat="48.76985" lon="2.29852">
        <ele>99.4</ele>
        <time>2013-11-10T12:57:00.330Z</time>
      </trkpt>
      <trkpt lat="48.76977" lon="2.29857">
        <ele>98.6</ele>
        <time>2013-11-10T12:57:07.126Z</time>
      </trkpt>
      <trkpt lat="48.76976" lon="2.29858">
        <ele>98.5</ele>
        <time>2013-11-10T12:57:08.504Z</time>
      </trkpt>
      <trkpt lat="48.76967" lon="2.2986">
        <ele>97.2</ele>
        <time>2013-11-10T12:57:22.002Z</time>
      </trkpt>
      <trkpt lat="48.76966" lon="2.29861">
        <ele>97.1</ele>
        <time>2013-11-10T12:57:22.117Z</time>
      </trkpt>
      <trkpt lat="48.76958" lon="2.29862">
        <ele>96.7</ele>
        <time>2013-11-10T12:57:28.167Z</time>
      </trkpt>
      <trkpt lat="48.76956" lon="2.29862">
        <ele>96.7</ele>
        <time>2013-11-10T12:57:29.168Z</time>
      </trkpt>
      <trkpt lat="48.76949" lon="2.29868">
        <ele>96.6</ele>
        <time>2013-11-10T12:57:37.242Z</time>
      </trkpt>
      <trkpt lat="48.76948" lon="2.29869">
        <ele>96.6</ele>
        <time>2013-11-10T12:57:37.291Z</time>
      </trkpt>
      <trkpt lat="48.7694" lon="2.29871">
        <ele>97.2</ele>
        <time>2013-11-10T12:57:48.167Z</time>
      </trkpt>
      <trkpt lat="48.76939" lon="2.29872">
        <ele>97.3</ele>
        <time>2013-11-10T12:57:49.161Z</time>
      </trkpt>
      <trkpt lat="48.7693" lon="2.29873">
        <ele>98</ele>
        <time>2013-11-10T12:57:56.165Z</time>
      </trkpt>
      <trkpt lat="48.76929" lon="2.29873">
        <ele>98</ele>
        <time>2013-11-10T12:57:57.129Z</time>
      </trkpt>
      <trkpt lat="48.76921" lon="2.29874">
        <ele>97.6</ele>
        <time>2013-11-10T12:58:06.926Z</time>
      </trkpt>
      <trkpt lat="48.7692" lon="2.29874">
        <ele>97.6</ele>
        <time>2013-11-10T12:58:07.125Z</time>
      </trkpt>
      <trkpt lat="48.76912" lon="2.29876">
        <ele>97.4</ele>
        <time>2013-11-10T12:58:14.163Z</time>
      </trkpt>
      <trkpt lat="48.7691" lon="2.29876">
        <ele>97.4</ele>
        <time>2013-11-10T12:58:15.157Z</time>
      </trkpt>
      <trkpt lat="48.76902" lon="2.29879">
        <ele>97.8</ele>
        <time>2013-11-10T12:58:22.358Z</time>
      </trkpt>
      <trkpt lat="48.76901" lon="2.2988">
        <ele>97.9</ele>
        <time>2013-11-10T12:58:23.156Z</time>
      </trkpt>
      <trkpt lat="48.76893" lon="2.29885">
        <ele>98.2</ele>
        <time>2013-11-10T12:58:31.165Z</time>
      </trkpt>
      <trkpt lat="48.76892" lon="2.29885">
        <ele>98.3</ele>
        <time>2013-11-10T12:58:32.157Z</time>
      </trkpt>
      <trkpt lat="48.76883" lon="2.29887">
        <ele>99.2</ele>
        <time>2013-11-10T12:58:40.122Z</time>
      </trkpt>
      <trkpt lat="48.76883" lon="2.29887">
        <ele>99.3</ele>
        <time>2013-11-10T12:58:41.120Z</time>
      </trkpt>
      <trkpt lat="48.76874" lon="2.29888">
        <ele>100.2</ele>
        <time>2013-11-10T12:58:49.340Z</time>
      </trkpt>
      <trkpt lat="48.76873" lon="2.29889">
        <ele>100.2</ele>
        <time>2013-11-10T12:58:50.170Z</time>
      </trkpt>
      <trkpt lat="48.76864" lon="2.29892">
        <ele>100.4</ele>
        <time>2013-11-10T12:58:58.175Z</time>
      </trkpt>
      <trkpt lat="48.76863" lon="2.29893">
        <ele>100.4</ele>
        <time>2013-11-10T12:58:59.178Z</time>
      </trkpt>
      <trkpt lat="48.76856" lon="2.29898">
        <ele>100.1</ele>
        <time>2013-11-10T12:59:05.182Z</time>
      </trkpt>
      <trkpt lat="48.76855" lon="2.29899">
        <ele>99.9</ele>
        <time>2013-11-10T12:59:06.176Z</time>
      </trkpt>
      <trkpt lat="48.7685" lon="2.2991">
        <ele>99.6</ele>
        <time>2013-11-10T12:59:13.138Z</time>
      </trkpt>
      <trkpt lat="48.7685" lon="2.29912">
        <ele>99.7</ele>
        <time>2013-11-10T12:59:14.178Z</time>
      </trkpt>
      <trkpt lat="48.76844" lon="2.29922">
        <ele>99.2</ele>
        <time>2013-11-10T12:59:27.190Z</time>
      </trkpt>
      <trkpt lat="48.76844" lon="2.29923">
        <ele>99.1</ele>
        <time>2013-11-10T12:59:28.171Z</time>
      </trkpt>
      <trkpt lat="48.76838" lon="2.29933">
        <ele>99.4</ele>
        <time>2013-11-10T12:59:34.172Z</time>
      </trkpt>
      <trkpt lat="48.76837" lon="2.29935">
        <ele>99.4</ele>
        <time>2013-11-10T12:59:35.173Z</time>
      </trkpt>
      <trkpt lat="48.76832" lon="2.29945">
        <ele>99.3</ele>
        <time>2013-11-10T12:59:43.169Z</time>
      </trkpt>
      <trkpt lat="48.76832" lon="2.29946">
        <ele>99.3</ele>
        <time>2013-11-10T12:59:44.171Z</time>
      </trkpt>
      <trkpt lat="48.76827" lon="2.29956">
        <ele>99.8</ele>
        <time>2013-11-10T12:59:55.175Z</time>
      </trkpt>
      <trkpt lat="48.76827" lon="2.29957">
        <ele>100</ele>
        <time>2013-11-10T12:59:56.159Z</time>
      </trkpt>
      <trkpt lat="48.76823" lon="2.29969">
        <ele>100.2</ele>
        <time>2013-11-10T13:00:05.161Z</time>
      </trkpt>
      <trkpt lat="48.76822" lon="2.29971">
        <ele>100.1</ele>
        <time>2013-11-10T13:00:06.165Z</time>
      </trkpt>
      <trkpt lat="48.76821" lon="2.29983">
        <ele>100.1</ele>
        <time>2013-11-10T13:00:12.131Z</time>
      </trkpt>
      <trkpt lat="48.7682" lon="2.29985">
        <ele>100.1</ele>
        <time>2013-11-10T13:00:13.147Z</time>
      </trkpt>
      <trkpt lat="48.76821" lon="2.29998">
        <ele>100.2</ele>
        <time>2013-11-10T13:00:20.158Z</time>
      </trkpt>
      <trkpt lat="48.76821" lon="2.3">
        <ele>100.2</ele>
        <time>2013-11-10T13:00:21.159Z</time>
      </trkpt>
      <trkpt lat="48.7682" lon="2.30013">
        <ele>100.3</ele>
        <time>2013-11-10T13:00:32.287Z</time>
      </trkpt>
      <trkpt lat="48.7682" lon="2.30014">
        <ele>100.3</ele>
        <time>2013-11-10T13:00:33.124Z</time>
      </trkpt>
      <trkpt lat="48.76819" lon="2.30027">
        <ele>100.9</ele>
        <time>2013-11-10T13:00:40.169Z</time>
      </trkpt>
      <trkpt lat="48.76819" lon="2.30029">
        <ele>101.1</ele>
        <time>2013-11-10T13:00:41.292Z</time>
      </trkpt>
      <trkpt lat="48.76819" lon="2.30041">
        <ele>102.6</ele>
        <time>2013-11-10T13:00:52.377Z</time>
      </trkpt>
      <trkpt lat="48.76817" lon="2.30044">
        <ele>102.9</ele>
        <time>2013-11-10T13:00:53.111Z</time>
      </trkpt>
      <trkpt lat="48.76814" lon="2.30054">
        <ele>104</ele>
        <time>2013-11-10T13:00:57.091Z</time>
      </trkpt>
      <trkpt lat="48.76812" lon="2.30057">
        <ele>104.2</ele>
        <time>2013-11-10T13:00:58.132Z</time>
      </trkpt>
      <trkpt lat="48.76808" lon="2.30065">
        <ele>104.9</ele>
        <time>2013-11-10T13:01:01.901Z</time>
      </trkpt>
      <trkpt lat="48.76806" lon="2.30068">
        <ele>105.2</ele>
        <time>2013-11-10T13:01:02.104Z</time>
      </trkpt>
      <trkpt lat="48.768" lon="2.30078">
        <ele>106.3</ele>
        <time>2013-11-10T13:01:06.926Z</time>
      </trkpt>
      <trkpt lat="48.76799" lon="2.3008">
        <ele>106.3</ele>
        <time>2013-11-10T13:01:07.100Z</time>
      </trkpt>
      <trkpt lat="48.76794" lon="2.30089">
        <ele>107.3</ele>
        <time>2013-11-10T13:01:11.962Z</time>
      </trkpt>
      <trkpt lat="48.76792" lon="2.30091">
        <ele>107.5</ele>
        <time>2013-11-10T13:01:12.110Z</time>
      </trkpt>
      <trkpt lat="48.76786" lon="2.30098">
        <ele>108.2</ele>
        <time>2013-11-10T13:01:15.129Z</time>
      </trkpt>
      <trkpt lat="48.76784" lon="2.30101">
        <ele>108.5</ele>
        <time>2013-11-10T13:01:16.128Z</time>
      </trkpt>
      <trkpt lat="48.76779" lon="2.30107">
        <ele>108.9</ele>
        <time>2013-11-10T13:01:18.133Z</time>
      </trkpt>
      <trkpt lat="48.76772" lon="2.30118">
        <ele>109.2</ele>
        <time>2013-11-10T13:01:19.138Z</time>
      </trkpt>
      <trkpt lat="48.76768" lon="2.3013">
        <ele>109.8</ele>
        <time>2013-11-10T13:01:21.134Z</time>
      </trkpt>
      <trkpt lat="48.76768" lon="2.30135">
        <ele>110.1</ele>
        <time>2013-11-10T13:01:22.132Z</time>
      </trkpt>
      <trkpt lat="48.76768" lon="2.30144">
        <ele>110.9</ele>
        <time>2013-11-10T13:01:24.135Z</time>
      </trkpt>
      <trkpt lat="48.7677" lon="2.30149">
        <ele>111.2</ele>
        <time>2013-11-10T13:01:25.297Z</time>
      </trkpt>
      <trkpt lat="48.76777" lon="2.30154">
        <ele>112</ele>
        <time>2013-11-10T13:01:27.313Z</time>
      </trkpt>
      <trkpt lat="48.7678" lon="2.30156">
        <ele>112.4</ele>
        <time>2013-11-10T13:01:28.140Z</time>
      </trkpt>
      <trkpt lat="48.76786" lon="2.30161">
        <ele>113.4</ele>
        <time>2013-11-10T13:01:30.137Z</time>
      </trkpt>
      <trkpt lat="48.7679" lon="2.30164">
        <ele>113.9</ele>
        <time>2013-11-10T13:01:31.134Z</time>
      </trkpt>
      <trkpt lat="48.76796" lon="2.30168">
        <ele>115.2</ele>
        <time>2013-11-10T13:01:33.152Z</time>
      </trkpt>
      <trkpt lat="48.76799" lon="2.3017">
        <ele>115.7</ele>
        <time>2013-11-10T13:01:34.150Z</time>
      </trkpt>
      <trkpt lat="48.76807" lon="2.30175">
        <ele>116.8</ele>
        <time>2013-11-10T13:01:36.149Z</time>
      </trkpt>
      <trkpt lat="48.76814" lon="2.30177">
        <ele>117.3</ele>
        <time>2013-11-10T13:01:37.150Z</time>
      </trkpt>
      <trkpt lat="48.76819" lon="2.30178">
        <ele>117.7</ele>
        <time>2013-11-10T13:01:38.154Z</time>
      </trkpt>
      <trkpt lat="48.76824" lon="2.30179">
        <ele>118.1</ele>
        <time>2013-11-10T13:01:39.153Z</time>
      </trkpt>
      <trkpt lat="48.76828" lon="2.3018">
        <ele>118.5</ele>
        <time>2013-11-10T13:01:40.152Z</time>
      </trkpt>
      <trkpt lat="48.76833" lon="2.30177">
        <ele>118.9</ele>
        <time>2013-11-10T13:01:41.144Z</time>
      </trkpt>
      <trkpt lat="48.76838" lon="2.30174">
        <ele>119</ele>
        <time>2013-11-10T13:01:42.511Z</time>
      </trkpt>
      <trkpt lat="48.76844" lon="2.30166">
        <ele>119</ele>
        <time>2013-11-10T13:01:43.154Z</time>
      </trkpt>
      <trkpt lat="48.7685" lon="2.30158">
        <ele>119</ele>
        <time>2013-11-10T13:01:44.159Z</time>
      </trkpt>
      <trkpt lat="48.76855" lon="2.30148">
        <ele>118.9</ele>
        <time>2013-11-10T13:01:45.150Z</time>
      </trkpt>
      <trkpt lat="48.76859" lon="2.30142">
        <ele>118.8</ele>
        <time>2013-11-10T13:01:46.151Z</time>
      </trkpt>
      <trkpt lat="48.76862" lon="2.30137">
        <ele>118.6</ele>
        <time>2013-11-10T13:01:47.151Z</time>
      </trkpt>
      <trkpt lat="48.76865" lon="2.30125">
        <ele>117.6</ele>
        <time>2013-11-10T13:01:51.165Z</time>
      </trkpt>
      <trkpt lat="48.76866" lon="2.30125">
        <ele>117.3</ele>
        <time>2013-11-10T13:01:52.158Z</time>
      </trkpt>
      <trkpt lat="48.76873" lon="2.30119">
        <ele>115.8</ele>
        <time>2013-11-10T13:01:57.123Z</time>
      </trkpt>
      <trkpt lat="48.76875" lon="2.30117">
        <ele>115.4</ele>
        <time>2013-11-10T13:01:58.174Z</time>
      </trkpt>
      <trkpt lat="48.76882" lon="2.30112">
        <ele>113.3</ele>
        <time>2013-11-10T13:02:03.155Z</time>
      </trkpt>
      <trkpt lat="48.76884" lon="2.30112">
        <ele>112.8</ele>
        <time>2013-11-10T13:02:04.170Z</time>
      </trkpt>
      <trkpt lat="48.76892" lon="2.30111">
        <ele>110</ele>
        <time>2013-11-10T13:02:11.952Z</time>
      </trkpt>
      <trkpt lat="48.76894" lon="2.30111">
        <ele>109.7</ele>
        <time>2013-11-10T13:02:12.196Z</time>
      </trkpt>
      <trkpt lat="48.76903" lon="2.30113">
        <ele>108.1</ele>
        <time>2013-11-10T13:02:17.238Z</time>
      </trkpt>
      <trkpt lat="48.76904" lon="2.30114">
        <ele>107.7</ele>
        <time>2013-11-10T13:02:18.181Z</time>
      </trkpt>
      <trkpt lat="48.76911" lon="2.3012">
        <ele>104.1</ele>
        <time>2013-11-10T13:02:27.336Z</time>
      </trkpt>
      <trkpt lat="48.76912" lon="2.3012">
        <ele>103.7</ele>
        <time>2013-11-10T13:02:28.181Z</time>
      </trkpt>
      <trkpt lat="48.76919" lon="2.30124">
        <ele>101.5</ele>
        <time>2013-11-10T13:02:34.181Z</time>
      </trkpt>
      <trkpt lat="48.76921" lon="2.30125">
        <ele>101.2</ele>
        <time>2013-11-10T13:02:35.184Z</time>
      </trkpt>
      <trkpt lat="48.76929" lon="2.30128">
        <ele>98.8</ele>
        <time>2013-11-10T13:02:42.367Z</time>
      </trkpt>
      <trkpt lat="48.7693" lon="2.30128">
        <ele>98.5</ele>
        <time>2013-11-10T13:02:43.174Z</time>
      </trkpt>
      <trkpt lat="48.76927" lon="2.3014">
        <ele>97.2</ele>
        <time>2013-11-10T13:02:52.466Z</time>
      </trkpt>
      <trkpt lat="48.76927" lon="2.30141">
        <ele>97.1</ele>
        <time>2013-11-10T13:02:53.168Z</time>
      </trkpt>
      <trkpt lat="48.76923" lon="2.30153">
        <ele>95.9</ele>
        <time>2013-11-10T13:03:01.901Z</time>
      </trkpt>
      <trkpt lat="48.76922" lon="2.30154">
        <ele>95.8</ele>
        <time>2013-11-10T13:03:02.130Z</time>
      </trkpt>
      <trkpt lat="48.76918" lon="2.30163">
        <ele>96.1</ele>
        <time>2013-11-10T13:03:12.121Z</time>
      </trkpt>
      <trkpt lat="48.76919" lon="2.30163">
        <ele>96.1</ele>
        <time>2013-11-10T13:03:13.156Z</time>
      </trkpt>
      <trkpt lat="48.76919" lon="2.30164">
        <ele>96.1</ele>
        <time>2013-11-10T13:03:14.165Z</time>
      </trkpt>
      <trkpt lat="48.76928" lon="2.30168">
        <ele>96.1</ele>
        <time>2013-11-10T13:03:20.121Z</time>
      </trkpt>
      <trkpt lat="48.76928" lon="2.30168">
        <ele>96.1</ele>
        <time>2013-11-10T13:03:21.303Z</time>
      </trkpt>
      <trkpt lat="48.76929" lon="2.30181">
        <ele>94.7</ele>
        <time>2013-11-10T13:03:31.105Z</time>
      </trkpt>
      <trkpt lat="48.76929" lon="2.30183">
        <ele>94.6</ele>
        <time>2013-11-10T13:03:32.124Z</time>
      </trkpt>
      <trkpt lat="48.76932" lon="2.30194">
        <ele>94.6</ele>
        <time>2013-11-10T13:03:37.303Z</time>
      </trkpt>
      <trkpt lat="48.76932" lon="2.30196">
        <ele>94.6</ele>
        <time>2013-11-10T13:03:38.282Z</time>
      </trkpt>
      <trkpt lat="48.76936" lon="2.30208">
        <ele>94.7</ele>
        <time>2013-11-10T13:03:46.163Z</time>
      </trkpt>
      <trkpt lat="48.76937" lon="2.3021">
        <ele>94.6</ele>
        <time>2013-11-10T13:03:47.160Z</time>
      </trkpt>
      <trkpt lat="48.7694" lon="2.30221">
        <ele>94.4</ele>
        <time>2013-11-10T13:03:57.119Z</time>
      </trkpt>
      <trkpt lat="48.7694" lon="2.30223">
        <ele>94.3</ele>
        <time>2013-11-10T13:03:58.132Z</time>
      </trkpt>
      <trkpt lat="48.76937" lon="2.30235">
        <ele>93.5</ele>
        <time>2013-11-10T13:04:08.159Z</time>
      </trkpt>
      <trkpt lat="48.76937" lon="2.30237">
        <ele>93.4</ele>
        <time>2013-11-10T13:04:09.242Z</time>
      </trkpt>
      <trkpt lat="48.7693" lon="2.30245">
        <ele>92.8</ele>
        <time>2013-11-10T13:04:18.160Z</time>
      </trkpt>
      <trkpt lat="48.76929" lon="2.30246">
        <ele>92.8</ele>
        <time>2013-11-10T13:04:19.152Z</time>
      </trkpt>
      <trkpt lat="48.76922" lon="2.30251">
        <ele>92.6</ele>
        <time>2013-11-10T13:04:24.159Z</time>
      </trkpt>
      <trkpt lat="48.76921" lon="2.30252">
        <ele>92.7</ele>
        <time>2013-11-10T13:04:25.156Z</time>
      </trkpt>
      <trkpt lat="48.76915" lon="2.30263">
        <ele>93.2</ele>
        <time>2013-11-10T13:04:33.163Z</time>
      </trkpt>
      <trkpt lat="48.76914" lon="2.30265">
        <ele>93.2</ele>
        <time>2013-11-10T13:04:34.160Z</time>
      </trkpt>
      <trkpt lat="48.76907" lon="2.30272">
        <ele>93.9</ele>
        <time>2013-11-10T13:04:43.168Z</time>
      </trkpt>
      <trkpt lat="48.76906" lon="2.30272">
        <ele>93.9</ele>
        <time>2013-11-10T13:04:44.163Z</time>
      </trkpt>
      <trkpt lat="48.76898" lon="2.30273">
        <ele>94.8</ele>
        <time>2013-11-10T13:04:51.118Z</time>
      </trkpt>
      <trkpt lat="48.76897" lon="2.30273">
        <ele>94.8</ele>
        <time>2013-11-10T13:04:52.160Z</time>
      </trkpt>
      <trkpt lat="48.76889" lon="2.30276">
        <ele>95</ele>
        <time>2013-11-10T13:05:00.175Z</time>
      </trkpt>
      <trkpt lat="48.76888" lon="2.30276">
        <ele>95.1</ele>
        <time>2013-11-10T13:05:01.157Z</time>
      </trkpt>
      <trkpt lat="48.76879" lon="2.3028">
        <ele>95.1</ele>
        <time>2013-11-10T13:05:09.142Z</time>
      </trkpt>
      <trkpt lat="48.76878" lon="2.30281">
        <ele>95.1</ele>
        <time>2013-11-10T13:05:10.145Z</time>
      </trkpt>
      <trkpt lat="48.76871" lon="2.30287">
        <ele>95.6</ele>
        <time>2013-11-10T13:05:17.129Z</time>
      </trkpt>
      <trkpt lat="48.7687" lon="2.30287">
        <ele>95.8</ele>
        <time>2013-11-10T13:05:18.143Z</time>
      </trkpt>
      <trkpt lat="48.76861" lon="2.30288">
        <ele>96.6</ele>
        <time>2013-11-10T13:05:27.221Z</time>
      </trkpt>
      <trkpt lat="48.7686" lon="2.30288">
        <ele>96.6</ele>
        <time>2013-11-10T13:05:27.527Z</time>
      </trkpt>
      <trkpt lat="48.76852" lon="2.30292">
        <ele>97.1</ele>
        <time>2013-11-10T13:05:36.156Z</time>
      </trkpt>
      <trkpt lat="48.76851" lon="2.30292">
        <ele>97.1</ele>
        <time>2013-11-10T13:05:37.156Z</time>
      </trkpt>
      <trkpt lat="48.76847" lon="2.30295">
        <ele>97.4</ele>
        <time>2013-11-10T13:05:44.127Z</time>
      </trkpt>
      <trkpt lat="48.76847" lon="2.30295">
        <ele>97.4</ele>
        <time>2013-11-10T13:05:45.261Z</time>
      </trkpt>
      <trkpt lat="48.76848" lon="2.30295">
        <ele>97.4</ele>
        <time>2013-11-10T13:05:46.341Z</time>
      </trkpt>
      <trkpt lat="48.76849" lon="2.30295">
        <ele>97.4</ele>
        <time>2013-11-10T13:05:47.153Z</time>
      </trkpt>
      <trkpt lat="48.76841" lon="2.30298">
        <ele>96.6</ele>
        <time>2013-11-10T13:06:08.182Z</time>
      </trkpt>
      <trkpt lat="48.7684" lon="2.30299">
        <ele>96.6</ele>
        <time>2013-11-10T13:06:09.175Z</time>
      </trkpt>
      <trkpt lat="48.76831" lon="2.30301">
        <ele>96.7</ele>
        <time>2013-11-10T13:06:18.173Z</time>
      </trkpt>
      <trkpt lat="48.76831" lon="2.30301">
        <ele>96.7</ele>
        <time>2013-11-10T13:06:19.173Z</time>
      </trkpt>
      <trkpt lat="48.76823" lon="2.30305">
        <ele>97.2</ele>
        <time>2013-11-10T13:06:27.144Z</time>
      </trkpt>
      <trkpt lat="48.76822" lon="2.30306">
        <ele>97.2</ele>
        <time>2013-11-10T13:06:28.160Z</time>
      </trkpt>
      <trkpt lat="48.76814" lon="2.30309">
        <ele>97.6</ele>
        <time>2013-11-10T13:06:37.245Z</time>
      </trkpt>
      <trkpt lat="48.76812" lon="2.30309">
        <ele>97.7</ele>
        <time>2013-11-10T13:06:37.335Z</time>
      </trkpt>
      <trkpt lat="48.76804" lon="2.30304">
        <ele>97.8</ele>
        <time>2013-11-10T13:06:43.123Z</time>
      </trkpt>
      <trkpt lat="48.76803" lon="2.30303">
        <ele>97.8</ele>
        <time>2013-11-10T13:06:44.150Z</time>
      </trkpt>
      <trkpt lat="48.76796" lon="2.30295">
        <ele>97.8</ele>
        <time>2013-11-10T13:06:52.286Z</time>
      </trkpt>
      <trkpt lat="48.76795" lon="2.30294">
        <ele>97.9</ele>
        <time>2013-11-10T13:06:53.149Z</time>
      </trkpt>
      <trkpt lat="48.76787" lon="2.30288">
        <ele>97.6</ele>
        <time>2013-11-10T13:07:01.908Z</time>
      </trkpt>
      <trkpt lat="48.76786" lon="2.30287">
        <ele>97.6</ele>
        <time>2013-11-10T13:07:02.117Z</time>
      </trkpt>
      <trkpt lat="48.76778" lon="2.30282">
        <ele>96.7</ele>
        <time>2013-11-10T13:07:09.163Z</time>
      </trkpt>
      <trkpt lat="48.76777" lon="2.30281">
        <ele>96.6</ele>
        <time>2013-11-10T13:07:10.164Z</time>
      </trkpt>
      <trkpt lat="48.76772" lon="2.30271">
        <ele>95.8</ele>
        <time>2013-11-10T13:07:21.167Z</time>
      </trkpt>
      <trkpt lat="48.76771" lon="2.30269">
        <ele>95.8</ele>
        <time>2013-11-10T13:07:22.180Z</time>
      </trkpt>
      <trkpt lat="48.76771" lon="2.30256">
        <ele>95.2</ele>
        <time>2013-11-10T13:07:30.163Z</time>
      </trkpt>
      <trkpt lat="48.76771" lon="2.30255">
        <ele>95.2</ele>
        <time>2013-11-10T13:07:31.279Z</time>
      </trkpt>
      <trkpt lat="48.76771" lon="2.30255">
        <ele>95.2</ele>
        <time>2013-11-10T13:07:34.104Z</time>
      </trkpt>
      <trkpt lat="48.76771" lon="2.30255">
        <ele>95.2</ele>
        <time>2013-11-10T13:07:35.131Z</time>
      </trkpt>
      <trkpt lat="48.76771" lon="2.30256">
        <ele>94.9</ele>
        <time>2013-11-10T13:07:47.429Z</time>
      </trkpt>
      <trkpt lat="48.76771" lon="2.30257">
        <ele>94.9</ele>
        <time>2013-11-10T13:07:48.123Z</time>
      </trkpt>
      <trkpt lat="48.76771" lon="2.30259">
        <ele>95.1</ele>
        <time>2013-11-10T13:07:52.474Z</time>
      </trkpt>
      <trkpt lat="48.76771" lon="2.30258">
        <ele>95.2</ele>
        <time>2013-11-10T13:07:53.191Z</time>
      </trkpt>
      <trkpt lat="48.7677" lon="2.30257">
        <ele>95.4</ele>
        <time>2013-11-10T13:07:57.125Z</time>
      </trkpt>
      <trkpt lat="48.7677" lon="2.30256">
        <ele>95.5</ele>
        <time>2013-11-10T13:07:58.168Z</time>
      </trkpt>
      <trkpt lat="48.7677" lon="2.30243">
        <ele>97</ele>
        <time>2013-11-10T13:08:10.166Z</time>
      </trkpt>
      <trkpt lat="48.7677" lon="2.3024">
        <ele>97.2</ele>
        <time>2013-11-10T13:08:11.165Z</time>
      </trkpt>
      <trkpt lat="48.76769" lon="2.30235">
        <ele>97.7</ele>
        <time>2013-11-10T13:08:17.031Z</time>
      </trkpt>
      <trkpt lat="48.76769" lon="2.30235">
        <ele>97.9</ele>
        <time>2013-11-10T13:08:17.220Z</time>
      </trkpt>
      <trkpt lat="48.76769" lon="2.30235">
        <ele>98</ele>
        <time>2013-11-10T13:08:19.106Z</time>
      </trkpt>
      <trkpt lat="48.7677" lon="2.30234">
        <ele>98.1</ele>
        <time>2013-11-10T13:08:20.115Z</time>
      </trkpt>
      <trkpt lat="48.76767" lon="2.30239">
        <ele>98.6</ele>
        <time>2013-11-10T13:08:41.132Z</time>
      </trkpt>
      <trkpt lat="48.76767" lon="2.30239">
        <ele>98.6</ele>
        <time>2013-11-10T13:08:42.141Z</time>
      </trkpt>
      <trkpt lat="48.76767" lon="2.30239">
        <ele>98.6</ele>
        <time>2013-11-10T13:08:44.135Z</time>
      </trkpt>
      <trkpt lat="48.76767" lon="2.30238">
        <ele>98.7</ele>
        <time>2013-11-10T13:08:45.126Z</time>
      </trkpt>
      <trkpt lat="48.76769" lon="2.30238">
        <ele>99.4</ele>
        <time>2013-11-10T13:08:49.117Z</time>
      </trkpt>
      <trkpt lat="48.76768" lon="2.30237">
        <ele>99.4</ele>
        <time>2013-11-10T13:08:50.145Z</time>
      </trkpt>
      <trkpt lat="48.76768" lon="2.30237">
        <ele>99.4</ele>
        <time>2013-11-10T13:08:51.158Z</time>
      </trkpt>
      <trkpt lat="48.76768" lon="2.30237">
        <ele>99.4</ele>
        <time>2013-11-10T13:08:52.129Z</time>
      </trkpt>
      <trkpt lat="48.76766" lon="2.30225">
        <ele>99.1</ele>
        <time>2013-11-10T13:09:14.147Z</time>
      </trkpt>
      <trkpt lat="48.76766" lon="2.30223">
        <ele>99</ele>
        <time>2013-11-10T13:09:15.133Z</time>
      </trkpt>
      <trkpt lat="48.76764" lon="2.30213">
        <ele>98.3</ele>
        <time>2013-11-10T13:09:25.142Z</time>
      </trkpt>
      <trkpt lat="48.76763" lon="2.3021">
        <ele>98.1</ele>
        <time>2013-11-10T13:09:26.206Z</time>
      </trkpt>
      <trkpt lat="48.76764" lon="2.30196">
        <ele>96.9</ele>
        <time>2013-11-10T13:09:34.171Z</time>
      </trkpt>
      <trkpt lat="48.76765" lon="2.30196">
        <ele>96.8</ele>
        <time>2013-11-10T13:09:35.169Z</time>
      </trkpt>
      <trkpt lat="48.76767" lon="2.30185">
        <ele>96.3</ele>
        <time>2013-11-10T13:09:41.168Z</time>
      </trkpt>
      <trkpt lat="48.76768" lon="2.30183">
        <ele>96.2</ele>
        <time>2013-11-10T13:09:42.149Z</time>
      </trkpt>
      <trkpt lat="48.76772" lon="2.30172">
        <ele>95.8</ele>
        <time>2013-11-10T13:09:48.163Z</time>
      </trkpt>
      <trkpt lat="48.76774" lon="2.3017">
        <ele>95.8</ele>
        <time>2013-11-10T13:09:49.166Z</time>
      </trkpt>
      <trkpt lat="48.76779" lon="2.3016">
        <ele>95.6</ele>
        <time>2013-11-10T13:09:53.162Z</time>
      </trkpt>
      <trkpt lat="48.7678" lon="2.30158">
        <ele>95.6</ele>
        <time>2013-11-10T13:09:54.145Z</time>
      </trkpt>
      <trkpt lat="48.76785" lon="2.30148">
        <ele>95.2</ele>
        <time>2013-11-10T13:09:59.161Z</time>
      </trkpt>
      <trkpt lat="48.76786" lon="2.30146">
        <ele>95.2</ele>
        <time>2013-11-10T13:10:00.178Z</time>
      </trkpt>
      <trkpt lat="48.76794" lon="2.30141">
        <ele>93.8</ele>
        <time>2013-11-10T13:10:11.958Z</time>
      </trkpt>
      <trkpt lat="48.76794" lon="2.3014">
        <ele>93.6</ele>
        <time>2013-11-10T13:10:12.167Z</time>
      </trkpt>
      <trkpt lat="48.76801" lon="2.30133">
        <ele>93.4</ele>
        <time>2013-11-10T13:10:22.042Z</time>
      </trkpt>
      <trkpt lat="48.76803" lon="2.30132">
        <ele>93.4</ele>
        <time>2013-11-10T13:10:22.205Z</time>
      </trkpt>
      <trkpt lat="48.76811" lon="2.30128">
        <ele>92.7</ele>
        <time>2013-11-10T13:10:27.085Z</time>
      </trkpt>
      <trkpt lat="48.76814" lon="2.30128">
        <ele>92.6</ele>
        <time>2013-11-10T13:10:27.222Z</time>
      </trkpt>
      <trkpt lat="48.76821" lon="2.30127">
        <ele>92.1</ele>
        <time>2013-11-10T13:10:30.163Z</time>
      </trkpt>
      <trkpt lat="48.76823" lon="2.30126">
        <ele>92</ele>
        <time>2013-11-10T13:10:31.163Z</time>
      </trkpt>
      <trkpt lat="48.76825" lon="2.30115">
        <ele>91.8</ele>
        <time>2013-11-10T13:10:37.433Z</time>
      </trkpt>
      <trkpt lat="48.76825" lon="2.30113">
        <ele>91.9</ele>
        <time>2013-11-10T13:10:38.167Z</time>
      </trkpt>
      <trkpt lat="48.76825" lon="2.30102">
        <ele>91.8</ele>
        <time>2013-11-10T13:10:42.250Z</time>
      </trkpt>
      <trkpt lat="48.76824" lon="2.30099">
        <ele>91.9</ele>
        <time>2013-11-10T13:10:43.172Z</time>
      </trkpt>
      <trkpt lat="48.76822" lon="2.30087">
        <ele>92.3</ele>
        <time>2013-11-10T13:10:47.281Z</time>
      </trkpt>
      <trkpt lat="48.76822" lon="2.30085">
        <ele>92.3</ele>
        <time>2013-11-10T13:10:48.171Z</time>
      </trkpt>
      <trkpt lat="48.76822" lon="2.30073">
        <ele>93</ele>
        <time>2013-11-10T13:10:53.171Z</time>
      </trkpt>
      <trkpt lat="48.76823" lon="2.30069">
        <ele>93.1</ele>
        <time>2013-11-10T13:10:54.173Z</time>
      </trkpt>
      <trkpt lat="48.76826" lon="2.30058">
        <ele>93.5</ele>
        <time>2013-11-10T13:10:59.181Z</time>
      </trkpt>
      <trkpt lat="48.76826" lon="2.30056">
        <ele>93.6</ele>
        <time>2013-11-10T13:11:00.242Z</time>
      </trkpt>
      <trkpt lat="48.76824" lon="2.30045">
        <ele>93.9</ele>
        <time>2013-11-10T13:11:05.171Z</time>
      </trkpt>
      <trkpt lat="48.76824" lon="2.30043">
        <ele>94</ele>
        <time>2013-11-10T13:11:06.172Z</time>
      </trkpt>
      <trkpt lat="48.76824" lon="2.3003">
        <ele>96.5</ele>
        <time>2013-11-10T13:11:18.221Z</time>
      </trkpt>
      <trkpt lat="48.76825" lon="2.30028">
        <ele>96.7</ele>
        <time>2013-11-10T13:11:19.180Z</time>
      </trkpt>
      <trkpt lat="48.76824" lon="2.30015">
        <ele>97.7</ele>
        <time>2013-11-10T13:11:25.180Z</time>
      </trkpt>
      <trkpt lat="48.76824" lon="2.30012">
        <ele>97.9</ele>
        <time>2013-11-10T13:11:26.177Z</time>
      </trkpt>
      <trkpt lat="48.76821" lon="2.3">
        <ele>99.1</ele>
        <time>2013-11-10T13:11:30.176Z</time>
      </trkpt>
      <trkpt lat="48.7682" lon="2.29997">
        <ele>99.4</ele>
        <time>2013-11-10T13:11:31.176Z</time>
      </trkpt>
      <trkpt lat="48.76815" lon="2.29988">
        <ele>100.6</ele>
        <time>2013-11-10T13:11:37.243Z</time>
      </trkpt>
      <trkpt lat="48.76814" lon="2.29987">
        <ele>100.8</ele>
        <time>2013-11-10T13:11:38.221Z</time>
      </trkpt>
      <trkpt lat="48.76809" lon="2.29976">
        <ele>101.3</ele>
        <time>2013-11-10T13:11:43.181Z</time>
      </trkpt>
      <trkpt lat="48.76809" lon="2.29974">
        <ele>101.3</ele>
        <time>2013-11-10T13:11:44.181Z</time>
      </trkpt>
      <trkpt lat="48.76803" lon="2.29965">
        <ele>101.5</ele>
        <time>2013-11-10T13:11:51.171Z</time>
      </trkpt>
      <trkpt lat="48.76801" lon="2.29964">
        <ele>101.5</ele>
        <time>2013-11-10T13:11:52.174Z</time>
      </trkpt>
      <trkpt lat="48.76795" lon="2.29956">
        <ele>101.6</ele>
        <time>2013-11-10T13:11:57.134Z</time>
      </trkpt>
      <trkpt lat="48.76793" lon="2.29954">
        <ele>101.6</ele>
        <time>2013-11-10T13:11:58.175Z</time>
      </trkpt>
      <trkpt lat="48.76785" lon="2.29951">
        <ele>102.1</ele>
        <time>2013-11-10T13:12:04.169Z</time>
      </trkpt>
      <trkpt lat="48.76784" lon="2.29951">
        <ele>102.1</ele>
        <time>2013-11-10T13:12:05.172Z</time>
      </trkpt>
      <trkpt lat="48.76775" lon="2.29951">
        <ele>102.7</ele>
        <time>2013-11-10T13:12:14.166Z</time>
      </trkpt>
      <trkpt lat="48.76775" lon="2.29951">
        <ele>102.8</ele>
        <time>2013-11-10T13:12:15.165Z</time>
      </trkpt>
      <trkpt lat="48.76767" lon="2.29946">
        <ele>103</ele>
        <time>2013-11-10T13:12:23.127Z</time>
      </trkpt>
      <trkpt lat="48.76766" lon="2.29945">
        <ele>103</ele>
        <time>2013-11-10T13:12:24.106Z</time>
      </trkpt>
      <trkpt lat="48.76759" lon="2.29937">
        <ele>102</ele>
        <time>2013-11-10T13:12:31.167Z</time>
      </trkpt>
      <trkpt lat="48.76758" lon="2.29937">
        <ele>101.9</ele>
        <time>2013-11-10T13:12:32.168Z</time>
      </trkpt>
      <trkpt lat="48.7675" lon="2.29942">
        <ele>101.5</ele>
        <time>2013-11-10T13:12:42.601Z</time>
      </trkpt>
      <trkpt lat="48.7675" lon="2.29943">
        <ele>101.5</ele>
        <time>2013-11-10T13:12:43.164Z</time>
      </trkpt>
      <trkpt lat="48.76741" lon="2.29943">
        <ele>101.7</ele>
        <time>2013-11-10T13:12:50.170Z</time>
      </trkpt>
      <trkpt lat="48.7674" lon="2.29943">
        <ele>101.7</ele>
        <time>2013-11-10T13:12:51.182Z</time>
      </trkpt>
      <trkpt lat="48.76732" lon="2.29942">
        <ele>101.7</ele>
        <time>2013-11-10T13:12:59.177Z</time>
      </trkpt>
      <trkpt lat="48.76731" lon="2.29942">
        <ele>101.8</ele>
        <time>2013-11-10T13:13:00.179Z</time>
      </trkpt>
      <trkpt lat="48.76723" lon="2.29942">
        <ele>101.9</ele>
        <time>2013-11-10T13:13:06.941Z</time>
      </trkpt>
      <trkpt lat="48.76721" lon="2.29943">
        <ele>102</ele>
        <time>2013-11-10T13:13:07.134Z</time>
      </trkpt>
      <trkpt lat="48.76713" lon="2.29947">
        <ele>102.1</ele>
        <time>2013-11-10T13:13:14.172Z</time>
      </trkpt>
      <trkpt lat="48.76712" lon="2.29948">
        <ele>102.1</ele>
        <time>2013-11-10T13:13:15.141Z</time>
      </trkpt>
      <trkpt lat="48.76704" lon="2.29952">
        <ele>102.1</ele>
        <time>2013-11-10T13:13:22.361Z</time>
      </trkpt>
      <trkpt lat="48.76704" lon="2.29953">
        <ele>102.1</ele>
        <time>2013-11-10T13:13:23.161Z</time>
      </trkpt>
      <trkpt lat="48.76696" lon="2.29955">
        <ele>102.2</ele>
        <time>2013-11-10T13:13:29.167Z</time>
      </trkpt>
      <trkpt lat="48.76695" lon="2.29955">
        <ele>102.2</ele>
        <time>2013-11-10T13:13:30.164Z</time>
      </trkpt>
      <trkpt lat="48.76688" lon="2.2996">
        <ele>102.3</ele>
        <time>2013-11-10T13:13:39.169Z</time>
      </trkpt>
      <trkpt lat="48.76686" lon="2.29961">
        <ele>102.3</ele>
        <time>2013-11-10T13:13:40.174Z</time>
      </trkpt>
      <trkpt lat="48.76678" lon="2.29964">
        <ele>102.1</ele>
        <time>2013-11-10T13:13:48.176Z</time>
      </trkpt>
      <trkpt lat="48.76677" lon="2.29964">
        <ele>102</ele>
        <time>2013-11-10T13:13:49.176Z</time>
      </trkpt>
      <trkpt lat="48.76669" lon="2.29967">
        <ele>101.7</ele>
        <time>2013-11-10T13:13:58.173Z</time>
      </trkpt>
      <trkpt lat="48.76667" lon="2.29967">
        <ele>101.7</ele>
        <time>2013-11-10T13:13:59.173Z</time>
      </trkpt>
      <trkpt lat="48.76659" lon="2.29973">
        <ele>101.5</ele>
        <time>2013-11-10T13:14:08.175Z</time>
      </trkpt>
      <trkpt lat="48.76658" lon="2.29973">
        <ele>101.5</ele>
        <time>2013-11-10T13:14:09.170Z</time>
      </trkpt>
      <trkpt lat="48.7665" lon="2.29974">
        <ele>101.6</ele>
        <time>2013-11-10T13:14:15.166Z</time>
      </trkpt>
      <trkpt lat="48.76649" lon="2.29974">
        <ele>101.6</ele>
        <time>2013-11-10T13:14:16.166Z</time>
      </trkpt>
      <trkpt lat="48.7664" lon="2.29976">
        <ele>101.7</ele>
        <time>2013-11-10T13:14:23.134Z</time>
      </trkpt>
      <trkpt lat="48.76639" lon="2.29977">
        <ele>101.7</ele>
        <time>2013-11-10T13:14:24.171Z</time>
      </trkpt>
      <trkpt lat="48.76631" lon="2.29981">
        <ele>101.8</ele>
        <time>2013-11-10T13:14:31.169Z</time>
      </trkpt>
      <trkpt lat="48.7663" lon="2.29982">
        <ele>101.8</ele>
        <time>2013-11-10T13:14:32.169Z</time>
      </trkpt>
      <trkpt lat="48.76622" lon="2.29983">
        <ele>101.8</ele>
        <time>2013-11-10T13:14:40.168Z</time>
      </trkpt>
      <trkpt lat="48.76621" lon="2.29983">
        <ele>101.8</ele>
        <time>2013-11-10T13:14:41.324Z</time>
      </trkpt>
      <trkpt lat="48.76613" lon="2.29985">
        <ele>102</ele>
        <time>2013-11-10T13:14:46.169Z</time>
      </trkpt>
      <trkpt lat="48.76612" lon="2.29986">
        <ele>102</ele>
        <time>2013-11-10T13:14:47.183Z</time>
      </trkpt>
      <trkpt lat="48.76603" lon="2.29988">
        <ele>102.5</ele>
        <time>2013-11-10T13:14:56.865Z</time>
      </trkpt>
      <trkpt lat="48.76603" lon="2.29989">
        <ele>102.6</ele>
        <time>2013-11-10T13:14:57.140Z</time>
      </trkpt>
      <trkpt lat="48.76595" lon="2.29992">
        <ele>102.8</ele>
        <time>2013-11-10T13:15:02.139Z</time>
      </trkpt>
      <trkpt lat="48.76594" lon="2.29993">
        <ele>102.9</ele>
        <time>2013-11-10T13:15:03.181Z</time>
      </trkpt>
      <trkpt lat="48.76585" lon="2.29997">
        <ele>103.3</ele>
        <time>2013-11-10T13:15:10.181Z</time>
      </trkpt>
      <trkpt lat="48.76584" lon="2.29998">
        <ele>103.3</ele>
        <time>2013-11-10T13:15:11.177Z</time>
      </trkpt>
      <trkpt lat="48.76576" lon="2.30002">
        <ele>103.7</ele>
        <time>2013-11-10T13:15:22.155Z</time>
      </trkpt>
      <trkpt lat="48.76575" lon="2.30002">
        <ele>103.7</ele>
        <time>2013-11-10T13:15:23.177Z</time>
      </trkpt>
      <trkpt lat="48.76567" lon="2.30002">
        <ele>103.9</ele>
        <time>2013-11-10T13:15:30.176Z</time>
      </trkpt>
      <trkpt lat="48.76565" lon="2.30002">
        <ele>103.9</ele>
        <time>2013-11-10T13:15:31.178Z</time>
      </trkpt>
      <trkpt lat="48.76558" lon="2.30007">
        <ele>104.3</ele>
        <time>2013-11-10T13:15:37.301Z</time>
      </trkpt>
      <trkpt lat="48.76557" lon="2.30008">
        <ele>104.2</ele>
        <time>2013-11-10T13:15:38.175Z</time>
      </trkpt>
      <trkpt lat="48.76548" lon="2.30008">
        <ele>104</ele>
        <time>2013-11-10T13:15:48.144Z</time>
      </trkpt>
      <trkpt lat="48.76547" lon="2.30009">
        <ele>104</ele>
        <time>2013-11-10T13:15:49.187Z</time>
      </trkpt>
      <trkpt lat="48.76539" lon="2.30013">
        <ele>103.9</ele>
        <time>2013-11-10T13:15:55.173Z</time>
      </trkpt>
      <trkpt lat="48.76538" lon="2.30013">
        <ele>103.9</ele>
        <time>2013-11-10T13:15:56.173Z</time>
      </trkpt>
      <trkpt lat="48.7653" lon="2.30016">
        <ele>103.9</ele>
        <time>2013-11-10T13:16:02.141Z</time>
      </trkpt>
      <trkpt lat="48.76529" lon="2.30016">
        <ele>104</ele>
        <time>2013-11-10T13:16:03.179Z</time>
      </trkpt>
      <trkpt lat="48.7652" lon="2.30019">
        <ele>104</ele>
        <time>2013-11-10T13:16:11.915Z</time>
      </trkpt>
      <trkpt lat="48.76519" lon="2.30019">
        <ele>103.9</ele>
        <time>2013-11-10T13:16:12.135Z</time>
      </trkpt>
      <trkpt lat="48.76511" lon="2.30024">
        <ele>103.9</ele>
        <time>2013-11-10T13:16:20.175Z</time>
      </trkpt>
      <trkpt lat="48.76511" lon="2.30024">
        <ele>103.8</ele>
        <time>2013-11-10T13:16:21.176Z</time>
      </trkpt>
      <trkpt lat="48.76503" lon="2.30026">
        <ele>104.3</ele>
        <time>2013-11-10T13:16:30.248Z</time>
      </trkpt>
      <trkpt lat="48.76502" lon="2.30026">
        <ele>104.4</ele>
        <time>2013-11-10T13:16:31.193Z</time>
      </trkpt>
      <trkpt lat="48.76493" lon="2.30032">
        <ele>104.5</ele>
        <time>2013-11-10T13:16:39.204Z</time>
      </trkpt>
      <trkpt lat="48.76492" lon="2.30033">
        <ele>104.5</ele>
        <time>2013-11-10T13:16:40.186Z</time>
      </trkpt>
      <trkpt lat="48.76486" lon="2.30041">
        <ele>104.5</ele>
        <time>2013-11-10T13:16:47.346Z</time>
      </trkpt>
      <trkpt lat="48.76485" lon="2.30042">
        <ele>104.4</ele>
        <time>2013-11-10T13:16:48.204Z</time>
      </trkpt>
      <trkpt lat="48.76483" lon="2.30038">
        <ele>104</ele>
        <time>2013-11-10T13:17:04.190Z</time>
      </trkpt>
      <trkpt lat="48.76484" lon="2.30038">
        <ele>104</ele>
        <time>2013-11-10T13:17:05.189Z</time>
      </trkpt>
      <trkpt lat="48.76484" lon="2.3004">
        <ele>103.8</ele>
        <time>2013-11-10T13:17:15.183Z</time>
      </trkpt>
      <trkpt lat="48.76484" lon="2.3004">
        <ele>103.8</ele>
        <time>2013-11-10T13:17:16.192Z</time>
      </trkpt>
      <trkpt lat="48.76485" lon="2.30042">
        <ele>103.4</ele>
        <time>2013-11-10T13:17:22.073Z</time>
      </trkpt>
      <trkpt lat="48.76485" lon="2.30042">
        <ele>103.4</ele>
        <time>2013-11-10T13:17:22.182Z</time>
      </trkpt>
      <trkpt lat="48.76486" lon="2.30042">
        <ele>103.4</ele>
        <time>2013-11-10T13:17:24.240Z</time>
      </trkpt>
      <trkpt lat="48.76486" lon="2.30042">
        <ele>103.4</ele>
        <time>2013-11-10T13:17:25.168Z</time>
      </trkpt>
      <trkpt lat="48.76487" lon="2.30042">
        <ele>103.2</ele>
        <time>2013-11-10T13:17:27.188Z</time>
      </trkpt>
      <trkpt lat="48.76487" lon="2.30042">
        <ele>103.1</ele>
        <time>2013-11-10T13:17:28.134Z</time>
      </trkpt>
      <trkpt lat="48.76487" lon="2.30042">
        <ele>102.9</ele>
        <time>2013-11-10T13:17:29.137Z</time>
      </trkpt>
      <trkpt lat="48.76486" lon="2.30042">
        <ele>102.8</ele>
        <time>2013-11-10T13:17:30.174Z</time>
      </trkpt>
      <trkpt lat="48.76479" lon="2.30049">
        <ele>101.5</ele>
        <time>2013-11-10T13:17:37.262Z</time>
      </trkpt>
      <trkpt lat="48.76479" lon="2.3005">
        <ele>101.4</ele>
        <time>2013-11-10T13:17:38.172Z</time>
      </trkpt>
      <trkpt lat="48.76476" lon="2.30063">
        <ele>100.4</ele>
        <time>2013-11-10T13:17:46.261Z</time>
      </trkpt>
      <trkpt lat="48.76476" lon="2.30065">
        <ele>100.3</ele>
        <time>2013-11-10T13:17:47.189Z</time>
      </trkpt>
      <trkpt lat="48.76468" lon="2.30071">
        <ele>99.9</ele>
        <time>2013-11-10T13:17:57.147Z</time>
      </trkpt>
      <trkpt lat="48.76467" lon="2.30072">
        <ele>99.9</ele>
        <time>2013-11-10T13:17:58.192Z</time>
      </trkpt>
      <trkpt lat="48.76459" lon="2.30076">
        <ele>99.5</ele>
        <time>2013-11-10T13:18:05.195Z</time>
      </trkpt>
      <trkpt lat="48.76458" lon="2.30077">
        <ele>99.4</ele>
        <time>2013-11-10T13:18:06.183Z</time>
      </trkpt>
      <trkpt lat="48.7645" lon="2.30078">
        <ele>99.1</ele>
        <time>2013-11-10T13:18:13.186Z</time>
      </trkpt>
      <trkpt lat="48.76448" lon="2.30078">
        <ele>99.1</ele>
        <time>2013-11-10T13:18:14.186Z</time>
      </trkpt>
      <trkpt lat="48.7644" lon="2.3008">
        <ele>98.8</ele>
        <time>2013-11-10T13:18:22.250Z</time>
      </trkpt>
      <trkpt lat="48.76439" lon="2.30081">
        <ele>98.7</ele>
        <time>2013-11-10T13:18:23.177Z</time>
      </trkpt>
      <trkpt lat="48.76435" lon="2.30082">
        <ele>98.5</ele>
        <time>2013-11-10T13:18:30.177Z</time>
      </trkpt>
      <trkpt lat="48.76435" lon="2.30082">
        <ele>98.5</ele>
        <time>2013-11-10T13:18:31.177Z</time>
      </trkpt>
      <trkpt lat="48.76437" lon="2.30081">
        <ele>98.5</ele>
        <time>2013-11-10T13:18:33.191Z</time>
      </trkpt>
      <trkpt lat="48.76436" lon="2.3008">
        <ele>98.4</ele>
        <time>2013-11-10T13:18:34.180Z</time>
      </trkpt>
      <trkpt lat="48.76427" lon="2.3008">
        <ele>98</ele>
        <time>2013-11-10T13:18:41.187Z</time>
      </trkpt>
      <trkpt lat="48.76426" lon="2.30081">
        <ele>98</ele>
        <time>2013-11-10T13:18:42.180Z</time>
      </trkpt>
      <trkpt lat="48.76418" lon="2.30087">
        <ele>97.9</ele>
        <time>2013-11-10T13:18:49.194Z</time>
      </trkpt>
      <trkpt lat="48.76417" lon="2.30088">
        <ele>98</ele>
        <time>2013-11-10T13:18:50.194Z</time>
      </trkpt>
      <trkpt lat="48.76409" lon="2.3009">
        <ele>97.9</ele>
        <time>2013-11-10T13:18:58.193Z</time>
      </trkpt>
      <trkpt lat="48.76409" lon="2.30091">
        <ele>97.9</ele>
        <time>2013-11-10T13:18:59.183Z</time>
      </trkpt>
      <trkpt lat="48.764" lon="2.30093">
        <ele>97.6</ele>
        <time>2013-11-10T13:19:08.186Z</time>
      </trkpt>
      <trkpt lat="48.76399" lon="2.30093">
        <ele>97.5</ele>
        <time>2013-11-10T13:19:09.191Z</time>
      </trkpt>
      <trkpt lat="48.7639" lon="2.30094">
        <ele>97.1</ele>
        <time>2013-11-10T13:19:17.211Z</time>
      </trkpt>
      <trkpt lat="48.76389" lon="2.30094">
        <ele>97.1</ele>
        <time>2013-11-10T13:19:17.307Z</time>
      </trkpt>
      <trkpt lat="48.76381" lon="2.30096">
        <ele>96.8</ele>
        <time>2013-11-10T13:19:23.193Z</time>
      </trkpt>
      <trkpt lat="48.7638" lon="2.30097">
        <ele>96.9</ele>
        <time>2013-11-10T13:19:24.182Z</time>
      </trkpt>
      <trkpt lat="48.76371" lon="2.301">
        <ele>97.3</ele>
        <time>2013-11-10T13:19:30.186Z</time>
      </trkpt>
      <trkpt lat="48.7637" lon="2.30101">
        <ele>97.3</ele>
        <time>2013-11-10T13:19:31.190Z</time>
      </trkpt>
      <trkpt lat="48.76361" lon="2.30103">
        <ele>97.8</ele>
        <time>2013-11-10T13:19:38.189Z</time>
      </trkpt>
      <trkpt lat="48.7636" lon="2.30103">
        <ele>97.9</ele>
        <time>2013-11-10T13:19:39.190Z</time>
      </trkpt>
      <trkpt lat="48.76352" lon="2.30099">
        <ele>98.9</ele>
        <time>2013-11-10T13:19:47.344Z</time>
      </trkpt>
      <trkpt lat="48.76351" lon="2.30098">
        <ele>99</ele>
        <time>2013-11-10T13:19:48.172Z</time>
      </trkpt>
      <trkpt lat="48.76343" lon="2.30092">
        <ele>99.6</ele>
        <time>2013-11-10T13:19:56.886Z</time>
      </trkpt>
      <trkpt lat="48.76342" lon="2.30092">
        <ele>99.8</ele>
        <time>2013-11-10T13:19:57.114Z</time>
      </trkpt>
      <trkpt lat="48.76334" lon="2.30088">
        <ele>100.1</ele>
        <time>2013-11-10T13:20:03.172Z</time>
      </trkpt>
      <trkpt lat="48.76333" lon="2.30087">
        <ele>100.2</ele>
        <time>2013-11-10T13:20:04.183Z</time>
      </trkpt>
      <trkpt lat="48.76326" lon="2.30079">
        <ele>101</ele>
        <time>2013-11-10T13:20:12.058Z</time>
      </trkpt>
      <trkpt lat="48.76325" lon="2.30077">
        <ele>101.2</ele>
        <time>2013-11-10T13:20:12.135Z</time>
      </trkpt>
      <trkpt lat="48.76319" lon="2.30068">
        <ele>103.1</ele>
        <time>2013-11-10T13:20:20.192Z</time>
      </trkpt>
      <trkpt lat="48.76318" lon="2.30066">
        <ele>103.2</ele>
        <time>2013-11-10T13:20:21.155Z</time>
      </trkpt>
      <trkpt lat="48.76313" lon="2.30055">
        <ele>104.2</ele>
        <time>2013-11-10T13:20:32.244Z</time>
      </trkpt>
      <trkpt lat="48.76313" lon="2.30055">
        <ele>104.3</ele>
        <time>2013-11-10T13:20:32.310Z</time>
      </trkpt>
      <trkpt lat="48.76314" lon="2.30054">
        <ele>104.6</ele>
        <time>2013-11-10T13:20:37.316Z</time>
      </trkpt>
      <trkpt lat="48.76314" lon="2.30054">
        <ele>104.4</ele>
        <time>2013-11-10T13:20:38.194Z</time>
      </trkpt>
      <trkpt lat="48.76313" lon="2.30054">
        <ele>104.4</ele>
        <time>2013-11-10T13:20:42.277Z</time>
      </trkpt>
      <trkpt lat="48.76313" lon="2.30054">
        <ele>104.4</ele>
        <time>2013-11-10T13:20:43.186Z</time>
      </trkpt>
      <trkpt lat="48.76312" lon="2.30055">
        <ele>104.6</ele>
        <time>2013-11-10T13:20:48.188Z</time>
      </trkpt>
      <trkpt lat="48.76312" lon="2.30054">
        <ele>104.6</ele>
        <time>2013-11-10T13:20:49.190Z</time>
      </trkpt>
      <trkpt lat="48.76313" lon="2.30053">
        <ele>104.5</ele>
        <time>2013-11-10T13:20:50.193Z</time>
      </trkpt>
      <trkpt lat="48.76312" lon="2.30039">
        <ele>104.4</ele>
        <time>2013-11-10T13:20:57.160Z</time>
      </trkpt>
      <trkpt lat="48.76312" lon="2.30037">
        <ele>104.4</ele>
        <time>2013-11-10T13:20:58.191Z</time>
      </trkpt>
      <trkpt lat="48.76313" lon="2.30024">
        <ele>104.4</ele>
        <time>2013-11-10T13:21:05.190Z</time>
      </trkpt>
      <trkpt lat="48.76314" lon="2.30022">
        <ele>104.4</ele>
        <time>2013-11-10T13:21:06.198Z</time>
      </trkpt>
      <trkpt lat="48.7632" lon="2.30015">
        <ele>104.5</ele>
        <time>2013-11-10T13:21:12.149Z</time>
      </trkpt>
      <trkpt lat="48.76321" lon="2.30013">
        <ele>104.5</ele>
        <time>2013-11-10T13:21:13.197Z</time>
      </trkpt>
      <trkpt lat="48.76326" lon="2.30002">
        <ele>104.3</ele>
        <time>2013-11-10T13:21:23.187Z</time>
      </trkpt>
      <trkpt lat="48.76327" lon="2.3">
        <ele>104.3</ele>
        <time>2013-11-10T13:21:24.188Z</time>
      </trkpt>
      <trkpt lat="48.76335" lon="2.29994">
        <ele>104.1</ele>
        <time>2013-11-10T13:21:30.187Z</time>
      </trkpt>
      <trkpt lat="48.76335" lon="2.29993">
        <ele>104.1</ele>
        <time>2013-11-10T13:21:31.184Z</time>
      </trkpt>
      <trkpt lat="48.7634" lon="2.29982">
        <ele>104.1</ele>
        <time>2013-11-10T13:21:41.186Z</time>
      </trkpt>
      <trkpt lat="48.76341" lon="2.29982">
        <ele>104.1</ele>
        <time>2013-11-10T13:21:42.179Z</time>
      </trkpt>
      <trkpt lat="48.76346" lon="2.29973">
        <ele>103.6</ele>
        <time>2013-11-10T13:21:53.180Z</time>
      </trkpt>
      <trkpt lat="48.76346" lon="2.29974">
        <ele>103.5</ele>
        <time>2013-11-10T13:21:54.183Z</time>
      </trkpt>
      <trkpt lat="48.76346" lon="2.29975">
        <ele>103.5</ele>
        <time>2013-11-10T13:21:55.177Z</time>
      </trkpt>
      <trkpt lat="48.76348" lon="2.29976">
        <ele>103.4</ele>
        <time>2013-11-10T13:22:01.947Z</time>
      </trkpt>
      <trkpt lat="48.76349" lon="2.29976">
        <ele>103.4</ele>
        <time>2013-11-10T13:22:02.142Z</time>
      </trkpt>
      <trkpt lat="48.76349" lon="2.29976">
        <ele>103.4</ele>
        <time>2013-11-10T13:22:03.265Z</time>
      </trkpt>
      <trkpt lat="48.76349" lon="2.29976">
        <ele>103.3</ele>
        <time>2013-11-10T13:22:04.196Z</time>
      </trkpt>
      <trkpt lat="48.76357" lon="2.29974">
        <ele>102.9</ele>
        <time>2013-11-10T13:22:14.181Z</time>
      </trkpt>
      <trkpt lat="48.76358" lon="2.29973">
        <ele>102.7</ele>
        <time>2013-11-10T13:22:15.181Z</time>
      </trkpt>
      <trkpt lat="48.76365" lon="2.29969">
        <ele>101.5</ele>
        <time>2013-11-10T13:22:22.082Z</time>
      </trkpt>
      <trkpt lat="48.76367" lon="2.29968">
        <ele>101.4</ele>
        <time>2013-11-10T13:22:22.169Z</time>
      </trkpt>
      <trkpt lat="48.76375" lon="2.29967">
        <ele>100.9</ele>
        <time>2013-11-10T13:22:29.171Z</time>
      </trkpt>
      <trkpt lat="48.76376" lon="2.29967">
        <ele>100.8</ele>
        <time>2013-11-10T13:22:30.161Z</time>
      </trkpt>
      <trkpt lat="48.76384" lon="2.29964">
        <ele>100.6</ele>
        <time>2013-11-10T13:22:37.261Z</time>
      </trkpt>
      <trkpt lat="48.76386" lon="2.29963">
        <ele>100.5</ele>
        <time>2013-11-10T13:22:38.156Z</time>
      </trkpt>
      <trkpt lat="48.76395" lon="2.29961">
        <ele>100</ele>
        <time>2013-11-10T13:22:45.176Z</time>
      </trkpt>
      <trkpt lat="48.76395" lon="2.29961">
        <ele>100</ele>
        <time>2013-11-10T13:22:46.179Z</time>
      </trkpt>
      <trkpt lat="48.76402" lon="2.29957">
        <ele>100.2</ele>
        <time>2013-11-10T13:22:51.138Z</time>
      </trkpt>
      <trkpt lat="48.76404" lon="2.29956">
        <ele>100.1</ele>
        <time>2013-11-10T13:22:52.151Z</time>
      </trkpt>
      <trkpt lat="48.76412" lon="2.2995">
        <ele>99.5</ele>
        <time>2013-11-10T13:23:03.113Z</time>
      </trkpt>
      <trkpt lat="48.76413" lon="2.2995">
        <ele>99.4</ele>
        <time>2013-11-10T13:23:04.114Z</time>
      </trkpt>
      <trkpt lat="48.76421" lon="2.29949">
        <ele>99.8</ele>
        <time>2013-11-10T13:23:12.149Z</time>
      </trkpt>
      <trkpt lat="48.76423" lon="2.29949">
        <ele>99.8</ele>
        <time>2013-11-10T13:23:13.127Z</time>
      </trkpt>
      <trkpt lat="48.76431" lon="2.29944">
        <ele>99.5</ele>
        <time>2013-11-10T13:23:20.114Z</time>
      </trkpt>
      <trkpt lat="48.76432" lon="2.29944">
        <ele>99.5</ele>
        <time>2013-11-10T13:23:21.121Z</time>
      </trkpt>
      <trkpt lat="48.7644" lon="2.29939">
        <ele>99</ele>
        <time>2013-11-10T13:23:29.191Z</time>
      </trkpt>
      <trkpt lat="48.76441" lon="2.29939">
        <ele>99</ele>
        <time>2013-11-10T13:23:30.359Z</time>
      </trkpt>
      <trkpt lat="48.76448" lon="2.29933">
        <ele>99.1</ele>
        <time>2013-11-10T13:23:38.187Z</time>
      </trkpt>
      <trkpt lat="48.76449" lon="2.29932">
        <ele>98.9</ele>
        <time>2013-11-10T13:23:39.192Z</time>
      </trkpt>
      <trkpt lat="48.76456" lon="2.29924">
        <ele>98.3</ele>
        <time>2013-11-10T13:23:44.183Z</time>
      </trkpt>
      <trkpt lat="48.76457" lon="2.29922">
        <ele>98.2</ele>
        <time>2013-11-10T13:23:45.184Z</time>
      </trkpt>
      <trkpt lat="48.76464" lon="2.29915">
        <ele>97.9</ele>
        <time>2013-11-10T13:23:51.179Z</time>
      </trkpt>
      <trkpt lat="48.76465" lon="2.29914">
        <ele>97.9</ele>
        <time>2013-11-10T13:23:52.175Z</time>
      </trkpt>
      <trkpt lat="48.76471" lon="2.29921">
        <ele>97.1</ele>
        <time>2013-11-10T13:24:07.367Z</time>
      </trkpt>
      <trkpt lat="48.76472" lon="2.29923">
        <ele>97</ele>
        <time>2013-11-10T13:24:07.458Z</time>
      </trkpt>
      <trkpt lat="48.76479" lon="2.29929">
        <ele>96.8</ele>
        <time>2013-11-10T13:24:18.169Z</time>
      </trkpt>
      <trkpt lat="48.7648" lon="2.29929">
        <ele>96.7</ele>
        <time>2013-11-10T13:24:19.119Z</time>
      </trkpt>
      <trkpt lat="48.76487" lon="2.29934">
        <ele>95.7</ele>
        <time>2013-11-10T13:24:25.155Z</time>
      </trkpt>
      <trkpt lat="48.76489" lon="2.29935">
        <ele>95.6</ele>
        <time>2013-11-10T13:24:26.156Z</time>
      </trkpt>
      <trkpt lat="48.76497" lon="2.29938">
        <ele>95.3</ele>
        <time>2013-11-10T13:24:31.153Z</time>
      </trkpt>
      <trkpt lat="48.76499" lon="2.29939">
        <ele>95.2</ele>
        <time>2013-11-10T13:24:32.159Z</time>
      </trkpt>
      <trkpt lat="48.76501" lon="2.29946">
        <ele>95.3</ele>
        <time>2013-11-10T13:24:37.494Z</time>
      </trkpt>
      <trkpt lat="48.76507" lon="2.29957">
        <ele>95.4</ele>
        <time>2013-11-10T13:24:38.152Z</time>
      </trkpt>
      <trkpt lat="48.76511" lon="2.29967">
        <ele>96</ele>
        <time>2013-11-10T13:24:42.534Z</time>
      </trkpt>
      <trkpt lat="48.76512" lon="2.2997">
        <ele>96.1</ele>
        <time>2013-11-10T13:24:43.157Z</time>
      </trkpt>
      <trkpt lat="48.76514" lon="2.29981">
        <ele>96.5</ele>
        <time>2013-11-10T13:24:48.158Z</time>
      </trkpt>
      <trkpt lat="48.76515" lon="2.29983">
        <ele>96.6</ele>
        <time>2013-11-10T13:24:49.155Z</time>
      </trkpt>
      <trkpt lat="48.76522" lon="2.29991">
        <ele>97.8</ele>
        <time>2013-11-10T13:24:56.887Z</time>
      </trkpt>
      <trkpt lat="48.76523" lon="2.29992">
        <ele>97.9</ele>
        <time>2013-11-10T13:24:57.124Z</time>
      </trkpt>
      <trkpt lat="48.76527" lon="2.29983">
        <ele>98.5</ele>
        <time>2013-11-10T13:25:02.130Z</time>
      </trkpt>
      <trkpt lat="48.76528" lon="2.29978">
        <ele>98.7</ele>
        <time>2013-11-10T13:25:03.171Z</time>
      </trkpt>
      <trkpt lat="48.76529" lon="2.29969">
        <ele>99</ele>
        <time>2013-11-10T13:25:05.178Z</time>
      </trkpt>
      <trkpt lat="48.7653" lon="2.29965">
        <ele>99.1</ele>
        <time>2013-11-10T13:25:06.178Z</time>
      </trkpt>
      <trkpt lat="48.76533" lon="2.29953">
        <ele>99.3</ele>
        <time>2013-11-10T13:25:09.237Z</time>
      </trkpt>
      <trkpt lat="48.76534" lon="2.29951">
        <ele>99.3</ele>
        <time>2013-11-10T13:25:10.184Z</time>
      </trkpt>
      <trkpt lat="48.76542" lon="2.29945">
        <ele>99</ele>
        <time>2013-11-10T13:25:16.979Z</time>
      </trkpt>
      <trkpt lat="48.76543" lon="2.29943">
        <ele>98.9</ele>
        <time>2013-11-10T13:25:17.160Z</time>
      </trkpt>
      <trkpt lat="48.7655" lon="2.29937">
        <ele>98.7</ele>
        <time>2013-11-10T13:25:22.018Z</time>
      </trkpt>
      <trkpt lat="48.76552" lon="2.29937">
        <ele>98.6</ele>
        <time>2013-11-10T13:25:22.168Z</time>
      </trkpt>
      <trkpt lat="48.76559" lon="2.29933">
        <ele>98.9</ele>
        <time>2013-11-10T13:25:27.259Z</time>
      </trkpt>
      <trkpt lat="48.76561" lon="2.29932">
        <ele>99</ele>
        <time>2013-11-10T13:25:28.206Z</time>
      </trkpt>
      <trkpt lat="48.76569" lon="2.2993">
        <ele>99.2</ele>
        <time>2013-11-10T13:25:38.204Z</time>
      </trkpt>
      <trkpt lat="48.7657" lon="2.2993">
        <ele>99.2</ele>
        <time>2013-11-10T13:25:39.200Z</time>
      </trkpt>
      <trkpt lat="48.76579" lon="2.29928">
        <ele>98.9</ele>
        <time>2013-11-10T13:25:45.206Z</time>
      </trkpt>
      <trkpt lat="48.7658" lon="2.29927">
        <ele>98.8</ele>
        <time>2013-11-10T13:25:46.218Z</time>
      </trkpt>
      <trkpt lat="48.76588" lon="2.29922">
        <ele>97.4</ele>
        <time>2013-11-10T13:25:57.153Z</time>
      </trkpt>
      <trkpt lat="48.76589" lon="2.29921">
        <ele>97.2</ele>
        <time>2013-11-10T13:25:58.191Z</time>
      </trkpt>
      <trkpt lat="48.76596" lon="2.29918">
        <ele>96.3</ele>
        <time>2013-11-10T13:26:07.053Z</time>
      </trkpt>
      <trkpt lat="48.76597" lon="2.29917">
        <ele>96.2</ele>
        <time>2013-11-10T13:26:07.149Z</time>
      </trkpt>
      <trkpt lat="48.76605" lon="2.29912">
        <ele>96</ele>
        <time>2013-11-10T13:26:14.260Z</time>
      </trkpt>
      <trkpt lat="48.76606" lon="2.29911">
        <ele>96</ele>
        <time>2013-11-10T13:26:15.200Z</time>
      </trkpt>
      <trkpt lat="48.76614" lon="2.29912">
        <ele>96.3</ele>
        <time>2013-11-10T13:26:22.302Z</time>
      </trkpt>
      <trkpt lat="48.76615" lon="2.29911">
        <ele>96.4</ele>
        <time>2013-11-10T13:26:23.204Z</time>
      </trkpt>
      <trkpt lat="48.76624" lon="2.29908">
        <ele>96.3</ele>
        <time>2013-11-10T13:26:30.189Z</time>
      </trkpt>
      <trkpt lat="48.76625" lon="2.29908">
        <ele>96.3</ele>
        <time>2013-11-10T13:26:31.192Z</time>
      </trkpt>
      <trkpt lat="48.76633" lon="2.29904">
        <ele>96.6</ele>
        <time>2013-11-10T13:26:40.188Z</time>
      </trkpt>
      <trkpt lat="48.76634" lon="2.29904">
        <ele>96.5</ele>
        <time>2013-11-10T13:26:41.187Z</time>
      </trkpt>
      <trkpt lat="48.76642" lon="2.29903">
        <ele>96.2</ele>
        <time>2013-11-10T13:26:48.193Z</time>
      </trkpt>
      <trkpt lat="48.76643" lon="2.29902">
        <ele>96.2</ele>
        <time>2013-11-10T13:26:49.193Z</time>
      </trkpt>
      <trkpt lat="48.76651" lon="2.29901">
        <ele>95.5</ele>
        <time>2013-11-10T13:26:55.189Z</time>
      </trkpt>
      <trkpt lat="48.76652" lon="2.29901">
        <ele>95.4</ele>
        <time>2013-11-10T13:26:56.191Z</time>
      </trkpt>
      <trkpt lat="48.7666" lon="2.29896">
        <ele>95.2</ele>
        <time>2013-11-10T13:27:06.907Z</time>
      </trkpt>
      <trkpt lat="48.76661" lon="2.29895">
        <ele>95.3</ele>
        <time>2013-11-10T13:27:07.151Z</time>
      </trkpt>
      <trkpt lat="48.76669" lon="2.29892">
        <ele>95.3</ele>
        <time>2013-11-10T13:27:12.151Z</time>
      </trkpt>
      <trkpt lat="48.7667" lon="2.29891">
        <ele>95.2</ele>
        <time>2013-11-10T13:27:13.191Z</time>
      </trkpt>
      <trkpt lat="48.76678" lon="2.29888">
        <ele>94.8</ele>
        <time>2013-11-10T13:27:21.997Z</time>
      </trkpt>
      <trkpt lat="48.76679" lon="2.29888">
        <ele>94.9</ele>
        <time>2013-11-10T13:27:22.190Z</time>
      </trkpt>
      <trkpt lat="48.76688" lon="2.29886">
        <ele>95</ele>
        <time>2013-11-10T13:27:32.076Z</time>
      </trkpt>
      <trkpt lat="48.76689" lon="2.29885">
        <ele>95.1</ele>
        <time>2013-11-10T13:27:32.264Z</time>
      </trkpt>
      <trkpt lat="48.76697" lon="2.2988">
        <ele>95.2</ele>
        <time>2013-11-10T13:27:39.199Z</time>
      </trkpt>
      <trkpt lat="48.76698" lon="2.29879">
        <ele>95.2</ele>
        <time>2013-11-10T13:27:40.194Z</time>
      </trkpt>
      <trkpt lat="48.76707" lon="2.2988">
        <ele>94.6</ele>
        <time>2013-11-10T13:27:50.204Z</time>
      </trkpt>
      <trkpt lat="48.76708" lon="2.2988">
        <ele>94.5</ele>
        <time>2013-11-10T13:27:51.211Z</time>
      </trkpt>
      <trkpt lat="48.76715" lon="2.29878">
        <ele>94</ele>
        <time>2013-11-10T13:27:56.885Z</time>
      </trkpt>
      <trkpt lat="48.76717" lon="2.29878">
        <ele>94</ele>
        <time>2013-11-10T13:27:57.156Z</time>
      </trkpt>
      <trkpt lat="48.76725" lon="2.29876">
        <ele>93.3</ele>
        <time>2013-11-10T13:28:05.202Z</time>
      </trkpt>
      <trkpt lat="48.76726" lon="2.29875">
        <ele>93.2</ele>
        <time>2013-11-10T13:28:06.198Z</time>
      </trkpt>
      <trkpt lat="48.76733" lon="2.29869">
        <ele>92.8</ele>
        <time>2013-11-10T13:28:17.143Z</time>
      </trkpt>
      <trkpt lat="48.76734" lon="2.29868">
        <ele>92.7</ele>
        <time>2013-11-10T13:28:18.200Z</time>
      </trkpt>
      <trkpt lat="48.7673" lon="2.29871">
        <ele>92.6</ele>
        <time>2013-11-10T13:28:30.194Z</time>
      </trkpt>
      <trkpt lat="48.76731" lon="2.29871">
        <ele>92.7</ele>
        <time>2013-11-10T13:28:31.271Z</time>
      </trkpt>
      <trkpt lat="48.76731" lon="2.29871">
        <ele>92.7</ele>
        <time>2013-11-10T13:28:32.160Z</time>
      </trkpt>
      <trkpt lat="48.76731" lon="2.2987">
        <ele>92.8</ele>
        <time>2013-11-10T13:28:32.278Z</time>
      </trkpt>
      <trkpt lat="48.76738" lon="2.29862">
        <ele>93.6</ele>
        <time>2013-11-10T13:28:40.184Z</time>
      </trkpt>
      <trkpt lat="48.76738" lon="2.29861">
        <ele>93.6</ele>
        <time>2013-11-10T13:28:41.180Z</time>
      </trkpt>
      <trkpt lat="48.76745" lon="2.29855">
        <ele>94.7</ele>
        <time>2013-11-10T13:28:48.186Z</time>
      </trkpt>
      <trkpt lat="48.76746" lon="2.29854">
        <ele>94.8</ele>
        <time>2013-11-10T13:28:49.185Z</time>
      </trkpt>
      <trkpt lat="48.76754" lon="2.29848">
        <ele>94.8</ele>
        <time>2013-11-10T13:28:57.142Z</time>
      </trkpt>
      <trkpt lat="48.76755" lon="2.29847">
        <ele>94.9</ele>
        <time>2013-11-10T13:28:58.182Z</time>
      </trkpt>
      <trkpt lat="48.76755" lon="2.29834">
        <ele>95.4</ele>
        <time>2013-11-10T13:29:07.143Z</time>
      </trkpt>
      <trkpt lat="48.76755" lon="2.29832">
        <ele>95.3</ele>
        <time>2013-11-10T13:29:08.188Z</time>
      </trkpt>
      <trkpt lat="48.76759" lon="2.29822">
        <ele>94.3</ele>
        <time>2013-11-10T13:29:17.037Z</time>
      </trkpt>
      <trkpt lat="48.76759" lon="2.2982">
        <ele>94.1</ele>
        <time>2013-11-10T13:29:17.135Z</time>
      </trkpt>
      <trkpt lat="48.76765" lon="2.29811">
        <ele>93.3</ele>
        <time>2013-11-10T13:29:25.194Z</time>
      </trkpt>
      <trkpt lat="48.76767" lon="2.29809">
        <ele>93.2</ele>
        <time>2013-11-10T13:29:26.190Z</time>
      </trkpt>
      <trkpt lat="48.76772" lon="2.29798">
        <ele>93.4</ele>
        <time>2013-11-10T13:29:37.269Z</time>
      </trkpt>
      <trkpt lat="48.76772" lon="2.29798">
        <ele>93.4</ele>
        <time>2013-11-10T13:29:38.175Z</time>
      </trkpt>
      <trkpt lat="48.7678" lon="2.29793">
        <ele>93</ele>
        <time>2013-11-10T13:29:48.172Z</time>
      </trkpt>
      <trkpt lat="48.76781" lon="2.29792">
        <ele>92.9</ele>
        <time>2013-11-10T13:29:49.181Z</time>
      </trkpt>
      <trkpt lat="48.76789" lon="2.29788">
        <ele>92.8</ele>
        <time>2013-11-10T13:29:56.898Z</time>
      </trkpt>
      <trkpt lat="48.7679" lon="2.29788">
        <ele>92.9</ele>
        <time>2013-11-10T13:29:57.126Z</time>
      </trkpt>
      <trkpt lat="48.76798" lon="2.29785">
        <ele>93</ele>
        <time>2013-11-10T13:30:06.954Z</time>
      </trkpt>
      <trkpt lat="48.768" lon="2.29786">
        <ele>93.1</ele>
        <time>2013-11-10T13:30:08.187Z</time>
      </trkpt>
      <trkpt lat="48.76808" lon="2.29791">
        <ele>93.5</ele>
        <time>2013-11-10T13:30:17.022Z</time>
      </trkpt>
      <trkpt lat="48.76809" lon="2.29791">
        <ele>93.6</ele>
        <time>2013-11-10T13:30:17.124Z</time>
      </trkpt>
      <trkpt lat="48.76817" lon="2.29799">
        <ele>95</ele>
        <time>2013-11-10T13:30:27.105Z</time>
      </trkpt>
      <trkpt lat="48.76817" lon="2.298">
        <ele>95.1</ele>
        <time>2013-11-10T13:30:27.276Z</time>
      </trkpt>
      <trkpt lat="48.76823" lon="2.29809">
        <ele>95.8</ele>
        <time>2013-11-10T13:30:36.178Z</time>
      </trkpt>
      <trkpt lat="48.76824" lon="2.29811">
        <ele>95.7</ele>
        <time>2013-11-10T13:30:37.257Z</time>
      </trkpt>
      <trkpt lat="48.76829" lon="2.29821">
        <ele>95.5</ele>
        <time>2013-11-10T13:30:46.181Z</time>
      </trkpt>
      <trkpt lat="48.76829" lon="2.29823">
        <ele>95.5</ele>
        <time>2013-11-10T13:30:47.184Z</time>
      </trkpt>
      <trkpt lat="48.76838" lon="2.29828">
        <ele>96.6</ele>
        <time>2013-11-10T13:30:57.163Z</time>
      </trkpt>
      <trkpt lat="48.76839" lon="2.29828">
        <ele>96.6</ele>
        <time>2013-11-10T13:30:58.151Z</time>
      </trkpt>
      <trkpt lat="48.76848" lon="2.29831">
        <ele>97.3</ele>
        <time>2013-11-10T13:31:04.155Z</time>
      </trkpt>
      <trkpt lat="48.76849" lon="2.29831">
        <ele>97.3</ele>
        <time>2013-11-10T13:31:05.167Z</time>
      </trkpt>
      <trkpt lat="48.76857" lon="2.29831">
        <ele>98</ele>
        <time>2013-11-10T13:31:12.143Z</time>
      </trkpt>
      <trkpt lat="48.76858" lon="2.29829">
        <ele>98</ele>
        <time>2013-11-10T13:31:12.259Z</time>
      </trkpt>
      <trkpt lat="48.76865" lon="2.2982">
        <ele>97.8</ele>
        <time>2013-11-10T13:31:19.185Z</time>
      </trkpt>
      <trkpt lat="48.76866" lon="2.29819">
        <ele>97.7</ele>
        <time>2013-11-10T13:31:20.186Z</time>
      </trkpt>
      <trkpt lat="48.76874" lon="2.29817">
        <ele>96.8</ele>
        <time>2013-11-10T13:31:30.197Z</time>
      </trkpt>
      <trkpt lat="48.76875" lon="2.29817">
        <ele>96.8</ele>
        <time>2013-11-10T13:31:31.200Z</time>
      </trkpt>
      <trkpt lat="48.76883" lon="2.29813">
        <ele>95.8</ele>
        <time>2013-11-10T13:31:41.208Z</time>
      </trkpt>
      <trkpt lat="48.76884" lon="2.29813">
        <ele>95.6</ele>
        <time>2013-11-10T13:31:42.202Z</time>
      </trkpt>
      <trkpt lat="48.76885" lon="2.29811">
        <ele>95.5</ele>
        <time>2013-11-10T13:32:17.645Z</time>
      </trkpt>
      <trkpt lat="48.76908" lon="2.29809">
        <ele>95.5</ele>
        <time>2013-11-10T13:32:21.173Z</time>
      </trkpt>
      <trkpt lat="48.76909" lon="2.29796">
        <ele>95.4</ele>
        <time>2013-11-10T13:32:27.812Z</time>
      </trkpt>
      <trkpt lat="48.76909" lon="2.29794">
        <ele>95.4</ele>
        <time>2013-11-10T13:32:28.126Z</time>
      </trkpt>
      <trkpt lat="48.76912" lon="2.29782">
        <ele>95.2</ele>
        <time>2013-11-10T13:32:37.997Z</time>
      </trkpt>
      <trkpt lat="48.76913" lon="2.29781">
        <ele>95.2</ele>
        <time>2013-11-10T13:32:38.152Z</time>
      </trkpt>
      <trkpt lat="48.76921" lon="2.29778">
        <ele>95.2</ele>
        <time>2013-11-10T13:32:49.286Z</time>
      </trkpt>
      <trkpt lat="48.76923" lon="2.29778">
        <ele>95.2</ele>
        <time>2013-11-10T13:32:50.164Z</time>
      </trkpt>
      <trkpt lat="48.76932" lon="2.29777">
        <ele>95.2</ele>
        <time>2013-11-10T13:32:54.161Z</time>
      </trkpt>
      <trkpt lat="48.76933" lon="2.29777">
        <ele>95.2</ele>
        <time>2013-11-10T13:32:55.155Z</time>
      </trkpt>
      <trkpt lat="48.76942" lon="2.29776">
        <ele>95.3</ele>
        <time>2013-11-10T13:33:01.938Z</time>
      </trkpt>
      <trkpt lat="48.76944" lon="2.29776">
        <ele>95.3</ele>
        <time>2013-11-10T13:33:02.148Z</time>
      </trkpt>
      <trkpt lat="48.76952" lon="2.29772">
        <ele>95.3</ele>
        <time>2013-11-10T13:33:17.077Z</time>
      </trkpt>
      <trkpt lat="48.76974" lon="2.2977">
        <ele>95.4</ele>
        <time>2013-11-10T13:33:22.228Z</time>
      </trkpt>
      <trkpt lat="48.76974" lon="2.2977">
        <ele>95.4</ele>
        <time>2013-11-10T13:33:27.281Z</time>
      </trkpt>
      <trkpt lat="48.76988" lon="2.29778">
        <ele>95.4</ele>
        <time>2013-11-10T13:33:30.144Z</time>
      </trkpt>
      <trkpt lat="48.76994" lon="2.29769">
        <ele>95.6</ele>
        <time>2013-11-10T13:33:40.150Z</time>
      </trkpt>
      <trkpt lat="48.76994" lon="2.29768">
        <ele>95.6</ele>
        <time>2013-11-10T13:33:41.148Z</time>
      </trkpt>
      <trkpt lat="48.76999" lon="2.29759">
        <ele>95.7</ele>
        <time>2013-11-10T13:33:56.905Z</time>
      </trkpt>
      <trkpt lat="48.77002" lon="2.29757">
        <ele>95.7</ele>
        <time>2013-11-10T13:33:57.107Z</time>
      </trkpt>
      <trkpt lat="48.77005" lon="2.29754">
        <ele>95.8</ele>
        <time>2013-11-10T13:36:12.474Z</time>
      </trkpt>
      <trkpt lat="48.7717" lon="2.29686">
        <ele>71.6</ele>
        <time>2013-11-10T13:36:13.201Z</time>
      </trkpt>
      <trkpt lat="48.77177" lon="2.29692">
        <ele>72.8</ele>
        <time>2013-11-10T13:36:17.499Z</time>
      </trkpt>
      <trkpt lat="48.77178" lon="2.29691">
        <ele>73.4</ele>
        <time>2013-11-10T13:36:18.235Z</time>
      </trkpt>
      <trkpt lat="48.77186" lon="2.29686">
        <ele>77.9</ele>
        <time>2013-11-10T13:36:30.190Z</time>
      </trkpt>
      <trkpt lat="48.77187" lon="2.29685">
        <ele>78.4</ele>
        <time>2013-11-10T13:36:31.196Z</time>
      </trkpt>
      <trkpt lat="48.77195" lon="2.2968">
        <ele>80.8</ele>
        <time>2013-11-10T13:36:39.194Z</time>
      </trkpt>
      <trkpt lat="48.77196" lon="2.2968">
        <ele>80.9</ele>
        <time>2013-11-10T13:36:40.189Z</time>
      </trkpt>
      <trkpt lat="48.77203" lon="2.29678">
        <ele>81.6</ele>
        <time>2013-11-10T13:36:45.202Z</time>
      </trkpt>
      <trkpt lat="48.77205" lon="2.29678">
        <ele>81.7</ele>
        <time>2013-11-10T13:36:46.206Z</time>
      </trkpt>
      <trkpt lat="48.77214" lon="2.29675">
        <ele>82</ele>
        <time>2013-11-10T13:36:54.178Z</time>
      </trkpt>
      <trkpt lat="48.77215" lon="2.29675">
        <ele>82</ele>
        <time>2013-11-10T13:36:55.170Z</time>
      </trkpt>
      <trkpt lat="48.77223" lon="2.29675">
        <ele>82.5</ele>
        <time>2013-11-10T13:37:02.105Z</time>
      </trkpt>
      <trkpt lat="48.77225" lon="2.29675">
        <ele>82.7</ele>
        <time>2013-11-10T13:37:03.154Z</time>
      </trkpt>
      <trkpt lat="48.77224" lon="2.29689">
        <ele>86.2</ele>
        <time>2013-11-10T13:37:14.260Z</time>
      </trkpt>
      <trkpt lat="48.77224" lon="2.2969">
        <ele>86.6</ele>
        <time>2013-11-10T13:37:15.153Z</time>
      </trkpt>
      <trkpt lat="48.77223" lon="2.29699">
        <ele>89.8</ele>
        <time>2013-11-10T13:37:31.152Z</time>
      </trkpt>
      <trkpt lat="48.77223" lon="2.29697">
        <ele>89.8</ele>
        <time>2013-11-10T13:37:32.151Z</time>
      </trkpt>
      <trkpt lat="48.77223" lon="2.29697">
        <ele>89.8</ele>
        <time>2013-11-10T13:37:32.488Z</time>
      </trkpt>
      <trkpt lat="48.77223" lon="2.29696">
        <ele>90.2</ele>
        <time>2013-11-10T13:37:33.162Z</time>
      </trkpt>
      <trkpt lat="48.77223" lon="2.2969">
        <ele>90.8</ele>
        <time>2013-11-10T13:37:41.173Z</time>
      </trkpt>
      <trkpt lat="48.77223" lon="2.29691">
        <ele>90.8</ele>
        <time>2013-11-10T13:37:42.171Z</time>
      </trkpt>
      <trkpt lat="48.77223" lon="2.29692">
        <ele>91.1</ele>
        <time>2013-11-10T13:37:48.174Z</time>
      </trkpt>
      <trkpt lat="48.77223" lon="2.29692">
        <ele>91.3</ele>
        <time>2013-11-10T13:37:49.174Z</time>
      </trkpt>
      <trkpt lat="48.77221" lon="2.29692">
        <ele>91.4</ele>
        <time>2013-11-10T13:37:53.175Z</time>
      </trkpt>
      <trkpt lat="48.77221" lon="2.29691">
        <ele>91.5</ele>
        <time>2013-11-10T13:37:54.173Z</time>
      </trkpt>
      <trkpt lat="48.77222" lon="2.2969">
        <ele>92.1</ele>
        <time>2013-11-10T13:38:00.227Z</time>
      </trkpt>
      <trkpt lat="48.77223" lon="2.2969">
        <ele>92.1</ele>
        <time>2013-11-10T13:38:01.171Z</time>
      </trkpt>
      <trkpt lat="48.77226" lon="2.29691">
        <ele>93.6</ele>
        <time>2013-11-10T13:38:10.173Z</time>
      </trkpt>
      <trkpt lat="48.77225" lon="2.29691">
        <ele>93.6</ele>
        <time>2013-11-10T13:38:11.173Z</time>
      </trkpt>
      <trkpt lat="48.77225" lon="2.29693">
        <ele>93.7</ele>
        <time>2013-11-10T13:38:24.158Z</time>
      </trkpt>
      <trkpt lat="48.77224" lon="2.29693">
        <ele>93.7</ele>
        <time>2013-11-10T13:38:25.152Z</time>
      </trkpt>
      <trkpt lat="48.7722" lon="2.29695">
        <ele>93.9</ele>
        <time>2013-11-10T13:38:34.164Z</time>
      </trkpt>
      <trkpt lat="48.7722" lon="2.29695">
        <ele>93.9</ele>
        <time>2013-11-10T13:38:35.165Z</time>
      </trkpt>
      <trkpt lat="48.7722" lon="2.29695">
        <ele>94.7</ele>
        <time>2013-11-10T13:38:45.162Z</time>
      </trkpt>
      <trkpt lat="48.77221" lon="2.29695">
        <ele>95</ele>
        <time>2013-11-10T13:38:46.161Z</time>
      </trkpt>
      <trkpt lat="48.77224" lon="2.29696">
        <ele>95.3</ele>
        <time>2013-11-10T13:38:53.163Z</time>
      </trkpt>
      <trkpt lat="48.77224" lon="2.29696">
        <ele>95.3</ele>
        <time>2013-11-10T13:38:54.162Z</time>
      </trkpt>
      <trkpt lat="48.77224" lon="2.29694">
        <ele>95.8</ele>
        <time>2013-11-10T13:39:12.329Z</time>
      </trkpt>
      <trkpt lat="48.77224" lon="2.29694">
        <ele>95.9</ele>
        <time>2013-11-10T13:39:13.165Z</time>
      </trkpt>
      <trkpt lat="48.77225" lon="2.29693">
        <ele>95.9</ele>
        <time>2013-11-10T13:39:16.164Z</time>
      </trkpt>
      <trkpt lat="48.77225" lon="2.29693">
        <ele>95.9</ele>
        <time>2013-11-10T13:39:17.167Z</time>
      </trkpt>
      <trkpt lat="48.77225" lon="2.29693">
        <ele>95.8</ele>
        <time>2013-11-10T13:39:21.164Z</time>
      </trkpt>
      <trkpt lat="48.77224" lon="2.29691">
        <ele>95.8</ele>
        <time>2013-11-10T13:39:22.174Z</time>
      </trkpt>
      <trkpt lat="48.77228" lon="2.2969">
        <ele>94.9</ele>
        <time>2013-11-10T13:39:34.208Z</time>
      </trkpt>
      <trkpt lat="48.77228" lon="2.2969">
        <ele>95</ele>
        <time>2013-11-10T13:39:35.164Z</time>
      </trkpt>
      <trkpt lat="48.77227" lon="2.2969">
        <ele>95.3</ele>
        <time>2013-11-10T13:39:40.175Z</time>
      </trkpt>
      <trkpt lat="48.77226" lon="2.2969">
        <ele>95.3</ele>
        <time>2013-11-10T13:39:41.157Z</time>
      </trkpt>
      <trkpt lat="48.77222" lon="2.29687">
        <ele>95.6</ele>
        <time>2013-11-10T13:39:52.692Z</time>
      </trkpt>
      <trkpt lat="48.77222" lon="2.29687">
        <ele>95.7</ele>
        <time>2013-11-10T13:39:53.112Z</time>
      </trkpt>
      <trkpt lat="48.77223" lon="2.29687">
        <ele>95.7</ele>
        <time>2013-11-10T13:39:54.132Z</time>
      </trkpt>
      <trkpt lat="48.77223" lon="2.29688">
        <ele>95.7</ele>
        <time>2013-11-10T13:39:55.134Z</time>
      </trkpt>
      <trkpt lat="48.77224" lon="2.29692">
        <ele>95.9</ele>
        <time>2013-11-10T13:40:03.189Z</time>
      </trkpt>
      <trkpt lat="48.77224" lon="2.29692">
        <ele>95.9</ele>
        <time>2013-11-10T13:40:04.112Z</time>
      </trkpt>
      <trkpt lat="48.77224" lon="2.29692">
        <ele>95.9</ele>
        <time>2013-11-10T13:40:05.348Z</time>
      </trkpt>
      <trkpt lat="48.77224" lon="2.29697">
        <ele>95.9</ele>
        <time>2013-11-10T13:40:17.050Z</time>
      </trkpt>
      <trkpt lat="48.77224" lon="2.29697">
        <ele>95.9</ele>
        <time>2013-11-10T13:40:17.110Z</time>
      </trkpt>
      <trkpt lat="48.77224" lon="2.29696">
        <ele>96.2</ele>
        <time>2013-11-10T13:40:22.103Z</time>
      </trkpt>
      <trkpt lat="48.77223" lon="2.29695">
        <ele>96.3</ele>
        <time>2013-11-10T13:40:22.156Z</time>
      </trkpt>
      <trkpt lat="48.77223" lon="2.29694">
        <ele>96.4</ele>
        <time>2013-11-10T13:40:25.140Z</time>
      </trkpt>
      <trkpt lat="48.77223" lon="2.29694">
        <ele>96.4</ele>
        <time>2013-11-10T13:40:26.143Z</time>
      </trkpt>
      <trkpt lat="48.77224" lon="2.29695">
        <ele>96.4</ele>
        <time>2013-11-10T13:40:34.138Z</time>
      </trkpt>
      <trkpt lat="48.77224" lon="2.29696">
        <ele>96.5</ele>
        <time>2013-11-10T13:40:35.128Z</time>
      </trkpt>
      <trkpt lat="48.7723" lon="2.29706">
        <ele>97.6</ele>
        <time>2013-11-10T13:40:49.118Z</time>
      </trkpt>
      <trkpt lat="48.7723" lon="2.29706">
        <ele>97.6</ele>
        <time>2013-11-10T13:40:50.137Z</time>
      </trkpt>
      <trkpt lat="48.7723" lon="2.29706">
        <ele>97.9</ele>
        <time>2013-11-10T13:40:52.139Z</time>
      </trkpt>
      <trkpt lat="48.7723" lon="2.29706">
        <ele>98.1</ele>
        <time>2013-11-10T13:40:53.113Z</time>
      </trkpt>
      <trkpt lat="48.7723" lon="2.29706">
        <ele>98.3</ele>
        <time>2013-11-10T13:40:55.123Z</time>
      </trkpt>
      <trkpt lat="48.77229" lon="2.29706">
        <ele>98.5</ele>
        <time>2013-11-10T13:40:56.187Z</time>
      </trkpt>
      <trkpt lat="48.77224" lon="2.29706">
        <ele>99.4</ele>
        <time>2013-11-10T13:41:07.127Z</time>
      </trkpt>
      <trkpt lat="48.77224" lon="2.29706">
        <ele>99.5</ele>
        <time>2013-11-10T13:41:08.129Z</time>
      </trkpt>
      <trkpt lat="48.77225" lon="2.29705">
        <ele>99.6</ele>
        <time>2013-11-10T13:41:10.131Z</time>
      </trkpt>
      <trkpt lat="48.77225" lon="2.29705">
        <ele>99.6</ele>
        <time>2013-11-10T13:41:11.129Z</time>
      </trkpt>
      <trkpt lat="48.77226" lon="2.297">
        <ele>100</ele>
        <time>2013-11-10T13:41:19.119Z</time>
      </trkpt>
      <trkpt lat="48.77226" lon="2.297">
        <ele>100</ele>
        <time>2013-11-10T13:41:20.117Z</time>
      </trkpt>
      <trkpt lat="48.77225" lon="2.29701">
        <ele>100.3</ele>
        <time>2013-11-10T13:41:27.356Z</time>
      </trkpt>
      <trkpt lat="48.77225" lon="2.29702">
        <ele>100.7</ele>
        <time>2013-11-10T13:41:28.127Z</time>
      </trkpt>
      <trkpt lat="48.7722" lon="2.29701">
        <ele>102</ele>
        <time>2013-11-10T13:41:42.515Z</time>
      </trkpt>
      <trkpt lat="48.7722" lon="2.29701">
        <ele>102</ele>
        <time>2013-11-10T13:41:43.126Z</time>
      </trkpt>
      <trkpt lat="48.77221" lon="2.297">
        <ele>102</ele>
        <time>2013-11-10T13:41:47.751Z</time>
      </trkpt>
      <trkpt lat="48.77221" lon="2.29699">
        <ele>102</ele>
        <time>2013-11-10T13:41:48.117Z</time>
      </trkpt>
      <trkpt lat="48.77221" lon="2.29699">
        <ele>102</ele>
        <time>2013-11-10T13:41:50.120Z</time>
      </trkpt>
      <trkpt lat="48.77222" lon="2.29699">
        <ele>102</ele>
        <time>2013-11-10T13:41:51.125Z</time>
      </trkpt>
      <trkpt lat="48.77222" lon="2.29699">
        <ele>102</ele>
        <time>2013-11-10T13:41:52.119Z</time>
      </trkpt>
      <trkpt lat="48.77229" lon="2.29691">
        <ele>102.1</ele>
        <time>2013-11-10T13:42:10.141Z</time>
      </trkpt>
      <trkpt lat="48.77229" lon="2.29691">
        <ele>102.1</ele>
        <time>2013-11-10T13:42:11.144Z</time>
      </trkpt>
      <trkpt lat="48.77229" lon="2.29691">
        <ele>101.8</ele>
        <time>2013-11-10T13:42:16.973Z</time>
      </trkpt>
      <trkpt lat="48.77229" lon="2.2969">
        <ele>101.6</ele>
        <time>2013-11-10T13:42:17.112Z</time>
      </trkpt>
      <trkpt lat="48.77225" lon="2.29679">
        <ele>100.8</ele>
        <time>2013-11-10T13:42:22.103Z</time>
      </trkpt>
      <trkpt lat="48.77224" lon="2.29676">
        <ele>100.7</ele>
        <time>2013-11-10T13:42:23.152Z</time>
      </trkpt>
      <trkpt lat="48.77222" lon="2.29662">
        <ele>100.4</ele>
        <time>2013-11-10T13:42:30.138Z</time>
      </trkpt>
      <trkpt lat="48.77222" lon="2.29661">
        <ele>100.4</ele>
        <time>2013-11-10T13:42:31.152Z</time>
      </trkpt>
      <trkpt lat="48.77219" lon="2.29649">
        <ele>101</ele>
        <time>2013-11-10T13:42:39.137Z</time>
      </trkpt>
      <trkpt lat="48.77218" lon="2.29648">
        <ele>101</ele>
        <time>2013-11-10T13:42:40.119Z</time>
      </trkpt>
      <trkpt lat="48.77223" lon="2.29638">
        <ele>101.4</ele>
        <time>2013-11-10T13:42:49.306Z</time>
      </trkpt>
      <trkpt lat="48.77224" lon="2.29636">
        <ele>101.4</ele>
        <time>2013-11-10T13:42:50.149Z</time>
      </trkpt>
      <trkpt lat="48.7723" lon="2.29627">
        <ele>101.9</ele>
        <time>2013-11-10T13:42:58.182Z</time>
      </trkpt>
      <trkpt lat="48.7723" lon="2.29626">
        <ele>101.9</ele>
        <time>2013-11-10T13:42:59.203Z</time>
      </trkpt>
      <trkpt lat="48.77231" lon="2.29614">
        <ele>99.5</ele>
        <time>2013-11-10T13:43:17.142Z</time>
      </trkpt>
      <trkpt lat="48.7723" lon="2.29612">
        <ele>99.3</ele>
        <time>2013-11-10T13:43:18.129Z</time>
      </trkpt>
      <trkpt lat="48.77224" lon="2.29602">
        <ele>98.9</ele>
        <time>2013-11-10T13:43:25.234Z</time>
      </trkpt>
      <trkpt lat="48.77224" lon="2.296">
        <ele>99</ele>
        <time>2013-11-10T13:43:26.190Z</time>
      </trkpt>
      <trkpt lat="48.77222" lon="2.29587">
        <ele>98</ele>
        <time>2013-11-10T13:43:34.190Z</time>
      </trkpt>
      <trkpt lat="48.77221" lon="2.29586">
        <ele>97.8</ele>
        <time>2013-11-10T13:43:35.187Z</time>
      </trkpt>
      <trkpt lat="48.77218" lon="2.29573">
        <ele>96.8</ele>
        <time>2013-11-10T13:43:46.179Z</time>
      </trkpt>
      <trkpt lat="48.77218" lon="2.29572">
        <ele>96.9</ele>
        <time>2013-11-10T13:43:47.179Z</time>
      </trkpt>
      <trkpt lat="48.77215" lon="2.2956">
        <ele>97.8</ele>
        <time>2013-11-10T13:43:57.149Z</time>
      </trkpt>
      <trkpt lat="48.77214" lon="2.29558">
        <ele>98</ele>
        <time>2013-11-10T13:43:58.179Z</time>
      </trkpt>
      <trkpt lat="48.7721" lon="2.29548">
        <ele>99.3</ele>
        <time>2013-11-10T13:44:04.172Z</time>
      </trkpt>
      <trkpt lat="48.77209" lon="2.29547">
        <ele>99.5</ele>
        <time>2013-11-10T13:44:05.114Z</time>
      </trkpt>
      <trkpt lat="48.77203" lon="2.2955">
        <ele>102.1</ele>
        <time>2013-11-10T13:44:23.441Z</time>
      </trkpt>
      <trkpt lat="48.77203" lon="2.29549">
        <ele>102.1</ele>
        <time>2013-11-10T13:44:24.158Z</time>
      </trkpt>
      <trkpt lat="48.77203" lon="2.2955">
        <ele>102.2</ele>
        <time>2013-11-10T13:44:31.159Z</time>
      </trkpt>
      <trkpt lat="48.77202" lon="2.2955">
        <ele>102.2</ele>
        <time>2013-11-10T13:44:32.160Z</time>
      </trkpt>
      <trkpt lat="48.77202" lon="2.2955">
        <ele>102.2</ele>
        <time>2013-11-10T13:44:33.153Z</time>
      </trkpt>
      <trkpt lat="48.77202" lon="2.29549">
        <ele>102.2</ele>
        <time>2013-11-10T13:44:34.148Z</time>
      </trkpt>
      <trkpt lat="48.77202" lon="2.29549">
        <ele>102.2</ele>
        <time>2013-11-10T13:44:35.149Z</time>
      </trkpt>
      <trkpt lat="48.77202" lon="2.29548">
        <ele>102.1</ele>
        <time>2013-11-10T13:44:36.165Z</time>
      </trkpt>
      <trkpt lat="48.77199" lon="2.29537">
        <ele>101.5</ele>
        <time>2013-11-10T13:44:46.105Z</time>
      </trkpt>
      <trkpt lat="48.77198" lon="2.29535">
        <ele>101.3</ele>
        <time>2013-11-10T13:44:47.116Z</time>
      </trkpt>
      <trkpt lat="48.77191" lon="2.2953">
        <ele>100.5</ele>
        <time>2013-11-10T13:44:51.115Z</time>
      </trkpt>
      <trkpt lat="48.77189" lon="2.29531">
        <ele>100.3</ele>
        <time>2013-11-10T13:44:52.171Z</time>
      </trkpt>
      <trkpt lat="48.7718" lon="2.2953">
        <ele>99.9</ele>
        <time>2013-11-10T13:44:58.118Z</time>
      </trkpt>
      <trkpt lat="48.77178" lon="2.29529">
        <ele>99.8</ele>
        <time>2013-11-10T13:44:59.132Z</time>
      </trkpt>
      <trkpt lat="48.77169" lon="2.29528">
        <ele>99.8</ele>
        <time>2013-11-10T13:45:02.113Z</time>
      </trkpt>
      <trkpt lat="48.77167" lon="2.29527">
        <ele>100</ele>
        <time>2013-11-10T13:45:03.113Z</time>
      </trkpt>
      <trkpt lat="48.77158" lon="2.29527">
        <ele>101.1</ele>
        <time>2013-11-10T13:45:08.118Z</time>
      </trkpt>
      <trkpt lat="48.77158" lon="2.29526">
        <ele>101.3</ele>
        <time>2013-11-10T13:45:09.120Z</time>
      </trkpt>
      <trkpt lat="48.77159" lon="2.29526">
        <ele>101.8</ele>
        <time>2013-11-10T13:45:11.951Z</time>
      </trkpt>
      <trkpt lat="48.77159" lon="2.29526">
        <ele>102</ele>
        <time>2013-11-10T13:45:12.151Z</time>
      </trkpt>
      <trkpt lat="48.77158" lon="2.29526">
        <ele>102.2</ele>
        <time>2013-11-10T13:45:13.141Z</time>
      </trkpt>
      <trkpt lat="48.7715" lon="2.29521">
        <ele>102.8</ele>
        <time>2013-11-10T13:45:18.136Z</time>
      </trkpt>
      <trkpt lat="48.77149" lon="2.29521">
        <ele>102.9</ele>
        <time>2013-11-10T13:45:19.123Z</time>
      </trkpt>
      <trkpt lat="48.77149" lon="2.2952">
        <ele>103.3</ele>
        <time>2013-11-10T13:45:23.120Z</time>
      </trkpt>
      <trkpt lat="48.77149" lon="2.2952">
        <ele>103.4</ele>
        <time>2013-11-10T13:45:24.126Z</time>
      </trkpt>
      <trkpt lat="48.77149" lon="2.2952">
        <ele>103.5</ele>
        <time>2013-11-10T13:45:25.148Z</time>
      </trkpt>
      <trkpt lat="48.77148" lon="2.2952">
        <ele>103.7</ele>
        <time>2013-11-10T13:45:26.127Z</time>
      </trkpt>
      <trkpt lat="48.77142" lon="2.29515">
        <ele>104.1</ele>
        <time>2013-11-10T13:45:29.130Z</time>
      </trkpt>
      <trkpt lat="48.7714" lon="2.29513">
        <ele>104.2</ele>
        <time>2013-11-10T13:45:30.150Z</time>
      </trkpt>
      <trkpt lat="48.77132" lon="2.29507">
        <ele>105.2</ele>
        <time>2013-11-10T13:45:34.188Z</time>
      </trkpt>
      <trkpt lat="48.7713" lon="2.29506">
        <ele>105.4</ele>
        <time>2013-11-10T13:45:35.182Z</time>
      </trkpt>
      <trkpt lat="48.77123" lon="2.295">
        <ele>106.5</ele>
        <time>2013-11-10T13:45:39.184Z</time>
      </trkpt>
      <trkpt lat="48.77121" lon="2.29498">
        <ele>106.8</ele>
        <time>2013-11-10T13:45:40.189Z</time>
      </trkpt>
      <trkpt lat="48.77119" lon="2.29486">
        <ele>107.4</ele>
        <time>2013-11-10T13:45:55.185Z</time>
      </trkpt>
      <trkpt lat="48.77119" lon="2.29485">
        <ele>107.4</ele>
        <time>2013-11-10T13:45:56.183Z</time>
      </trkpt>
      <trkpt lat="48.77117" lon="2.29473">
        <ele>106.7</ele>
        <time>2013-11-10T13:46:02.187Z</time>
      </trkpt>
      <trkpt lat="48.77116" lon="2.29471">
        <ele>106.6</ele>
        <time>2013-11-10T13:46:03.236Z</time>
      </trkpt>
      <trkpt lat="48.77109" lon="2.29464">
        <ele>104.3</ele>
        <time>2013-11-10T13:46:18.196Z</time>
      </trkpt>
      <trkpt lat="48.77106" lon="2.29462">
        <ele>104</ele>
        <time>2013-11-10T13:46:19.194Z</time>
      </trkpt>
      <trkpt lat="48.77098" lon="2.29458">
        <ele>102</ele>
        <time>2013-11-10T13:46:24.200Z</time>
      </trkpt>
      <trkpt lat="48.77097" lon="2.29457">
        <ele>101.6</ele>
        <time>2013-11-10T13:46:25.195Z</time>
      </trkpt>
      <trkpt lat="48.77089" lon="2.29452">
        <ele>99.6</ele>
        <time>2013-11-10T13:46:31.192Z</time>
      </trkpt>
      <trkpt lat="48.77087" lon="2.29451">
        <ele>99.3</ele>
        <time>2013-11-10T13:46:32.191Z</time>
      </trkpt>
      <trkpt lat="48.77079" lon="2.29446">
        <ele>97.9</ele>
        <time>2013-11-10T13:46:38.183Z</time>
      </trkpt>
      <trkpt lat="48.77078" lon="2.29445">
        <ele>97.8</ele>
        <time>2013-11-10T13:46:39.183Z</time>
      </trkpt>
      <trkpt lat="48.77071" lon="2.29438">
        <ele>97.5</ele>
        <time>2013-11-10T13:46:44.182Z</time>
      </trkpt>
      <trkpt lat="48.7707" lon="2.29437">
        <ele>97.5</ele>
        <time>2013-11-10T13:46:45.176Z</time>
      </trkpt>
      <trkpt lat="48.77064" lon="2.29428">
        <ele>97.2</ele>
        <time>2013-11-10T13:46:49.190Z</time>
      </trkpt>
      <trkpt lat="48.77062" lon="2.29426">
        <ele>97.1</ele>
        <time>2013-11-10T13:46:50.189Z</time>
      </trkpt>
      <trkpt lat="48.77056" lon="2.29419">
        <ele>97.1</ele>
        <time>2013-11-10T13:46:53.188Z</time>
      </trkpt>
      <trkpt lat="48.77055" lon="2.29417">
        <ele>97</ele>
        <time>2013-11-10T13:46:54.183Z</time>
      </trkpt>
      <trkpt lat="48.77048" lon="2.2941">
        <ele>96.3</ele>
        <time>2013-11-10T13:46:59.190Z</time>
      </trkpt>
      <trkpt lat="48.77047" lon="2.2941">
        <ele>96.3</ele>
        <time>2013-11-10T13:47:00.210Z</time>
      </trkpt>
      <trkpt lat="48.7704" lon="2.29401">
        <ele>96.2</ele>
        <time>2013-11-10T13:47:07.233Z</time>
      </trkpt>
      <trkpt lat="48.7704" lon="2.294">
        <ele>96.3</ele>
        <time>2013-11-10T13:47:08.222Z</time>
      </trkpt>
      <trkpt lat="48.77033" lon="2.29391">
        <ele>96.9</ele>
        <time>2013-11-10T13:47:17.231Z</time>
      </trkpt>
      <trkpt lat="48.77032" lon="2.2939">
        <ele>97</ele>
        <time>2013-11-10T13:47:18.225Z</time>
      </trkpt>
      <trkpt lat="48.77024" lon="2.29387">
        <ele>97.5</ele>
        <time>2013-11-10T13:47:25.239Z</time>
      </trkpt>
      <trkpt lat="48.77023" lon="2.29388">
        <ele>97.5</ele>
        <time>2013-11-10T13:47:26.163Z</time>
      </trkpt>
      <trkpt lat="48.77014" lon="2.29388">
        <ele>96.6</ele>
        <time>2013-11-10T13:47:44.175Z</time>
      </trkpt>
      <trkpt lat="48.77013" lon="2.29388">
        <ele>96.4</ele>
        <time>2013-11-10T13:47:45.187Z</time>
      </trkpt>
      <trkpt lat="48.77013" lon="2.29388">
        <ele>96.4</ele>
        <time>2013-11-10T13:47:46.186Z</time>
      </trkpt>
      <trkpt lat="48.77013" lon="2.29389">
        <ele>96.3</ele>
        <time>2013-11-10T13:47:47.182Z</time>
      </trkpt>
      <trkpt lat="48.77014" lon="2.29388">
        <ele>96.1</ele>
        <time>2013-11-10T13:47:50.184Z</time>
      </trkpt>
      <trkpt lat="48.77014" lon="2.29388">
        <ele>96</ele>
        <time>2013-11-10T13:47:51.184Z</time>
      </trkpt>
      <trkpt lat="48.77015" lon="2.29386">
        <ele>95.9</ele>
        <time>2013-11-10T13:47:54.182Z</time>
      </trkpt>
      <trkpt lat="48.77015" lon="2.29387">
        <ele>95.9</ele>
        <time>2013-11-10T13:47:55.174Z</time>
      </trkpt>
      <trkpt lat="48.77015" lon="2.29387">
        <ele>95.9</ele>
        <time>2013-11-10T13:47:56.175Z</time>
      </trkpt>
      <trkpt lat="48.77015" lon="2.29388">
        <ele>95.9</ele>
        <time>2013-11-10T13:47:57.296Z</time>
      </trkpt>
      <trkpt lat="48.77016" lon="2.2939">
        <ele>96.1</ele>
        <time>2013-11-10T13:48:02.313Z</time>
      </trkpt>
      <trkpt lat="48.77016" lon="2.2939">
        <ele>96.1</ele>
        <time>2013-11-10T13:48:03.269Z</time>
      </trkpt>
      <trkpt lat="48.77016" lon="2.29389">
        <ele>96.1</ele>
        <time>2013-11-10T13:48:04.168Z</time>
      </trkpt>
      <trkpt lat="48.77007" lon="2.29386">
        <ele>96.3</ele>
        <time>2013-11-10T13:48:16.270Z</time>
      </trkpt>
      <trkpt lat="48.77007" lon="2.29386">
        <ele>96.3</ele>
        <time>2013-11-10T13:48:17.162Z</time>
      </trkpt>
      <trkpt lat="48.76999" lon="2.29381">
        <ele>96.2</ele>
        <time>2013-11-10T13:48:27.568Z</time>
      </trkpt>
      <trkpt lat="48.76998" lon="2.29379">
        <ele>96.1</ele>
        <time>2013-11-10T13:48:28.153Z</time>
      </trkpt>
      <trkpt lat="48.76992" lon="2.29371">
        <ele>94.1</ele>
        <time>2013-11-10T13:48:39.241Z</time>
      </trkpt>
      <trkpt lat="48.76991" lon="2.29371">
        <ele>94</ele>
        <time>2013-11-10T13:48:40.243Z</time>
      </trkpt>
      <trkpt lat="48.76984" lon="2.29362">
        <ele>92</ele>
        <time>2013-11-10T13:48:51.196Z</time>
      </trkpt>
      <trkpt lat="48.76984" lon="2.29361">
        <ele>92</ele>
        <time>2013-11-10T13:48:52.188Z</time>
      </trkpt>
      <trkpt lat="48.76976" lon="2.29353">
        <ele>92.1</ele>
        <time>2013-11-10T13:49:03.248Z</time>
      </trkpt>
      <trkpt lat="48.76975" lon="2.29353">
        <ele>92</ele>
        <time>2013-11-10T13:49:04.186Z</time>
      </trkpt>
      <trkpt lat="48.76967" lon="2.2935">
        <ele>92.6</ele>
        <time>2013-11-10T13:49:10.191Z</time>
      </trkpt>
      <trkpt lat="48.76965" lon="2.29348">
        <ele>92.8</ele>
        <time>2013-11-10T13:49:11.189Z</time>
      </trkpt>
      <trkpt lat="48.76958" lon="2.29344">
        <ele>93.9</ele>
        <time>2013-11-10T13:49:15.181Z</time>
      </trkpt>
      <trkpt lat="48.76957" lon="2.29343">
        <ele>94.2</ele>
        <time>2013-11-10T13:49:16.148Z</time>
      </trkpt>
      <trkpt lat="48.76951" lon="2.29337">
        <ele>95.1</ele>
        <time>2013-11-10T13:49:19.206Z</time>
      </trkpt>
      <trkpt lat="48.76949" lon="2.29334">
        <ele>95.4</ele>
        <time>2013-11-10T13:49:20.155Z</time>
      </trkpt>
      <trkpt lat="48.76942" lon="2.29326">
        <ele>97.4</ele>
        <time>2013-11-10T13:49:27.288Z</time>
      </trkpt>
      <trkpt lat="48.76941" lon="2.29325">
        <ele>97.7</ele>
        <time>2013-11-10T13:49:28.276Z</time>
      </trkpt>
      <trkpt lat="48.76935" lon="2.29316">
        <ele>98.8</ele>
        <time>2013-11-10T13:49:37.281Z</time>
      </trkpt>
      <trkpt lat="48.76935" lon="2.29316">
        <ele>98.9</ele>
        <time>2013-11-10T13:49:38.197Z</time>
      </trkpt>
      <trkpt lat="48.76929" lon="2.29307">
        <ele>99.6</ele>
        <time>2013-11-10T13:49:45.196Z</time>
      </trkpt>
      <trkpt lat="48.76928" lon="2.29306">
        <ele>99.6</ele>
        <time>2013-11-10T13:49:46.198Z</time>
      </trkpt>
      <trkpt lat="48.7692" lon="2.29299">
        <ele>100.2</ele>
        <time>2013-11-10T13:49:56.951Z</time>
      </trkpt>
      <trkpt lat="48.7692" lon="2.29298">
        <ele>100.2</ele>
        <time>2013-11-10T13:49:57.195Z</time>
      </trkpt>
      <trkpt lat="48.76912" lon="2.29291">
        <ele>100.2</ele>
        <time>2013-11-10T13:50:04.147Z</time>
      </trkpt>
      <trkpt lat="48.76911" lon="2.29291">
        <ele>100.2</ele>
        <time>2013-11-10T13:50:05.168Z</time>
      </trkpt>
      <trkpt lat="48.76904" lon="2.29286">
        <ele>99</ele>
        <time>2013-11-10T13:50:12.271Z</time>
      </trkpt>
      <trkpt lat="48.76903" lon="2.29285">
        <ele>98.9</ele>
        <time>2013-11-10T13:50:13.222Z</time>
      </trkpt>
      <trkpt lat="48.76896" lon="2.29279">
        <ele>97.8</ele>
        <time>2013-11-10T13:50:24.178Z</time>
      </trkpt>
      <trkpt lat="48.76895" lon="2.29279">
        <ele>97.6</ele>
        <time>2013-11-10T13:50:25.176Z</time>
      </trkpt>
      <trkpt lat="48.76889" lon="2.29271">
        <ele>97.3</ele>
        <time>2013-11-10T13:50:34.211Z</time>
      </trkpt>
      <trkpt lat="48.76888" lon="2.29269">
        <ele>97.2</ele>
        <time>2013-11-10T13:50:35.187Z</time>
      </trkpt>
      <trkpt lat="48.76879" lon="2.29264">
        <ele>96.2</ele>
        <time>2013-11-10T13:50:43.189Z</time>
      </trkpt>
      <trkpt lat="48.76879" lon="2.29264">
        <ele>95.9</ele>
        <time>2013-11-10T13:50:44.199Z</time>
      </trkpt>
      <trkpt lat="48.76871" lon="2.29258">
        <ele>94.3</ele>
        <time>2013-11-10T13:51:01.962Z</time>
      </trkpt>
      <trkpt lat="48.7687" lon="2.29258">
        <ele>94.1</ele>
        <time>2013-11-10T13:51:02.145Z</time>
      </trkpt>
      <trkpt lat="48.76864" lon="2.2925">
        <ele>93.4</ele>
        <time>2013-11-10T13:51:07.164Z</time>
      </trkpt>
      <trkpt lat="48.76863" lon="2.29248">
        <ele>93.2</ele>
        <time>2013-11-10T13:51:08.201Z</time>
      </trkpt>
      <trkpt lat="48.76854" lon="2.29244">
        <ele>92.5</ele>
        <time>2013-11-10T13:51:14.205Z</time>
      </trkpt>
      <trkpt lat="48.76853" lon="2.29244">
        <ele>92.4</ele>
        <time>2013-11-10T13:51:15.189Z</time>
      </trkpt>
      <trkpt lat="48.76844" lon="2.29241">
        <ele>92.2</ele>
        <time>2013-11-10T13:51:20.189Z</time>
      </trkpt>
      <trkpt lat="48.76842" lon="2.2924">
        <ele>92.2</ele>
        <time>2013-11-10T13:51:21.204Z</time>
      </trkpt>
      <trkpt lat="48.76834" lon="2.29235">
        <ele>93</ele>
        <time>2013-11-10T13:51:25.184Z</time>
      </trkpt>
      <trkpt lat="48.76832" lon="2.29232">
        <ele>93.2</ele>
        <time>2013-11-10T13:51:26.210Z</time>
      </trkpt>
      <trkpt lat="48.76826" lon="2.29223">
        <ele>94.1</ele>
        <time>2013-11-10T13:51:29.189Z</time>
      </trkpt>
      <trkpt lat="48.76824" lon="2.2922">
        <ele>94.4</ele>
        <time>2013-11-10T13:51:30.276Z</time>
      </trkpt>
      <trkpt lat="48.76817" lon="2.29212">
        <ele>96.3</ele>
        <time>2013-11-10T13:51:38.176Z</time>
      </trkpt>
      <trkpt lat="48.76817" lon="2.29211">
        <ele>96.4</ele>
        <time>2013-11-10T13:51:39.204Z</time>
      </trkpt>
      <trkpt lat="48.7681" lon="2.29203">
        <ele>97</ele>
        <time>2013-11-10T13:51:47.562Z</time>
      </trkpt>
      <trkpt lat="48.7681" lon="2.29202">
        <ele>97</ele>
        <time>2013-11-10T13:51:48.192Z</time>
      </trkpt>
      <trkpt lat="48.76803" lon="2.29194">
        <ele>98.6</ele>
        <time>2013-11-10T13:51:59.205Z</time>
      </trkpt>
      <trkpt lat="48.76802" lon="2.29193">
        <ele>98.7</ele>
        <time>2013-11-10T13:52:00.270Z</time>
      </trkpt>
      <trkpt lat="48.76795" lon="2.29184">
        <ele>100.1</ele>
        <time>2013-11-10T13:52:10.194Z</time>
      </trkpt>
      <trkpt lat="48.76795" lon="2.29183">
        <ele>100.1</ele>
        <time>2013-11-10T13:52:11.191Z</time>
      </trkpt>
      <trkpt lat="48.76786" lon="2.2918">
        <ele>100.1</ele>
        <time>2013-11-10T13:52:22.199Z</time>
      </trkpt>
      <trkpt lat="48.76785" lon="2.29179">
        <ele>100.1</ele>
        <time>2013-11-10T13:52:22.317Z</time>
      </trkpt>
      <trkpt lat="48.76778" lon="2.29171">
        <ele>99.6</ele>
        <time>2013-11-10T13:52:35.142Z</time>
      </trkpt>
      <trkpt lat="48.76777" lon="2.29171">
        <ele>99.6</ele>
        <time>2013-11-10T13:52:36.181Z</time>
      </trkpt>
      <trkpt lat="48.76777" lon="2.2917">
        <ele>99.5</ele>
        <time>2013-11-10T13:52:40.176Z</time>
      </trkpt>
      <trkpt lat="48.76777" lon="2.2917">
        <ele>99.5</ele>
        <time>2013-11-10T13:52:41.175Z</time>
      </trkpt>
      <trkpt lat="48.76777" lon="2.2917">
        <ele>99.4</ele>
        <time>2013-11-10T13:52:42.356Z</time>
      </trkpt>
      <trkpt lat="48.76776" lon="2.2917">
        <ele>99.3</ele>
        <time>2013-11-10T13:52:43.182Z</time>
      </trkpt>
      <trkpt lat="48.7677" lon="2.29165">
        <ele>99</ele>
        <time>2013-11-10T13:52:46.186Z</time>
      </trkpt>
      <trkpt lat="48.76768" lon="2.29163">
        <ele>99</ele>
        <time>2013-11-10T13:52:47.184Z</time>
      </trkpt>
      <trkpt lat="48.76761" lon="2.29159">
        <ele>98.7</ele>
        <time>2013-11-10T13:52:53.180Z</time>
      </trkpt>
      <trkpt lat="48.76759" lon="2.29157">
        <ele>98.7</ele>
        <time>2013-11-10T13:52:54.182Z</time>
      </trkpt>
      <trkpt lat="48.76751" lon="2.29151">
        <ele>98.7</ele>
        <time>2013-11-10T13:52:58.194Z</time>
      </trkpt>
      <trkpt lat="48.76747" lon="2.29147">
        <ele>98.8</ele>
        <time>2013-11-10T13:52:59.192Z</time>
      </trkpt>
      <trkpt lat="48.76741" lon="2.2914">
        <ele>98.9</ele>
        <time>2013-11-10T13:53:01.968Z</time>
      </trkpt>
      <trkpt lat="48.76738" lon="2.29138">
        <ele>99</ele>
        <time>2013-11-10T13:53:02.132Z</time>
      </trkpt>
      <trkpt lat="48.76731" lon="2.2913">
        <ele>99.6</ele>
        <time>2013-11-10T13:53:12.305Z</time>
      </trkpt>
      <trkpt lat="48.7673" lon="2.2913">
        <ele>99.7</ele>
        <time>2013-11-10T13:53:13.185Z</time>
      </trkpt>
      <trkpt lat="48.76724" lon="2.29121">
        <ele>101.1</ele>
        <time>2013-11-10T13:53:26.241Z</time>
      </trkpt>
      <trkpt lat="48.76724" lon="2.29121">
        <ele>101.3</ele>
        <time>2013-11-10T13:53:27.205Z</time>
      </trkpt>
      <trkpt lat="48.76717" lon="2.29115">
        <ele>101.4</ele>
        <time>2013-11-10T13:53:37.404Z</time>
      </trkpt>
      <trkpt lat="48.76716" lon="2.29114">
        <ele>101.5</ele>
        <time>2013-11-10T13:53:38.128Z</time>
      </trkpt>
      <trkpt lat="48.76713" lon="2.29103">
        <ele>101.4</ele>
        <time>2013-11-10T13:54:15.159Z</time>
      </trkpt>
      <trkpt lat="48.76712" lon="2.29101">
        <ele>101.4</ele>
        <time>2013-11-10T13:54:16.157Z</time>
      </trkpt>
      <trkpt lat="48.7671" lon="2.29089">
        <ele>101.5</ele>
        <time>2013-11-10T13:54:21.974Z</time>
      </trkpt>
      <trkpt lat="48.76709" lon="2.29085">
        <ele>101.5</ele>
        <time>2013-11-10T13:54:22.121Z</time>
      </trkpt>
      <trkpt lat="48.76706" lon="2.29074">
        <ele>101.5</ele>
        <time>2013-11-10T13:54:28.121Z</time>
      </trkpt>
      <trkpt lat="48.76705" lon="2.29071">
        <ele>101.6</ele>
        <time>2013-11-10T13:54:29.120Z</time>
      </trkpt>
      <trkpt lat="48.76702" lon="2.29059">
        <ele>102.6</ele>
        <time>2013-11-10T13:54:39.147Z</time>
      </trkpt>
      <trkpt lat="48.76701" lon="2.29059">
        <ele>102.8</ele>
        <time>2013-11-10T13:54:40.155Z</time>
      </trkpt>
      <trkpt lat="48.76697" lon="2.29048">
        <ele>104.4</ele>
        <time>2013-11-10T13:54:48.151Z</time>
      </trkpt>
      <trkpt lat="48.76697" lon="2.29046">
        <ele>104.5</ele>
        <time>2013-11-10T13:54:49.250Z</time>
      </trkpt>
      <trkpt lat="48.76701" lon="2.29035">
        <ele>105.5</ele>
        <time>2013-11-10T13:54:57.161Z</time>
      </trkpt>
      <trkpt lat="48.76703" lon="2.29034">
        <ele>105.6</ele>
        <time>2013-11-10T13:54:58.157Z</time>
      </trkpt>
      <trkpt lat="48.7671" lon="2.29027">
        <ele>106</ele>
        <time>2013-11-10T13:55:07.046Z</time>
      </trkpt>
      <trkpt lat="48.76711" lon="2.29026">
        <ele>106.1</ele>
        <time>2013-11-10T13:55:07.187Z</time>
      </trkpt>
      <trkpt lat="48.76718" lon="2.2902">
        <ele>106.9</ele>
        <time>2013-11-10T13:55:16.193Z</time>
      </trkpt>
      <trkpt lat="48.76719" lon="2.29019">
        <ele>106.9</ele>
        <time>2013-11-10T13:55:17.191Z</time>
      </trkpt>
      <trkpt lat="48.76726" lon="2.29015">
        <ele>107.8</ele>
        <time>2013-11-10T13:55:28.197Z</time>
      </trkpt>
      <trkpt lat="48.76728" lon="2.29015">
        <ele>107.9</ele>
        <time>2013-11-10T13:55:29.197Z</time>
      </trkpt>
      <trkpt lat="48.76735" lon="2.29007">
        <ele>108.5</ele>
        <time>2013-11-10T13:55:37.667Z</time>
      </trkpt>
      <trkpt lat="48.76736" lon="2.29006">
        <ele>108.6</ele>
        <time>2013-11-10T13:55:38.204Z</time>
      </trkpt>
      <trkpt lat="48.76743" lon="2.28997">
        <ele>109.5</ele>
        <time>2013-11-10T13:55:46.192Z</time>
      </trkpt>
      <trkpt lat="48.76743" lon="2.28996">
        <ele>109.5</ele>
        <time>2013-11-10T13:55:47.152Z</time>
      </trkpt>
      <trkpt lat="48.76748" lon="2.28987">
        <ele>109.9</ele>
        <time>2013-11-10T13:55:54.200Z</time>
      </trkpt>
      <trkpt lat="48.76749" lon="2.28986">
        <ele>109.9</ele>
        <time>2013-11-10T13:55:55.200Z</time>
      </trkpt>
      <trkpt lat="48.76757" lon="2.28982">
        <ele>110.5</ele>
        <time>2013-11-10T13:56:06.197Z</time>
      </trkpt>
      <trkpt lat="48.76758" lon="2.28982">
        <ele>110.6</ele>
        <time>2013-11-10T13:56:07.193Z</time>
      </trkpt>
      <trkpt lat="48.76766" lon="2.28975">
        <ele>111.2</ele>
        <time>2013-11-10T13:56:14.199Z</time>
      </trkpt>
      <trkpt lat="48.76767" lon="2.28974">
        <ele>111.2</ele>
        <time>2013-11-10T13:56:15.208Z</time>
      </trkpt>
      <trkpt lat="48.76775" lon="2.28969">
        <ele>111.6</ele>
        <time>2013-11-10T13:56:20.213Z</time>
      </trkpt>
      <trkpt lat="48.76777" lon="2.28968">
        <ele>111.7</ele>
        <time>2013-11-10T13:56:21.234Z</time>
      </trkpt>
      <trkpt lat="48.76784" lon="2.28962">
        <ele>111.8</ele>
        <time>2013-11-10T13:56:27.541Z</time>
      </trkpt>
      <trkpt lat="48.76785" lon="2.28961">
        <ele>111.8</ele>
        <time>2013-11-10T13:56:28.227Z</time>
      </trkpt>
      <trkpt lat="48.76792" lon="2.28955">
        <ele>112.1</ele>
        <time>2013-11-10T13:56:33.234Z</time>
      </trkpt>
      <trkpt lat="48.76794" lon="2.28953">
        <ele>112.3</ele>
        <time>2013-11-10T13:56:34.229Z</time>
      </trkpt>
      <trkpt lat="48.76801" lon="2.28946">
        <ele>113.2</ele>
        <time>2013-11-10T13:56:40.235Z</time>
      </trkpt>
      <trkpt lat="48.76801" lon="2.28945">
        <ele>113.3</ele>
        <time>2013-11-10T13:56:41.206Z</time>
      </trkpt>
      <trkpt lat="48.76809" lon="2.28942">
        <ele>114.3</ele>
        <time>2013-11-10T13:56:50.181Z</time>
      </trkpt>
      <trkpt lat="48.7681" lon="2.28941">
        <ele>114.4</ele>
        <time>2013-11-10T13:56:51.194Z</time>
      </trkpt>
      <trkpt lat="48.76818" lon="2.28935">
        <ele>114.8</ele>
        <time>2013-11-10T13:56:59.176Z</time>
      </trkpt>
      <trkpt lat="48.76819" lon="2.28933">
        <ele>114.9</ele>
        <time>2013-11-10T13:57:00.174Z</time>
      </trkpt>
      <trkpt lat="48.76826" lon="2.28926">
        <ele>115.2</ele>
        <time>2013-11-10T13:57:07.134Z</time>
      </trkpt>
      <trkpt lat="48.76827" lon="2.28925">
        <ele>115.2</ele>
        <time>2013-11-10T13:57:08.185Z</time>
      </trkpt>
      <trkpt lat="48.76835" lon="2.28921">
        <ele>115.4</ele>
        <time>2013-11-10T13:57:14.154Z</time>
      </trkpt>
      <trkpt lat="48.76836" lon="2.2892">
        <ele>115.4</ele>
        <time>2013-11-10T13:57:15.197Z</time>
      </trkpt>
      <trkpt lat="48.76843" lon="2.28914">
        <ele>115.3</ele>
        <time>2013-11-10T13:57:22.184Z</time>
      </trkpt>
      <trkpt lat="48.76845" lon="2.28912">
        <ele>115.4</ele>
        <time>2013-11-10T13:57:22.234Z</time>
      </trkpt>
      <trkpt lat="48.76853" lon="2.28908">
        <ele>115.9</ele>
        <time>2013-11-10T13:57:26.207Z</time>
      </trkpt>
      <trkpt lat="48.76856" lon="2.28907">
        <ele>116.1</ele>
        <time>2013-11-10T13:57:27.392Z</time>
      </trkpt>
      <trkpt lat="48.76864" lon="2.28904">
        <ele>117</ele>
        <time>2013-11-10T13:57:31.214Z</time>
      </trkpt>
      <trkpt lat="48.76866" lon="2.28903">
        <ele>117.2</ele>
        <time>2013-11-10T13:57:32.213Z</time>
      </trkpt>
      <trkpt lat="48.76873" lon="2.28897">
        <ele>118.8</ele>
        <time>2013-11-10T13:57:39.197Z</time>
      </trkpt>
      <trkpt lat="48.76875" lon="2.28896">
        <ele>119</ele>
        <time>2013-11-10T13:57:40.200Z</time>
      </trkpt>
      <trkpt lat="48.76883" lon="2.28892">
        <ele>120.3</ele>
        <time>2013-11-10T13:57:45.200Z</time>
      </trkpt>
      <trkpt lat="48.76885" lon="2.28891">
        <ele>120.5</ele>
        <time>2013-11-10T13:57:46.207Z</time>
      </trkpt>
      <trkpt lat="48.76892" lon="2.28885">
        <ele>121.9</ele>
        <time>2013-11-10T13:57:52.770Z</time>
      </trkpt>
      <trkpt lat="48.76893" lon="2.28884">
        <ele>122.1</ele>
        <time>2013-11-10T13:57:53.200Z</time>
      </trkpt>
      <trkpt lat="48.769" lon="2.28877">
        <ele>123.3</ele>
        <time>2013-11-10T13:57:59.194Z</time>
      </trkpt>
      <trkpt lat="48.769" lon="2.28876">
        <ele>123.5</ele>
        <time>2013-11-10T13:58:00.175Z</time>
      </trkpt>
      <trkpt lat="48.76907" lon="2.28869">
        <ele>125</ele>
        <time>2013-11-10T13:58:09.200Z</time>
      </trkpt>
      <trkpt lat="48.76908" lon="2.28868">
        <ele>125.2</ele>
        <time>2013-11-10T13:58:10.192Z</time>
      </trkpt>
      <trkpt lat="48.76916" lon="2.28864">
        <ele>127.1</ele>
        <time>2013-11-10T13:58:18.146Z</time>
      </trkpt>
      <trkpt lat="48.76917" lon="2.28863">
        <ele>127.2</ele>
        <time>2013-11-10T13:58:19.196Z</time>
      </trkpt>
      <trkpt lat="48.76923" lon="2.28854">
        <ele>126.7</ele>
        <time>2013-11-10T13:58:34.192Z</time>
      </trkpt>
      <trkpt lat="48.76923" lon="2.28852">
        <ele>126.5</ele>
        <time>2013-11-10T13:58:35.184Z</time>
      </trkpt>
      <trkpt lat="48.76929" lon="2.28845">
        <ele>125.3</ele>
        <time>2013-11-10T13:58:42.660Z</time>
      </trkpt>
      <trkpt lat="48.7693" lon="2.28843">
        <ele>125.1</ele>
        <time>2013-11-10T13:58:43.185Z</time>
      </trkpt>
      <trkpt lat="48.76937" lon="2.28836">
        <ele>124.5</ele>
        <time>2013-11-10T13:58:57.151Z</time>
      </trkpt>
      <trkpt lat="48.76938" lon="2.28836">
        <ele>124.5</ele>
        <time>2013-11-10T13:58:58.193Z</time>
      </trkpt>
      <trkpt lat="48.76946" lon="2.2883">
        <ele>124.5</ele>
        <time>2013-11-10T13:59:05.190Z</time>
      </trkpt>
      <trkpt lat="48.76946" lon="2.28829">
        <ele>124.4</ele>
        <time>2013-11-10T13:59:06.187Z</time>
      </trkpt>
      <trkpt lat="48.76954" lon="2.28827">
        <ele>124.4</ele>
        <time>2013-11-10T13:59:13.199Z</time>
      </trkpt>
      <trkpt lat="48.76955" lon="2.28826">
        <ele>124.4</ele>
        <time>2013-11-10T13:59:14.196Z</time>
      </trkpt>
      <trkpt lat="48.76963" lon="2.28818">
        <ele>124</ele>
        <time>2013-11-10T13:59:22.113Z</time>
      </trkpt>
      <trkpt lat="48.76964" lon="2.28818">
        <ele>123.9</ele>
        <time>2013-11-10T13:59:22.218Z</time>
      </trkpt>
      <trkpt lat="48.76971" lon="2.28812">
        <ele>123.4</ele>
        <time>2013-11-10T13:59:30.190Z</time>
      </trkpt>
      <trkpt lat="48.76972" lon="2.28811">
        <ele>123.4</ele>
        <time>2013-11-10T13:59:31.187Z</time>
      </trkpt>
      <trkpt lat="48.76977" lon="2.28803">
        <ele>123.2</ele>
        <time>2013-11-10T13:59:37.294Z</time>
      </trkpt>
      <trkpt lat="48.76978" lon="2.28802">
        <ele>123.2</ele>
        <time>2013-11-10T13:59:38.195Z</time>
      </trkpt>
      <trkpt lat="48.76985" lon="2.28793">
        <ele>123.4</ele>
        <time>2013-11-10T13:59:45.191Z</time>
      </trkpt>
      <trkpt lat="48.76986" lon="2.28791">
        <ele>123.4</ele>
        <time>2013-11-10T13:59:46.191Z</time>
      </trkpt>
      <trkpt lat="48.76994" lon="2.28786">
        <ele>123.8</ele>
        <time>2013-11-10T13:59:52.471Z</time>
      </trkpt>
      <trkpt lat="48.76995" lon="2.28785">
        <ele>123.8</ele>
        <time>2013-11-10T13:59:53.193Z</time>
      </trkpt>
      <trkpt lat="48.77002" lon="2.28778">
        <ele>124.1</ele>
        <time>2013-11-10T14:00:01.979Z</time>
      </trkpt>
      <trkpt lat="48.77003" lon="2.28777">
        <ele>124.1</ele>
        <time>2013-11-10T14:00:02.156Z</time>
      </trkpt>
      <trkpt lat="48.77011" lon="2.28772">
        <ele>124.1</ele>
        <time>2013-11-10T14:00:10.200Z</time>
      </trkpt>
      <trkpt lat="48.77012" lon="2.28771">
        <ele>124.1</ele>
        <time>2013-11-10T14:00:11.198Z</time>
      </trkpt>
      <trkpt lat="48.77019" lon="2.28765">
        <ele>124.1</ele>
        <time>2013-11-10T14:00:17.086Z</time>
      </trkpt>
      <trkpt lat="48.77021" lon="2.28764">
        <ele>124.1</ele>
        <time>2013-11-10T14:00:17.185Z</time>
      </trkpt>
      <trkpt lat="48.77028" lon="2.28757">
        <ele>124.5</ele>
        <time>2013-11-10T14:00:28.197Z</time>
      </trkpt>
      <trkpt lat="48.77029" lon="2.28757">
        <ele>124.6</ele>
        <time>2013-11-10T14:00:29.196Z</time>
      </trkpt>
      <trkpt lat="48.77036" lon="2.28751">
        <ele>125.1</ele>
        <time>2013-11-10T14:00:36.217Z</time>
      </trkpt>
      <trkpt lat="48.77037" lon="2.2875">
        <ele>125.1</ele>
        <time>2013-11-10T14:00:37.192Z</time>
      </trkpt>
      <trkpt lat="48.77044" lon="2.28746">
        <ele>125.3</ele>
        <time>2013-11-10T14:00:42.652Z</time>
      </trkpt>
      <trkpt lat="48.77046" lon="2.28746">
        <ele>125.4</ele>
        <time>2013-11-10T14:00:43.198Z</time>
      </trkpt>
      <trkpt lat="48.77054" lon="2.28741">
        <ele>125.5</ele>
        <time>2013-11-10T14:00:49.192Z</time>
      </trkpt>
      <trkpt lat="48.77056" lon="2.28741">
        <ele>125.5</ele>
        <time>2013-11-10T14:00:50.198Z</time>
      </trkpt>
      <trkpt lat="48.77063" lon="2.28734">
        <ele>125.5</ele>
        <time>2013-11-10T14:00:58.191Z</time>
      </trkpt>
      <trkpt lat="48.77064" lon="2.28733">
        <ele>125.5</ele>
        <time>2013-11-10T14:00:59.192Z</time>
      </trkpt>
      <trkpt lat="48.77073" lon="2.28732">
        <ele>126.2</ele>
        <time>2013-11-10T14:01:10.199Z</time>
      </trkpt>
      <trkpt lat="48.77074" lon="2.28733">
        <ele>126.3</ele>
        <time>2013-11-10T14:01:11.194Z</time>
      </trkpt>
      <trkpt lat="48.77075" lon="2.28746">
        <ele>127.1</ele>
        <time>2013-11-10T14:01:23.159Z</time>
      </trkpt>
      <trkpt lat="48.77075" lon="2.28746">
        <ele>127</ele>
        <time>2013-11-10T14:01:24.160Z</time>
      </trkpt>
      <trkpt lat="48.7708" lon="2.28757">
        <ele>125.6</ele>
        <time>2013-11-10T14:01:35.156Z</time>
      </trkpt>
      <trkpt lat="48.7708" lon="2.28759">
        <ele>125.6</ele>
        <time>2013-11-10T14:01:36.144Z</time>
      </trkpt>
      <trkpt lat="48.7708" lon="2.28772">
        <ele>125</ele>
        <time>2013-11-10T14:01:42.710Z</time>
      </trkpt>
      <trkpt lat="48.77081" lon="2.28772">
        <ele>124.9</ele>
        <time>2013-11-10T14:01:43.155Z</time>
      </trkpt>
      <trkpt lat="48.77088" lon="2.28779">
        <ele>124.5</ele>
        <time>2013-11-10T14:01:50.130Z</time>
      </trkpt>
      <trkpt lat="48.77088" lon="2.2878">
        <ele>124.4</ele>
        <time>2013-11-10T14:01:51.166Z</time>
      </trkpt>
      <trkpt lat="48.77092" lon="2.28791">
        <ele>124.5</ele>
        <time>2013-11-10T14:01:58.128Z</time>
      </trkpt>
      <trkpt lat="48.77093" lon="2.28793">
        <ele>124.5</ele>
        <time>2013-11-10T14:01:59.189Z</time>
      </trkpt>
      <trkpt lat="48.77094" lon="2.28807">
        <ele>123.5</ele>
        <time>2013-11-10T14:02:09.186Z</time>
      </trkpt>
      <trkpt lat="48.77094" lon="2.28808">
        <ele>123.4</ele>
        <time>2013-11-10T14:02:10.188Z</time>
      </trkpt>
      <trkpt lat="48.77094" lon="2.28821">
        <ele>122.3</ele>
        <time>2013-11-10T14:02:22.487Z</time>
      </trkpt>
      <trkpt lat="48.77094" lon="2.28823">
        <ele>122.1</ele>
        <time>2013-11-10T14:02:23.182Z</time>
      </trkpt>
      <trkpt lat="48.77093" lon="2.28834">
        <ele>121.4</ele>
        <time>2013-11-10T14:02:27.490Z</time>
      </trkpt>
      <trkpt lat="48.77093" lon="2.28836">
        <ele>121.2</ele>
        <time>2013-11-10T14:02:28.181Z</time>
      </trkpt>
      <trkpt lat="48.77093" lon="2.28848">
        <ele>120.1</ele>
        <time>2013-11-10T14:02:34.143Z</time>
      </trkpt>
      <trkpt lat="48.77094" lon="2.2885">
        <ele>119.9</ele>
        <time>2013-11-10T14:02:35.179Z</time>
      </trkpt>
      <trkpt lat="48.77095" lon="2.28861">
        <ele>120.2</ele>
        <time>2013-11-10T14:02:40.184Z</time>
      </trkpt>
      <trkpt lat="48.77095" lon="2.28864">
        <ele>120.3</ele>
        <time>2013-11-10T14:02:41.186Z</time>
      </trkpt>
      <trkpt lat="48.77097" lon="2.28875">
        <ele>120.8</ele>
        <time>2013-11-10T14:02:46.184Z</time>
      </trkpt>
      <trkpt lat="48.77097" lon="2.28878">
        <ele>120.9</ele>
        <time>2013-11-10T14:02:47.185Z</time>
      </trkpt>
      <trkpt lat="48.77099" lon="2.28891">
        <ele>121.5</ele>
        <time>2013-11-10T14:02:52.583Z</time>
      </trkpt>
      <trkpt lat="48.771" lon="2.28894">
        <ele>121.6</ele>
        <time>2013-11-10T14:02:53.185Z</time>
      </trkpt>
      <trkpt lat="48.77099" lon="2.28907">
        <ele>122.1</ele>
        <time>2013-11-10T14:02:59.189Z</time>
      </trkpt>
      <trkpt lat="48.77099" lon="2.28909">
        <ele>122.1</ele>
        <time>2013-11-10T14:03:00.232Z</time>
      </trkpt>
      <trkpt lat="48.771" lon="2.28921">
        <ele>122.3</ele>
        <time>2013-11-10T14:03:10.153Z</time>
      </trkpt>
      <trkpt lat="48.771" lon="2.28922">
        <ele>122.2</ele>
        <time>2013-11-10T14:03:11.194Z</time>
      </trkpt>
      <trkpt lat="48.77102" lon="2.28934">
        <ele>122.1</ele>
        <time>2013-11-10T14:03:20.253Z</time>
      </trkpt>
      <trkpt lat="48.77103" lon="2.28936">
        <ele>122.1</ele>
        <time>2013-11-10T14:03:21.185Z</time>
      </trkpt>
      <trkpt lat="48.77105" lon="2.28949">
        <ele>122</ele>
        <time>2013-11-10T14:03:27.280Z</time>
      </trkpt>
      <trkpt lat="48.77105" lon="2.2895">
        <ele>122</ele>
        <time>2013-11-10T14:03:28.183Z</time>
      </trkpt>
      <trkpt lat="48.77109" lon="2.28962">
        <ele>122.2</ele>
        <time>2013-11-10T14:03:36.405Z</time>
      </trkpt>
      <trkpt lat="48.77109" lon="2.28962">
        <ele>122.2</ele>
        <time>2013-11-10T14:03:37.174Z</time>
      </trkpt>
      <trkpt lat="48.77113" lon="2.28974">
        <ele>121.1</ele>
        <time>2013-11-10T14:03:47.320Z</time>
      </trkpt>
      <trkpt lat="48.77113" lon="2.28975">
        <ele>121</ele>
        <time>2013-11-10T14:03:48.169Z</time>
      </trkpt>
      <trkpt lat="48.77115" lon="2.28988">
        <ele>120.9</ele>
        <time>2013-11-10T14:03:55.166Z</time>
      </trkpt>
      <trkpt lat="48.77115" lon="2.2899">
        <ele>121</ele>
        <time>2013-11-10T14:03:56.177Z</time>
      </trkpt>
      <trkpt lat="48.77117" lon="2.29003">
        <ele>122.1</ele>
        <time>2013-11-10T14:04:01.172Z</time>
      </trkpt>
      <trkpt lat="48.77117" lon="2.29005">
        <ele>122.3</ele>
        <time>2013-11-10T14:04:02.141Z</time>
      </trkpt>
      <trkpt lat="48.77117" lon="2.29018">
        <ele>123.3</ele>
        <time>2013-11-10T14:04:10.188Z</time>
      </trkpt>
      <trkpt lat="48.77116" lon="2.2902">
        <ele>123.3</ele>
        <time>2013-11-10T14:04:11.191Z</time>
      </trkpt>
      <trkpt lat="48.77118" lon="2.29033">
        <ele>123.6</ele>
        <time>2013-11-10T14:04:19.191Z</time>
      </trkpt>
      <trkpt lat="48.77119" lon="2.29035">
        <ele>123.5</ele>
        <time>2013-11-10T14:04:20.193Z</time>
      </trkpt>
      <trkpt lat="48.77121" lon="2.29046">
        <ele>123</ele>
        <time>2013-11-10T14:04:29.189Z</time>
      </trkpt>
      <trkpt lat="48.77121" lon="2.29048">
        <ele>122.9</ele>
        <time>2013-11-10T14:04:30.185Z</time>
      </trkpt>
      <trkpt lat="48.77122" lon="2.2906">
        <ele>122</ele>
        <time>2013-11-10T14:04:40.203Z</time>
      </trkpt>
      <trkpt lat="48.77123" lon="2.29062">
        <ele>122.1</ele>
        <time>2013-11-10T14:04:41.188Z</time>
      </trkpt>
      <trkpt lat="48.77125" lon="2.29074">
        <ele>122.7</ele>
        <time>2013-11-10T14:04:46.188Z</time>
      </trkpt>
      <trkpt lat="48.77126" lon="2.29076">
        <ele>122.9</ele>
        <time>2013-11-10T14:04:47.169Z</time>
      </trkpt>
      <trkpt lat="48.77126" lon="2.2909">
        <ele>123.8</ele>
        <time>2013-11-10T14:04:54.190Z</time>
      </trkpt>
      <trkpt lat="48.77126" lon="2.2909">
        <ele>123.9</ele>
        <time>2013-11-10T14:04:55.190Z</time>
      </trkpt>
      <trkpt lat="48.77127" lon="2.29102">
        <ele>124.8</ele>
        <time>2013-11-10T14:05:01.980Z</time>
      </trkpt>
      <trkpt lat="48.77127" lon="2.29106">
        <ele>124.9</ele>
        <time>2013-11-10T14:05:02.152Z</time>
      </trkpt>
      <trkpt lat="48.7713" lon="2.29118">
        <ele>125.7</ele>
        <time>2013-11-10T14:05:08.193Z</time>
      </trkpt>
      <trkpt lat="48.7713" lon="2.29119">
        <ele>125.7</ele>
        <time>2013-11-10T14:05:09.190Z</time>
      </trkpt>
      <trkpt lat="48.77131" lon="2.29119">
        <ele>125.4</ele>
        <time>2013-11-10T14:05:14.189Z</time>
      </trkpt>
      <trkpt lat="48.77131" lon="2.29119">
        <ele>125.3</ele>
        <time>2013-11-10T14:05:15.189Z</time>
      </trkpt>
      <trkpt lat="48.77131" lon="2.29119">
        <ele>125.3</ele>
        <time>2013-11-10T14:05:17.097Z</time>
      </trkpt>
      <trkpt lat="48.77131" lon="2.2912">
        <ele>125.2</ele>
        <time>2013-11-10T14:05:17.252Z</time>
      </trkpt>
      <trkpt lat="48.77134" lon="2.29132">
        <ele>123.1</ele>
        <time>2013-11-10T14:05:32.254Z</time>
      </trkpt>
      <trkpt lat="48.77134" lon="2.29133">
        <ele>122.8</ele>
        <time>2013-11-10T14:05:33.192Z</time>
      </trkpt>
      <trkpt lat="48.77134" lon="2.29145">
        <ele>120.4</ele>
        <time>2013-11-10T14:05:44.189Z</time>
      </trkpt>
      <trkpt lat="48.77134" lon="2.29147">
        <ele>120.1</ele>
        <time>2013-11-10T14:05:45.191Z</time>
      </trkpt>
      <trkpt lat="48.77138" lon="2.29159">
        <ele>118.2</ele>
        <time>2013-11-10T14:05:54.189Z</time>
      </trkpt>
      <trkpt lat="48.77139" lon="2.29161">
        <ele>118</ele>
        <time>2013-11-10T14:05:55.193Z</time>
      </trkpt>
      <trkpt lat="48.7714" lon="2.29173">
        <ele>116.8</ele>
        <time>2013-11-10T14:06:02.264Z</time>
      </trkpt>
      <trkpt lat="48.7714" lon="2.29175">
        <ele>116.6</ele>
        <time>2013-11-10T14:06:03.193Z</time>
      </trkpt>
      <trkpt lat="48.7714" lon="2.29188">
        <ele>114.4</ele>
        <time>2013-11-10T14:06:22.186Z</time>
      </trkpt>
      <trkpt lat="48.77141" lon="2.2919">
        <ele>114.3</ele>
        <time>2013-11-10T14:06:22.241Z</time>
      </trkpt>
      <trkpt lat="48.77143" lon="2.29202">
        <ele>113.8</ele>
        <time>2013-11-10T14:06:26.186Z</time>
      </trkpt>
      <trkpt lat="48.77144" lon="2.29205">
        <ele>113.7</ele>
        <time>2013-11-10T14:06:27.347Z</time>
      </trkpt>
      <trkpt lat="48.77148" lon="2.29215">
        <ele>112.2</ele>
        <time>2013-11-10T14:06:36.220Z</time>
      </trkpt>
      <trkpt lat="48.77149" lon="2.29217">
        <ele>112.1</ele>
        <time>2013-11-10T14:06:37.191Z</time>
      </trkpt>
      <trkpt lat="48.77153" lon="2.29228">
        <ele>111.2</ele>
        <time>2013-11-10T14:06:43.192Z</time>
      </trkpt>
      <trkpt lat="48.77154" lon="2.2923">
        <ele>111</ele>
        <time>2013-11-10T14:06:44.425Z</time>
      </trkpt>
      <trkpt lat="48.77155" lon="2.29243">
        <ele>108.7</ele>
        <time>2013-11-10T14:06:54.192Z</time>
      </trkpt>
      <trkpt lat="48.77156" lon="2.29244">
        <ele>108.5</ele>
        <time>2013-11-10T14:06:55.192Z</time>
      </trkpt>
      <trkpt lat="48.77158" lon="2.29257">
        <ele>107.4</ele>
        <time>2013-11-10T14:07:05.187Z</time>
      </trkpt>
      <trkpt lat="48.77158" lon="2.29259">
        <ele>107.3</ele>
        <time>2013-11-10T14:07:06.182Z</time>
      </trkpt>
      <trkpt lat="48.77159" lon="2.29272">
        <ele>105.6</ele>
        <time>2013-11-10T14:07:17.504Z</time>
      </trkpt>
      <trkpt lat="48.77158" lon="2.29273">
        <ele>105.5</ele>
        <time>2013-11-10T14:07:18.188Z</time>
      </trkpt>
      <trkpt lat="48.77157" lon="2.29286">
        <ele>102.9</ele>
        <time>2013-11-10T14:07:29.184Z</time>
      </trkpt>
      <trkpt lat="48.77158" lon="2.29288">
        <ele>102.6</ele>
        <time>2013-11-10T14:07:30.183Z</time>
      </trkpt>
      <trkpt lat="48.7716" lon="2.293">
        <ele>100.9</ele>
        <time>2013-11-10T14:07:36.187Z</time>
      </trkpt>
      <trkpt lat="48.7716" lon="2.29304">
        <ele>100.7</ele>
        <time>2013-11-10T14:07:37.184Z</time>
      </trkpt>
      <trkpt lat="48.77161" lon="2.29316">
        <ele>100.3</ele>
        <time>2013-11-10T14:07:41.182Z</time>
      </trkpt>
      <trkpt lat="48.77161" lon="2.29318">
        <ele>100.3</ele>
        <time>2013-11-10T14:07:42.182Z</time>
      </trkpt>
      <trkpt lat="48.77165" lon="2.2933">
        <ele>99.6</ele>
        <time>2013-11-10T14:07:50.190Z</time>
      </trkpt>
      <trkpt lat="48.77166" lon="2.29331">
        <ele>99.5</ele>
        <time>2013-11-10T14:07:51.191Z</time>
      </trkpt>
      <trkpt lat="48.77173" lon="2.29327">
        <ele>99.2</ele>
        <time>2013-11-10T14:08:00.229Z</time>
      </trkpt>
      <trkpt lat="48.77174" lon="2.29325">
        <ele>99.2</ele>
        <time>2013-11-10T14:08:01.200Z</time>
      </trkpt>
      <trkpt lat="48.77182" lon="2.29319">
        <ele>98.9</ele>
        <time>2013-11-10T14:08:08.193Z</time>
      </trkpt>
      <trkpt lat="48.77183" lon="2.29318">
        <ele>98.9</ele>
        <time>2013-11-10T14:08:09.194Z</time>
      </trkpt>
      <trkpt lat="48.77191" lon="2.29315">
        <ele>99.1</ele>
        <time>2013-11-10T14:08:15.194Z</time>
      </trkpt>
      <trkpt lat="48.77192" lon="2.29314">
        <ele>99</ele>
        <time>2013-11-10T14:08:16.190Z</time>
      </trkpt>
      <trkpt lat="48.77199" lon="2.29308">
        <ele>98.7</ele>
        <time>2013-11-10T14:08:23.186Z</time>
      </trkpt>
      <trkpt lat="48.77201" lon="2.29308">
        <ele>98.7</ele>
        <time>2013-11-10T14:08:24.187Z</time>
      </trkpt>
      <trkpt lat="48.77208" lon="2.29301">
        <ele>98.7</ele>
        <time>2013-11-10T14:08:33.192Z</time>
      </trkpt>
      <trkpt lat="48.77209" lon="2.29301">
        <ele>98.7</ele>
        <time>2013-11-10T14:08:34.192Z</time>
      </trkpt>
      <trkpt lat="48.77217" lon="2.29303">
        <ele>97.8</ele>
        <time>2013-11-10T14:08:45.255Z</time>
      </trkpt>
      <trkpt lat="48.77218" lon="2.29302">
        <ele>97.7</ele>
        <time>2013-11-10T14:08:46.247Z</time>
      </trkpt>
      <trkpt lat="48.77224" lon="2.29294">
        <ele>96.8</ele>
        <time>2013-11-10T14:08:54.268Z</time>
      </trkpt>
      <trkpt lat="48.77225" lon="2.29293">
        <ele>96.4</ele>
        <time>2013-11-10T14:08:55.253Z</time>
      </trkpt>
      <trkpt lat="48.7723" lon="2.29281">
        <ele>94.6</ele>
        <time>2013-11-10T14:09:03.225Z</time>
      </trkpt>
      <trkpt lat="48.7723" lon="2.2928">
        <ele>94.4</ele>
        <time>2013-11-10T14:09:04.219Z</time>
      </trkpt>
      <trkpt lat="48.77235" lon="2.2927">
        <ele>92.1</ele>
        <time>2013-11-10T14:09:16.197Z</time>
      </trkpt>
      <trkpt lat="48.77236" lon="2.29269">
        <ele>91.9</ele>
        <time>2013-11-10T14:09:17.231Z</time>
      </trkpt>
      <trkpt lat="48.77239" lon="2.29256">
        <ele>89.5</ele>
        <time>2013-11-10T14:09:25.196Z</time>
      </trkpt>
      <trkpt lat="48.77239" lon="2.29255">
        <ele>89.1</ele>
        <time>2013-11-10T14:09:26.196Z</time>
      </trkpt>
      <trkpt lat="48.77245" lon="2.29247">
        <ele>87.3</ele>
        <time>2013-11-10T14:09:35.194Z</time>
      </trkpt>
      <trkpt lat="48.77246" lon="2.29245">
        <ele>87.1</ele>
        <time>2013-11-10T14:09:36.188Z</time>
      </trkpt>
      <trkpt lat="48.77248" lon="2.29233">
        <ele>85.7</ele>
        <time>2013-11-10T14:09:43.190Z</time>
      </trkpt>
      <trkpt lat="48.77248" lon="2.29231">
        <ele>85.5</ele>
        <time>2013-11-10T14:09:44.192Z</time>
      </trkpt>
      <trkpt lat="48.77251" lon="2.29219">
        <ele>85.1</ele>
        <time>2013-11-10T14:09:53.191Z</time>
      </trkpt>
      <trkpt lat="48.77252" lon="2.29217">
        <ele>85.2</ele>
        <time>2013-11-10T14:09:54.189Z</time>
      </trkpt>
      <trkpt lat="48.77259" lon="2.29209">
        <ele>85.7</ele>
        <time>2013-11-10T14:10:00.405Z</time>
      </trkpt>
      <trkpt lat="48.7726" lon="2.29208">
        <ele>85.8</ele>
        <time>2013-11-10T14:10:01.193Z</time>
      </trkpt>
      <trkpt lat="48.77267" lon="2.29202">
        <ele>85.9</ele>
        <time>2013-11-10T14:10:07.032Z</time>
      </trkpt>
      <trkpt lat="48.77268" lon="2.29201">
        <ele>86</ele>
        <time>2013-11-10T14:10:07.212Z</time>
      </trkpt>
      <trkpt lat="48.77275" lon="2.29199">
        <ele>86.4</ele>
        <time>2013-11-10T14:10:12.067Z</time>
      </trkpt>
      <trkpt lat="48.77277" lon="2.29198">
        <ele>86.6</ele>
        <time>2013-11-10T14:10:12.225Z</time>
      </trkpt>
      <trkpt lat="48.77284" lon="2.29196">
        <ele>88</ele>
        <time>2013-11-10T14:10:19.195Z</time>
      </trkpt>
      <trkpt lat="48.77286" lon="2.29196">
        <ele>88.4</ele>
        <time>2013-11-10T14:10:20.255Z</time>
      </trkpt>
      <trkpt lat="48.77294" lon="2.29198">
        <ele>91.5</ele>
        <time>2013-11-10T14:10:28.149Z</time>
      </trkpt>
      <trkpt lat="48.77295" lon="2.29198">
        <ele>91.9</ele>
        <time>2013-11-10T14:10:29.186Z</time>
      </trkpt>
      <trkpt lat="48.77303" lon="2.29198">
        <ele>95.2</ele>
        <time>2013-11-10T14:10:37.274Z</time>
      </trkpt>
      <trkpt lat="48.77304" lon="2.29198">
        <ele>95.7</ele>
        <time>2013-11-10T14:10:38.180Z</time>
      </trkpt>
      <trkpt lat="48.77313" lon="2.292">
        <ele>100.4</ele>
        <time>2013-11-10T14:10:50.187Z</time>
      </trkpt>
      <trkpt lat="48.77313" lon="2.292">
        <ele>100.8</ele>
        <time>2013-11-10T14:10:51.188Z</time>
      </trkpt>
      <trkpt lat="48.77321" lon="2.29206">
        <ele>103.3</ele>
        <time>2013-11-10T14:10:58.188Z</time>
      </trkpt>
      <trkpt lat="48.77323" lon="2.29206">
        <ele>103.7</ele>
        <time>2013-11-10T14:10:59.185Z</time>
      </trkpt>
      <trkpt lat="48.77331" lon="2.29211">
        <ele>105.8</ele>
        <time>2013-11-10T14:11:05.263Z</time>
      </trkpt>
      <trkpt lat="48.77331" lon="2.29211">
        <ele>106.1</ele>
        <time>2013-11-10T14:11:06.187Z</time>
      </trkpt>
      <trkpt lat="48.77339" lon="2.29217">
        <ele>108.9</ele>
        <time>2013-11-10T14:11:17.053Z</time>
      </trkpt>
      <trkpt lat="48.7734" lon="2.29217">
        <ele>109.1</ele>
        <time>2013-11-10T14:11:17.161Z</time>
      </trkpt>
      <trkpt lat="48.77349" lon="2.2922">
        <ele>110.5</ele>
        <time>2013-11-10T14:11:24.196Z</time>
      </trkpt>
      <trkpt lat="48.7735" lon="2.29221">
        <ele>110.7</ele>
        <time>2013-11-10T14:11:25.197Z</time>
      </trkpt>
      <trkpt lat="48.77357" lon="2.29225">
        <ele>111.7</ele>
        <time>2013-11-10T14:11:31.197Z</time>
      </trkpt>
      <trkpt lat="48.77358" lon="2.29226">
        <ele>111.9</ele>
        <time>2013-11-10T14:11:32.192Z</time>
      </trkpt>
      <trkpt lat="48.77364" lon="2.29236">
        <ele>111.8</ele>
        <time>2013-11-10T14:11:38.188Z</time>
      </trkpt>
      <trkpt lat="48.77365" lon="2.29237">
        <ele>111.8</ele>
        <time>2013-11-10T14:11:39.187Z</time>
      </trkpt>
      <trkpt lat="48.77371" lon="2.29241">
        <ele>110.2</ele>
        <time>2013-11-10T14:11:53.138Z</time>
      </trkpt>
      <trkpt lat="48.77371" lon="2.29241">
        <ele>110.2</ele>
        <time>2013-11-10T14:11:54.257Z</time>
      </trkpt>
      <trkpt lat="48.77371" lon="2.2924">
        <ele>105</ele>
        <time>2013-11-10T14:22:34.222Z</time>
      </trkpt>
      <trkpt lat="48.77371" lon="2.29241">
        <ele>105</ele>
        <time>2013-11-10T14:22:35.204Z</time>
      </trkpt>
      <trkpt lat="48.7737" lon="2.29242">
        <ele>105.1</ele>
        <time>2013-11-10T14:22:37.356Z</time>
      </trkpt>
      <trkpt lat="48.7737" lon="2.29242">
        <ele>105.1</ele>
        <time>2013-11-10T14:22:38.204Z</time>
      </trkpt>
      <trkpt lat="48.77369" lon="2.29241">
        <ele>104.9</ele>
        <time>2013-11-10T14:23:42.288Z</time>
      </trkpt>
      <trkpt lat="48.77369" lon="2.2924">
        <ele>104.9</ele>
        <time>2013-11-10T14:23:43.187Z</time>
      </trkpt>
      <trkpt lat="48.77365" lon="2.29234">
        <ele>105.1</ele>
        <time>2013-11-10T14:23:56.974Z</time>
      </trkpt>
      <trkpt lat="48.77365" lon="2.29234">
        <ele>105.1</ele>
        <time>2013-11-10T14:23:57.150Z</time>
      </trkpt>
      <trkpt lat="48.77367" lon="2.29233">
        <ele>104.8</ele>
        <time>2013-11-10T14:24:34.192Z</time>
      </trkpt>
      <trkpt lat="48.77368" lon="2.29233">
        <ele>104.8</ele>
        <time>2013-11-10T14:24:35.191Z</time>
      </trkpt>
      <trkpt lat="48.77368" lon="2.29234">
        <ele>104.7</ele>
        <time>2013-11-10T14:24:37.298Z</time>
      </trkpt>
      <trkpt lat="48.77368" lon="2.29234">
        <ele>104.7</ele>
        <time>2013-11-10T14:24:38.196Z</time>
      </trkpt>
      <trkpt lat="48.77369" lon="2.29233">
        <ele>105.5</ele>
        <time>2013-11-10T14:24:55.218Z</time>
      </trkpt>
      <trkpt lat="48.77369" lon="2.29233">
        <ele>105.5</ele>
        <time>2013-11-10T14:24:56.296Z</time>
      </trkpt>
      <trkpt lat="48.77372" lon="2.2922">
        <ele>105.6</ele>
        <time>2013-11-10T14:25:19.192Z</time>
      </trkpt>
      <trkpt lat="48.77372" lon="2.2922">
        <ele>105.6</ele>
        <time>2013-11-10T14:25:20.190Z</time>
      </trkpt>
      <trkpt lat="48.77375" lon="2.29212">
        <ele>105.7</ele>
        <time>2013-11-10T14:25:37.700Z</time>
      </trkpt>
      <trkpt lat="48.77375" lon="2.29212">
        <ele>105.6</ele>
        <time>2013-11-10T14:25:38.199Z</time>
      </trkpt>
      <trkpt lat="48.77375" lon="2.29213">
        <ele>106.1</ele>
        <time>2013-11-10T14:27:13.213Z</time>
      </trkpt>
      <trkpt lat="48.77374" lon="2.29215">
        <ele>106.3</ele>
        <time>2013-11-10T14:27:14.213Z</time>
      </trkpt>
      <trkpt lat="48.77372" lon="2.29225">
        <ele>106.3</ele>
        <time>2013-11-10T14:27:17.322Z</time>
      </trkpt>
      <trkpt lat="48.77371" lon="2.29229">
        <ele>106.3</ele>
        <time>2013-11-10T14:27:18.208Z</time>
      </trkpt>
      <trkpt lat="48.77368" lon="2.29239">
        <ele>106.3</ele>
        <time>2013-11-10T14:27:21.204Z</time>
      </trkpt>
      <trkpt lat="48.77367" lon="2.29242">
        <ele>106.3</ele>
        <time>2013-11-10T14:27:22.211Z</time>
      </trkpt>
      <trkpt lat="48.77363" lon="2.2925">
        <ele>106.7</ele>
        <time>2013-11-10T14:27:37.837Z</time>
      </trkpt>
      <trkpt lat="48.77362" lon="2.29251">
        <ele>106.7</ele>
        <time>2013-11-10T14:27:38.158Z</time>
      </trkpt>
      <trkpt lat="48.77363" lon="2.2925">
        <ele>106</ele>
        <time>2013-11-10T14:29:00.275Z</time>
      </trkpt>
      <trkpt lat="48.77363" lon="2.29249">
        <ele>105.9</ele>
        <time>2013-11-10T14:29:01.199Z</time>
      </trkpt>
      <trkpt lat="48.77363" lon="2.29248">
        <ele>105.9</ele>
        <time>2013-11-10T14:29:04.202Z</time>
      </trkpt>
      <trkpt lat="48.77363" lon="2.29248">
        <ele>105.8</ele>
        <time>2013-11-10T14:29:05.287Z</time>
      </trkpt>
      <trkpt lat="48.77363" lon="2.29248">
        <ele>105.7</ele>
        <time>2013-11-10T14:29:13.204Z</time>
      </trkpt>
      <trkpt lat="48.77363" lon="2.29246">
        <ele>105.7</ele>
        <time>2013-11-10T14:29:14.200Z</time>
      </trkpt>
      <trkpt lat="48.77362" lon="2.29244">
        <ele>105.7</ele>
        <time>2013-11-10T14:29:18.195Z</time>
      </trkpt>
      <trkpt lat="48.77362" lon="2.29245">
        <ele>105.7</ele>
        <time>2013-11-10T14:29:19.188Z</time>
      </trkpt>
      <trkpt lat="48.77362" lon="2.29245">
        <ele>106.2</ele>
        <time>2013-11-10T14:29:55.263Z</time>
      </trkpt>
      <trkpt lat="48.77362" lon="2.29245">
        <ele>106.2</ele>
        <time>2013-11-10T14:29:56.265Z</time>
      </trkpt>
      <trkpt lat="48.77357" lon="2.29255">
        <ele>107.2</ele>
        <time>2013-11-10T14:30:17.312Z</time>
      </trkpt>
      <trkpt lat="48.77357" lon="2.29257">
        <ele>107.1</ele>
        <time>2013-11-10T14:30:18.269Z</time>
      </trkpt>
      <trkpt lat="48.7736" lon="2.29268">
        <ele>107.2</ele>
        <time>2013-11-10T14:30:25.199Z</time>
      </trkpt>
      <trkpt lat="48.77361" lon="2.2927">
        <ele>107.1</ele>
        <time>2013-11-10T14:30:26.202Z</time>
      </trkpt>
      <trkpt lat="48.77365" lon="2.2928">
        <ele>106.1</ele>
        <time>2013-11-10T14:30:35.200Z</time>
      </trkpt>
      <trkpt lat="48.77365" lon="2.29282">
        <ele>106</ele>
        <time>2013-11-10T14:30:36.203Z</time>
      </trkpt>
      <trkpt lat="48.77368" lon="2.29294">
        <ele>104.7</ele>
        <time>2013-11-10T14:30:45.202Z</time>
      </trkpt>
      <trkpt lat="48.77368" lon="2.29295">
        <ele>104.5</ele>
        <time>2013-11-10T14:30:46.201Z</time>
      </trkpt>
      <trkpt lat="48.77368" lon="2.29308">
        <ele>103</ele>
        <time>2013-11-10T14:30:56.969Z</time>
      </trkpt>
      <trkpt lat="48.77368" lon="2.29309">
        <ele>102.9</ele>
        <time>2013-11-10T14:30:57.199Z</time>
      </trkpt>
      <trkpt lat="48.77369" lon="2.29322">
        <ele>102.4</ele>
        <time>2013-11-10T14:31:05.201Z</time>
      </trkpt>
      <trkpt lat="48.77369" lon="2.29324">
        <ele>102.4</ele>
        <time>2013-11-10T14:31:06.202Z</time>
      </trkpt>
      <trkpt lat="48.7737" lon="2.29337">
        <ele>102.3</ele>
        <time>2013-11-10T14:31:14.200Z</time>
      </trkpt>
      <trkpt lat="48.7737" lon="2.29338">
        <ele>102.3</ele>
        <time>2013-11-10T14:31:15.202Z</time>
      </trkpt>
      <trkpt lat="48.77375" lon="2.29349">
        <ele>102.1</ele>
        <time>2013-11-10T14:31:27.435Z</time>
      </trkpt>
      <trkpt lat="48.77376" lon="2.29349">
        <ele>102.2</ele>
        <time>2013-11-10T14:31:28.206Z</time>
      </trkpt>
      <trkpt lat="48.77378" lon="2.29361">
        <ele>102.1</ele>
        <time>2013-11-10T14:31:36.209Z</time>
      </trkpt>
      <trkpt lat="48.77378" lon="2.29364">
        <ele>102</ele>
        <time>2013-11-10T14:31:37.209Z</time>
      </trkpt>
      <trkpt lat="48.7738" lon="2.29377">
        <ele>101.3</ele>
        <time>2013-11-10T14:31:44.207Z</time>
      </trkpt>
      <trkpt lat="48.7738" lon="2.29378">
        <ele>101.2</ele>
        <time>2013-11-10T14:31:45.208Z</time>
      </trkpt>
      <trkpt lat="48.77382" lon="2.29391">
        <ele>100.5</ele>
        <time>2013-11-10T14:31:57.169Z</time>
      </trkpt>
      <trkpt lat="48.77382" lon="2.29393">
        <ele>100.5</ele>
        <time>2013-11-10T14:31:58.163Z</time>
      </trkpt>
      <trkpt lat="48.77385" lon="2.29405">
        <ele>101.1</ele>
        <time>2013-11-10T14:32:08.212Z</time>
      </trkpt>
      <trkpt lat="48.77385" lon="2.29406">
        <ele>101.2</ele>
        <time>2013-11-10T14:32:09.210Z</time>
      </trkpt>
      <trkpt lat="48.77388" lon="2.29418">
        <ele>101.6</ele>
        <time>2013-11-10T14:32:19.177Z</time>
      </trkpt>
      <trkpt lat="48.77388" lon="2.29419">
        <ele>101.6</ele>
        <time>2013-11-10T14:32:20.200Z</time>
      </trkpt>
      <trkpt lat="48.77388" lon="2.2943">
        <ele>101.8</ele>
        <time>2013-11-10T14:32:29.212Z</time>
      </trkpt>
      <trkpt lat="48.77388" lon="2.29432">
        <ele>101.8</ele>
        <time>2013-11-10T14:32:30.217Z</time>
      </trkpt>
      <trkpt lat="48.7739" lon="2.29445">
        <ele>102.3</ele>
        <time>2013-11-10T14:32:40.210Z</time>
      </trkpt>
      <trkpt lat="48.7739" lon="2.29447">
        <ele>102.3</ele>
        <time>2013-11-10T14:32:41.279Z</time>
      </trkpt>
      <trkpt lat="48.77392" lon="2.29459">
        <ele>102.9</ele>
        <time>2013-11-10T14:32:48.213Z</time>
      </trkpt>
      <trkpt lat="48.77392" lon="2.29461">
        <ele>103</ele>
        <time>2013-11-10T14:32:49.216Z</time>
      </trkpt>
      <trkpt lat="48.77392" lon="2.29473">
        <ele>103.5</ele>
        <time>2013-11-10T14:32:56.976Z</time>
      </trkpt>
      <trkpt lat="48.77393" lon="2.29475">
        <ele>103.6</ele>
        <time>2013-11-10T14:32:57.169Z</time>
      </trkpt>
      <trkpt lat="48.77396" lon="2.29487">
        <ele>104.2</ele>
        <time>2013-11-10T14:33:07.166Z</time>
      </trkpt>
      <trkpt lat="48.77397" lon="2.29488">
        <ele>104.2</ele>
        <time>2013-11-10T14:33:08.213Z</time>
      </trkpt>
      <trkpt lat="48.77398" lon="2.295">
        <ele>103.9</ele>
        <time>2013-11-10T14:33:18.207Z</time>
      </trkpt>
      <trkpt lat="48.77399" lon="2.29502">
        <ele>103.9</ele>
        <time>2013-11-10T14:33:19.204Z</time>
      </trkpt>
      <trkpt lat="48.77402" lon="2.29514">
        <ele>104</ele>
        <time>2013-11-10T14:33:29.216Z</time>
      </trkpt>
      <trkpt lat="48.77403" lon="2.29514">
        <ele>104</ele>
        <time>2013-11-10T14:33:30.210Z</time>
      </trkpt>
      <trkpt lat="48.77404" lon="2.29509">
        <ele>104.3</ele>
        <time>2013-11-10T14:33:43.211Z</time>
      </trkpt>
      <trkpt lat="48.77404" lon="2.29509">
        <ele>104.4</ele>
        <time>2013-11-10T14:33:44.210Z</time>
      </trkpt>
      <trkpt lat="48.77405" lon="2.2951">
        <ele>104.9</ele>
        <time>2013-11-10T14:33:48.205Z</time>
      </trkpt>
      <trkpt lat="48.77405" lon="2.2951">
        <ele>105.1</ele>
        <time>2013-11-10T14:33:49.208Z</time>
      </trkpt>
      <trkpt lat="48.77411" lon="2.2951">
        <ele>107</ele>
        <time>2013-11-10T14:33:59.204Z</time>
      </trkpt>
      <trkpt lat="48.77411" lon="2.2951">
        <ele>107</ele>
        <time>2013-11-10T14:34:00.289Z</time>
      </trkpt>
      <trkpt lat="48.7741" lon="2.29509">
        <ele>106.9</ele>
        <time>2013-11-10T14:34:03.204Z</time>
      </trkpt>
      <trkpt lat="48.77411" lon="2.29509">
        <ele>106.9</ele>
        <time>2013-11-10T14:34:04.284Z</time>
      </trkpt>
      <trkpt lat="48.77419" lon="2.29504">
        <ele>106.6</ele>
        <time>2013-11-10T14:34:13.156Z</time>
      </trkpt>
      <trkpt lat="48.7742" lon="2.29504">
        <ele>106.6</ele>
        <time>2013-11-10T14:34:14.196Z</time>
      </trkpt>
      <trkpt lat="48.77428" lon="2.295">
        <ele>106.2</ele>
        <time>2013-11-10T14:34:20.193Z</time>
      </trkpt>
      <trkpt lat="48.77429" lon="2.295">
        <ele>106.2</ele>
        <time>2013-11-10T14:34:21.197Z</time>
      </trkpt>
      <trkpt lat="48.77438" lon="2.29499">
        <ele>106</ele>
        <time>2013-11-10T14:34:30.205Z</time>
      </trkpt>
      <trkpt lat="48.77439" lon="2.29499">
        <ele>106</ele>
        <time>2013-11-10T14:34:31.266Z</time>
      </trkpt>
      <trkpt lat="48.77444" lon="2.2951">
        <ele>106.8</ele>
        <time>2013-11-10T14:34:44.272Z</time>
      </trkpt>
      <trkpt lat="48.77444" lon="2.29511">
        <ele>106.9</ele>
        <time>2013-11-10T14:34:45.201Z</time>
      </trkpt>
      <trkpt lat="48.77447" lon="2.29523">
        <ele>107.1</ele>
        <time>2013-11-10T14:34:55.198Z</time>
      </trkpt>
      <trkpt lat="48.77447" lon="2.29524">
        <ele>107.2</ele>
        <time>2013-11-10T14:34:56.202Z</time>
      </trkpt>
      <trkpt lat="48.77451" lon="2.29535">
        <ele>107.8</ele>
        <time>2013-11-10T14:35:07.113Z</time>
      </trkpt>
      <trkpt lat="48.77451" lon="2.29536">
        <ele>107.8</ele>
        <time>2013-11-10T14:35:07.282Z</time>
      </trkpt>
      <trkpt lat="48.77452" lon="2.29548">
        <ele>108.1</ele>
        <time>2013-11-10T14:35:17.236Z</time>
      </trkpt>
      <trkpt lat="48.77452" lon="2.2955">
        <ele>108.2</ele>
        <time>2013-11-10T14:35:17.294Z</time>
      </trkpt>
      <trkpt lat="48.77451" lon="2.29564">
        <ele>109.1</ele>
        <time>2013-11-10T14:35:26.197Z</time>
      </trkpt>
      <trkpt lat="48.77451" lon="2.29565">
        <ele>109.2</ele>
        <time>2013-11-10T14:35:27.195Z</time>
      </trkpt>
      <trkpt lat="48.77452" lon="2.29577">
        <ele>109.9</ele>
        <time>2013-11-10T14:35:34.174Z</time>
      </trkpt>
      <trkpt lat="48.77452" lon="2.29579">
        <ele>110</ele>
        <time>2013-11-10T14:35:35.163Z</time>
      </trkpt>
      <trkpt lat="48.77455" lon="2.29591">
        <ele>110.6</ele>
        <time>2013-11-10T14:35:41.148Z</time>
      </trkpt>
      <trkpt lat="48.77455" lon="2.29592">
        <ele>110.6</ele>
        <time>2013-11-10T14:35:42.141Z</time>
      </trkpt>
      <trkpt lat="48.77459" lon="2.29603">
        <ele>111</ele>
        <time>2013-11-10T14:35:50.168Z</time>
      </trkpt>
      <trkpt lat="48.7746" lon="2.29605">
        <ele>111.1</ele>
        <time>2013-11-10T14:35:51.169Z</time>
      </trkpt>
      <trkpt lat="48.77464" lon="2.29617">
        <ele>112.2</ele>
        <time>2013-11-10T14:35:59.157Z</time>
      </trkpt>
      <trkpt lat="48.77464" lon="2.29618">
        <ele>112.3</ele>
        <time>2013-11-10T14:36:00.157Z</time>
      </trkpt>
      <trkpt lat="48.77464" lon="2.29631">
        <ele>113.4</ele>
        <time>2013-11-10T14:36:09.162Z</time>
      </trkpt>
      <trkpt lat="48.77464" lon="2.29632">
        <ele>113.4</ele>
        <time>2013-11-10T14:36:10.164Z</time>
      </trkpt>
      <trkpt lat="48.77466" lon="2.29644">
        <ele>114</ele>
        <time>2013-11-10T14:36:17.162Z</time>
      </trkpt>
      <trkpt lat="48.77466" lon="2.29646">
        <ele>114</ele>
        <time>2013-11-10T14:36:18.171Z</time>
      </trkpt>
      <trkpt lat="48.77468" lon="2.29658">
        <ele>114.9</ele>
        <time>2013-11-10T14:36:27.133Z</time>
      </trkpt>
      <trkpt lat="48.77468" lon="2.29659">
        <ele>115</ele>
        <time>2013-11-10T14:36:28.168Z</time>
      </trkpt>
      <trkpt lat="48.77469" lon="2.29671">
        <ele>115.5</ele>
        <time>2013-11-10T14:36:37.309Z</time>
      </trkpt>
      <trkpt lat="48.77469" lon="2.29673">
        <ele>115.5</ele>
        <time>2013-11-10T14:36:38.189Z</time>
      </trkpt>
      <trkpt lat="48.7747" lon="2.29686">
        <ele>116.1</ele>
        <time>2013-11-10T14:36:47.684Z</time>
      </trkpt>
      <trkpt lat="48.77471" lon="2.29687">
        <ele>116.1</ele>
        <time>2013-11-10T14:36:48.188Z</time>
      </trkpt>
      <trkpt lat="48.77476" lon="2.29698">
        <ele>116.5</ele>
        <time>2013-11-10T14:36:57.162Z</time>
      </trkpt>
      <trkpt lat="48.77476" lon="2.29699">
        <ele>116.5</ele>
        <time>2013-11-10T14:36:58.188Z</time>
      </trkpt>
      <trkpt lat="48.77477" lon="2.29712">
        <ele>116.7</ele>
        <time>2013-11-10T14:37:08.187Z</time>
      </trkpt>
      <trkpt lat="48.77476" lon="2.29714">
        <ele>116.7</ele>
        <time>2013-11-10T14:37:09.189Z</time>
      </trkpt>
      <trkpt lat="48.77477" lon="2.29726">
        <ele>116.9</ele>
        <time>2013-11-10T14:37:17.512Z</time>
      </trkpt>
      <trkpt lat="48.77477" lon="2.29728">
        <ele>116.8</ele>
        <time>2013-11-10T14:37:18.191Z</time>
      </trkpt>
      <trkpt lat="48.77481" lon="2.29739">
        <ele>117</ele>
        <time>2013-11-10T14:37:25.183Z</time>
      </trkpt>
      <trkpt lat="48.77481" lon="2.2974">
        <ele>117</ele>
        <time>2013-11-10T14:37:26.183Z</time>
      </trkpt>
      <trkpt lat="48.77481" lon="2.2974">
        <ele>117</ele>
        <time>2013-11-10T14:37:28.140Z</time>
      </trkpt>
      <trkpt lat="48.77481" lon="2.2974">
        <ele>117</ele>
        <time>2013-11-10T14:37:29.179Z</time>
      </trkpt>
      <trkpt lat="48.7748" lon="2.2974">
        <ele>117</ele>
        <time>2013-11-10T14:37:31.181Z</time>
      </trkpt>
      <trkpt lat="48.7748" lon="2.2974">
        <ele>117</ele>
        <time>2013-11-10T14:37:32.179Z</time>
      </trkpt>
      <trkpt lat="48.77479" lon="2.29742">
        <ele>117.1</ele>
        <time>2013-11-10T14:37:37.570Z</time>
      </trkpt>
      <trkpt lat="48.77479" lon="2.29742">
        <ele>117.1</ele>
        <time>2013-11-10T14:37:38.242Z</time>
      </trkpt>
      <trkpt lat="48.77478" lon="2.29742">
        <ele>116.9</ele>
        <time>2013-11-10T14:37:52.676Z</time>
      </trkpt>
      <trkpt lat="48.77478" lon="2.29742">
        <ele>116.9</ele>
        <time>2013-11-10T14:37:53.178Z</time>
      </trkpt>
      <trkpt lat="48.77476" lon="2.29744">
        <ele>117</ele>
        <time>2013-11-10T14:38:02.167Z</time>
      </trkpt>
      <trkpt lat="48.77476" lon="2.29744">
        <ele>117</ele>
        <time>2013-11-10T14:38:03.186Z</time>
      </trkpt>
      <trkpt lat="48.77477" lon="2.29744">
        <ele>117.1</ele>
        <time>2013-11-10T14:38:07.226Z</time>
      </trkpt>
      <trkpt lat="48.77477" lon="2.29743">
        <ele>117.1</ele>
        <time>2013-11-10T14:38:08.195Z</time>
      </trkpt>
      <trkpt lat="48.77478" lon="2.29743">
        <ele>117.1</ele>
        <time>2013-11-10T14:38:12.062Z</time>
      </trkpt>
      <trkpt lat="48.77478" lon="2.29743">
        <ele>117.1</ele>
        <time>2013-11-10T14:38:12.246Z</time>
      </trkpt>
      <trkpt lat="48.77478" lon="2.29743">
        <ele>117.5</ele>
        <time>2013-11-10T14:38:22.229Z</time>
      </trkpt>
      <trkpt lat="48.77478" lon="2.29742">
        <ele>117.5</ele>
        <time>2013-11-10T14:38:23.218Z</time>
      </trkpt>
      <trkpt lat="48.77479" lon="2.29742">
        <ele>117.6</ele>
        <time>2013-11-10T14:38:24.228Z</time>
      </trkpt>
      <trkpt lat="48.77479" lon="2.29743">
        <ele>117.8</ele>
        <time>2013-11-10T14:38:27.263Z</time>
      </trkpt>
      <trkpt lat="48.77479" lon="2.29744">
        <ele>117.8</ele>
        <time>2013-11-10T14:38:28.191Z</time>
      </trkpt>
      <trkpt lat="48.77482" lon="2.29747">
        <ele>118</ele>
        <time>2013-11-10T14:38:39.198Z</time>
      </trkpt>
      <trkpt lat="48.77482" lon="2.29748">
        <ele>118</ele>
        <time>2013-11-10T14:38:40.272Z</time>
      </trkpt>
      <trkpt lat="48.77481" lon="2.29749">
        <ele>118.1</ele>
        <time>2013-11-10T14:38:48.194Z</time>
      </trkpt>
      <trkpt lat="48.77481" lon="2.29749">
        <ele>118.1</ele>
        <time>2013-11-10T14:38:49.193Z</time>
      </trkpt>
      <trkpt lat="48.7748" lon="2.29748">
        <ele>118.2</ele>
        <time>2013-11-10T14:38:55.185Z</time>
      </trkpt>
      <trkpt lat="48.7748" lon="2.29747">
        <ele>118.2</ele>
        <time>2013-11-10T14:38:56.185Z</time>
      </trkpt>
      <trkpt lat="48.7748" lon="2.29746">
        <ele>118.2</ele>
        <time>2013-11-10T14:39:02.036Z</time>
      </trkpt>
      <trkpt lat="48.7748" lon="2.29746">
        <ele>118.2</ele>
        <time>2013-11-10T14:39:02.222Z</time>
      </trkpt>
      <trkpt lat="48.7748" lon="2.29744">
        <ele>118.2</ele>
        <time>2013-11-10T14:39:07.077Z</time>
      </trkpt>
      <trkpt lat="48.7748" lon="2.29745">
        <ele>118.2</ele>
        <time>2013-11-10T14:39:07.234Z</time>
      </trkpt>
      <trkpt lat="48.77479" lon="2.29744">
        <ele>118.2</ele>
        <time>2013-11-10T14:39:15.194Z</time>
      </trkpt>
      <trkpt lat="48.77479" lon="2.29745">
        <ele>118.2</ele>
        <time>2013-11-10T14:39:16.229Z</time>
      </trkpt>
      <trkpt lat="48.77479" lon="2.29747">
        <ele>118</ele>
        <time>2013-11-10T14:39:20.192Z</time>
      </trkpt>
      <trkpt lat="48.77479" lon="2.29747">
        <ele>118</ele>
        <time>2013-11-10T14:39:21.252Z</time>
      </trkpt>
      <trkpt lat="48.77478" lon="2.29745">
        <ele>118.1</ele>
        <time>2013-11-10T14:39:30.232Z</time>
      </trkpt>
      <trkpt lat="48.77478" lon="2.29745">
        <ele>118.1</ele>
        <time>2013-11-10T14:39:31.288Z</time>
      </trkpt>
      <trkpt lat="48.77475" lon="2.29744">
        <ele>117.9</ele>
        <time>2013-11-10T14:39:42.395Z</time>
      </trkpt>
      <trkpt lat="48.77475" lon="2.29744">
        <ele>117.9</ele>
        <time>2013-11-10T14:39:43.218Z</time>
      </trkpt>
      <trkpt lat="48.77476" lon="2.29744">
        <ele>117.9</ele>
        <time>2013-11-10T14:39:48.219Z</time>
      </trkpt>
      <trkpt lat="48.77476" lon="2.29745">
        <ele>117.9</ele>
        <time>2013-11-10T14:39:49.226Z</time>
      </trkpt>
      <trkpt lat="48.77476" lon="2.2975">
        <ele>118</ele>
        <time>2013-11-10T14:39:58.217Z</time>
      </trkpt>
      <trkpt lat="48.77476" lon="2.2975">
        <ele>118</ele>
        <time>2013-11-10T14:39:59.195Z</time>
      </trkpt>
      <trkpt lat="48.77476" lon="2.2975">
        <ele>118</ele>
        <time>2013-11-10T14:40:02.035Z</time>
      </trkpt>
      <trkpt lat="48.77476" lon="2.29749">
        <ele>118</ele>
        <time>2013-11-10T14:40:02.208Z</time>
      </trkpt>
      <trkpt lat="48.77475" lon="2.29747">
        <ele>117.9</ele>
        <time>2013-11-10T14:40:07.230Z</time>
      </trkpt>
      <trkpt lat="48.77475" lon="2.29747">
        <ele>117.9</ele>
        <time>2013-11-10T14:40:08.182Z</time>
      </trkpt>
      <trkpt lat="48.77475" lon="2.29746">
        <ele>117.9</ele>
        <time>2013-11-10T14:40:23.190Z</time>
      </trkpt>
      <trkpt lat="48.77476" lon="2.29746">
        <ele>117.9</ele>
        <time>2013-11-10T14:40:24.191Z</time>
      </trkpt>
      <trkpt lat="48.77476" lon="2.29746">
        <ele>117.9</ele>
        <time>2013-11-10T14:40:25.192Z</time>
      </trkpt>
      <trkpt lat="48.77476" lon="2.29746">
        <ele>117.9</ele>
        <time>2013-11-10T14:40:26.222Z</time>
      </trkpt>
      <trkpt lat="48.77476" lon="2.29746">
        <ele>117.9</ele>
        <time>2013-11-10T14:40:28.190Z</time>
      </trkpt>
      <trkpt lat="48.77477" lon="2.29746">
        <ele>117.9</ele>
        <time>2013-11-10T14:40:29.189Z</time>
      </trkpt>
      <trkpt lat="48.77478" lon="2.29745">
        <ele>117.8</ele>
        <time>2013-11-10T14:40:35.192Z</time>
      </trkpt>
      <trkpt lat="48.77478" lon="2.29745">
        <ele>117.8</ele>
        <time>2013-11-10T14:40:36.186Z</time>
      </trkpt>
      <trkpt lat="48.77478" lon="2.29745">
        <ele>117.8</ele>
        <time>2013-11-10T14:40:38.254Z</time>
      </trkpt>
      <trkpt lat="48.77479" lon="2.29745">
        <ele>117.8</ele>
        <time>2013-11-10T14:40:39.182Z</time>
      </trkpt>
      <trkpt lat="48.77482" lon="2.29743">
        <ele>117.9</ele>
        <time>2013-11-10T14:40:49.187Z</time>
      </trkpt>
      <trkpt lat="48.77482" lon="2.29743">
        <ele>117.9</ele>
        <time>2013-11-10T14:40:50.241Z</time>
      </trkpt>
      <trkpt lat="48.77482" lon="2.29742">
        <ele>117.9</ele>
        <time>2013-11-10T14:40:54.187Z</time>
      </trkpt>
      <trkpt lat="48.77482" lon="2.29742">
        <ele>118</ele>
        <time>2013-11-10T14:40:55.186Z</time>
      </trkpt>
      <trkpt lat="48.77483" lon="2.29742">
        <ele>118</ele>
        <time>2013-11-10T14:40:56.950Z</time>
      </trkpt>
      <trkpt lat="48.77483" lon="2.29742">
        <ele>118</ele>
        <time>2013-11-10T14:40:57.162Z</time>
      </trkpt>
      <trkpt lat="48.77482" lon="2.29742">
        <ele>118</ele>
        <time>2013-11-10T14:40:59.187Z</time>
      </trkpt>
      <trkpt lat="48.77481" lon="2.29742">
        <ele>118</ele>
        <time>2013-11-10T14:41:00.227Z</time>
      </trkpt>
      <trkpt lat="48.77476" lon="2.29746">
        <ele>118</ele>
        <time>2013-11-10T14:41:15.183Z</time>
      </trkpt>
      <trkpt lat="48.77476" lon="2.29746">
        <ele>118</ele>
        <time>2013-11-10T14:41:16.184Z</time>
      </trkpt>
      <trkpt lat="48.77476" lon="2.29747">
        <ele>118.1</ele>
        <time>2013-11-10T14:41:19.184Z</time>
      </trkpt>
      <trkpt lat="48.77477" lon="2.29747">
        <ele>118.1</ele>
        <time>2013-11-10T14:41:20.184Z</time>
      </trkpt>
      <trkpt lat="48.77477" lon="2.29747">
        <ele>118.1</ele>
        <time>2013-11-10T14:41:22.141Z</time>
      </trkpt>
      <trkpt lat="48.77477" lon="2.29748">
        <ele>118.2</ele>
        <time>2013-11-10T14:41:22.224Z</time>
      </trkpt>
      <trkpt lat="48.77477" lon="2.29748">
        <ele>118.2</ele>
        <time>2013-11-10T14:41:25.425Z</time>
      </trkpt>
      <trkpt lat="48.77476" lon="2.29748">
        <ele>118.2</ele>
        <time>2013-11-10T14:41:26.185Z</time>
      </trkpt>
      <trkpt lat="48.77474" lon="2.29746">
        <ele>118.3</ele>
        <time>2013-11-10T14:41:33.223Z</time>
      </trkpt>
      <trkpt lat="48.77474" lon="2.29746">
        <ele>118.3</ele>
        <time>2013-11-10T14:41:34.191Z</time>
      </trkpt>
      <trkpt lat="48.77474" lon="2.29746">
        <ele>118.4</ele>
        <time>2013-11-10T14:41:36.204Z</time>
      </trkpt>
      <trkpt lat="48.77474" lon="2.29745">
        <ele>118.5</ele>
        <time>2013-11-10T14:41:37.190Z</time>
      </trkpt>
      <trkpt lat="48.77474" lon="2.29745">
        <ele>118.5</ele>
        <time>2013-11-10T14:41:37.402Z</time>
      </trkpt>
      <trkpt lat="48.77474" lon="2.29745">
        <ele>118.5</ele>
        <time>2013-11-10T14:41:38.191Z</time>
      </trkpt>
      <trkpt lat="48.77474" lon="2.29745">
        <ele>118.5</ele>
        <time>2013-11-10T14:41:39.187Z</time>
      </trkpt>
      <trkpt lat="48.77474" lon="2.29744">
        <ele>118.7</ele>
        <time>2013-11-10T14:41:40.190Z</time>
      </trkpt>
      <trkpt lat="48.77475" lon="2.2974">
        <ele>118.8</ele>
        <time>2013-11-10T14:42:05.214Z</time>
      </trkpt>
      <trkpt lat="48.77475" lon="2.2974">
        <ele>118.8</ele>
        <time>2013-11-10T14:42:06.196Z</time>
      </trkpt>
      <trkpt lat="48.77474" lon="2.29741">
        <ele>118.6</ele>
        <time>2013-11-10T14:42:17.259Z</time>
      </trkpt>
      <trkpt lat="48.77474" lon="2.29741">
        <ele>118.6</ele>
        <time>2013-11-10T14:42:18.200Z</time>
      </trkpt>
      <trkpt lat="48.77474" lon="2.29741">
        <ele>118.6</ele>
        <time>2013-11-10T14:42:19.202Z</time>
      </trkpt>
      <trkpt lat="48.77474" lon="2.29742">
        <ele>118.5</ele>
        <time>2013-11-10T14:42:20.179Z</time>
      </trkpt>
      <trkpt lat="48.77474" lon="2.29742">
        <ele>118.5</ele>
        <time>2013-11-10T14:42:24.195Z</time>
      </trkpt>
      <trkpt lat="48.77475" lon="2.29742">
        <ele>118.5</ele>
        <time>2013-11-10T14:42:25.241Z</time>
      </trkpt>
      <trkpt lat="48.77479" lon="2.29738">
        <ele>118.5</ele>
        <time>2013-11-10T14:42:36.451Z</time>
      </trkpt>
      <trkpt lat="48.77479" lon="2.29738">
        <ele>118.5</ele>
        <time>2013-11-10T14:42:37.193Z</time>
      </trkpt>
      <trkpt lat="48.77478" lon="2.29739">
        <ele>118.5</ele>
        <time>2013-11-10T14:42:45.185Z</time>
      </trkpt>
      <trkpt lat="48.77479" lon="2.29739">
        <ele>118.5</ele>
        <time>2013-11-10T14:42:46.184Z</time>
      </trkpt>
      <trkpt lat="48.77485" lon="2.29745">
        <ele>118.7</ele>
        <time>2013-11-10T14:43:09.195Z</time>
      </trkpt>
      <trkpt lat="48.77485" lon="2.29745">
        <ele>118.7</ele>
        <time>2013-11-10T14:43:10.196Z</time>
      </trkpt>
      <trkpt lat="48.77485" lon="2.29745">
        <ele>118.7</ele>
        <time>2013-11-10T14:43:12.199Z</time>
      </trkpt>
      <trkpt lat="48.77485" lon="2.29744">
        <ele>118.8</ele>
        <time>2013-11-10T14:43:12.278Z</time>
      </trkpt>
      <trkpt lat="48.77486" lon="2.29736">
        <ele>118.9</ele>
        <time>2013-11-10T14:43:22.310Z</time>
      </trkpt>
      <trkpt lat="48.77486" lon="2.29736">
        <ele>118.9</ele>
        <time>2013-11-10T14:43:23.203Z</time>
      </trkpt>
      <trkpt lat="48.77486" lon="2.29737">
        <ele>118.8</ele>
        <time>2013-11-10T14:43:25.207Z</time>
      </trkpt>
      <trkpt lat="48.77486" lon="2.29737">
        <ele>118.8</ele>
        <time>2013-11-10T14:43:26.201Z</time>
      </trkpt>
      <trkpt lat="48.77481" lon="2.29741">
        <ele>118.8</ele>
        <time>2013-11-10T14:43:43.206Z</time>
      </trkpt>
      <trkpt lat="48.77481" lon="2.29741">
        <ele>118.9</ele>
        <time>2013-11-10T14:43:44.208Z</time>
      </trkpt>
      <trkpt lat="48.77482" lon="2.29742">
        <ele>118.9</ele>
        <time>2013-11-10T14:44:00.238Z</time>
      </trkpt>
      <trkpt lat="48.77481" lon="2.29741">
        <ele>118.9</ele>
        <time>2013-11-10T14:44:01.203Z</time>
      </trkpt>
      <trkpt lat="48.77481" lon="2.29741">
        <ele>118.9</ele>
        <time>2013-11-10T14:44:03.195Z</time>
      </trkpt>
      <trkpt lat="48.77481" lon="2.29741">
        <ele>118.9</ele>
        <time>2013-11-10T14:44:04.197Z</time>
      </trkpt>
      <trkpt lat="48.77481" lon="2.2974">
        <ele>118.9</ele>
        <time>2013-11-10T14:44:09.202Z</time>
      </trkpt>
      <trkpt lat="48.77481" lon="2.29739">
        <ele>118.9</ele>
        <time>2013-11-10T14:44:10.212Z</time>
      </trkpt>
      <trkpt lat="48.77481" lon="2.29739">
        <ele>119.1</ele>
        <time>2013-11-10T14:44:12.279Z</time>
      </trkpt>
      <trkpt lat="48.77481" lon="2.29738">
        <ele>119.1</ele>
        <time>2013-11-10T14:44:13.220Z</time>
      </trkpt>
      <trkpt lat="48.77482" lon="2.2974">
        <ele>119.2</ele>
        <time>2013-11-10T14:44:17.265Z</time>
      </trkpt>
      <trkpt lat="48.77481" lon="2.2974">
        <ele>119.2</ele>
        <time>2013-11-10T14:44:18.203Z</time>
      </trkpt>
      <trkpt lat="48.77481" lon="2.29741">
        <ele>119.2</ele>
        <time>2013-11-10T14:44:22.243Z</time>
      </trkpt>
      <trkpt lat="48.77481" lon="2.29741">
        <ele>119.2</ele>
        <time>2013-11-10T14:44:22.305Z</time>
      </trkpt>
      <trkpt lat="48.77481" lon="2.2974">
        <ele>119.2</ele>
        <time>2013-11-10T14:44:26.204Z</time>
      </trkpt>
      <trkpt lat="48.77482" lon="2.2974">
        <ele>119.2</ele>
        <time>2013-11-10T14:44:27.200Z</time>
      </trkpt>
      <trkpt lat="48.77482" lon="2.2974">
        <ele>119.2</ele>
        <time>2013-11-10T14:44:27.395Z</time>
      </trkpt>
      <trkpt lat="48.77482" lon="2.2974">
        <ele>119.2</ele>
        <time>2013-11-10T14:44:28.196Z</time>
      </trkpt>
      <trkpt lat="48.77481" lon="2.29739">
        <ele>119</ele>
        <time>2013-11-10T14:44:37.414Z</time>
      </trkpt>
      <trkpt lat="48.77481" lon="2.2974">
        <ele>119</ele>
        <time>2013-11-10T14:44:38.197Z</time>
      </trkpt>
      <trkpt lat="48.7748" lon="2.2974">
        <ele>119</ele>
        <time>2013-11-10T14:44:39.197Z</time>
      </trkpt>
      <trkpt lat="48.7748" lon="2.2974">
        <ele>119</ele>
        <time>2013-11-10T14:44:40.200Z</time>
      </trkpt>
      <trkpt lat="48.7748" lon="2.29739">
        <ele>118.8</ele>
        <time>2013-11-10T14:44:44.199Z</time>
      </trkpt>
      <trkpt lat="48.7748" lon="2.29738">
        <ele>118.7</ele>
        <time>2013-11-10T14:44:45.198Z</time>
      </trkpt>
      <trkpt lat="48.77473" lon="2.29742">
        <ele>116.8</ele>
        <time>2013-11-10T14:45:17.215Z</time>
      </trkpt>
      <trkpt lat="48.77473" lon="2.29742">
        <ele>116.8</ele>
        <time>2013-11-10T14:45:17.266Z</time>
      </trkpt>
      <trkpt lat="48.77474" lon="2.29741">
        <ele>116.8</ele>
        <time>2013-11-10T14:45:19.203Z</time>
      </trkpt>
      <trkpt lat="48.77474" lon="2.29741">
        <ele>116.8</ele>
        <time>2013-11-10T14:45:20.156Z</time>
      </trkpt>
      <trkpt lat="48.77476" lon="2.29739">
        <ele>116.9</ele>
        <time>2013-11-10T14:45:26.198Z</time>
      </trkpt>
      <trkpt lat="48.77476" lon="2.29739">
        <ele>117</ele>
        <time>2013-11-10T14:45:27.503Z</time>
      </trkpt>
      <trkpt lat="48.77476" lon="2.29739">
        <ele>117.1</ele>
        <time>2013-11-10T14:45:36.276Z</time>
      </trkpt>
      <trkpt lat="48.77476" lon="2.2974">
        <ele>117.1</ele>
        <time>2013-11-10T14:45:37.199Z</time>
      </trkpt>
      <trkpt lat="48.77476" lon="2.29741">
        <ele>117.2</ele>
        <time>2013-11-10T14:45:39.199Z</time>
      </trkpt>
      <trkpt lat="48.77476" lon="2.29741">
        <ele>117.3</ele>
        <time>2013-11-10T14:45:40.198Z</time>
      </trkpt>
      <trkpt lat="48.77476" lon="2.29742">
        <ele>117.3</ele>
        <time>2013-11-10T14:45:44.201Z</time>
      </trkpt>
      <trkpt lat="48.77476" lon="2.29742">
        <ele>117.4</ele>
        <time>2013-11-10T14:45:45.200Z</time>
      </trkpt>
      <trkpt lat="48.77477" lon="2.29743">
        <ele>117.4</ele>
        <time>2013-11-10T14:45:48.201Z</time>
      </trkpt>
      <trkpt lat="48.77477" lon="2.29743">
        <ele>117.4</ele>
        <time>2013-11-10T14:45:49.203Z</time>
      </trkpt>
      <trkpt lat="48.77478" lon="2.2974">
        <ele>117.4</ele>
        <time>2013-11-10T14:46:09.193Z</time>
      </trkpt>
      <trkpt lat="48.77478" lon="2.29739">
        <ele>117.5</ele>
        <time>2013-11-10T14:46:10.193Z</time>
      </trkpt>
      <trkpt lat="48.77479" lon="2.29738">
        <ele>117.5</ele>
        <time>2013-11-10T14:46:14.192Z</time>
      </trkpt>
      <trkpt lat="48.77479" lon="2.29738">
        <ele>117.6</ele>
        <time>2013-11-10T14:46:15.192Z</time>
      </trkpt>
      <trkpt lat="48.77479" lon="2.29738">
        <ele>117.7</ele>
        <time>2013-11-10T14:46:19.195Z</time>
      </trkpt>
      <trkpt lat="48.77478" lon="2.29738">
        <ele>117.8</ele>
        <time>2013-11-10T14:46:20.189Z</time>
      </trkpt>
      <trkpt lat="48.77472" lon="2.29742">
        <ele>117.7</ele>
        <time>2013-11-10T14:46:38.193Z</time>
      </trkpt>
      <trkpt lat="48.77472" lon="2.29742">
        <ele>117.8</ele>
        <time>2013-11-10T14:46:39.218Z</time>
      </trkpt>
      <trkpt lat="48.77473" lon="2.29741">
        <ele>117.8</ele>
        <time>2013-11-10T14:46:40.199Z</time>
      </trkpt>
      <trkpt lat="48.77472" lon="2.29743">
        <ele>118.1</ele>
        <time>2013-11-10T14:46:55.194Z</time>
      </trkpt>
      <trkpt lat="48.77472" lon="2.29743">
        <ele>118.1</ele>
        <time>2013-11-10T14:46:56.192Z</time>
      </trkpt>
      <trkpt lat="48.77472" lon="2.29744">
        <ele>118.1</ele>
        <time>2013-11-10T14:47:02.079Z</time>
      </trkpt>
      <trkpt lat="48.77472" lon="2.29744">
        <ele>118.1</ele>
        <time>2013-11-10T14:47:02.263Z</time>
      </trkpt>
      <trkpt lat="48.77471" lon="2.29746">
        <ele>118.4</ele>
        <time>2013-11-10T14:47:07.112Z</time>
      </trkpt>
      <trkpt lat="48.77471" lon="2.29746">
        <ele>118.4</ele>
        <time>2013-11-10T14:47:07.251Z</time>
      </trkpt>
      <trkpt lat="48.77472" lon="2.29746">
        <ele>118.4</ele>
        <time>2013-11-10T14:47:08.187Z</time>
      </trkpt>
      <trkpt lat="48.7748" lon="2.2974">
        <ele>118.3</ele>
        <time>2013-11-10T14:47:31.202Z</time>
      </trkpt>
      <trkpt lat="48.7748" lon="2.2974">
        <ele>118.3</ele>
        <time>2013-11-10T14:47:32.195Z</time>
      </trkpt>
      <trkpt lat="48.77479" lon="2.29739">
        <ele>118.5</ele>
        <time>2013-11-10T14:47:41.236Z</time>
      </trkpt>
      <trkpt lat="48.77479" lon="2.29739">
        <ele>118.5</ele>
        <time>2013-11-10T14:47:42.202Z</time>
      </trkpt>
      <trkpt lat="48.77479" lon="2.29739">
        <ele>118.5</ele>
        <time>2013-11-10T14:47:42.401Z</time>
      </trkpt>
      <trkpt lat="48.77479" lon="2.29738">
        <ele>118.5</ele>
        <time>2013-11-10T14:47:43.202Z</time>
      </trkpt>
      <trkpt lat="48.77479" lon="2.29739">
        <ele>118.5</ele>
        <time>2013-11-10T14:47:44.202Z</time>
      </trkpt>
      <trkpt lat="48.7748" lon="2.29741">
        <ele>118.5</ele>
        <time>2013-11-10T14:47:45.198Z</time>
      </trkpt>
      <trkpt lat="48.77489" lon="2.29742">
        <ele>118</ele>
        <time>2013-11-10T14:48:02.074Z</time>
      </trkpt>
      <trkpt lat="48.77488" lon="2.29742">
        <ele>118</ele>
        <time>2013-11-10T14:48:02.253Z</time>
      </trkpt>
      <trkpt lat="48.77488" lon="2.29742">
        <ele>118</ele>
        <time>2013-11-10T14:48:03.197Z</time>
      </trkpt>
      <trkpt lat="48.77488" lon="2.29741">
        <ele>118</ele>
        <time>2013-11-10T14:48:04.194Z</time>
      </trkpt>
      <trkpt lat="48.77481" lon="2.29732">
        <ele>117.7</ele>
        <time>2013-11-10T14:48:12.245Z</time>
      </trkpt>
      <trkpt lat="48.7748" lon="2.29731">
        <ele>117.6</ele>
        <time>2013-11-10T14:48:13.195Z</time>
      </trkpt>
      <trkpt lat="48.77475" lon="2.2973">
        <ele>116.7</ele>
        <time>2013-11-10T14:48:34.196Z</time>
      </trkpt>
      <trkpt lat="48.77475" lon="2.2973">
        <ele>116.7</ele>
        <time>2013-11-10T14:48:35.200Z</time>
      </trkpt>
      <trkpt lat="48.77475" lon="2.29731">
        <ele>116.7</ele>
        <time>2013-11-10T14:48:36.266Z</time>
      </trkpt>
      <trkpt lat="48.77482" lon="2.29737">
        <ele>116.6</ele>
        <time>2013-11-10T14:48:59.194Z</time>
      </trkpt>
      <trkpt lat="48.77483" lon="2.29738">
        <ele>116.7</ele>
        <time>2013-11-10T14:49:00.246Z</time>
      </trkpt>
      <trkpt lat="48.77484" lon="2.29739">
        <ele>116.8</ele>
        <time>2013-11-10T14:49:04.196Z</time>
      </trkpt>
      <trkpt lat="48.77484" lon="2.29739">
        <ele>116.8</ele>
        <time>2013-11-10T14:49:05.195Z</time>
      </trkpt>
      <trkpt lat="48.77483" lon="2.29739">
        <ele>116.8</ele>
        <time>2013-11-10T14:49:07.219Z</time>
      </trkpt>
      <trkpt lat="48.77483" lon="2.29739">
        <ele>116.8</ele>
        <time>2013-11-10T14:49:07.286Z</time>
      </trkpt>
      <trkpt lat="48.7748" lon="2.29739">
        <ele>116.8</ele>
        <time>2013-11-10T14:49:15.186Z</time>
      </trkpt>
      <trkpt lat="48.77479" lon="2.29739">
        <ele>116.8</ele>
        <time>2013-11-10T14:49:16.186Z</time>
      </trkpt>
      <trkpt lat="48.77479" lon="2.29739">
        <ele>116.8</ele>
        <time>2013-11-10T14:49:17.205Z</time>
      </trkpt>
      <trkpt lat="48.77475" lon="2.29739">
        <ele>117.3</ele>
        <time>2013-11-10T14:49:29.218Z</time>
      </trkpt>
      <trkpt lat="48.77475" lon="2.29739">
        <ele>117.4</ele>
        <time>2013-11-10T14:49:30.222Z</time>
      </trkpt>
      <trkpt lat="48.77475" lon="2.29737">
        <ele>117.5</ele>
        <time>2013-11-10T14:49:47.376Z</time>
      </trkpt>
      <trkpt lat="48.77475" lon="2.29737">
        <ele>117.5</ele>
        <time>2013-11-10T14:49:48.206Z</time>
      </trkpt>
      <trkpt lat="48.77478" lon="2.29739">
        <ele>117.6</ele>
        <time>2013-11-10T14:49:58.223Z</time>
      </trkpt>
      <trkpt lat="48.77478" lon="2.29739">
        <ele>117.6</ele>
        <time>2013-11-10T14:49:59.210Z</time>
      </trkpt>
      <trkpt lat="48.77478" lon="2.2974">
        <ele>117.8</ele>
        <time>2013-11-10T14:50:14.212Z</time>
      </trkpt>
      <trkpt lat="48.77479" lon="2.2974">
        <ele>117.8</ele>
        <time>2013-11-10T14:50:15.210Z</time>
      </trkpt>
      <trkpt lat="48.77479" lon="2.29739">
        <ele>117.8</ele>
        <time>2013-11-10T14:50:18.209Z</time>
      </trkpt>
      <trkpt lat="48.77479" lon="2.29739">
        <ele>117.8</ele>
        <time>2013-11-10T14:50:19.211Z</time>
      </trkpt>
      <trkpt lat="48.77479" lon="2.2974">
        <ele>118</ele>
        <time>2013-11-10T14:50:30.208Z</time>
      </trkpt>
      <trkpt lat="48.77479" lon="2.29741">
        <ele>118</ele>
        <time>2013-11-10T14:50:31.207Z</time>
      </trkpt>
      <trkpt lat="48.77479" lon="2.29741">
        <ele>118</ele>
        <time>2013-11-10T14:50:32.287Z</time>
      </trkpt>
      <trkpt lat="48.77479" lon="2.29741">
        <ele>118.1</ele>
        <time>2013-11-10T14:50:33.206Z</time>
      </trkpt>
      <trkpt lat="48.7748" lon="2.29742">
        <ele>118.3</ele>
        <time>2013-11-10T14:50:41.202Z</time>
      </trkpt>
      <trkpt lat="48.7748" lon="2.29742">
        <ele>118.5</ele>
        <time>2013-11-10T14:50:42.199Z</time>
      </trkpt>
      <trkpt lat="48.7748" lon="2.29742">
        <ele>118.5</ele>
        <time>2013-11-10T14:50:43.197Z</time>
      </trkpt>
      <trkpt lat="48.7748" lon="2.29742">
        <ele>118.5</ele>
        <time>2013-11-10T14:50:44.200Z</time>
      </trkpt>
      <trkpt lat="48.7748" lon="2.29742">
        <ele>118.6</ele>
        <time>2013-11-10T14:50:49.200Z</time>
      </trkpt>
      <trkpt lat="48.7748" lon="2.29741">
        <ele>118.7</ele>
        <time>2013-11-10T14:50:50.201Z</time>
      </trkpt>
      <trkpt lat="48.77474" lon="2.2974">
        <ele>118.8</ele>
        <time>2013-11-10T14:51:08.283Z</time>
      </trkpt>
      <trkpt lat="48.77474" lon="2.2974">
        <ele>118.8</ele>
        <time>2013-11-10T14:51:09.203Z</time>
      </trkpt>
      <trkpt lat="48.77474" lon="2.2974">
        <ele>118.8</ele>
        <time>2013-11-10T14:51:12.123Z</time>
      </trkpt>
      <trkpt lat="48.77475" lon="2.29739">
        <ele>118.8</ele>
        <time>2013-11-10T14:51:12.271Z</time>
      </trkpt>
      <trkpt lat="48.77478" lon="2.29738">
        <ele>119</ele>
        <time>2013-11-10T14:51:23.210Z</time>
      </trkpt>
      <trkpt lat="48.77478" lon="2.29738">
        <ele>119</ele>
        <time>2013-11-10T14:51:24.206Z</time>
      </trkpt>
      <trkpt lat="48.77479" lon="2.29739">
        <ele>119.9</ele>
        <time>2013-11-10T14:52:12.127Z</time>
      </trkpt>
      <trkpt lat="48.7748" lon="2.29738">
        <ele>119.9</ele>
        <time>2013-11-10T14:52:12.308Z</time>
      </trkpt>
      <trkpt lat="48.7748" lon="2.29738">
        <ele>120</ele>
        <time>2013-11-10T14:52:13.205Z</time>
      </trkpt>
      <trkpt lat="48.7748" lon="2.29738">
        <ele>120</ele>
        <time>2013-11-10T14:52:14.218Z</time>
      </trkpt>
      <trkpt lat="48.77478" lon="2.29739">
        <ele>120</ele>
        <time>2013-11-10T14:52:25.281Z</time>
      </trkpt>
      <trkpt lat="48.77478" lon="2.29738">
        <ele>119.9</ele>
        <time>2013-11-10T14:52:26.252Z</time>
      </trkpt>
      <trkpt lat="48.77478" lon="2.29737">
        <ele>119.9</ele>
        <time>2013-11-10T14:52:29.197Z</time>
      </trkpt>
      <trkpt lat="48.77478" lon="2.29738">
        <ele>119.9</ele>
        <time>2013-11-10T14:52:30.196Z</time>
      </trkpt>
      <trkpt lat="48.77477" lon="2.29738">
        <ele>120</ele>
        <time>2013-11-10T14:52:32.325Z</time>
      </trkpt>
      <trkpt lat="48.77477" lon="2.29738">
        <ele>120</ele>
        <time>2013-11-10T14:52:33.204Z</time>
      </trkpt>
      <trkpt lat="48.77476" lon="2.29741">
        <ele>119.9</ele>
        <time>2013-11-10T14:52:40.212Z</time>
      </trkpt>
      <trkpt lat="48.77476" lon="2.29741">
        <ele>119.9</ele>
        <time>2013-11-10T14:52:41.380Z</time>
      </trkpt>
      <trkpt lat="48.77477" lon="2.29739">
        <ele>119.9</ele>
        <time>2013-11-10T14:52:56.994Z</time>
      </trkpt>
      <trkpt lat="48.77477" lon="2.29739">
        <ele>119.8</ele>
        <time>2013-11-10T14:52:57.212Z</time>
      </trkpt>
      <trkpt lat="48.77477" lon="2.29739">
        <ele>119.7</ele>
        <time>2013-11-10T14:52:58.197Z</time>
      </trkpt>
      <trkpt lat="48.77477" lon="2.29739">
        <ele>119.6</ele>
        <time>2013-11-10T14:52:59.225Z</time>
      </trkpt>
      <trkpt lat="48.77477" lon="2.2974">
        <ele>119.5</ele>
        <time>2013-11-10T14:53:09.227Z</time>
      </trkpt>
      <trkpt lat="48.77477" lon="2.2974">
        <ele>119.5</ele>
        <time>2013-11-10T14:53:10.225Z</time>
      </trkpt>
      <trkpt lat="48.77477" lon="2.29741">
        <ele>119.5</ele>
        <time>2013-11-10T14:53:12.313Z</time>
      </trkpt>
      <trkpt lat="48.77477" lon="2.29741">
        <ele>119.5</ele>
        <time>2013-11-10T14:53:13.221Z</time>
      </trkpt>
      <trkpt lat="48.77477" lon="2.29739">
        <ele>119.3</ele>
        <time>2013-11-10T14:53:27.283Z</time>
      </trkpt>
      <trkpt lat="48.77478" lon="2.2974">
        <ele>119.3</ele>
        <time>2013-11-10T14:53:27.326Z</time>
      </trkpt>
      <trkpt lat="48.77479" lon="2.29741">
        <ele>119.3</ele>
        <time>2013-11-10T14:53:32.300Z</time>
      </trkpt>
      <trkpt lat="48.77479" lon="2.29741">
        <ele>119.3</ele>
        <time>2013-11-10T14:53:33.220Z</time>
      </trkpt>
      <trkpt lat="48.77478" lon="2.29739">
        <ele>118.9</ele>
        <time>2013-11-10T14:53:49.224Z</time>
      </trkpt>
      <trkpt lat="48.77478" lon="2.29739">
        <ele>118.9</ele>
        <time>2013-11-10T14:53:50.221Z</time>
      </trkpt>
      <trkpt lat="48.77476" lon="2.2974">
        <ele>118.7</ele>
        <time>2013-11-10T14:53:59.212Z</time>
      </trkpt>
      <trkpt lat="48.77475" lon="2.2974">
        <ele>118.7</ele>
        <time>2013-11-10T14:54:00.211Z</time>
      </trkpt>
      <trkpt lat="48.77476" lon="2.29739">
        <ele>118.2</ele>
        <time>2013-11-10T14:54:20.206Z</time>
      </trkpt>
      <trkpt lat="48.77476" lon="2.29739">
        <ele>118.2</ele>
        <time>2013-11-10T14:54:21.204Z</time>
      </trkpt>
      <trkpt lat="48.77476" lon="2.2974">
        <ele>118.2</ele>
        <time>2013-11-10T14:54:24.203Z</time>
      </trkpt>
      <trkpt lat="48.77476" lon="2.2974">
        <ele>118.2</ele>
        <time>2013-11-10T14:54:25.204Z</time>
      </trkpt>
      <trkpt lat="48.77477" lon="2.29741">
        <ele>118.3</ele>
        <time>2013-11-10T14:55:19.235Z</time>
      </trkpt>
      <trkpt lat="48.77477" lon="2.29741">
        <ele>118.3</ele>
        <time>2013-11-10T14:55:20.354Z</time>
      </trkpt>
      <trkpt lat="48.77475" lon="2.29738">
        <ele>118.1</ele>
        <time>2013-11-10T14:55:27.308Z</time>
      </trkpt>
      <trkpt lat="48.77475" lon="2.29738">
        <ele>118.1</ele>
        <time>2013-11-10T14:55:28.236Z</time>
      </trkpt>
      <trkpt lat="48.77475" lon="2.29739">
        <ele>118.1</ele>
        <time>2013-11-10T14:55:32.314Z</time>
      </trkpt>
      <trkpt lat="48.77475" lon="2.29739">
        <ele>118.1</ele>
        <time>2013-11-10T14:55:33.228Z</time>
      </trkpt>
      <trkpt lat="48.77475" lon="2.29739">
        <ele>118.1</ele>
        <time>2013-11-10T14:55:34.255Z</time>
      </trkpt>
      <trkpt lat="48.77476" lon="2.2974">
        <ele>118.1</ele>
        <time>2013-11-10T14:55:35.236Z</time>
      </trkpt>
      <trkpt lat="48.77476" lon="2.2974">
        <ele>117.8</ele>
        <time>2013-11-10T14:55:54.208Z</time>
      </trkpt>
      <trkpt lat="48.77476" lon="2.2974">
        <ele>117.8</ele>
        <time>2013-11-10T14:55:55.218Z</time>
      </trkpt>
      <trkpt lat="48.77476" lon="2.29739">
        <ele>117.7</ele>
        <time>2013-11-10T14:55:58.211Z</time>
      </trkpt>
      <trkpt lat="48.77475" lon="2.29739">
        <ele>117.7</ele>
        <time>2013-11-10T14:55:59.247Z</time>
      </trkpt>
      <trkpt lat="48.77475" lon="2.29739">
        <ele>117.6</ele>
        <time>2013-11-10T14:56:40.222Z</time>
      </trkpt>
      <trkpt lat="48.77475" lon="2.29739">
        <ele>117.6</ele>
        <time>2013-11-10T14:56:41.234Z</time>
      </trkpt>
      <trkpt lat="48.77483" lon="2.2974">
        <ele>117.6</ele>
        <time>2013-11-10T14:56:46.382Z</time>
      </trkpt>
      <trkpt lat="48.77485" lon="2.29741">
        <ele>117.6</ele>
        <time>2013-11-10T14:56:47.158Z</time>
      </trkpt>
      <trkpt lat="48.77492" lon="2.29744">
        <ele>117.1</ele>
        <time>2013-11-10T14:56:51.159Z</time>
      </trkpt>
      <trkpt lat="48.77494" lon="2.29744">
        <ele>117</ele>
        <time>2013-11-10T14:56:52.164Z</time>
      </trkpt>
      <trkpt lat="48.77501" lon="2.29738">
        <ele>115.7</ele>
        <time>2013-11-10T14:56:58.192Z</time>
      </trkpt>
      <trkpt lat="48.77502" lon="2.29737">
        <ele>115.4</ele>
        <time>2013-11-10T14:56:59.275Z</time>
      </trkpt>
      <trkpt lat="48.77508" lon="2.29727">
        <ele>113.3</ele>
        <time>2013-11-10T14:57:10.213Z</time>
      </trkpt>
      <trkpt lat="48.77507" lon="2.29726">
        <ele>113.3</ele>
        <time>2013-11-10T14:57:11.226Z</time>
      </trkpt>
      <trkpt lat="48.77504" lon="2.29715">
        <ele>113.3</ele>
        <time>2013-11-10T14:57:18.227Z</time>
      </trkpt>
      <trkpt lat="48.77505" lon="2.29712">
        <ele>113.4</ele>
        <time>2013-11-10T14:57:19.226Z</time>
      </trkpt>
      <trkpt lat="48.77509" lon="2.29701">
        <ele>113.1</ele>
        <time>2013-11-10T14:57:24.182Z</time>
      </trkpt>
      <trkpt lat="48.77513" lon="2.297">
        <ele>113.2</ele>
        <time>2013-11-10T14:57:25.226Z</time>
      </trkpt>
      <trkpt lat="48.77519" lon="2.29698">
        <ele>113.4</ele>
        <time>2013-11-10T14:57:27.282Z</time>
      </trkpt>
      <trkpt lat="48.77522" lon="2.29696">
        <ele>113.4</ele>
        <time>2013-11-10T14:57:28.186Z</time>
      </trkpt>
      <trkpt lat="48.77527" lon="2.29686">
        <ele>114.1</ele>
        <time>2013-11-10T14:57:32.302Z</time>
      </trkpt>
      <trkpt lat="48.77528" lon="2.29683">
        <ele>114.4</ele>
        <time>2013-11-10T14:57:33.195Z</time>
      </trkpt>
      <trkpt lat="48.77529" lon="2.2967">
        <ele>115.7</ele>
        <time>2013-11-10T14:57:37.334Z</time>
      </trkpt>
      <trkpt lat="48.7753" lon="2.29665">
        <ele>116.1</ele>
        <time>2013-11-10T14:57:38.411Z</time>
      </trkpt>
      <trkpt lat="48.77532" lon="2.29652">
        <ele>117.2</ele>
        <time>2013-11-10T14:57:43.734Z</time>
      </trkpt>
      <trkpt lat="48.77531" lon="2.29651">
        <ele>117.4</ele>
        <time>2013-11-10T14:57:44.165Z</time>
      </trkpt>
      <trkpt lat="48.77532" lon="2.29638">
        <ele>119</ele>
        <time>2013-11-10T14:57:53.194Z</time>
      </trkpt>
      <trkpt lat="48.77532" lon="2.29637">
        <ele>119.1</ele>
        <time>2013-11-10T14:57:54.187Z</time>
      </trkpt>
      <trkpt lat="48.7753" lon="2.29624">
        <ele>120.4</ele>
        <time>2013-11-10T14:58:02.191Z</time>
      </trkpt>
      <trkpt lat="48.7753" lon="2.29622">
        <ele>120.5</ele>
        <time>2013-11-10T14:58:03.210Z</time>
      </trkpt>
      <trkpt lat="48.77527" lon="2.29609">
        <ele>121.1</ele>
        <time>2013-11-10T14:58:10.162Z</time>
      </trkpt>
      <trkpt lat="48.77526" lon="2.29606">
        <ele>121.3</ele>
        <time>2013-11-10T14:58:11.200Z</time>
      </trkpt>
      <trkpt lat="48.77522" lon="2.29595">
        <ele>122</ele>
        <time>2013-11-10T14:58:17.096Z</time>
      </trkpt>
      <trkpt lat="48.77522" lon="2.29593">
        <ele>122.2</ele>
        <time>2013-11-10T14:58:17.152Z</time>
      </trkpt>
      <trkpt lat="48.77518" lon="2.29581">
        <ele>123</ele>
        <time>2013-11-10T14:58:25.238Z</time>
      </trkpt>
      <trkpt lat="48.77517" lon="2.2958">
        <ele>123.1</ele>
        <time>2013-11-10T14:58:26.182Z</time>
      </trkpt>
      <trkpt lat="48.77513" lon="2.29569">
        <ele>123.2</ele>
        <time>2013-11-10T14:58:32.368Z</time>
      </trkpt>
      <trkpt lat="48.77512" lon="2.29567">
        <ele>123.2</ele>
        <time>2013-11-10T14:58:33.177Z</time>
      </trkpt>
      <trkpt lat="48.77508" lon="2.29555">
        <ele>123.2</ele>
        <time>2013-11-10T14:58:38.232Z</time>
      </trkpt>
      <trkpt lat="48.77509" lon="2.29553">
        <ele>123.2</ele>
        <time>2013-11-10T14:58:39.233Z</time>
      </trkpt>
      <trkpt lat="48.77511" lon="2.29541">
        <ele>122.9</ele>
        <time>2013-11-10T14:58:45.235Z</time>
      </trkpt>
      <trkpt lat="48.77511" lon="2.29539">
        <ele>122.8</ele>
        <time>2013-11-10T14:58:46.228Z</time>
      </trkpt>
      <trkpt lat="48.77502" lon="2.29543">
        <ele>121.3</ele>
        <time>2013-11-10T14:59:24.157Z</time>
      </trkpt>
      <trkpt lat="48.77501" lon="2.29542">
        <ele>121.3</ele>
        <time>2013-11-10T14:59:25.156Z</time>
      </trkpt>
      <trkpt lat="48.77493" lon="2.29542">
        <ele>121.3</ele>
        <time>2013-11-10T14:59:39.175Z</time>
      </trkpt>
      <trkpt lat="48.77492" lon="2.29542">
        <ele>121.3</ele>
        <time>2013-11-10T14:59:40.186Z</time>
      </trkpt>
      <trkpt lat="48.77486" lon="2.29532">
        <ele>120.6</ele>
        <time>2013-11-10T14:59:53.181Z</time>
      </trkpt>
      <trkpt lat="48.77486" lon="2.29531">
        <ele>120.6</ele>
        <time>2013-11-10T14:59:54.161Z</time>
      </trkpt>
      <trkpt lat="48.77486" lon="2.29531">
        <ele>120.6</ele>
        <time>2013-11-10T14:59:55.156Z</time>
      </trkpt>
      <trkpt lat="48.77486" lon="2.29531">
        <ele>120.6</ele>
        <time>2013-11-10T14:59:56.177Z</time>
      </trkpt>
      <trkpt lat="48.77486" lon="2.29531">
        <ele>120.6</ele>
        <time>2013-11-10T14:59:58.153Z</time>
      </trkpt>
      <trkpt lat="48.77486" lon="2.29531">
        <ele>120.6</ele>
        <time>2013-11-10T14:59:59.176Z</time>
      </trkpt>
      <trkpt lat="48.77479" lon="2.29524">
        <ele>120.7</ele>
        <time>2013-11-10T15:00:09.181Z</time>
      </trkpt>
      <trkpt lat="48.77478" lon="2.29523">
        <ele>120.7</ele>
        <time>2013-11-10T15:00:10.242Z</time>
      </trkpt>
      <trkpt lat="48.77474" lon="2.29511">
        <ele>120.2</ele>
        <time>2013-11-10T15:00:18.210Z</time>
      </trkpt>
      <trkpt lat="48.77474" lon="2.29509">
        <ele>120.1</ele>
        <time>2013-11-10T15:00:19.225Z</time>
      </trkpt>
      <trkpt lat="48.77471" lon="2.29496">
        <ele>118.8</ele>
        <time>2013-11-10T15:00:30.203Z</time>
      </trkpt>
      <trkpt lat="48.77472" lon="2.29494">
        <ele>118.7</ele>
        <time>2013-11-10T15:00:31.190Z</time>
      </trkpt>
      <trkpt lat="48.77476" lon="2.29482">
        <ele>118</ele>
        <time>2013-11-10T15:00:40.196Z</time>
      </trkpt>
      <trkpt lat="48.77476" lon="2.29482">
        <ele>118</ele>
        <time>2013-11-10T15:00:41.196Z</time>
      </trkpt>
      <trkpt lat="48.77482" lon="2.29471">
        <ele>116.6</ele>
        <time>2013-11-10T15:00:58.201Z</time>
      </trkpt>
      <trkpt lat="48.77482" lon="2.2947">
        <ele>116.5</ele>
        <time>2013-11-10T15:00:59.195Z</time>
      </trkpt>
      <trkpt lat="48.77483" lon="2.29466">
        <ele>116</ele>
        <time>2013-11-10T15:01:07.244Z</time>
      </trkpt>
      <trkpt lat="48.77483" lon="2.29466">
        <ele>116</ele>
        <time>2013-11-10T15:01:08.126Z</time>
      </trkpt>
      <trkpt lat="48.77482" lon="2.29466">
        <ele>116</ele>
        <time>2013-11-10T15:01:12.475Z</time>
      </trkpt>
      <trkpt lat="48.77481" lon="2.29467">
        <ele>115.9</ele>
        <time>2013-11-10T15:01:13.179Z</time>
      </trkpt>
      <trkpt lat="48.77481" lon="2.29467">
        <ele>115.8</ele>
        <time>2013-11-10T15:01:14.182Z</time>
      </trkpt>
      <trkpt lat="48.77481" lon="2.29467">
        <ele>115.8</ele>
        <time>2013-11-10T15:01:15.154Z</time>
      </trkpt>
      <trkpt lat="48.77481" lon="2.29467">
        <ele>115.8</ele>
        <time>2013-11-10T15:01:16.185Z</time>
      </trkpt>
      <trkpt lat="48.77481" lon="2.29467">
        <ele>115.7</ele>
        <time>2013-11-10T15:01:17.182Z</time>
      </trkpt>
      <trkpt lat="48.77474" lon="2.29475">
        <ele>114.2</ele>
        <time>2013-11-10T15:01:45.208Z</time>
      </trkpt>
      <trkpt lat="48.77473" lon="2.29475">
        <ele>114.1</ele>
        <time>2013-11-10T15:01:46.241Z</time>
      </trkpt>
      <trkpt lat="48.77465" lon="2.29477">
        <ele>112.9</ele>
        <time>2013-11-10T15:02:00.194Z</time>
      </trkpt>
      <trkpt lat="48.77464" lon="2.29477">
        <ele>112.8</ele>
        <time>2013-11-10T15:02:01.201Z</time>
      </trkpt>
      <trkpt lat="48.77455" lon="2.2948">
        <ele>111.5</ele>
        <time>2013-11-10T15:02:14.187Z</time>
      </trkpt>
      <trkpt lat="48.77455" lon="2.2948">
        <ele>111.4</ele>
        <time>2013-11-10T15:02:15.192Z</time>
      </trkpt>
      <trkpt lat="48.77451" lon="2.2948">
        <ele>111.2</ele>
        <time>2013-11-10T15:02:23.173Z</time>
      </trkpt>
      <trkpt lat="48.77451" lon="2.2948">
        <ele>111.1</ele>
        <time>2013-11-10T15:02:24.185Z</time>
      </trkpt>
      <trkpt lat="48.77451" lon="2.29481">
        <ele>111.1</ele>
        <time>2013-11-10T15:02:25.391Z</time>
      </trkpt>
      <trkpt lat="48.77452" lon="2.29481">
        <ele>111.1</ele>
        <time>2013-11-10T15:02:26.185Z</time>
      </trkpt>
      <trkpt lat="48.77453" lon="2.29482">
        <ele>110.7</ele>
        <time>2013-11-10T15:02:28.202Z</time>
      </trkpt>
      <trkpt lat="48.77453" lon="2.29481">
        <ele>110.5</ele>
        <time>2013-11-10T15:02:29.185Z</time>
      </trkpt>
      <trkpt lat="48.77452" lon="2.29481">
        <ele>110.2</ele>
        <time>2013-11-10T15:02:30.400Z</time>
      </trkpt>
      <trkpt lat="48.77451" lon="2.29482">
        <ele>109.9</ele>
        <time>2013-11-10T15:02:31.196Z</time>
      </trkpt>
      <trkpt lat="48.77443" lon="2.29481">
        <ele>108.4</ele>
        <time>2013-11-10T15:02:36.171Z</time>
      </trkpt>
      <trkpt lat="48.77442" lon="2.29481">
        <ele>108.2</ele>
        <time>2013-11-10T15:02:37.173Z</time>
      </trkpt>
      <trkpt lat="48.77441" lon="2.29493">
        <ele>108.1</ele>
        <time>2013-11-10T15:02:48.180Z</time>
      </trkpt>
      <trkpt lat="48.77442" lon="2.29494">
        <ele>108.1</ele>
        <time>2013-11-10T15:02:49.176Z</time>
      </trkpt>
      <trkpt lat="48.77443" lon="2.29507">
        <ele>108.5</ele>
        <time>2013-11-10T15:02:56.963Z</time>
      </trkpt>
      <trkpt lat="48.77443" lon="2.29509">
        <ele>108.5</ele>
        <time>2013-11-10T15:02:57.186Z</time>
      </trkpt>
      <trkpt lat="48.77444" lon="2.29522">
        <ele>108.9</ele>
        <time>2013-11-10T15:03:04.180Z</time>
      </trkpt>
      <trkpt lat="48.77444" lon="2.29524">
        <ele>109</ele>
        <time>2013-11-10T15:03:05.193Z</time>
      </trkpt>
      <trkpt lat="48.77446" lon="2.29537">
        <ele>109.4</ele>
        <time>2013-11-10T15:03:12.216Z</time>
      </trkpt>
      <trkpt lat="48.77446" lon="2.29538">
        <ele>109.5</ele>
        <time>2013-11-10T15:03:13.190Z</time>
      </trkpt>
      <trkpt lat="48.7745" lon="2.29548">
        <ele>109.8</ele>
        <time>2013-11-10T15:03:18.188Z</time>
      </trkpt>
      <trkpt lat="48.77451" lon="2.29551">
        <ele>109.9</ele>
        <time>2013-11-10T15:03:19.185Z</time>
      </trkpt>
      <trkpt lat="48.77454" lon="2.29563">
        <ele>110.5</ele>
        <time>2013-11-10T15:03:25.188Z</time>
      </trkpt>
      <trkpt lat="48.77455" lon="2.29564">
        <ele>110.5</ele>
        <time>2013-11-10T15:03:26.185Z</time>
      </trkpt>
      <trkpt lat="48.77464" lon="2.29567">
        <ele>111.1</ele>
        <time>2013-11-10T15:03:36.194Z</time>
      </trkpt>
      <trkpt lat="48.77465" lon="2.29568">
        <ele>111.1</ele>
        <time>2013-11-10T15:03:37.196Z</time>
      </trkpt>
      <trkpt lat="48.77472" lon="2.29572">
        <ele>111.4</ele>
        <time>2013-11-10T15:03:45.191Z</time>
      </trkpt>
      <trkpt lat="48.77473" lon="2.29573">
        <ele>111.4</ele>
        <time>2013-11-10T15:03:46.188Z</time>
      </trkpt>
      <trkpt lat="48.7748" lon="2.29579">
        <ele>111.7</ele>
        <time>2013-11-10T15:03:54.192Z</time>
      </trkpt>
      <trkpt lat="48.77481" lon="2.2958">
        <ele>111.8</ele>
        <time>2013-11-10T15:03:55.187Z</time>
      </trkpt>
      <trkpt lat="48.77489" lon="2.29586">
        <ele>113.1</ele>
        <time>2013-11-10T15:04:03.194Z</time>
      </trkpt>
      <trkpt lat="48.7749" lon="2.29587">
        <ele>113.2</ele>
        <time>2013-11-10T15:04:04.195Z</time>
      </trkpt>
      <trkpt lat="48.77497" lon="2.29595">
        <ele>114.5</ele>
        <time>2013-11-10T15:04:15.194Z</time>
      </trkpt>
      <trkpt lat="48.77498" lon="2.29597">
        <ele>114.6</ele>
        <time>2013-11-10T15:04:16.197Z</time>
      </trkpt>
      <trkpt lat="48.77504" lon="2.29606">
        <ele>115.6</ele>
        <time>2013-11-10T15:04:25.195Z</time>
      </trkpt>
      <trkpt lat="48.77504" lon="2.29607">
        <ele>115.7</ele>
        <time>2013-11-10T15:04:26.194Z</time>
      </trkpt>
      <trkpt lat="48.77512" lon="2.29612">
        <ele>116.8</ele>
        <time>2013-11-10T15:04:38.202Z</time>
      </trkpt>
      <trkpt lat="48.77513" lon="2.29613">
        <ele>116.8</ele>
        <time>2013-11-10T15:04:39.176Z</time>
      </trkpt>
      <trkpt lat="48.77521" lon="2.29616">
        <ele>117.5</ele>
        <time>2013-11-10T15:04:51.182Z</time>
      </trkpt>
      <trkpt lat="48.77522" lon="2.29616">
        <ele>117.6</ele>
        <time>2013-11-10T15:04:52.205Z</time>
      </trkpt>
      <trkpt lat="48.7753" lon="2.29611">
        <ele>119.2</ele>
        <time>2013-11-10T15:05:03.200Z</time>
      </trkpt>
      <trkpt lat="48.7753" lon="2.29611">
        <ele>119.4</ele>
        <time>2013-11-10T15:05:04.217Z</time>
      </trkpt>
      <trkpt lat="48.77535" lon="2.29622">
        <ele>119.8</ele>
        <time>2013-11-10T15:05:13.190Z</time>
      </trkpt>
      <trkpt lat="48.77535" lon="2.29623">
        <ele>119.8</ele>
        <time>2013-11-10T15:05:14.196Z</time>
      </trkpt>
      <trkpt lat="48.77536" lon="2.29636">
        <ele>118.8</ele>
        <time>2013-11-10T15:05:24.199Z</time>
      </trkpt>
      <trkpt lat="48.77536" lon="2.29638">
        <ele>118.8</ele>
        <time>2013-11-10T15:05:25.213Z</time>
      </trkpt>
      <trkpt lat="48.77535" lon="2.2965">
        <ele>118.8</ele>
        <time>2013-11-10T15:05:32.197Z</time>
      </trkpt>
      <trkpt lat="48.77535" lon="2.29652">
        <ele>118.8</ele>
        <time>2013-11-10T15:05:33.200Z</time>
      </trkpt>
      <trkpt lat="48.77533" lon="2.29663">
        <ele>119.2</ele>
        <time>2013-11-10T15:05:42.238Z</time>
      </trkpt>
      <trkpt lat="48.77532" lon="2.29665">
        <ele>119.2</ele>
        <time>2013-11-10T15:05:43.174Z</time>
      </trkpt>
      <trkpt lat="48.77529" lon="2.29677">
        <ele>118.9</ele>
        <time>2013-11-10T15:05:53.200Z</time>
      </trkpt>
      <trkpt lat="48.77529" lon="2.29679">
        <ele>118.8</ele>
        <time>2013-11-10T15:05:54.199Z</time>
      </trkpt>
      <trkpt lat="48.77527" lon="2.29691">
        <ele>118.6</ele>
        <time>2013-11-10T15:06:08.218Z</time>
      </trkpt>
      <trkpt lat="48.77528" lon="2.29692">
        <ele>118.5</ele>
        <time>2013-11-10T15:06:09.173Z</time>
      </trkpt>
      <trkpt lat="48.7753" lon="2.29705">
        <ele>118.6</ele>
        <time>2013-11-10T15:06:18.200Z</time>
      </trkpt>
      <trkpt lat="48.7753" lon="2.29706">
        <ele>118.7</ele>
        <time>2013-11-10T15:06:19.201Z</time>
      </trkpt>
      <trkpt lat="48.77531" lon="2.29718">
        <ele>120.3</ele>
        <time>2013-11-10T15:06:27.262Z</time>
      </trkpt>
      <trkpt lat="48.7753" lon="2.2972">
        <ele>120.6</ele>
        <time>2013-11-10T15:06:28.200Z</time>
      </trkpt>
      <trkpt lat="48.77535" lon="2.29731">
        <ele>120.8</ele>
        <time>2013-11-10T15:06:39.207Z</time>
      </trkpt>
      <trkpt lat="48.77535" lon="2.29732">
        <ele>120.9</ele>
        <time>2013-11-10T15:06:40.202Z</time>
      </trkpt>
      <trkpt lat="48.77542" lon="2.29739">
        <ele>121.6</ele>
        <time>2013-11-10T15:06:48.200Z</time>
      </trkpt>
      <trkpt lat="48.77543" lon="2.2974">
        <ele>121.6</ele>
        <time>2013-11-10T15:06:49.202Z</time>
      </trkpt>
      <trkpt lat="48.77552" lon="2.29744">
        <ele>121.6</ele>
        <time>2013-11-10T15:06:57.003Z</time>
      </trkpt>
      <trkpt lat="48.77553" lon="2.29745">
        <ele>121.5</ele>
        <time>2013-11-10T15:06:57.201Z</time>
      </trkpt>
      <trkpt lat="48.7756" lon="2.2975">
        <ele>121.3</ele>
        <time>2013-11-10T15:07:07.060Z</time>
      </trkpt>
      <trkpt lat="48.77561" lon="2.2975">
        <ele>121.3</ele>
        <time>2013-11-10T15:07:08.203Z</time>
      </trkpt>
      <trkpt lat="48.77569" lon="2.2975">
        <ele>121.8</ele>
        <time>2013-11-10T15:07:15.216Z</time>
      </trkpt>
      <trkpt lat="48.7757" lon="2.2975">
        <ele>121.9</ele>
        <time>2013-11-10T15:07:16.220Z</time>
      </trkpt>
      <trkpt lat="48.77577" lon="2.29748">
        <ele>123.1</ele>
        <time>2013-11-10T15:07:23.246Z</time>
      </trkpt>
      <trkpt lat="48.77579" lon="2.29748">
        <ele>123.2</ele>
        <time>2013-11-10T15:07:24.201Z</time>
      </trkpt>
      <trkpt lat="48.77587" lon="2.29745">
        <ele>123.4</ele>
        <time>2013-11-10T15:07:29.208Z</time>
      </trkpt>
      <trkpt lat="48.77588" lon="2.29744">
        <ele>123.4</ele>
        <time>2013-11-10T15:07:30.192Z</time>
      </trkpt>
      <trkpt lat="48.77597" lon="2.29742">
        <ele>123.3</ele>
        <time>2013-11-10T15:07:39.200Z</time>
      </trkpt>
      <trkpt lat="48.77598" lon="2.29742">
        <ele>123.3</ele>
        <time>2013-11-10T15:07:40.191Z</time>
      </trkpt>
      <trkpt lat="48.77606" lon="2.2974">
        <ele>124.7</ele>
        <time>2013-11-10T15:07:52.499Z</time>
      </trkpt>
      <trkpt lat="48.77607" lon="2.2974">
        <ele>124.9</ele>
        <time>2013-11-10T15:07:53.197Z</time>
      </trkpt>
      <trkpt lat="48.77615" lon="2.29735">
        <ele>126.6</ele>
        <time>2013-11-10T15:08:01.995Z</time>
      </trkpt>
      <trkpt lat="48.77616" lon="2.29735">
        <ele>126.9</ele>
        <time>2013-11-10T15:08:02.201Z</time>
      </trkpt>
      <trkpt lat="48.77624" lon="2.29732">
        <ele>128.4</ele>
        <time>2013-11-10T15:08:12.037Z</time>
      </trkpt>
      <trkpt lat="48.77626" lon="2.29732">
        <ele>128.5</ele>
        <time>2013-11-10T15:08:12.216Z</time>
      </trkpt>
      <trkpt lat="48.77634" lon="2.29731">
        <ele>129</ele>
        <time>2013-11-10T15:08:17.193Z</time>
      </trkpt>
      <trkpt lat="48.77635" lon="2.29731">
        <ele>129.1</ele>
        <time>2013-11-10T15:08:18.202Z</time>
      </trkpt>
      <trkpt lat="48.77644" lon="2.29731">
        <ele>129.4</ele>
        <time>2013-11-10T15:08:28.201Z</time>
      </trkpt>
      <trkpt lat="48.77646" lon="2.29731">
        <ele>129.5</ele>
        <time>2013-11-10T15:08:29.193Z</time>
      </trkpt>
      <trkpt lat="48.77653" lon="2.29726">
        <ele>129.2</ele>
        <time>2013-11-10T15:08:33.189Z</time>
      </trkpt>
      <trkpt lat="48.77654" lon="2.29725">
        <ele>129.2</ele>
        <time>2013-11-10T15:08:34.204Z</time>
      </trkpt>
      <trkpt lat="48.77661" lon="2.29717">
        <ele>128.7</ele>
        <time>2013-11-10T15:08:42.273Z</time>
      </trkpt>
      <trkpt lat="48.77663" lon="2.29716">
        <ele>128.7</ele>
        <time>2013-11-10T15:08:43.191Z</time>
      </trkpt>
      <trkpt lat="48.77671" lon="2.29713">
        <ele>128.5</ele>
        <time>2013-11-10T15:08:50.188Z</time>
      </trkpt>
      <trkpt lat="48.77673" lon="2.29712">
        <ele>128.5</ele>
        <time>2013-11-10T15:08:51.189Z</time>
      </trkpt>
      <trkpt lat="48.7768" lon="2.2971">
        <ele>128.3</ele>
        <time>2013-11-10T15:08:55.195Z</time>
      </trkpt>
      <trkpt lat="48.77682" lon="2.29709">
        <ele>128.2</ele>
        <time>2013-11-10T15:08:56.196Z</time>
      </trkpt>
      <trkpt lat="48.7769" lon="2.29705">
        <ele>128.6</ele>
        <time>2013-11-10T15:09:03.215Z</time>
      </trkpt>
      <trkpt lat="48.7769" lon="2.29704">
        <ele>128.6</ele>
        <time>2013-11-10T15:09:04.213Z</time>
      </trkpt>
      <trkpt lat="48.77694" lon="2.29692">
        <ele>127.5</ele>
        <time>2013-11-10T15:09:14.213Z</time>
      </trkpt>
      <trkpt lat="48.77695" lon="2.29689">
        <ele>127.4</ele>
        <time>2013-11-10T15:09:15.211Z</time>
      </trkpt>
      <trkpt lat="48.77696" lon="2.29677">
        <ele>126.9</ele>
        <time>2013-11-10T15:09:22.147Z</time>
      </trkpt>
      <trkpt lat="48.77696" lon="2.29675">
        <ele>126.8</ele>
        <time>2013-11-10T15:09:22.186Z</time>
      </trkpt>
      <trkpt lat="48.77695" lon="2.29662">
        <ele>126.7</ele>
        <time>2013-11-10T15:09:28.201Z</time>
      </trkpt>
      <trkpt lat="48.77695" lon="2.2966">
        <ele>126.7</ele>
        <time>2013-11-10T15:09:29.187Z</time>
      </trkpt>
      <trkpt lat="48.77695" lon="2.29647">
        <ele>127.2</ele>
        <time>2013-11-10T15:09:35.205Z</time>
      </trkpt>
      <trkpt lat="48.77695" lon="2.29644">
        <ele>127.2</ele>
        <time>2013-11-10T15:09:36.214Z</time>
      </trkpt>
      <trkpt lat="48.77699" lon="2.29634">
        <ele>127.5</ele>
        <time>2013-11-10T15:09:40.202Z</time>
      </trkpt>
      <trkpt lat="48.777" lon="2.29632">
        <ele>127.7</ele>
        <time>2013-11-10T15:09:41.212Z</time>
      </trkpt>
      <trkpt lat="48.77705" lon="2.29622">
        <ele>128.1</ele>
        <time>2013-11-10T15:09:46.209Z</time>
      </trkpt>
      <trkpt lat="48.77706" lon="2.29619">
        <ele>128.2</ele>
        <time>2013-11-10T15:09:47.203Z</time>
      </trkpt>
      <trkpt lat="48.77707" lon="2.29607">
        <ele>128.4</ele>
        <time>2013-11-10T15:09:51.190Z</time>
      </trkpt>
      <trkpt lat="48.77707" lon="2.29604">
        <ele>128.4</ele>
        <time>2013-11-10T15:09:52.191Z</time>
      </trkpt>
      <trkpt lat="48.77703" lon="2.29593">
        <ele>127.8</ele>
        <time>2013-11-10T15:09:56.997Z</time>
      </trkpt>
      <trkpt lat="48.777" lon="2.29591">
        <ele>127.5</ele>
        <time>2013-11-10T15:09:57.204Z</time>
      </trkpt>
      <trkpt lat="48.77694" lon="2.29589">
        <ele>127.1</ele>
        <time>2013-11-10T15:09:59.199Z</time>
      </trkpt>
      <trkpt lat="48.77691" lon="2.29588">
        <ele>126.9</ele>
        <time>2013-11-10T15:10:00.186Z</time>
      </trkpt>
      <trkpt lat="48.77683" lon="2.29587">
        <ele>126.5</ele>
        <time>2013-11-10T15:10:04.199Z</time>
      </trkpt>
      <trkpt lat="48.77682" lon="2.29587">
        <ele>126.4</ele>
        <time>2013-11-10T15:10:05.201Z</time>
      </trkpt>
      <trkpt lat="48.77676" lon="2.29577">
        <ele>126.7</ele>
        <time>2013-11-10T15:10:20.198Z</time>
      </trkpt>
      <trkpt lat="48.77676" lon="2.29578">
        <ele>126.9</ele>
        <time>2013-11-10T15:10:21.202Z</time>
      </trkpt>
      <trkpt lat="48.77675" lon="2.29579">
        <ele>127.3</ele>
        <time>2013-11-10T15:10:23.199Z</time>
      </trkpt>
      <trkpt lat="48.77674" lon="2.29579">
        <ele>127.4</ele>
        <time>2013-11-10T15:10:24.206Z</time>
      </trkpt>
      <trkpt lat="48.77673" lon="2.29581">
        <ele>127.9</ele>
        <time>2013-11-10T15:10:28.170Z</time>
      </trkpt>
      <trkpt lat="48.77673" lon="2.29581">
        <ele>128.2</ele>
        <time>2013-11-10T15:10:29.158Z</time>
      </trkpt>
      <trkpt lat="48.77674" lon="2.2958">
        <ele>128.5</ele>
        <time>2013-11-10T15:10:30.163Z</time>
      </trkpt>
      <trkpt lat="48.77675" lon="2.29579">
        <ele>128.8</ele>
        <time>2013-11-10T15:10:31.163Z</time>
      </trkpt>
      <trkpt lat="48.77681" lon="2.2957">
        <ele>130.3</ele>
        <time>2013-11-10T15:10:37.285Z</time>
      </trkpt>
      <trkpt lat="48.77681" lon="2.29569">
        <ele>130.5</ele>
        <time>2013-11-10T15:10:38.201Z</time>
      </trkpt>
      <trkpt lat="48.77684" lon="2.29556">
        <ele>131.8</ele>
        <time>2013-11-10T15:10:46.191Z</time>
      </trkpt>
      <trkpt lat="48.77684" lon="2.29555">
        <ele>131.9</ele>
        <time>2013-11-10T15:10:47.172Z</time>
      </trkpt>
      <trkpt lat="48.77685" lon="2.29555">
        <ele>132</ele>
        <time>2013-11-10T15:10:51.178Z</time>
      </trkpt>
      <trkpt lat="48.77686" lon="2.29555">
        <ele>132</ele>
        <time>2013-11-10T15:10:52.185Z</time>
      </trkpt>
      <trkpt lat="48.77686" lon="2.29556">
        <ele>132</ele>
        <time>2013-11-10T15:10:54.197Z</time>
      </trkpt>
      <trkpt lat="48.77686" lon="2.29556">
        <ele>132</ele>
        <time>2013-11-10T15:10:55.213Z</time>
      </trkpt>
      <trkpt lat="48.77687" lon="2.29556">
        <ele>132.1</ele>
        <time>2013-11-10T15:10:57.184Z</time>
      </trkpt>
      <trkpt lat="48.77687" lon="2.29555">
        <ele>132.1</ele>
        <time>2013-11-10T15:10:58.170Z</time>
      </trkpt>
      <trkpt lat="48.77686" lon="2.29554">
        <ele>132.1</ele>
        <time>2013-11-10T15:11:09.177Z</time>
      </trkpt>
      <trkpt lat="48.77685" lon="2.29553">
        <ele>132.1</ele>
        <time>2013-11-10T15:11:10.192Z</time>
      </trkpt>
      <trkpt lat="48.77682" lon="2.29549">
        <ele>131.8</ele>
        <time>2013-11-10T15:11:29.195Z</time>
      </trkpt>
      <trkpt lat="48.77682" lon="2.29549">
        <ele>131.8</ele>
        <time>2013-11-10T15:11:30.194Z</time>
      </trkpt>
      <trkpt lat="48.77682" lon="2.29548">
        <ele>131.8</ele>
        <time>2013-11-10T15:11:32.414Z</time>
      </trkpt>
      <trkpt lat="48.77683" lon="2.29548">
        <ele>131.6</ele>
        <time>2013-11-10T15:11:33.196Z</time>
      </trkpt>
      <trkpt lat="48.77688" lon="2.29537">
        <ele>129.9</ele>
        <time>2013-11-10T15:11:42.489Z</time>
      </trkpt>
      <trkpt lat="48.77688" lon="2.29536">
        <ele>129.6</ele>
        <time>2013-11-10T15:11:43.185Z</time>
      </trkpt>
      <trkpt lat="48.77689" lon="2.2953">
        <ele>127.1</ele>
        <time>2013-11-10T15:11:54.175Z</time>
      </trkpt>
      <trkpt lat="48.77689" lon="2.2953">
        <ele>127</ele>
        <time>2013-11-10T15:11:55.179Z</time>
      </trkpt>
      <trkpt lat="48.77689" lon="2.2953">
        <ele>126.9</ele>
        <time>2013-11-10T15:11:56.956Z</time>
      </trkpt>
      <trkpt lat="48.77689" lon="2.29531">
        <ele>126.8</ele>
        <time>2013-11-10T15:11:57.171Z</time>
      </trkpt>
      <trkpt lat="48.77687" lon="2.29535">
        <ele>126.8</ele>
        <time>2013-11-10T15:12:05.151Z</time>
      </trkpt>
      <trkpt lat="48.77687" lon="2.29535">
        <ele>126.7</ele>
        <time>2013-11-10T15:12:06.162Z</time>
      </trkpt>
      <trkpt lat="48.77688" lon="2.29534">
        <ele>126.5</ele>
        <time>2013-11-10T15:12:12.211Z</time>
      </trkpt>
      <trkpt lat="48.77689" lon="2.29535">
        <ele>126.5</ele>
        <time>2013-11-10T15:12:13.155Z</time>
      </trkpt>
      <trkpt lat="48.77688" lon="2.29537">
        <ele>125.7</ele>
        <time>2013-11-10T15:13:22.192Z</time>
      </trkpt>
      <trkpt lat="48.77664" lon="2.29578">
        <ele>175.1</ele>
        <time>2013-11-10T15:16:30.156Z</time>
      </trkpt>
      <trkpt lat="48.77665" lon="2.29591">
        <ele>176.1</ele>
        <time>2013-11-10T15:16:35.128Z</time>
      </trkpt>
      <trkpt lat="48.77666" lon="2.29595">
        <ele>176.2</ele>
        <time>2013-11-10T15:16:36.149Z</time>
      </trkpt>
      <trkpt lat="48.77667" lon="2.29605">
        <ele>176.2</ele>
        <time>2013-11-10T15:16:38.147Z</time>
      </trkpt>
      <trkpt lat="48.77668" lon="2.2961">
        <ele>176.3</ele>
        <time>2013-11-10T15:16:39.138Z</time>
      </trkpt>
      <trkpt lat="48.77667" lon="2.29622">
        <ele>176.4</ele>
        <time>2013-11-10T15:16:42.419Z</time>
      </trkpt>
      <trkpt lat="48.77667" lon="2.29625">
        <ele>176.5</ele>
        <time>2013-11-10T15:16:43.132Z</time>
      </trkpt>
      <trkpt lat="48.77666" lon="2.29636">
        <ele>176.7</ele>
        <time>2013-11-10T15:16:47.462Z</time>
      </trkpt>
      <trkpt lat="48.77667" lon="2.29639">
        <ele>176.7</ele>
        <time>2013-11-10T15:16:48.139Z</time>
      </trkpt>
      <trkpt lat="48.77671" lon="2.29638">
        <ele>176.8</ele>
        <time>2013-11-10T15:16:50.141Z</time>
      </trkpt>
      <trkpt lat="48.77674" lon="2.29631">
        <ele>176.9</ele>
        <time>2013-11-10T15:16:51.141Z</time>
      </trkpt>
      <trkpt lat="48.77679" lon="2.29621">
        <ele>176.9</ele>
        <time>2013-11-10T15:16:53.138Z</time>
      </trkpt>
      <trkpt lat="48.77682" lon="2.29614">
        <ele>176.9</ele>
        <time>2013-11-10T15:16:54.156Z</time>
      </trkpt>
      <trkpt lat="48.77687" lon="2.29604">
        <ele>177</ele>
        <time>2013-11-10T15:16:55.143Z</time>
      </trkpt>
      <trkpt lat="48.77692" lon="2.29591">
        <ele>177</ele>
        <time>2013-11-10T15:16:56.154Z</time>
      </trkpt>
      <trkpt lat="48.77692" lon="2.29591">
        <ele>177</ele>
        <time>2013-11-10T15:16:57.103Z</time>
      </trkpt>
      <trkpt lat="48.77702" lon="2.29563">
        <ele>177.1</ele>
        <time>2013-11-10T15:16:58.146Z</time>
      </trkpt>
      <trkpt lat="48.7771" lon="2.29545">
        <ele>177.3</ele>
        <time>2013-11-10T15:17:00.147Z</time>
      </trkpt>
      <trkpt lat="48.7771" lon="2.29545">
        <ele>177.3</ele>
        <time>2013-11-10T15:17:02.117Z</time>
      </trkpt>
      <trkpt lat="48.77721" lon="2.29525">
        <ele>177.4</ele>
        <time>2013-11-10T15:17:03.147Z</time>
      </trkpt>
      <trkpt lat="48.77728" lon="2.29519">
        <ele>177.5</ele>
        <time>2013-11-10T15:17:07.141Z</time>
      </trkpt>
      <trkpt lat="48.77734" lon="2.29514">
        <ele>177.7</ele>
        <time>2013-11-10T15:17:07.180Z</time>
      </trkpt>
      <trkpt lat="48.77734" lon="2.29514">
        <ele>177.7</ele>
        <time>2013-11-10T15:17:12.161Z</time>
      </trkpt>
      <trkpt lat="48.77749" lon="2.29507">
        <ele>177.9</ele>
        <time>2013-11-10T15:17:12.191Z</time>
      </trkpt>
      <trkpt lat="48.77756" lon="2.29514">
        <ele>178</ele>
        <time>2013-11-10T15:17:17.195Z</time>
      </trkpt>
      <trkpt lat="48.7776" lon="2.29514">
        <ele>178.1</ele>
        <time>2013-11-10T15:17:18.140Z</time>
      </trkpt>
      <trkpt lat="48.77762" lon="2.29514">
        <ele>178.1</ele>
        <time>2013-11-10T15:17:32.340Z</time>
      </trkpt>
      <trkpt lat="48.77787" lon="2.29488">
        <ele>178.4</ele>
        <time>2013-11-10T15:17:33.157Z</time>
      </trkpt>
      <trkpt lat="48.77781" lon="2.29479">
        <ele>178.5</ele>
        <time>2013-11-10T15:17:37.386Z</time>
      </trkpt>
      <trkpt lat="48.77778" lon="2.29477">
        <ele>178.5</ele>
        <time>2013-11-10T15:17:38.133Z</time>
      </trkpt>
      <trkpt lat="48.77772" lon="2.29469">
        <ele>178.5</ele>
        <time>2013-11-10T15:17:43.133Z</time>
      </trkpt>
      <trkpt lat="48.77771" lon="2.29468">
        <ele>178.5</ele>
        <time>2013-11-10T15:17:44.146Z</time>
      </trkpt>
      <trkpt lat="48.77773" lon="2.29462">
        <ele>178.6</ele>
        <time>2013-11-10T15:17:47.669Z</time>
      </trkpt>
      <trkpt lat="48.77778" lon="2.29455">
        <ele>178.7</ele>
        <time>2013-11-10T15:17:51.152Z</time>
      </trkpt>
      <trkpt lat="48.77785" lon="2.29448">
        <ele>178.8</ele>
        <time>2013-11-10T15:17:57.151Z</time>
      </trkpt>
      <trkpt lat="48.77786" lon="2.29446">
        <ele>178.8</ele>
        <time>2013-11-10T15:17:58.152Z</time>
      </trkpt>
      <trkpt lat="48.7779" lon="2.29436">
        <ele>178.9</ele>
        <time>2013-11-10T15:18:10.148Z</time>
      </trkpt>
      <trkpt lat="48.77791" lon="2.29434">
        <ele>178.9</ele>
        <time>2013-11-10T15:18:11.149Z</time>
      </trkpt>
      <trkpt lat="48.7779" lon="2.29423">
        <ele>179</ele>
        <time>2013-11-10T15:18:23.151Z</time>
      </trkpt>
      <trkpt lat="48.7779" lon="2.29424">
        <ele>179</ele>
        <time>2013-11-10T15:18:24.146Z</time>
      </trkpt>
      <trkpt lat="48.77791" lon="2.29425">
        <ele>179.1</ele>
        <time>2013-11-10T15:18:34.159Z</time>
      </trkpt>
      <trkpt lat="48.77792" lon="2.29423">
        <ele>179.1</ele>
        <time>2013-11-10T15:18:36.150Z</time>
      </trkpt>
      <trkpt lat="48.77795" lon="2.29411">
        <ele>179.2</ele>
        <time>2013-11-10T15:18:45.153Z</time>
      </trkpt>
      <trkpt lat="48.77795" lon="2.2941">
        <ele>179.2</ele>
        <time>2013-11-10T15:18:46.151Z</time>
      </trkpt>
      <trkpt lat="48.77788" lon="2.29416">
        <ele>178.7</ele>
        <time>2013-11-10T15:19:11.154Z</time>
      </trkpt>
      <trkpt lat="48.77788" lon="2.29419">
        <ele>178.6</ele>
        <time>2013-11-10T15:19:12.167Z</time>
      </trkpt>
      <trkpt lat="48.77787" lon="2.29422">
        <ele>177.7</ele>
        <time>2013-11-10T15:19:17.243Z</time>
      </trkpt>
      <trkpt lat="48.77787" lon="2.2942">
        <ele>177.4</ele>
        <time>2013-11-10T15:19:18.156Z</time>
      </trkpt>
      <trkpt lat="48.77786" lon="2.29419">
        <ele>177.1</ele>
        <time>2013-11-10T15:19:19.156Z</time>
      </trkpt>
      <trkpt lat="48.77781" lon="2.29408">
        <ele>175.1</ele>
        <time>2013-11-10T15:19:23.156Z</time>
      </trkpt>
      <trkpt lat="48.77779" lon="2.29405">
        <ele>174.3</ele>
        <time>2013-11-10T15:19:24.154Z</time>
      </trkpt>
      <trkpt lat="48.77777" lon="2.29393">
        <ele>169.6</ele>
        <time>2013-11-10T15:19:31.158Z</time>
      </trkpt>
      <trkpt lat="48.77777" lon="2.29391">
        <ele>169</ele>
        <time>2013-11-10T15:19:32.182Z</time>
      </trkpt>
      <trkpt lat="48.77779" lon="2.29379">
        <ele>165.3</ele>
        <time>2013-11-10T15:19:38.177Z</time>
      </trkpt>
      <trkpt lat="48.77779" lon="2.29376">
        <ele>164.7</ele>
        <time>2013-11-10T15:19:39.178Z</time>
      </trkpt>
      <trkpt lat="48.77783" lon="2.29364">
        <ele>161</ele>
        <time>2013-11-10T15:19:46.172Z</time>
      </trkpt>
      <trkpt lat="48.77784" lon="2.29362">
        <ele>160.6</ele>
        <time>2013-11-10T15:19:47.162Z</time>
      </trkpt>
      <trkpt lat="48.77788" lon="2.29352">
        <ele>158.5</ele>
        <time>2013-11-10T15:19:53.171Z</time>
      </trkpt>
      <trkpt lat="48.77788" lon="2.2935">
        <ele>158.2</ele>
        <time>2013-11-10T15:19:54.171Z</time>
      </trkpt>
      <trkpt lat="48.7779" lon="2.29337">
        <ele>156.9</ele>
        <time>2013-11-10T15:20:02.120Z</time>
      </trkpt>
      <trkpt lat="48.77791" lon="2.29334">
        <ele>156.8</ele>
        <time>2013-11-10T15:20:02.168Z</time>
      </trkpt>
      <trkpt lat="48.77793" lon="2.29323">
        <ele>156.4</ele>
        <time>2013-11-10T15:20:07.130Z</time>
      </trkpt>
      <trkpt lat="48.77793" lon="2.29321">
        <ele>156.4</ele>
        <time>2013-11-10T15:20:07.172Z</time>
      </trkpt>
      <trkpt lat="48.77794" lon="2.29307">
        <ele>155.9</ele>
        <time>2013-11-10T15:20:13.183Z</time>
      </trkpt>
      <trkpt lat="48.77794" lon="2.29305">
        <ele>155.9</ele>
        <time>2013-11-10T15:20:14.171Z</time>
      </trkpt>
      <trkpt lat="48.77796" lon="2.29293">
        <ele>155.3</ele>
        <time>2013-11-10T15:20:20.168Z</time>
      </trkpt>
      <trkpt lat="48.77797" lon="2.29292">
        <ele>155.1</ele>
        <time>2013-11-10T15:20:21.167Z</time>
      </trkpt>
      <trkpt lat="48.77803" lon="2.29283">
        <ele>152.9</ele>
        <time>2013-11-10T15:20:30.177Z</time>
      </trkpt>
      <trkpt lat="48.77804" lon="2.29281">
        <ele>152.7</ele>
        <time>2013-11-10T15:20:31.174Z</time>
      </trkpt>
      <trkpt lat="48.77808" lon="2.29269">
        <ele>151.1</ele>
        <time>2013-11-10T15:20:39.183Z</time>
      </trkpt>
      <trkpt lat="48.77808" lon="2.29267">
        <ele>150.9</ele>
        <time>2013-11-10T15:20:40.185Z</time>
      </trkpt>
      <trkpt lat="48.77811" lon="2.29255">
        <ele>150.2</ele>
        <time>2013-11-10T15:20:46.203Z</time>
      </trkpt>
      <trkpt lat="48.77812" lon="2.29253">
        <ele>150.2</ele>
        <time>2013-11-10T15:20:47.176Z</time>
      </trkpt>
      <trkpt lat="48.77814" lon="2.29241">
        <ele>150</ele>
        <time>2013-11-10T15:20:56.172Z</time>
      </trkpt>
      <trkpt lat="48.77814" lon="2.2924">
        <ele>149.9</ele>
        <time>2013-11-10T15:20:57.155Z</time>
      </trkpt>
      <trkpt lat="48.77818" lon="2.29229">
        <ele>149.1</ele>
        <time>2013-11-10T15:21:03.178Z</time>
      </trkpt>
      <trkpt lat="48.77819" lon="2.29228">
        <ele>149</ele>
        <time>2013-11-10T15:21:04.183Z</time>
      </trkpt>
      <trkpt lat="48.77826" lon="2.29222">
        <ele>148.3</ele>
        <time>2013-11-10T15:21:12.164Z</time>
      </trkpt>
      <trkpt lat="48.77827" lon="2.2922">
        <ele>148.3</ele>
        <time>2013-11-10T15:21:12.188Z</time>
      </trkpt>
      <trkpt lat="48.7783" lon="2.29209">
        <ele>148.3</ele>
        <time>2013-11-10T15:21:19.154Z</time>
      </trkpt>
      <trkpt lat="48.77831" lon="2.29208">
        <ele>148.4</ele>
        <time>2013-11-10T15:21:20.186Z</time>
      </trkpt>
      <trkpt lat="48.77837" lon="2.29198">
        <ele>147.8</ele>
        <time>2013-11-10T15:21:29.153Z</time>
      </trkpt>
      <trkpt lat="48.77838" lon="2.29197">
        <ele>147.7</ele>
        <time>2013-11-10T15:21:30.156Z</time>
      </trkpt>
      <trkpt lat="48.77842" lon="2.29187">
        <ele>147.6</ele>
        <time>2013-11-10T15:21:34.155Z</time>
      </trkpt>
      <trkpt lat="48.77844" lon="2.29185">
        <ele>147.7</ele>
        <time>2013-11-10T15:21:35.151Z</time>
      </trkpt>
      <trkpt lat="48.7785" lon="2.29178">
        <ele>148</ele>
        <time>2013-11-10T15:21:41.170Z</time>
      </trkpt>
      <trkpt lat="48.77852" lon="2.29177">
        <ele>148.1</ele>
        <time>2013-11-10T15:21:42.170Z</time>
      </trkpt>
      <trkpt lat="48.77855" lon="2.29164">
        <ele>147.4</ele>
        <time>2013-11-10T15:21:53.234Z</time>
      </trkpt>
      <trkpt lat="48.77855" lon="2.29164">
        <ele>147.3</ele>
        <time>2013-11-10T15:21:54.282Z</time>
      </trkpt>
      <trkpt lat="48.77863" lon="2.29159">
        <ele>147.4</ele>
        <time>2013-11-10T15:22:02.334Z</time>
      </trkpt>
      <trkpt lat="48.77864" lon="2.29158">
        <ele>147.6</ele>
        <time>2013-11-10T15:22:02.375Z</time>
      </trkpt>
      <trkpt lat="48.77865" lon="2.29145">
        <ele>146.6</ele>
        <time>2013-11-10T15:22:17.372Z</time>
      </trkpt>
      <trkpt lat="48.77864" lon="2.29143">
        <ele>146.6</ele>
        <time>2013-11-10T15:22:18.291Z</time>
      </trkpt>
      <trkpt lat="48.77863" lon="2.29131">
        <ele>146.3</ele>
        <time>2013-11-10T15:22:30.251Z</time>
      </trkpt>
      <trkpt lat="48.77864" lon="2.29128">
        <ele>146.2</ele>
        <time>2013-11-10T15:22:31.311Z</time>
      </trkpt>
      <trkpt lat="48.77869" lon="2.29119">
        <ele>145.8</ele>
        <time>2013-11-10T15:22:35.249Z</time>
      </trkpt>
      <trkpt lat="48.7787" lon="2.29118">
        <ele>145.6</ele>
        <time>2013-11-10T15:22:36.304Z</time>
      </trkpt>
      <trkpt lat="48.77878" lon="2.2912">
        <ele>144.6</ele>
        <time>2013-11-10T15:22:41.254Z</time>
      </trkpt>
      <trkpt lat="48.77879" lon="2.29119">
        <ele>144.4</ele>
        <time>2013-11-10T15:22:42.223Z</time>
      </trkpt>
      <trkpt lat="48.77886" lon="2.29113">
        <ele>143.5</ele>
        <time>2013-11-10T15:22:50.254Z</time>
      </trkpt>
      <trkpt lat="48.77887" lon="2.29111">
        <ele>143.4</ele>
        <time>2013-11-10T15:22:51.250Z</time>
      </trkpt>
      <trkpt lat="48.77891" lon="2.29102">
        <ele>142.9</ele>
        <time>2013-11-10T15:22:57.237Z</time>
      </trkpt>
      <trkpt lat="48.77892" lon="2.29099">
        <ele>142.8</ele>
        <time>2013-11-10T15:22:57.357Z</time>
      </trkpt>
      <trkpt lat="48.77899" lon="2.2909">
        <ele>141.2</ele>
        <time>2013-11-10T15:23:06.251Z</time>
      </trkpt>
      <trkpt lat="48.77899" lon="2.2909">
        <ele>141</ele>
        <time>2013-11-10T15:23:07.252Z</time>
      </trkpt>
      <trkpt lat="48.77901" lon="2.29077">
        <ele>140.1</ele>
        <time>2013-11-10T15:23:15.248Z</time>
      </trkpt>
      <trkpt lat="48.77901" lon="2.29075">
        <ele>140</ele>
        <time>2013-11-10T15:23:16.332Z</time>
      </trkpt>
      <trkpt lat="48.77903" lon="2.29063">
        <ele>138.8</ele>
        <time>2013-11-10T15:23:23.249Z</time>
      </trkpt>
      <trkpt lat="48.77903" lon="2.29061">
        <ele>138.7</ele>
        <time>2013-11-10T15:23:24.242Z</time>
      </trkpt>
      <trkpt lat="48.77907" lon="2.29049">
        <ele>138.2</ele>
        <time>2013-11-10T15:23:31.256Z</time>
      </trkpt>
      <trkpt lat="48.77907" lon="2.29047">
        <ele>138.1</ele>
        <time>2013-11-10T15:23:32.259Z</time>
      </trkpt>
      <trkpt lat="48.77911" lon="2.29035">
        <ele>139</ele>
        <time>2013-11-10T15:23:39.244Z</time>
      </trkpt>
      <trkpt lat="48.77911" lon="2.29034">
        <ele>139.3</ele>
        <time>2013-11-10T15:23:40.246Z</time>
      </trkpt>
      <trkpt lat="48.77919" lon="2.29031">
        <ele>143.1</ele>
        <time>2013-11-10T15:23:49.332Z</time>
      </trkpt>
      <trkpt lat="48.7792" lon="2.2903">
        <ele>143.6</ele>
        <time>2013-11-10T15:23:50.247Z</time>
      </trkpt>
      <trkpt lat="48.77921" lon="2.29017">
        <ele>146.3</ele>
        <time>2013-11-10T15:23:59.243Z</time>
      </trkpt>
      <trkpt lat="48.7792" lon="2.29015">
        <ele>146.6</ele>
        <time>2013-11-10T15:24:00.255Z</time>
      </trkpt>
      <trkpt lat="48.77918" lon="2.29002">
        <ele>148.1</ele>
        <time>2013-11-10T15:24:08.248Z</time>
      </trkpt>
      <trkpt lat="48.77918" lon="2.28999">
        <ele>148</ele>
        <time>2013-11-10T15:24:09.298Z</time>
      </trkpt>
      <trkpt lat="48.77916" lon="2.28985">
        <ele>147.2</ele>
        <time>2013-11-10T15:24:14.253Z</time>
      </trkpt>
      <trkpt lat="48.77916" lon="2.28984">
        <ele>147.1</ele>
        <time>2013-11-10T15:24:15.258Z</time>
      </trkpt>
      <trkpt lat="48.77914" lon="2.28971">
        <ele>146.6</ele>
        <time>2013-11-10T15:24:23.271Z</time>
      </trkpt>
      <trkpt lat="48.77914" lon="2.28969">
        <ele>146.6</ele>
        <time>2013-11-10T15:24:24.269Z</time>
      </trkpt>
      <trkpt lat="48.77911" lon="2.28958">
        <ele>146.7</ele>
        <time>2013-11-10T15:24:30.266Z</time>
      </trkpt>
      <trkpt lat="48.7791" lon="2.28956">
        <ele>146.9</ele>
        <time>2013-11-10T15:24:31.204Z</time>
      </trkpt>
      <trkpt lat="48.77905" lon="2.28944">
        <ele>148.3</ele>
        <time>2013-11-10T15:24:40.242Z</time>
      </trkpt>
      <trkpt lat="48.77904" lon="2.28942">
        <ele>148.5</ele>
        <time>2013-11-10T15:24:41.242Z</time>
      </trkpt>
      <trkpt lat="48.77899" lon="2.28931">
        <ele>149.4</ele>
        <time>2013-11-10T15:24:48.240Z</time>
      </trkpt>
      <trkpt lat="48.77899" lon="2.28929">
        <ele>149.6</ele>
        <time>2013-11-10T15:24:49.246Z</time>
      </trkpt>
      <trkpt lat="48.77894" lon="2.2892">
        <ele>150.1</ele>
        <time>2013-11-10T15:24:53.252Z</time>
      </trkpt>
      <trkpt lat="48.77893" lon="2.28918">
        <ele>150.1</ele>
        <time>2013-11-10T15:24:54.253Z</time>
      </trkpt>
      <trkpt lat="48.7789" lon="2.28909">
        <ele>150</ele>
        <time>2013-11-10T15:24:58.244Z</time>
      </trkpt>
      <trkpt lat="48.77889" lon="2.28905">
        <ele>150</ele>
        <time>2013-11-10T15:24:59.248Z</time>
      </trkpt>
      <trkpt lat="48.77888" lon="2.28893">
        <ele>150</ele>
        <time>2013-11-10T15:25:02.676Z</time>
      </trkpt>
      <trkpt lat="48.77889" lon="2.2889">
        <ele>150.1</ele>
        <time>2013-11-10T15:25:03.242Z</time>
      </trkpt>
      <trkpt lat="48.77893" lon="2.28879">
        <ele>150.5</ele>
        <time>2013-11-10T15:25:13.219Z</time>
      </trkpt>
      <trkpt lat="48.77892" lon="2.28877">
        <ele>150.5</ele>
        <time>2013-11-10T15:25:14.260Z</time>
      </trkpt>
      <trkpt lat="48.77892" lon="2.28865">
        <ele>151.1</ele>
        <time>2013-11-10T15:25:21.241Z</time>
      </trkpt>
      <trkpt lat="48.77893" lon="2.28863">
        <ele>151.2</ele>
        <time>2013-11-10T15:25:22.266Z</time>
      </trkpt>
      <trkpt lat="48.77892" lon="2.2885">
        <ele>151</ele>
        <time>2013-11-10T15:25:29.234Z</time>
      </trkpt>
      <trkpt lat="48.77891" lon="2.28848">
        <ele>150.9</ele>
        <time>2013-11-10T15:25:30.238Z</time>
      </trkpt>
      <trkpt lat="48.77891" lon="2.28837">
        <ele>150.3</ele>
        <time>2013-11-10T15:25:36.256Z</time>
      </trkpt>
      <trkpt lat="48.77891" lon="2.28834">
        <ele>150.2</ele>
        <time>2013-11-10T15:25:37.250Z</time>
      </trkpt>
      <trkpt lat="48.77888" lon="2.28822">
        <ele>150.2</ele>
        <time>2013-11-10T15:25:42.247Z</time>
      </trkpt>
      <trkpt lat="48.77888" lon="2.2882">
        <ele>150.3</ele>
        <time>2013-11-10T15:25:43.232Z</time>
      </trkpt>
      <trkpt lat="48.77886" lon="2.28806">
        <ele>149.7</ele>
        <time>2013-11-10T15:25:51.344Z</time>
      </trkpt>
      <trkpt lat="48.77886" lon="2.28805">
        <ele>149.5</ele>
        <time>2013-11-10T15:25:52.293Z</time>
      </trkpt>
      <trkpt lat="48.77881" lon="2.28793">
        <ele>148.9</ele>
        <time>2013-11-10T15:25:59.251Z</time>
      </trkpt>
      <trkpt lat="48.77881" lon="2.28792">
        <ele>149</ele>
        <time>2013-11-10T15:26:00.250Z</time>
      </trkpt>
      <trkpt lat="48.77886" lon="2.28782">
        <ele>149.9</ele>
        <time>2013-11-10T15:26:05.239Z</time>
      </trkpt>
      <trkpt lat="48.77887" lon="2.2878">
        <ele>150.1</ele>
        <time>2013-11-10T15:26:06.243Z</time>
      </trkpt>
      <trkpt lat="48.77889" lon="2.28769">
        <ele>150.8</ele>
        <time>2013-11-10T15:26:10.247Z</time>
      </trkpt>
      <trkpt lat="48.7789" lon="2.28766">
        <ele>150.9</ele>
        <time>2013-11-10T15:26:11.244Z</time>
      </trkpt>
      <trkpt lat="48.77889" lon="2.28754">
        <ele>150.6</ele>
        <time>2013-11-10T15:26:16.413Z</time>
      </trkpt>
      <trkpt lat="48.77889" lon="2.28751">
        <ele>150.5</ele>
        <time>2013-11-10T15:26:17.253Z</time>
      </trkpt>
      <trkpt lat="48.77887" lon="2.28739">
        <ele>150</ele>
        <time>2013-11-10T15:26:22.474Z</time>
      </trkpt>
      <trkpt lat="48.77887" lon="2.28737">
        <ele>150</ele>
        <time>2013-11-10T15:26:23.244Z</time>
      </trkpt>
      <trkpt lat="48.77887" lon="2.28725">
        <ele>150.3</ele>
        <time>2013-11-10T15:26:31.247Z</time>
      </trkpt>
      <trkpt lat="48.77888" lon="2.28723">
        <ele>150.3</ele>
        <time>2013-11-10T15:26:32.248Z</time>
      </trkpt>
      <trkpt lat="48.77891" lon="2.28714">
        <ele>150</ele>
        <time>2013-11-10T15:26:37.596Z</time>
      </trkpt>
      <trkpt lat="48.77892" lon="2.28711">
        <ele>149.9</ele>
        <time>2013-11-10T15:26:38.251Z</time>
      </trkpt>
      <trkpt lat="48.77894" lon="2.28698">
        <ele>149.3</ele>
        <time>2013-11-10T15:26:42.629Z</time>
      </trkpt>
      <trkpt lat="48.77894" lon="2.28696">
        <ele>149.2</ele>
        <time>2013-11-10T15:26:43.244Z</time>
      </trkpt>
      <trkpt lat="48.77902" lon="2.28691">
        <ele>147.1</ele>
        <time>2013-11-10T15:26:54.242Z</time>
      </trkpt>
      <trkpt lat="48.77903" lon="2.28691">
        <ele>146.9</ele>
        <time>2013-11-10T15:26:55.257Z</time>
      </trkpt>
      <trkpt lat="48.77911" lon="2.28685">
        <ele>145.8</ele>
        <time>2013-11-10T15:27:02.356Z</time>
      </trkpt>
      <trkpt lat="48.77913" lon="2.28684">
        <ele>145.6</ele>
        <time>2013-11-10T15:27:03.317Z</time>
      </trkpt>
      <trkpt lat="48.7792" lon="2.28684">
        <ele>144.5</ele>
        <time>2013-11-10T15:27:09.260Z</time>
      </trkpt>
      <trkpt lat="48.77922" lon="2.28685">
        <ele>144.3</ele>
        <time>2013-11-10T15:27:10.251Z</time>
      </trkpt>
      <trkpt lat="48.7793" lon="2.28689">
        <ele>143.2</ele>
        <time>2013-11-10T15:27:17.357Z</time>
      </trkpt>
      <trkpt lat="48.77931" lon="2.2869">
        <ele>143.1</ele>
        <time>2013-11-10T15:27:18.257Z</time>
      </trkpt>
      <trkpt lat="48.77939" lon="2.28692">
        <ele>142.5</ele>
        <time>2013-11-10T15:27:24.263Z</time>
      </trkpt>
      <trkpt lat="48.7794" lon="2.28693">
        <ele>142.2</ele>
        <time>2013-11-10T15:27:25.311Z</time>
      </trkpt>
      <trkpt lat="48.77948" lon="2.28697">
        <ele>140.7</ele>
        <time>2013-11-10T15:27:34.215Z</time>
      </trkpt>
      <trkpt lat="48.77949" lon="2.28698">
        <ele>140.5</ele>
        <time>2013-11-10T15:27:35.254Z</time>
      </trkpt>
      <trkpt lat="48.77956" lon="2.28702">
        <ele>139</ele>
        <time>2013-11-10T15:27:43.250Z</time>
      </trkpt>
      <trkpt lat="48.77958" lon="2.28701">
        <ele>138.7</ele>
        <time>2013-11-10T15:27:44.255Z</time>
      </trkpt>
      <trkpt lat="48.77966" lon="2.28698">
        <ele>137.9</ele>
        <time>2013-11-10T15:27:49.257Z</time>
      </trkpt>
      <trkpt lat="48.77968" lon="2.28697">
        <ele>137.7</ele>
        <time>2013-11-10T15:27:50.261Z</time>
      </trkpt>
      <trkpt lat="48.77974" lon="2.28691">
        <ele>137.1</ele>
        <time>2013-11-10T15:27:57.238Z</time>
      </trkpt>
      <trkpt lat="48.77975" lon="2.28689">
        <ele>136.9</ele>
        <time>2013-11-10T15:27:57.360Z</time>
      </trkpt>
      <trkpt lat="48.77981" lon="2.28681">
        <ele>136</ele>
        <time>2013-11-10T15:28:02.366Z</time>
      </trkpt>
      <trkpt lat="48.77982" lon="2.2868">
        <ele>135.9</ele>
        <time>2013-11-10T15:28:03.255Z</time>
      </trkpt>
      <trkpt lat="48.77989" lon="2.28673">
        <ele>134.9</ele>
        <time>2013-11-10T15:28:09.264Z</time>
      </trkpt>
      <trkpt lat="48.7799" lon="2.28673">
        <ele>134.7</ele>
        <time>2013-11-10T15:28:10.255Z</time>
      </trkpt>
      <trkpt lat="48.77998" lon="2.28673">
        <ele>134</ele>
        <time>2013-11-10T15:28:17.375Z</time>
      </trkpt>
      <trkpt lat="48.78" lon="2.28674">
        <ele>133.9</ele>
        <time>2013-11-10T15:28:18.260Z</time>
      </trkpt>
      <trkpt lat="48.78007" lon="2.28679">
        <ele>133</ele>
        <time>2013-11-10T15:28:23.255Z</time>
      </trkpt>
      <trkpt lat="48.78008" lon="2.2868">
        <ele>132.8</ele>
        <time>2013-11-10T15:28:24.268Z</time>
      </trkpt>
      <trkpt lat="48.78015" lon="2.28686">
        <ele>132.3</ele>
        <time>2013-11-10T15:28:29.251Z</time>
      </trkpt>
      <trkpt lat="48.78016" lon="2.28687">
        <ele>132.2</ele>
        <time>2013-11-10T15:28:30.254Z</time>
      </trkpt>
      <trkpt lat="48.78024" lon="2.28691">
        <ele>131.6</ele>
        <time>2013-11-10T15:28:35.246Z</time>
      </trkpt>
      <trkpt lat="48.78025" lon="2.28692">
        <ele>131.5</ele>
        <time>2013-11-10T15:28:36.258Z</time>
      </trkpt>
      <trkpt lat="48.78033" lon="2.28693">
        <ele>130</ele>
        <time>2013-11-10T15:28:44.251Z</time>
      </trkpt>
      <trkpt lat="48.78035" lon="2.28693">
        <ele>129.9</ele>
        <time>2013-11-10T15:28:45.252Z</time>
      </trkpt>
      <trkpt lat="48.78043" lon="2.28693">
        <ele>128.8</ele>
        <time>2013-11-10T15:28:52.533Z</time>
      </trkpt>
      <trkpt lat="48.78044" lon="2.28694">
        <ele>128.6</ele>
        <time>2013-11-10T15:28:53.245Z</time>
      </trkpt>
      <trkpt lat="48.78053" lon="2.28698">
        <ele>127.8</ele>
        <time>2013-11-10T15:28:59.250Z</time>
      </trkpt>
      <trkpt lat="48.78054" lon="2.28699">
        <ele>127.7</ele>
        <time>2013-11-10T15:29:00.255Z</time>
      </trkpt>
      <trkpt lat="48.78061" lon="2.28705">
        <ele>127.6</ele>
        <time>2013-11-10T15:29:06.242Z</time>
      </trkpt>
      <trkpt lat="48.78062" lon="2.28706">
        <ele>127.5</ele>
        <time>2013-11-10T15:29:07.200Z</time>
      </trkpt>
      <trkpt lat="48.78069" lon="2.28711">
        <ele>126.9</ele>
        <time>2013-11-10T15:29:12.409Z</time>
      </trkpt>
      <trkpt lat="48.78071" lon="2.28712">
        <ele>126.7</ele>
        <time>2013-11-10T15:29:13.249Z</time>
      </trkpt>
      <trkpt lat="48.78078" lon="2.28718">
        <ele>125.8</ele>
        <time>2013-11-10T15:29:21.268Z</time>
      </trkpt>
      <trkpt lat="48.78079" lon="2.28718">
        <ele>125.7</ele>
        <time>2013-11-10T15:29:22.241Z</time>
      </trkpt>
      <trkpt lat="48.78087" lon="2.2872">
        <ele>125</ele>
        <time>2013-11-10T15:29:29.248Z</time>
      </trkpt>
      <trkpt lat="48.78089" lon="2.2872">
        <ele>124.9</ele>
        <time>2013-11-10T15:29:30.247Z</time>
      </trkpt>
      <trkpt lat="48.78096" lon="2.28719">
        <ele>124.7</ele>
        <time>2013-11-10T15:29:36.203Z</time>
      </trkpt>
      <trkpt lat="48.78098" lon="2.28718">
        <ele>124.7</ele>
        <time>2013-11-10T15:29:37.240Z</time>
      </trkpt>
      <trkpt lat="48.78105" lon="2.28715">
        <ele>124.2</ele>
        <time>2013-11-10T15:29:41.311Z</time>
      </trkpt>
      <trkpt lat="48.78107" lon="2.28714">
        <ele>124.1</ele>
        <time>2013-11-10T15:29:42.244Z</time>
      </trkpt>
      <trkpt lat="48.78114" lon="2.28709">
        <ele>123.7</ele>
        <time>2013-11-10T15:29:48.244Z</time>
      </trkpt>
      <trkpt lat="48.78115" lon="2.28708">
        <ele>123.6</ele>
        <time>2013-11-10T15:29:49.543Z</time>
      </trkpt>
      <trkpt lat="48.78122" lon="2.287">
        <ele>123.3</ele>
        <time>2013-11-10T15:29:55.249Z</time>
      </trkpt>
      <trkpt lat="48.78123" lon="2.28699">
        <ele>123.3</ele>
        <time>2013-11-10T15:29:56.238Z</time>
      </trkpt>
      <trkpt lat="48.78127" lon="2.28703">
        <ele>122.1</ele>
        <time>2013-11-10T15:30:06.255Z</time>
      </trkpt>
      <trkpt lat="48.78127" lon="2.28703">
        <ele>122</ele>
        <time>2013-11-10T15:30:07.271Z</time>
      </trkpt>
      <trkpt lat="48.78127" lon="2.28703">
        <ele>121.8</ele>
        <time>2013-11-10T15:30:12.474Z</time>
      </trkpt>
      <trkpt lat="48.78128" lon="2.28704">
        <ele>121.8</ele>
        <time>2013-11-10T15:30:13.309Z</time>
      </trkpt>
      <trkpt lat="48.78128" lon="2.28704">
        <ele>121.8</ele>
        <time>2013-11-10T15:30:15.275Z</time>
      </trkpt>
      <trkpt lat="48.78128" lon="2.28704">
        <ele>121.7</ele>
        <time>2013-11-10T15:30:16.356Z</time>
      </trkpt>
      <trkpt lat="48.78129" lon="2.28705">
        <ele>121.5</ele>
        <time>2013-11-10T15:30:29.225Z</time>
      </trkpt>
      <trkpt lat="48.7813" lon="2.28705">
        <ele>121.4</ele>
        <time>2013-11-10T15:30:30.269Z</time>
      </trkpt>
      <trkpt lat="48.78137" lon="2.2871">
        <ele>120.7</ele>
        <time>2013-11-10T15:30:39.274Z</time>
      </trkpt>
      <trkpt lat="48.78138" lon="2.28711">
        <ele>120.6</ele>
        <time>2013-11-10T15:30:40.270Z</time>
      </trkpt>
      <trkpt lat="48.78146" lon="2.28714">
        <ele>120.3</ele>
        <time>2013-11-10T15:30:48.258Z</time>
      </trkpt>
      <trkpt lat="48.78147" lon="2.28714">
        <ele>120.3</ele>
        <time>2013-11-10T15:30:49.260Z</time>
      </trkpt>
      <trkpt lat="48.78154" lon="2.28719">
        <ele>120.3</ele>
        <time>2013-11-10T15:30:55.264Z</time>
      </trkpt>
      <trkpt lat="48.78155" lon="2.2872">
        <ele>120.3</ele>
        <time>2013-11-10T15:30:56.256Z</time>
      </trkpt>
      <trkpt lat="48.78164" lon="2.28722">
        <ele>120.8</ele>
        <time>2013-11-10T15:31:06.252Z</time>
      </trkpt>
      <trkpt lat="48.78165" lon="2.28723">
        <ele>120.9</ele>
        <time>2013-11-10T15:31:07.269Z</time>
      </trkpt>
      <trkpt lat="48.78172" lon="2.2873">
        <ele>121.6</ele>
        <time>2013-11-10T15:31:13.249Z</time>
      </trkpt>
      <trkpt lat="48.78173" lon="2.28732">
        <ele>121.6</ele>
        <time>2013-11-10T15:31:14.253Z</time>
      </trkpt>
      <trkpt lat="48.78179" lon="2.28741">
        <ele>121.6</ele>
        <time>2013-11-10T15:31:21.258Z</time>
      </trkpt>
      <trkpt lat="48.7818" lon="2.28741">
        <ele>121.6</ele>
        <time>2013-11-10T15:31:22.256Z</time>
      </trkpt>
      <trkpt lat="48.78188" lon="2.28746">
        <ele>120.8</ele>
        <time>2013-11-10T15:31:29.257Z</time>
      </trkpt>
      <trkpt lat="48.78188" lon="2.28746">
        <ele>120.7</ele>
        <time>2013-11-10T15:31:30.300Z</time>
      </trkpt>
      <trkpt lat="48.78197" lon="2.28746">
        <ele>120.3</ele>
        <time>2013-11-10T15:31:41.237Z</time>
      </trkpt>
      <trkpt lat="48.78198" lon="2.28746">
        <ele>120.2</ele>
        <time>2013-11-10T15:31:42.239Z</time>
      </trkpt>
      <trkpt lat="48.78206" lon="2.28741">
        <ele>118.9</ele>
        <time>2013-11-10T15:31:50.277Z</time>
      </trkpt>
      <trkpt lat="48.78207" lon="2.2874">
        <ele>118.7</ele>
        <time>2013-11-10T15:31:51.238Z</time>
      </trkpt>
      <trkpt lat="48.78213" lon="2.28733">
        <ele>117.8</ele>
        <time>2013-11-10T15:31:57.223Z</time>
      </trkpt>
      <trkpt lat="48.78214" lon="2.28731">
        <ele>117.6</ele>
        <time>2013-11-10T15:31:57.316Z</time>
      </trkpt>
      <trkpt lat="48.7822" lon="2.28722">
        <ele>116.9</ele>
        <time>2013-11-10T15:32:02.323Z</time>
      </trkpt>
      <trkpt lat="48.78221" lon="2.28722">
        <ele>116.9</ele>
        <time>2013-11-10T15:32:03.302Z</time>
      </trkpt>
      <trkpt lat="48.7823" lon="2.28721">
        <ele>116.9</ele>
        <time>2013-11-10T15:32:06.209Z</time>
      </trkpt>
      <trkpt lat="48.78233" lon="2.2872">
        <ele>117</ele>
        <time>2013-11-10T15:32:07.231Z</time>
      </trkpt>
      <trkpt lat="48.78241" lon="2.28721">
        <ele>117.2</ele>
        <time>2013-11-10T15:32:12.501Z</time>
      </trkpt>
      <trkpt lat="48.78242" lon="2.28721">
        <ele>117.2</ele>
        <time>2013-11-10T15:32:12.579Z</time>
      </trkpt>
      <trkpt lat="48.78251" lon="2.28723">
        <ele>117.1</ele>
        <time>2013-11-10T15:32:19.203Z</time>
      </trkpt>
      <trkpt lat="48.78251" lon="2.28723">
        <ele>117.1</ele>
        <time>2013-11-10T15:32:20.202Z</time>
      </trkpt>
      <trkpt lat="48.7826" lon="2.2872">
        <ele>116.4</ele>
        <time>2013-11-10T15:32:29.204Z</time>
      </trkpt>
      <trkpt lat="48.78261" lon="2.2872">
        <ele>116.3</ele>
        <time>2013-11-10T15:32:30.205Z</time>
      </trkpt>
      <trkpt lat="48.78269" lon="2.2872">
        <ele>116</ele>
        <time>2013-11-10T15:32:37.653Z</time>
      </trkpt>
      <trkpt lat="48.7827" lon="2.2872">
        <ele>115.9</ele>
        <time>2013-11-10T15:32:38.181Z</time>
      </trkpt>
      <trkpt lat="48.78279" lon="2.28719">
        <ele>115.3</ele>
        <time>2013-11-10T15:32:47.699Z</time>
      </trkpt>
      <trkpt lat="48.78279" lon="2.28719">
        <ele>115.3</ele>
        <time>2013-11-10T15:32:48.194Z</time>
      </trkpt>
      <trkpt lat="48.78288" lon="2.2872">
        <ele>115</ele>
        <time>2013-11-10T15:32:58.216Z</time>
      </trkpt>
      <trkpt lat="48.78289" lon="2.2872">
        <ele>114.9</ele>
        <time>2013-11-10T15:32:59.180Z</time>
      </trkpt>
      <trkpt lat="48.78297" lon="2.28718">
        <ele>113.6</ele>
        <time>2013-11-10T15:33:09.207Z</time>
      </trkpt>
      <trkpt lat="48.78298" lon="2.28718">
        <ele>113.6</ele>
        <time>2013-11-10T15:33:10.183Z</time>
      </trkpt>
      <trkpt lat="48.78306" lon="2.28713">
        <ele>112.5</ele>
        <time>2013-11-10T15:33:21.208Z</time>
      </trkpt>
      <trkpt lat="48.78307" lon="2.28713">
        <ele>112.3</ele>
        <time>2013-11-10T15:33:22.208Z</time>
      </trkpt>
      <trkpt lat="48.78316" lon="2.28715">
        <ele>110.1</ele>
        <time>2013-11-10T15:33:31.205Z</time>
      </trkpt>
      <trkpt lat="48.78316" lon="2.28716">
        <ele>109.9</ele>
        <time>2013-11-10T15:33:32.206Z</time>
      </trkpt>
      <trkpt lat="48.78324" lon="2.28722">
        <ele>109.6</ele>
        <time>2013-11-10T15:33:40.198Z</time>
      </trkpt>
      <trkpt lat="48.78325" lon="2.28722">
        <ele>109.5</ele>
        <time>2013-11-10T15:33:41.193Z</time>
      </trkpt>
      <trkpt lat="48.78332" lon="2.28729">
        <ele>109.1</ele>
        <time>2013-11-10T15:33:48.186Z</time>
      </trkpt>
      <trkpt lat="48.78332" lon="2.28731">
        <ele>109.1</ele>
        <time>2013-11-10T15:33:49.209Z</time>
      </trkpt>
      <trkpt lat="48.78335" lon="2.28741">
        <ele>109.5</ele>
        <time>2013-11-10T15:33:54.207Z</time>
      </trkpt>
      <trkpt lat="48.78335" lon="2.28744">
        <ele>109.6</ele>
        <time>2013-11-10T15:33:55.206Z</time>
      </trkpt>
      <trkpt lat="48.78339" lon="2.28755">
        <ele>110.5</ele>
        <time>2013-11-10T15:34:08.204Z</time>
      </trkpt>
      <trkpt lat="48.78341" lon="2.28755">
        <ele>110.5</ele>
        <time>2013-11-10T15:34:09.205Z</time>
      </trkpt>
      <trkpt lat="48.78349" lon="2.28755">
        <ele>110.3</ele>
        <time>2013-11-10T15:34:14.201Z</time>
      </trkpt>
      <trkpt lat="48.7835" lon="2.28756">
        <ele>110.2</ele>
        <time>2013-11-10T15:34:15.201Z</time>
      </trkpt>
      <trkpt lat="48.78359" lon="2.28761">
        <ele>110.2</ele>
        <time>2013-11-10T15:34:25.206Z</time>
      </trkpt>
      <trkpt lat="48.78359" lon="2.28762">
        <ele>110.4</ele>
        <time>2013-11-10T15:34:26.184Z</time>
      </trkpt>
      <trkpt lat="48.78368" lon="2.28766">
        <ele>111.3</ele>
        <time>2013-11-10T15:34:35.190Z</time>
      </trkpt>
      <trkpt lat="48.78368" lon="2.28767">
        <ele>111.5</ele>
        <time>2013-11-10T15:34:36.175Z</time>
      </trkpt>
      <trkpt lat="48.78371" lon="2.28779">
        <ele>112.7</ele>
        <time>2013-11-10T15:34:44.176Z</time>
      </trkpt>
      <trkpt lat="48.78372" lon="2.2878">
        <ele>112.7</ele>
        <time>2013-11-10T15:34:45.202Z</time>
      </trkpt>
      <trkpt lat="48.78379" lon="2.28788">
        <ele>112.3</ele>
        <time>2013-11-10T15:34:51.203Z</time>
      </trkpt>
      <trkpt lat="48.7838" lon="2.28789">
        <ele>112.2</ele>
        <time>2013-11-10T15:34:52.208Z</time>
      </trkpt>
      <trkpt lat="48.78387" lon="2.28795">
        <ele>111.6</ele>
        <time>2013-11-10T15:34:58.207Z</time>
      </trkpt>
      <trkpt lat="48.78388" lon="2.28795">
        <ele>111.5</ele>
        <time>2013-11-10T15:34:59.206Z</time>
      </trkpt>
      <trkpt lat="48.78397" lon="2.28798">
        <ele>110.7</ele>
        <time>2013-11-10T15:35:09.197Z</time>
      </trkpt>
      <trkpt lat="48.78398" lon="2.28798">
        <ele>110.7</ele>
        <time>2013-11-10T15:35:10.201Z</time>
      </trkpt>
      <trkpt lat="48.78406" lon="2.28803">
        <ele>110.7</ele>
        <time>2013-11-10T15:35:19.204Z</time>
      </trkpt>
      <trkpt lat="48.78407" lon="2.28803">
        <ele>110.7</ele>
        <time>2013-11-10T15:35:20.205Z</time>
      </trkpt>
      <trkpt lat="48.78415" lon="2.28807">
        <ele>110.8</ele>
        <time>2013-11-10T15:35:27.442Z</time>
      </trkpt>
      <trkpt lat="48.78416" lon="2.28808">
        <ele>110.9</ele>
        <time>2013-11-10T15:35:28.203Z</time>
      </trkpt>
      <trkpt lat="48.78424" lon="2.2881">
        <ele>111.6</ele>
        <time>2013-11-10T15:35:35.203Z</time>
      </trkpt>
      <trkpt lat="48.78425" lon="2.2881">
        <ele>111.8</ele>
        <time>2013-11-10T15:35:36.187Z</time>
      </trkpt>
      <trkpt lat="48.78432" lon="2.28817">
        <ele>112.8</ele>
        <time>2013-11-10T15:35:44.204Z</time>
      </trkpt>
      <trkpt lat="48.78434" lon="2.28817">
        <ele>112.9</ele>
        <time>2013-11-10T15:35:45.208Z</time>
      </trkpt>
      <trkpt lat="48.78441" lon="2.28821">
        <ele>113.6</ele>
        <time>2013-11-10T15:35:51.209Z</time>
      </trkpt>
      <trkpt lat="48.78443" lon="2.28822">
        <ele>113.7</ele>
        <time>2013-11-10T15:35:52.209Z</time>
      </trkpt>
      <trkpt lat="48.78451" lon="2.28826">
        <ele>114.4</ele>
        <time>2013-11-10T15:35:59.205Z</time>
      </trkpt>
      <trkpt lat="48.78452" lon="2.28827">
        <ele>114.6</ele>
        <time>2013-11-10T15:36:00.182Z</time>
      </trkpt>
      <trkpt lat="48.7846" lon="2.28832">
        <ele>115</ele>
        <time>2013-11-10T15:36:09.200Z</time>
      </trkpt>
      <trkpt lat="48.78462" lon="2.28833">
        <ele>114.9</ele>
        <time>2013-11-10T15:36:10.202Z</time>
      </trkpt>
      <trkpt lat="48.78469" lon="2.28837">
        <ele>114.8</ele>
        <time>2013-11-10T15:36:15.210Z</time>
      </trkpt>
      <trkpt lat="48.7847" lon="2.28838">
        <ele>114.8</ele>
        <time>2013-11-10T15:36:16.203Z</time>
      </trkpt>
      <trkpt lat="48.78478" lon="2.28842">
        <ele>114.6</ele>
        <time>2013-11-10T15:36:23.192Z</time>
      </trkpt>
      <trkpt lat="48.78479" lon="2.28842">
        <ele>114.6</ele>
        <time>2013-11-10T15:36:24.193Z</time>
      </trkpt>
      <trkpt lat="48.78487" lon="2.28846">
        <ele>114.8</ele>
        <time>2013-11-10T15:36:32.268Z</time>
      </trkpt>
      <trkpt lat="48.78489" lon="2.28847">
        <ele>114.8</ele>
        <time>2013-11-10T15:36:33.204Z</time>
      </trkpt>
      <trkpt lat="48.78497" lon="2.28851">
        <ele>114.3</ele>
        <time>2013-11-10T15:36:40.190Z</time>
      </trkpt>
      <trkpt lat="48.78498" lon="2.28851">
        <ele>114.3</ele>
        <time>2013-11-10T15:36:41.188Z</time>
      </trkpt>
      <trkpt lat="48.78505" lon="2.28854">
        <ele>114.6</ele>
        <time>2013-11-10T15:36:48.204Z</time>
      </trkpt>
      <trkpt lat="48.78507" lon="2.28855">
        <ele>114.6</ele>
        <time>2013-11-10T15:36:49.203Z</time>
      </trkpt>
      <trkpt lat="48.78515" lon="2.28859">
        <ele>114.2</ele>
        <time>2013-11-10T15:36:55.202Z</time>
      </trkpt>
      <trkpt lat="48.78516" lon="2.2886">
        <ele>114.1</ele>
        <time>2013-11-10T15:36:56.209Z</time>
      </trkpt>
      <trkpt lat="48.78521" lon="2.28869">
        <ele>113.7</ele>
        <time>2013-11-10T15:37:03.201Z</time>
      </trkpt>
      <trkpt lat="48.78522" lon="2.2887">
        <ele>113.7</ele>
        <time>2013-11-10T15:37:04.201Z</time>
      </trkpt>
      <trkpt lat="48.78528" lon="2.28878">
        <ele>113.7</ele>
        <time>2013-11-10T15:37:11.216Z</time>
      </trkpt>
      <trkpt lat="48.78528" lon="2.28879">
        <ele>113.8</ele>
        <time>2013-11-10T15:37:12.185Z</time>
      </trkpt>
      <trkpt lat="48.78535" lon="2.28888">
        <ele>114.4</ele>
        <time>2013-11-10T15:37:20.189Z</time>
      </trkpt>
      <trkpt lat="48.78535" lon="2.28889">
        <ele>114.4</ele>
        <time>2013-11-10T15:37:21.206Z</time>
      </trkpt>
      <trkpt lat="48.78542" lon="2.28898">
        <ele>114.3</ele>
        <time>2013-11-10T15:37:28.193Z</time>
      </trkpt>
      <trkpt lat="48.78542" lon="2.28899">
        <ele>114.3</ele>
        <time>2013-11-10T15:37:29.183Z</time>
      </trkpt>
      <trkpt lat="48.78549" lon="2.28908">
        <ele>114.8</ele>
        <time>2013-11-10T15:37:39.204Z</time>
      </trkpt>
      <trkpt lat="48.7855" lon="2.28908">
        <ele>114.7</ele>
        <time>2013-11-10T15:37:40.201Z</time>
      </trkpt>
      <trkpt lat="48.78557" lon="2.28915">
        <ele>114.9</ele>
        <time>2013-11-10T15:37:46.201Z</time>
      </trkpt>
      <trkpt lat="48.78558" lon="2.28917">
        <ele>115</ele>
        <time>2013-11-10T15:37:47.199Z</time>
      </trkpt>
      <trkpt lat="48.78564" lon="2.28924">
        <ele>115.3</ele>
        <time>2013-11-10T15:37:52.468Z</time>
      </trkpt>
      <trkpt lat="48.78565" lon="2.28925">
        <ele>115.4</ele>
        <time>2013-11-10T15:37:53.209Z</time>
      </trkpt>
      <trkpt lat="48.78574" lon="2.2893">
        <ele>115.5</ele>
        <time>2013-11-10T15:37:59.187Z</time>
      </trkpt>
      <trkpt lat="48.78575" lon="2.2893">
        <ele>115.5</ele>
        <time>2013-11-10T15:38:00.190Z</time>
      </trkpt>
      <trkpt lat="48.78584" lon="2.28928">
        <ele>115.3</ele>
        <time>2013-11-10T15:38:06.210Z</time>
      </trkpt>
      <trkpt lat="48.78585" lon="2.28929">
        <ele>115.4</ele>
        <time>2013-11-10T15:38:07.207Z</time>
      </trkpt>
      <trkpt lat="48.78593" lon="2.28933">
        <ele>116</ele>
        <time>2013-11-10T15:38:14.200Z</time>
      </trkpt>
      <trkpt lat="48.78594" lon="2.28934">
        <ele>116</ele>
        <time>2013-11-10T15:38:15.226Z</time>
      </trkpt>
      <trkpt lat="48.78601" lon="2.28939">
        <ele>116.6</ele>
        <time>2013-11-10T15:38:21.199Z</time>
      </trkpt>
      <trkpt lat="48.78603" lon="2.2894">
        <ele>116.7</ele>
        <time>2013-11-10T15:38:22.213Z</time>
      </trkpt>
      <trkpt lat="48.78611" lon="2.28945">
        <ele>117</ele>
        <time>2013-11-10T15:38:27.263Z</time>
      </trkpt>
      <trkpt lat="48.78612" lon="2.28945">
        <ele>117</ele>
        <time>2013-11-10T15:38:28.181Z</time>
      </trkpt>
      <trkpt lat="48.78619" lon="2.28953">
        <ele>117.1</ele>
        <time>2013-11-10T15:38:37.357Z</time>
      </trkpt>
      <trkpt lat="48.7862" lon="2.28953">
        <ele>117</ele>
        <time>2013-11-10T15:38:38.201Z</time>
      </trkpt>
      <trkpt lat="48.78627" lon="2.28958">
        <ele>117.3</ele>
        <time>2013-11-10T15:38:44.196Z</time>
      </trkpt>
      <trkpt lat="48.78629" lon="2.28959">
        <ele>117.4</ele>
        <time>2013-11-10T15:38:45.201Z</time>
      </trkpt>
      <trkpt lat="48.78636" lon="2.28963">
        <ele>117.8</ele>
        <time>2013-11-10T15:38:50.198Z</time>
      </trkpt>
      <trkpt lat="48.78637" lon="2.28964">
        <ele>117.9</ele>
        <time>2013-11-10T15:38:51.199Z</time>
      </trkpt>
      <trkpt lat="48.78645" lon="2.28967">
        <ele>118.4</ele>
        <time>2013-11-10T15:38:58.926Z</time>
      </trkpt>
      <trkpt lat="48.78646" lon="2.28968">
        <ele>118.4</ele>
        <time>2013-11-10T15:38:59.198Z</time>
      </trkpt>
      <trkpt lat="48.78652" lon="2.28976">
        <ele>118.6</ele>
        <time>2013-11-10T15:39:04.203Z</time>
      </trkpt>
      <trkpt lat="48.78653" lon="2.28978">
        <ele>118.7</ele>
        <time>2013-11-10T15:39:05.201Z</time>
      </trkpt>
      <trkpt lat="48.7866" lon="2.28984">
        <ele>118.6</ele>
        <time>2013-11-10T15:39:11.198Z</time>
      </trkpt>
      <trkpt lat="48.78661" lon="2.28985">
        <ele>118.6</ele>
        <time>2013-11-10T15:39:12.199Z</time>
      </trkpt>
      <trkpt lat="48.78668" lon="2.28991">
        <ele>118.6</ele>
        <time>2013-11-10T15:39:21.198Z</time>
      </trkpt>
      <trkpt lat="48.78669" lon="2.28993">
        <ele>118.7</ele>
        <time>2013-11-10T15:39:22.205Z</time>
      </trkpt>
      <trkpt lat="48.78673" lon="2.29004">
        <ele>118.7</ele>
        <time>2013-11-10T15:39:31.201Z</time>
      </trkpt>
      <trkpt lat="48.78674" lon="2.29005">
        <ele>118.6</ele>
        <time>2013-11-10T15:39:32.195Z</time>
      </trkpt>
      <trkpt lat="48.78682" lon="2.2901">
        <ele>118.6</ele>
        <time>2013-11-10T15:39:38.198Z</time>
      </trkpt>
      <trkpt lat="48.78683" lon="2.29011">
        <ele>118.7</ele>
        <time>2013-11-10T15:39:39.196Z</time>
      </trkpt>
      <trkpt lat="48.78691" lon="2.29017">
        <ele>119.8</ele>
        <time>2013-11-10T15:39:47.449Z</time>
      </trkpt>
      <trkpt lat="48.78692" lon="2.29017">
        <ele>119.9</ele>
        <time>2013-11-10T15:39:48.198Z</time>
      </trkpt>
      <trkpt lat="48.787" lon="2.29021">
        <ele>120.2</ele>
        <time>2013-11-10T15:39:55.199Z</time>
      </trkpt>
      <trkpt lat="48.78701" lon="2.29022">
        <ele>120.2</ele>
        <time>2013-11-10T15:39:56.198Z</time>
      </trkpt>
      <trkpt lat="48.78708" lon="2.29028">
        <ele>120.7</ele>
        <time>2013-11-10T15:40:01.200Z</time>
      </trkpt>
      <trkpt lat="48.7871" lon="2.29029">
        <ele>120.7</ele>
        <time>2013-11-10T15:40:02.207Z</time>
      </trkpt>
      <trkpt lat="48.78717" lon="2.29031">
        <ele>121.9</ele>
        <time>2013-11-10T15:40:09.197Z</time>
      </trkpt>
      <trkpt lat="48.78719" lon="2.29032">
        <ele>122</ele>
        <time>2013-11-10T15:40:10.206Z</time>
      </trkpt>
      <trkpt lat="48.78726" lon="2.29034">
        <ele>122.4</ele>
        <time>2013-11-10T15:40:14.203Z</time>
      </trkpt>
      <trkpt lat="48.78728" lon="2.29034">
        <ele>122.6</ele>
        <time>2013-11-10T15:40:15.198Z</time>
      </trkpt>
      <trkpt lat="48.78737" lon="2.29035">
        <ele>123.2</ele>
        <time>2013-11-10T15:40:22.251Z</time>
      </trkpt>
      <trkpt lat="48.78738" lon="2.29036">
        <ele>123.3</ele>
        <time>2013-11-10T15:40:23.198Z</time>
      </trkpt>
      <trkpt lat="48.78743" lon="2.29046">
        <ele>123.8</ele>
        <time>2013-11-10T15:40:29.196Z</time>
      </trkpt>
      <trkpt lat="48.78744" lon="2.29047">
        <ele>123.9</ele>
        <time>2013-11-10T15:40:30.197Z</time>
      </trkpt>
      <trkpt lat="48.78749" lon="2.29058">
        <ele>124</ele>
        <time>2013-11-10T15:40:38.198Z</time>
      </trkpt>
      <trkpt lat="48.78749" lon="2.29059">
        <ele>124</ele>
        <time>2013-11-10T15:40:39.199Z</time>
      </trkpt>
      <trkpt lat="48.78757" lon="2.29066">
        <ele>124.3</ele>
        <time>2013-11-10T15:40:48.199Z</time>
      </trkpt>
      <trkpt lat="48.78758" lon="2.29067">
        <ele>124.3</ele>
        <time>2013-11-10T15:40:49.201Z</time>
      </trkpt>
      <trkpt lat="48.78765" lon="2.29074">
        <ele>124.2</ele>
        <time>2013-11-10T15:40:53.200Z</time>
      </trkpt>
      <trkpt lat="48.78766" lon="2.29076">
        <ele>124.2</ele>
        <time>2013-11-10T15:40:54.202Z</time>
      </trkpt>
      <trkpt lat="48.78775" lon="2.29076">
        <ele>123.5</ele>
        <time>2013-11-10T15:41:01.196Z</time>
      </trkpt>
      <trkpt lat="48.78776" lon="2.29076">
        <ele>123.4</ele>
        <time>2013-11-10T15:41:02.238Z</time>
      </trkpt>
      <trkpt lat="48.78784" lon="2.2907">
        <ele>122.4</ele>
        <time>2013-11-10T15:41:09.197Z</time>
      </trkpt>
      <trkpt lat="48.78785" lon="2.29069">
        <ele>122.3</ele>
        <time>2013-11-10T15:41:10.169Z</time>
      </trkpt>
      <trkpt lat="48.78791" lon="2.29059">
        <ele>122.2</ele>
        <time>2013-11-10T15:41:15.187Z</time>
      </trkpt>
      <trkpt lat="48.78792" lon="2.29058">
        <ele>122.2</ele>
        <time>2013-11-10T15:41:16.189Z</time>
      </trkpt>
      <trkpt lat="48.788" lon="2.29056">
        <ele>122.1</ele>
        <time>2013-11-10T15:41:24.188Z</time>
      </trkpt>
      <trkpt lat="48.78801" lon="2.29057">
        <ele>122.1</ele>
        <time>2013-11-10T15:41:25.190Z</time>
      </trkpt>
      <trkpt lat="48.7881" lon="2.29056">
        <ele>121.6</ele>
        <time>2013-11-10T15:41:34.196Z</time>
      </trkpt>
      <trkpt lat="48.78811" lon="2.29056">
        <ele>121.6</ele>
        <time>2013-11-10T15:41:35.199Z</time>
      </trkpt>
      <trkpt lat="48.7882" lon="2.29057">
        <ele>121.5</ele>
        <time>2013-11-10T15:41:42.556Z</time>
      </trkpt>
      <trkpt lat="48.78821" lon="2.29057">
        <ele>121.4</ele>
        <time>2013-11-10T15:41:43.197Z</time>
      </trkpt>
      <trkpt lat="48.78828" lon="2.29063">
        <ele>121.1</ele>
        <time>2013-11-10T15:41:51.209Z</time>
      </trkpt>
      <trkpt lat="48.78829" lon="2.29064">
        <ele>121.1</ele>
        <time>2013-11-10T15:41:52.207Z</time>
      </trkpt>
      <trkpt lat="48.78836" lon="2.29067">
        <ele>120.3</ele>
        <time>2013-11-10T15:41:57.183Z</time>
      </trkpt>
      <trkpt lat="48.78838" lon="2.29067">
        <ele>120.1</ele>
        <time>2013-11-10T15:41:58.198Z</time>
      </trkpt>
      <trkpt lat="48.78846" lon="2.29068">
        <ele>118.4</ele>
        <time>2013-11-10T15:42:07.404Z</time>
      </trkpt>
      <trkpt lat="48.78847" lon="2.29068">
        <ele>118.4</ele>
        <time>2013-11-10T15:42:08.177Z</time>
      </trkpt>
      <trkpt lat="48.78855" lon="2.29074">
        <ele>118.5</ele>
        <time>2013-11-10T15:42:19.199Z</time>
      </trkpt>
      <trkpt lat="48.78855" lon="2.29075">
        <ele>118.5</ele>
        <time>2013-11-10T15:42:20.212Z</time>
      </trkpt>
      <trkpt lat="48.78863" lon="2.29081">
        <ele>119</ele>
        <time>2013-11-10T15:42:26.203Z</time>
      </trkpt>
      <trkpt lat="48.78865" lon="2.29082">
        <ele>119</ele>
        <time>2013-11-10T15:42:27.210Z</time>
      </trkpt>
      <trkpt lat="48.78873" lon="2.29084">
        <ele>119.2</ele>
        <time>2013-11-10T15:42:36.191Z</time>
      </trkpt>
      <trkpt lat="48.78874" lon="2.29084">
        <ele>119.3</ele>
        <time>2013-11-10T15:42:37.199Z</time>
      </trkpt>
      <trkpt lat="48.78877" lon="2.29095">
        <ele>120.1</ele>
        <time>2013-11-10T15:42:46.202Z</time>
      </trkpt>
      <trkpt lat="48.78878" lon="2.29098">
        <ele>120.2</ele>
        <time>2013-11-10T15:42:47.201Z</time>
      </trkpt>
      <trkpt lat="48.78881" lon="2.2911">
        <ele>121.3</ele>
        <time>2013-11-10T15:42:55.202Z</time>
      </trkpt>
      <trkpt lat="48.78881" lon="2.29111">
        <ele>121.4</ele>
        <time>2013-11-10T15:42:56.201Z</time>
      </trkpt>
      <trkpt lat="48.78882" lon="2.29124">
        <ele>122.2</ele>
        <time>2013-11-10T15:43:05.199Z</time>
      </trkpt>
      <trkpt lat="48.78882" lon="2.29126">
        <ele>122.2</ele>
        <time>2013-11-10T15:43:06.208Z</time>
      </trkpt>
      <trkpt lat="48.78882" lon="2.29138">
        <ele>122.5</ele>
        <time>2013-11-10T15:43:12.235Z</time>
      </trkpt>
      <trkpt lat="48.78882" lon="2.2914">
        <ele>122.5</ele>
        <time>2013-11-10T15:43:13.202Z</time>
      </trkpt>
      <trkpt lat="48.78891" lon="2.29143">
        <ele>124.6</ele>
        <time>2013-11-10T15:43:32.404Z</time>
      </trkpt>
      <trkpt lat="48.78891" lon="2.29142">
        <ele>124.6</ele>
        <time>2013-11-10T15:43:33.203Z</time>
      </trkpt>
      <trkpt lat="48.78899" lon="2.29138">
        <ele>126</ele>
        <time>2013-11-10T15:43:44.200Z</time>
      </trkpt>
      <trkpt lat="48.789" lon="2.29137">
        <ele>126.2</ele>
        <time>2013-11-10T15:43:45.179Z</time>
      </trkpt>
      <trkpt lat="48.78908" lon="2.29131">
        <ele>128.1</ele>
        <time>2013-11-10T15:43:54.195Z</time>
      </trkpt>
      <trkpt lat="48.78909" lon="2.29132">
        <ele>128.3</ele>
        <time>2013-11-10T15:43:55.187Z</time>
      </trkpt>
      <trkpt lat="48.78918" lon="2.29132">
        <ele>129.4</ele>
        <time>2013-11-10T15:44:02.188Z</time>
      </trkpt>
      <trkpt lat="48.78919" lon="2.29132">
        <ele>129.5</ele>
        <time>2013-11-10T15:44:03.199Z</time>
      </trkpt>
      <trkpt lat="48.78928" lon="2.29132">
        <ele>131.4</ele>
        <time>2013-11-10T15:44:16.179Z</time>
      </trkpt>
      <trkpt lat="48.78929" lon="2.29132">
        <ele>131.6</ele>
        <time>2013-11-10T15:44:17.164Z</time>
      </trkpt>
      <trkpt lat="48.78937" lon="2.29132">
        <ele>133.4</ele>
        <time>2013-11-10T15:44:32.187Z</time>
      </trkpt>
      <trkpt lat="48.78938" lon="2.29132">
        <ele>133.6</ele>
        <time>2013-11-10T15:44:33.207Z</time>
      </trkpt>
      <trkpt lat="48.78945" lon="2.29124">
        <ele>134.9</ele>
        <time>2013-11-10T15:44:43.182Z</time>
      </trkpt>
      <trkpt lat="48.78946" lon="2.29123">
        <ele>135</ele>
        <time>2013-11-10T15:44:44.190Z</time>
      </trkpt>
      <trkpt lat="48.78954" lon="2.29126">
        <ele>134.5</ele>
        <time>2013-11-10T15:44:50.644Z</time>
      </trkpt>
      <trkpt lat="48.78956" lon="2.29127">
        <ele>134.4</ele>
        <time>2013-11-10T15:44:51.186Z</time>
      </trkpt>
      <trkpt lat="48.78964" lon="2.29129">
        <ele>133.6</ele>
        <time>2013-11-10T15:45:00.212Z</time>
      </trkpt>
      <trkpt lat="48.78965" lon="2.29129">
        <ele>133.7</ele>
        <time>2013-11-10T15:45:01.182Z</time>
      </trkpt>
      <trkpt lat="48.78973" lon="2.29133">
        <ele>134.2</ele>
        <time>2013-11-10T15:45:10.203Z</time>
      </trkpt>
      <trkpt lat="48.78974" lon="2.29133">
        <ele>134.2</ele>
        <time>2013-11-10T15:45:11.184Z</time>
      </trkpt>
      <trkpt lat="48.78983" lon="2.2913">
        <ele>134.6</ele>
        <time>2013-11-10T15:45:21.185Z</time>
      </trkpt>
      <trkpt lat="48.78983" lon="2.2913">
        <ele>134.6</ele>
        <time>2013-11-10T15:45:22.186Z</time>
      </trkpt>
      <trkpt lat="48.78991" lon="2.29129">
        <ele>135.6</ele>
        <time>2013-11-10T15:45:33.173Z</time>
      </trkpt>
      <trkpt lat="48.78992" lon="2.29129">
        <ele>135.6</ele>
        <time>2013-11-10T15:45:34.185Z</time>
      </trkpt>
      <trkpt lat="48.79" lon="2.29126">
        <ele>135.7</ele>
        <time>2013-11-10T15:45:40.173Z</time>
      </trkpt>
      <trkpt lat="48.79002" lon="2.29126">
        <ele>135.7</ele>
        <time>2013-11-10T15:45:41.185Z</time>
      </trkpt>
      <trkpt lat="48.7901" lon="2.29125">
        <ele>136.2</ele>
        <time>2013-11-10T15:45:48.194Z</time>
      </trkpt>
      <trkpt lat="48.79011" lon="2.29125">
        <ele>136.4</ele>
        <time>2013-11-10T15:45:49.194Z</time>
      </trkpt>
      <trkpt lat="48.79013" lon="2.29113">
        <ele>137.6</ele>
        <time>2013-11-10T15:45:55.179Z</time>
      </trkpt>
      <trkpt lat="48.79013" lon="2.29111">
        <ele>137.8</ele>
        <time>2013-11-10T15:45:56.210Z</time>
      </trkpt>
      <trkpt lat="48.79016" lon="2.291">
        <ele>138.2</ele>
        <time>2013-11-10T15:46:03.180Z</time>
      </trkpt>
      <trkpt lat="48.79017" lon="2.29098">
        <ele>138.4</ele>
        <time>2013-11-10T15:46:04.199Z</time>
      </trkpt>
      <trkpt lat="48.79021" lon="2.29086">
        <ele>140.1</ele>
        <time>2013-11-10T15:46:14.216Z</time>
      </trkpt>
      <trkpt lat="48.79022" lon="2.29085">
        <ele>140.2</ele>
        <time>2013-11-10T15:46:15.191Z</time>
      </trkpt>
      <trkpt lat="48.79023" lon="2.29073">
        <ele>140.4</ele>
        <time>2013-11-10T15:46:33.206Z</time>
      </trkpt>
      <trkpt lat="48.79023" lon="2.29071">
        <ele>140.3</ele>
        <time>2013-11-10T15:46:34.214Z</time>
      </trkpt>
      <trkpt lat="48.79025" lon="2.29059">
        <ele>139.5</ele>
        <time>2013-11-10T15:46:38.183Z</time>
      </trkpt>
      <trkpt lat="48.79026" lon="2.29056">
        <ele>139.1</ele>
        <time>2013-11-10T15:46:39.180Z</time>
      </trkpt>
      <trkpt lat="48.79027" lon="2.29044">
        <ele>138</ele>
        <time>2013-11-10T15:46:44.184Z</time>
      </trkpt>
      <trkpt lat="48.79027" lon="2.29042">
        <ele>137.8</ele>
        <time>2013-11-10T15:46:45.183Z</time>
      </trkpt>
      <trkpt lat="48.79032" lon="2.29031">
        <ele>137.1</ele>
        <time>2013-11-10T15:46:55.197Z</time>
      </trkpt>
      <trkpt lat="48.79032" lon="2.29029">
        <ele>137.3</ele>
        <time>2013-11-10T15:46:56.195Z</time>
      </trkpt>
      <trkpt lat="48.79037" lon="2.29018">
        <ele>138.4</ele>
        <time>2013-11-10T15:47:02.202Z</time>
      </trkpt>
      <trkpt lat="48.79038" lon="2.29016">
        <ele>138.5</ele>
        <time>2013-11-10T15:47:03.194Z</time>
      </trkpt>
      <trkpt lat="48.7904" lon="2.29003">
        <ele>139.4</ele>
        <time>2013-11-10T15:47:11.208Z</time>
      </trkpt>
      <trkpt lat="48.7904" lon="2.29002">
        <ele>139.5</ele>
        <time>2013-11-10T15:47:12.213Z</time>
      </trkpt>
      <trkpt lat="48.79041" lon="2.28989">
        <ele>141.4</ele>
        <time>2013-11-10T15:47:20.207Z</time>
      </trkpt>
      <trkpt lat="48.79041" lon="2.28988">
        <ele>141.4</ele>
        <time>2013-11-10T15:47:21.207Z</time>
      </trkpt>
      <trkpt lat="48.7904" lon="2.28988">
        <ele>141.6</ele>
        <time>2013-11-10T15:47:23.207Z</time>
      </trkpt>
      <trkpt lat="48.79041" lon="2.28988">
        <ele>141.8</ele>
        <time>2013-11-10T15:47:24.198Z</time>
      </trkpt>
      <trkpt lat="48.79041" lon="2.28988">
        <ele>142</ele>
        <time>2013-11-10T15:47:25.213Z</time>
      </trkpt>
      <trkpt lat="48.79049" lon="2.28981">
        <ele>143.2</ele>
        <time>2013-11-10T15:47:31.177Z</time>
      </trkpt>
      <trkpt lat="48.79049" lon="2.28978">
        <ele>143.4</ele>
        <time>2013-11-10T15:47:32.176Z</time>
      </trkpt>
      <trkpt lat="48.79051" lon="2.28965">
        <ele>144.7</ele>
        <time>2013-11-10T15:47:38.175Z</time>
      </trkpt>
      <trkpt lat="48.79051" lon="2.28963">
        <ele>145.2</ele>
        <time>2013-11-10T15:47:39.175Z</time>
      </trkpt>
      <trkpt lat="48.79056" lon="2.28952">
        <ele>146.7</ele>
        <time>2013-11-10T15:47:50.200Z</time>
      </trkpt>
      <trkpt lat="48.79056" lon="2.28951">
        <ele>146.8</ele>
        <time>2013-11-10T15:47:51.198Z</time>
      </trkpt>
      <trkpt lat="48.79058" lon="2.28938">
        <ele>149.6</ele>
        <time>2013-11-10T15:47:58.197Z</time>
      </trkpt>
      <trkpt lat="48.79058" lon="2.28936">
        <ele>150.2</ele>
        <time>2013-11-10T15:47:59.201Z</time>
      </trkpt>
      <trkpt lat="48.7906" lon="2.28923">
        <ele>152.2</ele>
        <time>2013-11-10T15:48:03.198Z</time>
      </trkpt>
      <trkpt lat="48.79061" lon="2.28921">
        <ele>152.8</ele>
        <time>2013-11-10T15:48:04.212Z</time>
      </trkpt>
      <trkpt lat="48.79069" lon="2.28915">
        <ele>156.7</ele>
        <time>2013-11-10T15:48:16.192Z</time>
      </trkpt>
      <trkpt lat="48.79069" lon="2.28915">
        <ele>156.8</ele>
        <time>2013-11-10T15:48:17.199Z</time>
      </trkpt>
      <trkpt lat="48.79069" lon="2.28916">
        <ele>157</ele>
        <time>2013-11-10T15:48:19.193Z</time>
      </trkpt>
      <trkpt lat="48.79069" lon="2.28916">
        <ele>157</ele>
        <time>2013-11-10T15:48:20.192Z</time>
      </trkpt>
      <trkpt lat="48.79069" lon="2.28916">
        <ele>158.4</ele>
        <time>2013-11-10T15:48:28.201Z</time>
      </trkpt>
      <trkpt lat="48.79069" lon="2.28915">
        <ele>158.9</ele>
        <time>2013-11-10T15:48:29.193Z</time>
      </trkpt>
      <trkpt lat="48.79067" lon="2.28902">
        <ele>160.7</ele>
        <time>2013-11-10T15:48:33.181Z</time>
      </trkpt>
      <trkpt lat="48.79067" lon="2.28897">
        <ele>161.2</ele>
        <time>2013-11-10T15:48:34.204Z</time>
      </trkpt>
      <trkpt lat="48.79067" lon="2.28884">
        <ele>160.2</ele>
        <time>2013-11-10T15:48:42.495Z</time>
      </trkpt>
      <trkpt lat="48.79068" lon="2.28883">
        <ele>159.9</ele>
        <time>2013-11-10T15:48:43.196Z</time>
      </trkpt>
      <trkpt lat="48.79069" lon="2.2887">
        <ele>158.1</ele>
        <time>2013-11-10T15:48:51.192Z</time>
      </trkpt>
      <trkpt lat="48.7907" lon="2.28868">
        <ele>157.9</ele>
        <time>2013-11-10T15:48:52.207Z</time>
      </trkpt>
      <trkpt lat="48.79072" lon="2.28855">
        <ele>156.4</ele>
        <time>2013-11-10T15:48:59.201Z</time>
      </trkpt>
      <trkpt lat="48.79073" lon="2.28854">
        <ele>156.2</ele>
        <time>2013-11-10T15:49:00.219Z</time>
      </trkpt>
      <trkpt lat="48.79078" lon="2.28844">
        <ele>154.5</ele>
        <time>2013-11-10T15:49:08.211Z</time>
      </trkpt>
      <trkpt lat="48.79079" lon="2.28843">
        <ele>154.3</ele>
        <time>2013-11-10T15:49:09.205Z</time>
      </trkpt>
      <trkpt lat="48.79082" lon="2.2883">
        <ele>153.3</ele>
        <time>2013-11-10T15:49:17.185Z</time>
      </trkpt>
      <trkpt lat="48.79082" lon="2.28828">
        <ele>153.1</ele>
        <time>2013-11-10T15:49:17.202Z</time>
      </trkpt>
      <trkpt lat="48.79081" lon="2.28816">
        <ele>152.6</ele>
        <time>2013-11-10T15:49:23.182Z</time>
      </trkpt>
      <trkpt lat="48.79081" lon="2.28814">
        <ele>152.5</ele>
        <time>2013-11-10T15:49:24.187Z</time>
      </trkpt>
      <trkpt lat="48.79082" lon="2.28802">
        <ele>152.4</ele>
        <time>2013-11-10T15:49:33.188Z</time>
      </trkpt>
      <trkpt lat="48.79082" lon="2.288">
        <ele>152.3</ele>
        <time>2013-11-10T15:49:34.189Z</time>
      </trkpt>
      <trkpt lat="48.79083" lon="2.28787">
        <ele>152.6</ele>
        <time>2013-11-10T15:49:40.195Z</time>
      </trkpt>
      <trkpt lat="48.79083" lon="2.28785">
        <ele>152.7</ele>
        <time>2013-11-10T15:49:41.185Z</time>
      </trkpt>
      <trkpt lat="48.79084" lon="2.28781">
        <ele>153.1</ele>
        <time>2013-11-10T15:49:46.183Z</time>
      </trkpt>
      <trkpt lat="48.79084" lon="2.28783">
        <ele>153.1</ele>
        <time>2013-11-10T15:49:47.186Z</time>
      </trkpt>
      <trkpt lat="48.79084" lon="2.28783">
        <ele>153.1</ele>
        <time>2013-11-10T15:49:47.305Z</time>
      </trkpt>
      <trkpt lat="48.79083" lon="2.28784">
        <ele>153.1</ele>
        <time>2013-11-10T15:49:48.179Z</time>
      </trkpt>
      <trkpt lat="48.79083" lon="2.28785">
        <ele>153.3</ele>
        <time>2013-11-10T15:49:51.182Z</time>
      </trkpt>
      <trkpt lat="48.79083" lon="2.28784">
        <ele>153.5</ele>
        <time>2013-11-10T15:49:52.194Z</time>
      </trkpt>
      <trkpt lat="48.79083" lon="2.28784">
        <ele>153.5</ele>
        <time>2013-11-10T15:49:52.337Z</time>
      </trkpt>
      <trkpt lat="48.79084" lon="2.28783">
        <ele>153.6</ele>
        <time>2013-11-10T15:49:53.179Z</time>
      </trkpt>
      <trkpt lat="48.7909" lon="2.28775">
        <ele>153.4</ele>
        <time>2013-11-10T15:49:59.188Z</time>
      </trkpt>
      <trkpt lat="48.7909" lon="2.28774">
        <ele>153.3</ele>
        <time>2013-11-10T15:50:00.191Z</time>
      </trkpt>
      <trkpt lat="48.79096" lon="2.28764">
        <ele>153.8</ele>
        <time>2013-11-10T15:50:15.194Z</time>
      </trkpt>
      <trkpt lat="48.79096" lon="2.28764">
        <ele>153.9</ele>
        <time>2013-11-10T15:50:16.183Z</time>
      </trkpt>
      <trkpt lat="48.79096" lon="2.28764">
        <ele>153.9</ele>
        <time>2013-11-10T15:50:17.174Z</time>
      </trkpt>
      <trkpt lat="48.79096" lon="2.28763">
        <ele>153.8</ele>
        <time>2013-11-10T15:50:17.210Z</time>
      </trkpt>
      <trkpt lat="48.79101" lon="2.28753">
        <ele>153.9</ele>
        <time>2013-11-10T15:50:24.203Z</time>
      </trkpt>
      <trkpt lat="48.79102" lon="2.28751">
        <ele>153.9</ele>
        <time>2013-11-10T15:50:25.178Z</time>
      </trkpt>
      <trkpt lat="48.79108" lon="2.2874">
        <ele>153.6</ele>
        <time>2013-11-10T15:50:30.186Z</time>
      </trkpt>
      <trkpt lat="48.79108" lon="2.28739">
        <ele>153.6</ele>
        <time>2013-11-10T15:50:31.180Z</time>
      </trkpt>
      <trkpt lat="48.79113" lon="2.28729">
        <ele>152.6</ele>
        <time>2013-11-10T15:50:39.181Z</time>
      </trkpt>
      <trkpt lat="48.79114" lon="2.28727">
        <ele>152.3</ele>
        <time>2013-11-10T15:50:40.217Z</time>
      </trkpt>
      <trkpt lat="48.79119" lon="2.28718">
        <ele>151.4</ele>
        <time>2013-11-10T15:50:47.274Z</time>
      </trkpt>
      <trkpt lat="48.7912" lon="2.28717">
        <ele>151.3</ele>
        <time>2013-11-10T15:50:48.183Z</time>
      </trkpt>
      <trkpt lat="48.79126" lon="2.28708">
        <ele>150.5</ele>
        <time>2013-11-10T15:50:54.185Z</time>
      </trkpt>
      <trkpt lat="48.79127" lon="2.28707">
        <ele>150.4</ele>
        <time>2013-11-10T15:50:55.184Z</time>
      </trkpt>
      <trkpt lat="48.79132" lon="2.28697">
        <ele>151</ele>
        <time>2013-11-10T15:51:05.203Z</time>
      </trkpt>
      <trkpt lat="48.79133" lon="2.28696">
        <ele>151.2</ele>
        <time>2013-11-10T15:51:06.195Z</time>
      </trkpt>
      <trkpt lat="48.7914" lon="2.2869">
        <ele>152.4</ele>
        <time>2013-11-10T15:51:12.270Z</time>
      </trkpt>
      <trkpt lat="48.79141" lon="2.28689">
        <ele>152.5</ele>
        <time>2013-11-10T15:51:13.196Z</time>
      </trkpt>
      <trkpt lat="48.79146" lon="2.28679">
        <ele>152.9</ele>
        <time>2013-11-10T15:51:19.194Z</time>
      </trkpt>
      <trkpt lat="48.79147" lon="2.28677">
        <ele>153</ele>
        <time>2013-11-10T15:51:20.202Z</time>
      </trkpt>
      <trkpt lat="48.7915" lon="2.28665">
        <ele>154</ele>
        <time>2013-11-10T15:51:27.313Z</time>
      </trkpt>
      <trkpt lat="48.79151" lon="2.28664">
        <ele>154.2</ele>
        <time>2013-11-10T15:51:28.192Z</time>
      </trkpt>
      <trkpt lat="48.79157" lon="2.28655">
        <ele>154.7</ele>
        <time>2013-11-10T15:51:38.190Z</time>
      </trkpt>
      <trkpt lat="48.79158" lon="2.28654">
        <ele>154.7</ele>
        <time>2013-11-10T15:51:39.189Z</time>
      </trkpt>
      <trkpt lat="48.79164" lon="2.28646">
        <ele>154.7</ele>
        <time>2013-11-10T15:51:45.177Z</time>
      </trkpt>
      <trkpt lat="48.79165" lon="2.28645">
        <ele>154.8</ele>
        <time>2013-11-10T15:51:46.187Z</time>
      </trkpt>
      <trkpt lat="48.79172" lon="2.28653">
        <ele>155.2</ele>
        <time>2013-11-10T15:52:02.242Z</time>
      </trkpt>
      <trkpt lat="48.79172" lon="2.28653">
        <ele>155.2</ele>
        <time>2013-11-10T15:52:03.175Z</time>
      </trkpt>
      <trkpt lat="48.79172" lon="2.28651">
        <ele>155.2</ele>
        <time>2013-11-10T15:52:07.215Z</time>
      </trkpt>
      <trkpt lat="48.79171" lon="2.28651">
        <ele>155.3</ele>
        <time>2013-11-10T15:52:08.181Z</time>
      </trkpt>
      <trkpt lat="48.79173" lon="2.28638">
        <ele>155.8</ele>
        <time>2013-11-10T15:52:18.197Z</time>
      </trkpt>
      <trkpt lat="48.79174" lon="2.28636">
        <ele>155.9</ele>
        <time>2013-11-10T15:52:19.198Z</time>
      </trkpt>
      <trkpt lat="48.79181" lon="2.28628">
        <ele>156.4</ele>
        <time>2013-11-10T15:52:23.198Z</time>
      </trkpt>
      <trkpt lat="48.79182" lon="2.28626">
        <ele>156.5</ele>
        <time>2013-11-10T15:52:24.195Z</time>
      </trkpt>
      <trkpt lat="48.79187" lon="2.28616">
        <ele>157.6</ele>
        <time>2013-11-10T15:52:34.186Z</time>
      </trkpt>
      <trkpt lat="48.79188" lon="2.28615">
        <ele>157.7</ele>
        <time>2013-11-10T15:52:35.192Z</time>
      </trkpt>
      <trkpt lat="48.79194" lon="2.28608">
        <ele>158.3</ele>
        <time>2013-11-10T15:52:43.181Z</time>
      </trkpt>
      <trkpt lat="48.79195" lon="2.28606">
        <ele>158.4</ele>
        <time>2013-11-10T15:52:44.187Z</time>
      </trkpt>
      <trkpt lat="48.792" lon="2.28595">
        <ele>158.2</ele>
        <time>2013-11-10T15:52:55.203Z</time>
      </trkpt>
      <trkpt lat="48.79201" lon="2.28594">
        <ele>158.3</ele>
        <time>2013-11-10T15:52:56.207Z</time>
      </trkpt>
      <trkpt lat="48.79204" lon="2.28582">
        <ele>158.5</ele>
        <time>2013-11-10T15:53:02.200Z</time>
      </trkpt>
      <trkpt lat="48.79205" lon="2.28579">
        <ele>158.5</ele>
        <time>2013-11-10T15:53:02.221Z</time>
      </trkpt>
      <trkpt lat="48.7921" lon="2.28569">
        <ele>158.1</ele>
        <time>2013-11-10T15:53:09.209Z</time>
      </trkpt>
      <trkpt lat="48.7921" lon="2.28568">
        <ele>158.1</ele>
        <time>2013-11-10T15:53:10.201Z</time>
      </trkpt>
      <trkpt lat="48.79216" lon="2.28559">
        <ele>157.2</ele>
        <time>2013-11-10T15:53:20.225Z</time>
      </trkpt>
      <trkpt lat="48.79217" lon="2.28557">
        <ele>157.2</ele>
        <time>2013-11-10T15:53:21.211Z</time>
      </trkpt>
      <trkpt lat="48.79225" lon="2.28553">
        <ele>157.6</ele>
        <time>2013-11-10T15:53:25.220Z</time>
      </trkpt>
      <trkpt lat="48.79226" lon="2.28553">
        <ele>157.8</ele>
        <time>2013-11-10T15:53:26.205Z</time>
      </trkpt>
      <trkpt lat="48.79233" lon="2.28544">
        <ele>159.1</ele>
        <time>2013-11-10T15:53:33.192Z</time>
      </trkpt>
      <trkpt lat="48.79234" lon="2.28544">
        <ele>159.2</ele>
        <time>2013-11-10T15:53:34.208Z</time>
      </trkpt>
      <trkpt lat="48.7924" lon="2.28534">
        <ele>160.5</ele>
        <time>2013-11-10T15:53:46.220Z</time>
      </trkpt>
      <trkpt lat="48.7924" lon="2.28533">
        <ele>160.6</ele>
        <time>2013-11-10T15:53:47.197Z</time>
      </trkpt>
      <trkpt lat="48.79244" lon="2.28522">
        <ele>160.4</ele>
        <time>2013-11-10T15:53:55.207Z</time>
      </trkpt>
      <trkpt lat="48.79245" lon="2.2852">
        <ele>160.4</ele>
        <time>2013-11-10T15:53:56.210Z</time>
      </trkpt>
      <trkpt lat="48.79248" lon="2.28508">
        <ele>160.3</ele>
        <time>2013-11-10T15:54:03.210Z</time>
      </trkpt>
      <trkpt lat="48.79248" lon="2.28506">
        <ele>160.3</ele>
        <time>2013-11-10T15:54:04.200Z</time>
      </trkpt>
      <trkpt lat="48.79254" lon="2.28498">
        <ele>160.7</ele>
        <time>2013-11-10T15:54:12.265Z</time>
      </trkpt>
      <trkpt lat="48.79254" lon="2.28496">
        <ele>160.7</ele>
        <time>2013-11-10T15:54:13.208Z</time>
      </trkpt>
      <trkpt lat="48.79262" lon="2.28489">
        <ele>160.6</ele>
        <time>2013-11-10T15:54:22.612Z</time>
      </trkpt>
      <trkpt lat="48.79263" lon="2.28489">
        <ele>160.7</ele>
        <time>2013-11-10T15:54:23.195Z</time>
      </trkpt>
      <trkpt lat="48.79271" lon="2.28487">
        <ele>161</ele>
        <time>2013-11-10T15:54:29.196Z</time>
      </trkpt>
      <trkpt lat="48.79273" lon="2.28486">
        <ele>161.2</ele>
        <time>2013-11-10T15:54:30.504Z</time>
      </trkpt>
      <trkpt lat="48.7928" lon="2.28481">
        <ele>162.1</ele>
        <time>2013-11-10T15:54:36.198Z</time>
      </trkpt>
      <trkpt lat="48.79281" lon="2.2848">
        <ele>162.2</ele>
        <time>2013-11-10T15:54:37.209Z</time>
      </trkpt>
      <trkpt lat="48.79288" lon="2.28472">
        <ele>162.4</ele>
        <time>2013-11-10T15:54:45.201Z</time>
      </trkpt>
      <trkpt lat="48.79289" lon="2.28471">
        <ele>162.4</ele>
        <time>2013-11-10T15:54:46.220Z</time>
      </trkpt>
      <trkpt lat="48.79296" lon="2.28464">
        <ele>162.5</ele>
        <time>2013-11-10T15:54:53.209Z</time>
      </trkpt>
      <trkpt lat="48.79296" lon="2.28462">
        <ele>162.6</ele>
        <time>2013-11-10T15:54:54.211Z</time>
      </trkpt>
      <trkpt lat="48.793" lon="2.28451">
        <ele>162.6</ele>
        <time>2013-11-10T15:55:02.216Z</time>
      </trkpt>
      <trkpt lat="48.79301" lon="2.2845">
        <ele>162.7</ele>
        <time>2013-11-10T15:55:03.211Z</time>
      </trkpt>
      <trkpt lat="48.79309" lon="2.28452">
        <ele>163</ele>
        <time>2013-11-10T15:55:10.212Z</time>
      </trkpt>
      <trkpt lat="48.7931" lon="2.28452">
        <ele>163.1</ele>
        <time>2013-11-10T15:55:11.201Z</time>
      </trkpt>
      <trkpt lat="48.79319" lon="2.28451">
        <ele>163</ele>
        <time>2013-11-10T15:55:17.239Z</time>
      </trkpt>
      <trkpt lat="48.7932" lon="2.28451">
        <ele>163</ele>
        <time>2013-11-10T15:55:18.171Z</time>
      </trkpt>
      <trkpt lat="48.79328" lon="2.2845">
        <ele>162.6</ele>
        <time>2013-11-10T15:55:27.377Z</time>
      </trkpt>
      <trkpt lat="48.79329" lon="2.2845">
        <ele>162.6</ele>
        <time>2013-11-10T15:55:28.227Z</time>
      </trkpt>
      <trkpt lat="48.79337" lon="2.28448">
        <ele>162.6</ele>
        <time>2013-11-10T15:55:36.204Z</time>
      </trkpt>
      <trkpt lat="48.79339" lon="2.28448">
        <ele>162.6</ele>
        <time>2013-11-10T15:55:37.214Z</time>
      </trkpt>
      <trkpt lat="48.79347" lon="2.28444">
        <ele>163.2</ele>
        <time>2013-11-10T15:55:51.205Z</time>
      </trkpt>
      <trkpt lat="48.79347" lon="2.28443">
        <ele>163.2</ele>
        <time>2013-11-10T15:55:52.204Z</time>
      </trkpt>
      <trkpt lat="48.79355" lon="2.2844">
        <ele>163.9</ele>
        <time>2013-11-10T15:56:04.205Z</time>
      </trkpt>
      <trkpt lat="48.79356" lon="2.28439">
        <ele>164</ele>
        <time>2013-11-10T15:56:05.202Z</time>
      </trkpt>
      <trkpt lat="48.79362" lon="2.2843">
        <ele>164.6</ele>
        <time>2013-11-10T15:56:10.192Z</time>
      </trkpt>
      <trkpt lat="48.79363" lon="2.28428">
        <ele>164.9</ele>
        <time>2013-11-10T15:56:11.212Z</time>
      </trkpt>
      <trkpt lat="48.79372" lon="2.28431">
        <ele>167</ele>
        <time>2013-11-10T15:56:16.186Z</time>
      </trkpt>
      <trkpt lat="48.79374" lon="2.28432">
        <ele>167.4</ele>
        <time>2013-11-10T15:56:17.201Z</time>
      </trkpt>
      <trkpt lat="48.79381" lon="2.28441">
        <ele>169.6</ele>
        <time>2013-11-10T15:56:22.295Z</time>
      </trkpt>
      <trkpt lat="48.79381" lon="2.28443">
        <ele>170</ele>
        <time>2013-11-10T15:56:23.179Z</time>
      </trkpt>
      <trkpt lat="48.79388" lon="2.28449">
        <ele>171.6</ele>
        <time>2013-11-10T15:56:31.179Z</time>
      </trkpt>
      <trkpt lat="48.79389" lon="2.2845">
        <ele>171.6</ele>
        <time>2013-11-10T15:56:32.177Z</time>
      </trkpt>
      <trkpt lat="48.79397" lon="2.28456">
        <ele>171.7</ele>
        <time>2013-11-10T15:56:41.189Z</time>
      </trkpt>
      <trkpt lat="48.79398" lon="2.28456">
        <ele>171.6</ele>
        <time>2013-11-10T15:56:42.219Z</time>
      </trkpt>
      <trkpt lat="48.79407" lon="2.28455">
        <ele>170.4</ele>
        <time>2013-11-10T15:56:50.195Z</time>
      </trkpt>
      <trkpt lat="48.79408" lon="2.28455">
        <ele>170.3</ele>
        <time>2013-11-10T15:56:51.200Z</time>
      </trkpt>
      <trkpt lat="48.79415" lon="2.28447">
        <ele>168.3</ele>
        <time>2013-11-10T15:57:00.185Z</time>
      </trkpt>
      <trkpt lat="48.79415" lon="2.28446">
        <ele>168</ele>
        <time>2013-11-10T15:57:01.179Z</time>
      </trkpt>
      <trkpt lat="48.79423" lon="2.28444">
        <ele>167.1</ele>
        <time>2013-11-10T15:57:10.196Z</time>
      </trkpt>
      <trkpt lat="48.79425" lon="2.28444">
        <ele>167.1</ele>
        <time>2013-11-10T15:57:11.203Z</time>
      </trkpt>
      <trkpt lat="48.79433" lon="2.28445">
        <ele>166.6</ele>
        <time>2013-11-10T15:57:17.410Z</time>
      </trkpt>
      <trkpt lat="48.79434" lon="2.28446">
        <ele>166.6</ele>
        <time>2013-11-10T15:57:18.189Z</time>
      </trkpt>
      <trkpt lat="48.79442" lon="2.2845">
        <ele>166.3</ele>
        <time>2013-11-10T15:57:26.182Z</time>
      </trkpt>
      <trkpt lat="48.79443" lon="2.2845">
        <ele>166.3</ele>
        <time>2013-11-10T15:57:27.202Z</time>
      </trkpt>
      <trkpt lat="48.79451" lon="2.28454">
        <ele>165.9</ele>
        <time>2013-11-10T15:57:33.188Z</time>
      </trkpt>
      <trkpt lat="48.79452" lon="2.28455">
        <ele>165.8</ele>
        <time>2013-11-10T15:57:34.192Z</time>
      </trkpt>
      <trkpt lat="48.79461" lon="2.28457">
        <ele>165.3</ele>
        <time>2013-11-10T15:57:43.192Z</time>
      </trkpt>
      <trkpt lat="48.79462" lon="2.28457">
        <ele>165.3</ele>
        <time>2013-11-10T15:57:44.192Z</time>
      </trkpt>
      <trkpt lat="48.79469" lon="2.28459">
        <ele>165.4</ele>
        <time>2013-11-10T15:57:49.194Z</time>
      </trkpt>
      <trkpt lat="48.79471" lon="2.2846">
        <ele>165.4</ele>
        <time>2013-11-10T15:57:50.190Z</time>
      </trkpt>
      <trkpt lat="48.79479" lon="2.28463">
        <ele>165.2</ele>
        <time>2013-11-10T15:57:59.190Z</time>
      </trkpt>
      <trkpt lat="48.79481" lon="2.28463">
        <ele>165.3</ele>
        <time>2013-11-10T15:58:00.187Z</time>
      </trkpt>
      <trkpt lat="48.79488" lon="2.28467">
        <ele>165.7</ele>
        <time>2013-11-10T15:58:07.218Z</time>
      </trkpt>
      <trkpt lat="48.7949" lon="2.28468">
        <ele>165.7</ele>
        <time>2013-11-10T15:58:08.172Z</time>
      </trkpt>
      <trkpt lat="48.79498" lon="2.2847">
        <ele>166.2</ele>
        <time>2013-11-10T15:58:14.208Z</time>
      </trkpt>
      <trkpt lat="48.795" lon="2.28471">
        <ele>166.3</ele>
        <time>2013-11-10T15:58:15.193Z</time>
      </trkpt>
      <trkpt lat="48.79508" lon="2.28471">
        <ele>166.3</ele>
        <time>2013-11-10T15:58:22.369Z</time>
      </trkpt>
      <trkpt lat="48.7951" lon="2.28471">
        <ele>166.3</ele>
        <time>2013-11-10T15:58:23.198Z</time>
      </trkpt>
      <trkpt lat="48.79518" lon="2.28474">
        <ele>165.5</ele>
        <time>2013-11-10T15:58:32.391Z</time>
      </trkpt>
      <trkpt lat="48.7952" lon="2.28475">
        <ele>165.3</ele>
        <time>2013-11-10T15:58:33.192Z</time>
      </trkpt>
      <trkpt lat="48.79528" lon="2.28477">
        <ele>164.5</ele>
        <time>2013-11-10T15:58:40.203Z</time>
      </trkpt>
      <trkpt lat="48.79529" lon="2.28478">
        <ele>164.4</ele>
        <time>2013-11-10T15:58:41.214Z</time>
      </trkpt>
      <trkpt lat="48.79538" lon="2.28479">
        <ele>164.3</ele>
        <time>2013-11-10T15:58:48.211Z</time>
      </trkpt>
      <trkpt lat="48.79539" lon="2.28479">
        <ele>164.4</ele>
        <time>2013-11-10T15:58:49.185Z</time>
      </trkpt>
      <trkpt lat="48.79547" lon="2.2848">
        <ele>164.3</ele>
        <time>2013-11-10T15:58:55.210Z</time>
      </trkpt>
      <trkpt lat="48.79549" lon="2.2848">
        <ele>164.2</ele>
        <time>2013-11-10T15:58:56.187Z</time>
      </trkpt>
      <trkpt lat="48.79557" lon="2.28482">
        <ele>163.6</ele>
        <time>2013-11-10T15:59:02.200Z</time>
      </trkpt>
      <trkpt lat="48.79558" lon="2.28482">
        <ele>163.5</ele>
        <time>2013-11-10T15:59:03.206Z</time>
      </trkpt>
      <trkpt lat="48.79566" lon="2.28487">
        <ele>163.5</ele>
        <time>2013-11-10T15:59:11.188Z</time>
      </trkpt>
      <trkpt lat="48.79568" lon="2.28487">
        <ele>163.5</ele>
        <time>2013-11-10T15:59:12.179Z</time>
      </trkpt>
      <trkpt lat="48.79577" lon="2.28489">
        <ele>163.5</ele>
        <time>2013-11-10T15:59:18.200Z</time>
      </trkpt>
      <trkpt lat="48.79578" lon="2.28489">
        <ele>163.4</ele>
        <time>2013-11-10T15:59:19.199Z</time>
      </trkpt>
      <trkpt lat="48.79585" lon="2.28495">
        <ele>162.9</ele>
        <time>2013-11-10T15:59:28.205Z</time>
      </trkpt>
      <trkpt lat="48.79587" lon="2.28495">
        <ele>162.8</ele>
        <time>2013-11-10T15:59:29.200Z</time>
      </trkpt>
      <trkpt lat="48.79595" lon="2.28496">
        <ele>162.1</ele>
        <time>2013-11-10T15:59:35.194Z</time>
      </trkpt>
      <trkpt lat="48.79596" lon="2.28497">
        <ele>162.1</ele>
        <time>2013-11-10T15:59:36.206Z</time>
      </trkpt>
      <trkpt lat="48.79604" lon="2.28499">
        <ele>161.7</ele>
        <time>2013-11-10T15:59:42.288Z</time>
      </trkpt>
      <trkpt lat="48.79605" lon="2.285">
        <ele>161.6</ele>
        <time>2013-11-10T15:59:43.198Z</time>
      </trkpt>
      <trkpt lat="48.79614" lon="2.28503">
        <ele>161.4</ele>
        <time>2013-11-10T15:59:49.187Z</time>
      </trkpt>
      <trkpt lat="48.79615" lon="2.28504">
        <ele>161.3</ele>
        <time>2013-11-10T15:59:50.185Z</time>
      </trkpt>
      <trkpt lat="48.79623" lon="2.28507">
        <ele>161.8</ele>
        <time>2013-11-10T15:59:59.188Z</time>
      </trkpt>
      <trkpt lat="48.79625" lon="2.28508">
        <ele>161.8</ele>
        <time>2013-11-10T16:00:00.194Z</time>
      </trkpt>
      <trkpt lat="48.79631" lon="2.28516">
        <ele>162.4</ele>
        <time>2013-11-10T16:00:07.212Z</time>
      </trkpt>
      <trkpt lat="48.79633" lon="2.28518">
        <ele>162.4</ele>
        <time>2013-11-10T16:00:08.212Z</time>
      </trkpt>
      <trkpt lat="48.79641" lon="2.28523">
        <ele>162.2</ele>
        <time>2013-11-10T16:00:16.214Z</time>
      </trkpt>
      <trkpt lat="48.79643" lon="2.28524">
        <ele>162.2</ele>
        <time>2013-11-10T16:00:17.228Z</time>
      </trkpt>
      <trkpt lat="48.7965" lon="2.28529">
        <ele>161.9</ele>
        <time>2013-11-10T16:00:22.248Z</time>
      </trkpt>
      <trkpt lat="48.79651" lon="2.2853">
        <ele>161.7</ele>
        <time>2013-11-10T16:00:23.221Z</time>
      </trkpt>
      <trkpt lat="48.7966" lon="2.28529">
        <ele>160.8</ele>
        <time>2013-11-10T16:00:32.276Z</time>
      </trkpt>
      <trkpt lat="48.79661" lon="2.28529">
        <ele>160.7</ele>
        <time>2013-11-10T16:00:33.217Z</time>
      </trkpt>
      <trkpt lat="48.79668" lon="2.28521">
        <ele>160</ele>
        <time>2013-11-10T16:00:39.234Z</time>
      </trkpt>
      <trkpt lat="48.79669" lon="2.2852">
        <ele>159.9</ele>
        <time>2013-11-10T16:00:40.219Z</time>
      </trkpt>
      <trkpt lat="48.79675" lon="2.2851">
        <ele>158.7</ele>
        <time>2013-11-10T16:00:49.203Z</time>
      </trkpt>
      <trkpt lat="48.79676" lon="2.28509">
        <ele>158.6</ele>
        <time>2013-11-10T16:00:50.217Z</time>
      </trkpt>
      <trkpt lat="48.7968" lon="2.28498">
        <ele>158.2</ele>
        <time>2013-11-10T16:00:57.162Z</time>
      </trkpt>
      <trkpt lat="48.79681" lon="2.28496">
        <ele>158.1</ele>
        <time>2013-11-10T16:00:57.210Z</time>
      </trkpt>
      <trkpt lat="48.79687" lon="2.28487">
        <ele>157.6</ele>
        <time>2013-11-10T16:01:04.207Z</time>
      </trkpt>
      <trkpt lat="48.79688" lon="2.28485">
        <ele>157.6</ele>
        <time>2013-11-10T16:01:05.205Z</time>
      </trkpt>
      <trkpt lat="48.79694" lon="2.28478">
        <ele>158</ele>
        <time>2013-11-10T16:01:13.216Z</time>
      </trkpt>
      <trkpt lat="48.79696" lon="2.28478">
        <ele>158.1</ele>
        <time>2013-11-10T16:01:14.205Z</time>
      </trkpt>
      <trkpt lat="48.79703" lon="2.28471">
        <ele>158.7</ele>
        <time>2013-11-10T16:01:21.195Z</time>
      </trkpt>
      <trkpt lat="48.79704" lon="2.2847">
        <ele>158.8</ele>
        <time>2013-11-10T16:01:22.196Z</time>
      </trkpt>
      <trkpt lat="48.7971" lon="2.2846">
        <ele>159.8</ele>
        <time>2013-11-10T16:01:29.192Z</time>
      </trkpt>
      <trkpt lat="48.79711" lon="2.28459">
        <ele>160</ele>
        <time>2013-11-10T16:01:30.208Z</time>
      </trkpt>
      <trkpt lat="48.79718" lon="2.28452">
        <ele>161.1</ele>
        <time>2013-11-10T16:01:37.295Z</time>
      </trkpt>
      <trkpt lat="48.79719" lon="2.28451">
        <ele>161.3</ele>
        <time>2013-11-10T16:01:38.207Z</time>
      </trkpt>
      <trkpt lat="48.79727" lon="2.28447">
        <ele>162.3</ele>
        <time>2013-11-10T16:01:44.184Z</time>
      </trkpt>
      <trkpt lat="48.79728" lon="2.28446">
        <ele>162.5</ele>
        <time>2013-11-10T16:01:45.207Z</time>
      </trkpt>
      <trkpt lat="48.79735" lon="2.28438">
        <ele>163.5</ele>
        <time>2013-11-10T16:01:52.415Z</time>
      </trkpt>
      <trkpt lat="48.79736" lon="2.28437">
        <ele>163.7</ele>
        <time>2013-11-10T16:01:53.201Z</time>
      </trkpt>
      <trkpt lat="48.79742" lon="2.28429">
        <ele>164.7</ele>
        <time>2013-11-10T16:01:59.189Z</time>
      </trkpt>
      <trkpt lat="48.79743" lon="2.28428">
        <ele>164.9</ele>
        <time>2013-11-10T16:02:00.180Z</time>
      </trkpt>
      <trkpt lat="48.79749" lon="2.28418">
        <ele>165.3</ele>
        <time>2013-11-10T16:02:06.226Z</time>
      </trkpt>
      <trkpt lat="48.79749" lon="2.28417">
        <ele>165.3</ele>
        <time>2013-11-10T16:02:07.224Z</time>
      </trkpt>
      <trkpt lat="48.79752" lon="2.28407">
        <ele>165.4</ele>
        <time>2013-11-10T16:02:16.211Z</time>
      </trkpt>
      <trkpt lat="48.79752" lon="2.28404">
        <ele>165.4</ele>
        <time>2013-11-10T16:02:17.214Z</time>
      </trkpt>
      <trkpt lat="48.79752" lon="2.28391">
        <ele>165.4</ele>
        <time>2013-11-10T16:02:24.220Z</time>
      </trkpt>
      <trkpt lat="48.79753" lon="2.2839">
        <ele>165.4</ele>
        <time>2013-11-10T16:02:25.229Z</time>
      </trkpt>
      <trkpt lat="48.79758" lon="2.28379">
        <ele>165.7</ele>
        <time>2013-11-10T16:02:32.282Z</time>
      </trkpt>
      <trkpt lat="48.79759" lon="2.28377">
        <ele>165.7</ele>
        <time>2013-11-10T16:02:33.218Z</time>
      </trkpt>
      <trkpt lat="48.79764" lon="2.28366">
        <ele>165.5</ele>
        <time>2013-11-10T16:02:42.493Z</time>
      </trkpt>
      <trkpt lat="48.79765" lon="2.28365">
        <ele>165.5</ele>
        <time>2013-11-10T16:02:43.199Z</time>
      </trkpt>
      <trkpt lat="48.7977" lon="2.28357">
        <ele>165.4</ele>
        <time>2013-11-10T16:02:47.527Z</time>
      </trkpt>
      <trkpt lat="48.79771" lon="2.28355">
        <ele>165.3</ele>
        <time>2013-11-10T16:02:48.207Z</time>
      </trkpt>
      <trkpt lat="48.79777" lon="2.28346">
        <ele>164.2</ele>
        <time>2013-11-10T16:02:58.202Z</time>
      </trkpt>
      <trkpt lat="48.79778" lon="2.28345">
        <ele>164.1</ele>
        <time>2013-11-10T16:02:59.215Z</time>
      </trkpt>
      <trkpt lat="48.79781" lon="2.28334">
        <ele>163.7</ele>
        <time>2013-11-10T16:03:07.257Z</time>
      </trkpt>
      <trkpt lat="48.79782" lon="2.28331">
        <ele>163.6</ele>
        <time>2013-11-10T16:03:08.230Z</time>
      </trkpt>
      <trkpt lat="48.79788" lon="2.28321">
        <ele>163.1</ele>
        <time>2013-11-10T16:03:13.224Z</time>
      </trkpt>
      <trkpt lat="48.79789" lon="2.28319">
        <ele>163.1</ele>
        <time>2013-11-10T16:03:14.225Z</time>
      </trkpt>
      <trkpt lat="48.79796" lon="2.28312">
        <ele>163</ele>
        <time>2013-11-10T16:03:20.213Z</time>
      </trkpt>
      <trkpt lat="48.79797" lon="2.28311">
        <ele>163</ele>
        <time>2013-11-10T16:03:21.215Z</time>
      </trkpt>
      <trkpt lat="48.79804" lon="2.28303">
        <ele>162.3</ele>
        <time>2013-11-10T16:03:31.226Z</time>
      </trkpt>
      <trkpt lat="48.79805" lon="2.28303">
        <ele>162.4</ele>
        <time>2013-11-10T16:03:32.207Z</time>
      </trkpt>
      <trkpt lat="48.79813" lon="2.28298">
        <ele>163</ele>
        <time>2013-11-10T16:03:37.271Z</time>
      </trkpt>
      <trkpt lat="48.79813" lon="2.28295">
        <ele>163.3</ele>
        <time>2013-11-10T16:03:38.225Z</time>
      </trkpt>
      <trkpt lat="48.79816" lon="2.28282">
        <ele>164.5</ele>
        <time>2013-11-10T16:03:42.289Z</time>
      </trkpt>
      <trkpt lat="48.79817" lon="2.2828">
        <ele>164.8</ele>
        <time>2013-11-10T16:03:43.221Z</time>
      </trkpt>
      <trkpt lat="48.79822" lon="2.2827">
        <ele>166.9</ele>
        <time>2013-11-10T16:03:48.224Z</time>
      </trkpt>
      <trkpt lat="48.79822" lon="2.28268">
        <ele>167.2</ele>
        <time>2013-11-10T16:03:49.216Z</time>
      </trkpt>
      <trkpt lat="48.79817" lon="2.28258">
        <ele>167.5</ele>
        <time>2013-11-10T16:03:57.700Z</time>
      </trkpt>
      <trkpt lat="48.79816" lon="2.28257">
        <ele>167.3</ele>
        <time>2013-11-10T16:03:58.204Z</time>
      </trkpt>
      <trkpt lat="48.79808" lon="2.28251">
        <ele>166.7</ele>
        <time>2013-11-10T16:04:05.201Z</time>
      </trkpt>
      <trkpt lat="48.79808" lon="2.2825">
        <ele>166.6</ele>
        <time>2013-11-10T16:04:06.214Z</time>
      </trkpt>
      <trkpt lat="48.79801" lon="2.28243">
        <ele>166</ele>
        <time>2013-11-10T16:04:16.199Z</time>
      </trkpt>
      <trkpt lat="48.798" lon="2.28242">
        <ele>165.9</ele>
        <time>2013-11-10T16:04:17.215Z</time>
      </trkpt>
      <trkpt lat="48.79797" lon="2.2824">
        <ele>165.6</ele>
        <time>2013-11-10T16:04:22.253Z</time>
      </trkpt>
    </trkseg>
  </trk>
</gpx>